# Wetter Temperatur Luftdruck Luftfeuchtigkeit Sichtweite Windgeschwindigkeit Windrichtung Zeit
1 Rain 14 1016 87 16093 0.92 296.09 13:21 14.10.2019
2 Clouds 14 1016 82 16093 0.92 296.09 12:42 14.10.2019
3 Clouds 14 1016 87 16093 1.5 0 12:21 14.10.2019
4 Clouds 14 1016 87 16093 1.5 0 12:21 14.10.2019
5 Clouds 13 1015 87 16093 2.6 160 11:59 14.10.2019
6 Clouds 14 1016 87 16093 0.98 180.352 11:41 14.10.2019
7 Clouds 14 1015 82 16093 1.5 110 11:22 14.10.2019
8 Clouds 14 1015 82 16093 1.5 190 10:44 14.10.2019
9 Clouds 14 1015 82 16093 1.5 190 10:23 14.10.2019
10 Clouds 14 1015 77 16093 1.5 280 10:00 14.10.2019
11 Clouds 15 1015 100 16093 1.5 120 09:41 14.10.2019
12 Clouds 14 1015 100 16093 1.5 120 09:20 14.10.2019
13 Clouds 14 1015 82 16093 1.5 200 08:49 14.10.2019
14 Clouds 14 1015 77 16093 3.6 160 08:23 14.10.2019
15 Clouds 15 1017 77 16093 1.1 199.671 07:47 14.10.2019
16 Clouds 15 1016 82 16093 1.1 199.671 07:24 14.10.2019
17 -273 0 0 0 0 0 06:57 14.10.2019
18 Clouds 15 1016 82 16093 1.1 199.671 06:28 14.10.2019
19 Clouds 15 1017 82 16093 1.77 180.55 05:55 14.10.2019
20 Rain 15 1017 82 16093 1.77 180.55 05:25 14.10.2019
21 Clouds 15 1017 72 16093 1.77 180.55 03:50 14.10.2019
22 Clouds 15 1017 72 16093 1.58 161.703 03:23 14.10.2019
23 Clouds 15 1018 59 16093 1.5 0 02:25 14.10.2019
24 Clouds 15 1018 59 16093 1.7 163.107 01:19 14.10.2019
25 Clouds 16 1018 59 16093 1.7 163.107 00:42 14.10.2019
26 Clear 16 1018 55 16093 1.43 166.168 00:18 14.10.2019
27 Clear 17 1017 42 16093 1.43 166.168 23:40 13.10.2019
28 Clear 18 1018 52 16093 2.1 230 23:19 13.10.2019
29 Clouds 18 1018 45 16093 1.43 166.168 23:19 13.10.2019
30 Clouds 18 1018 59 16093 4.1 200 22:57 13.10.2019
31 Clouds 18 1017 32 16093 3.1 90 22:57 13.10.2019
32 Clouds 18 1018 45 16093 1.43 166.168 22:39 13.10.2019
33 Clear 18 1019 39 16093 1.5 60 22:20 13.10.2019
34 Clouds 18 1018 45 16093 1.43 166.168 22:20 13.10.2019
35 Clouds 18 1018 32 16093 3.6 60 21:57 13.10.2019
36 Clouds 18 1018 42 16093 1.43 166.168 21:36 13.10.2019
37 Clouds 18 1019 34 16093 0.96 140.225 21:18 13.10.2019
38 Clouds 18 1018 39 16093 2.6 70 20:56 13.10.2019
39 Clouds 18 1019 42 16093 1.08 189.094 20:37 13.10.2019
40 Clear 18 1019 42 16093 2.1 240 20:19 13.10.2019
41 -273 0 0 0 0 0 19:55 13.10.2019
42 Clear 18 1019 45 16093 1.08 189.094 19:36 13.10.2019
43 Clear 17 1020 45 16093 2.6 60 19:18 13.10.2019
44 Clouds 17 1019 55 16093 2.6 0 18:54 13.10.2019
45 Clear 17 1020 45 16093 1.08 189.094 18:36 13.10.2019
46 Clouds 16 1021 55 16093 2.1 0 18:18 13.10.2019
47 Clear 16 1020 51 16093 1.43 340.209 17:42 13.10.2019
48 Clear 16 1020 51 16093 1.43 340.209 17:42 13.10.2019
49 Clear 15 1021 62 16093 1.5 0 17:24 13.10.2019
50 Clear 15 1020 62 16093 1.43 340.209 16:45 13.10.2019
51 Clouds 14 1021 67 16093 1.43 340.209 16:20 13.10.2019
52 Clouds 14 1020 58 16093 3.1 30 15:59 13.10.2019
53 Clouds 14 1020 58 16093 3.1 30 15:59 13.10.2019
54 Clouds 13 1020 76 16093 1.5 0 15:39 13.10.2019
55 Clouds 13 1020 76 16093 1.5 0 15:21 13.10.2019
56 Clouds 12 1020 62 16093 4.1 10 14:59 13.10.2019
57 Clear 12 1020 76 16093 1.9 335.105 14:40 13.10.2019
58 Clouds 11 1019 76 16093 2.1 350 14:22 13.10.2019
59 Clouds 11 1019 71 16093 3.6 20 13:59 13.10.2019
60 Clear 10 1019 87 16093 1.9 335.105 13:38 13.10.2019
61 Clear 10 1019 87 16093 1.9 335.105 13:38 13.10.2019
62 Clear 10 1019 76 16093 1.88 330.892 13:20 13.10.2019
63 Clouds 10 1019 93 16093 3.1 320 12:56 13.10.2019
64 Clear 11 1018 87 16093 1.88 330.892 12:38 13.10.2019
65 Clear 11 1019 81 16093 2.1 300 12:19 13.10.2019
66 Clear 11 1018 87 16093 2.05 325.086 11:58 13.10.2019
67 Clear 11 1018 87 16093 2.05 325.086 11:38 13.10.2019
68 Clear 11 1018 76 16093 2.05 325.086 11:19 13.10.2019
69 Clear 12 1017 87 16093 2.05 325.086 10:42 13.10.2019
70 Clear 12 1017 87 16093 2.05 325.086 10:23 13.10.2019
71 Clear 12 1017 87 16093 2.05 325.086 10:23 13.10.2019
72 Clear 12 1017 81 16093 2.05 325.086 09:57 13.10.2019
73 Clear 12 1017 81 16093 2.05 325.086 09:38 13.10.2019
74 Clear 12 1017 71 16093 2.6 0 09:19 13.10.2019
75 Clear 13 1017 76 16093 3.23 325.39 08:43 13.10.2019
76 Clear 13 1016 72 16093 3.23 325.39 08:23 13.10.2019
77 Clouds 13 1016 77 16093 5.1 320 07:50 13.10.2019
78 Clear 14 1016 76 16093 3.23 325.39 07:30 13.10.2019
79 Clear 14 1016 71 16093 3.23 325.39 06:48 13.10.2019
80 Clouds 15 1015 59 16093 5.7 290 05:57 13.10.2019
81 Clear 15 1016 67 16093 3.7 309.998 04:59 13.10.2019
82 Clear 15 1016 67 16093 3.7 309.998 04:33 13.10.2019
83 Clouds 16 1015 72 16093 5.1 240 02:50 13.10.2019
84 Clear 17 1015 55 16093 2.88 285.322 02:25 13.10.2019
85 Clear 17 1015 52 16093 5.1 290 01:34 13.10.2019
86 Clouds 18 1014 72 16093 1.5 170 00:53 13.10.2019
87 Clouds 19 1014 63 16093 1.5 240 00:23 13.10.2019
88 Clouds 19 1013 49 16093 2.29 272.654 23:59 12.10.2019
89 Clear 19 1014 46 16093 4.6 300 23:40 12.10.2019
90 Clear 20 1014 46 16093 4.6 300 23:22 12.10.2019
91 Clouds 20 1013 52 16093 2.29 272.654 22:58 12.10.2019
92 Clouds 20 1013 52 16093 2.29 272.654 22:58 12.10.2019
93 Clouds 20 1014 52 16093 2.1 180 22:40 12.10.2019
94 Clear 20 1014 55 16093 2.29 272.654 22:22 12.10.2019
95 Clouds 20 1013 45 16093 2.29 272.654 21:57 12.10.2019
96 Clear 20 1014 49 16093 2.29 272.654 21:39 12.10.2019
97 Clear 20 1014 52 16093 1.69 305.482 21:20 12.10.2019
98 Clear 19 1015 59 16093 1.5 140 20:46 12.10.2019
99 Clear 19 1015 59 16093 1.5 140 20:28 12.10.2019
100 Clouds 19 1014 55 16093 2.6 350 19:56 12.10.2019
101 Clouds 19 1015 67 16093 3.6 310 19:36 12.10.2019
102 Clouds 18 1016 59 16093 1.72 281.14 19:18 12.10.2019
103 Clear 17 1016 59 16093 1.72 281.14 18:42 12.10.2019
104 Clouds 16 1016 67 16093 1.5 0 18:24 12.10.2019
105 Clear 15 1016 59 16093 1.6 11.802 17:46 12.10.2019
106 Clouds 15 1016 71 16093 3.6 40 17:21 12.10.2019
107 Clouds 15 1016 67 16093 3.1 10 16:58 12.10.2019
108 Clear 14 1016 62 16093 1.6 11.802 16:40 12.10.2019
109 Clouds 14 1017 67 16093 1.5 0 16:20 12.10.2019
110 Clouds 14 1016 67 16093 4.1 350 15:56 12.10.2019
111 Clouds 14 1016 67 16093 2.6 360 15:37 12.10.2019
112 Clouds 13 1017 71 16093 2 12.135 15:18 12.10.2019
113 Clouds 13 1016 71 16093 2 12.135 14:39 12.10.2019
114 Clouds 13 1016 71 16093 1.5 0 14:20 12.10.2019
115 Clouds 12 1016 71 16093 2 12.135 13:50 12.10.2019
116 Clouds 12 1016 71 16093 1.8 357.839 13:32 12.10.2019
117 Clouds 12 1015 71 16093 3.6 360 12:55 12.10.2019
118 Clouds 13 1015 66 16093 1.8 357.839 12:37 12.10.2019
119 Clouds 13 1016 71 16093 3.6 30 12:19 12.10.2019
120 Clouds 13 1015 66 16093 2.6 50 11:43 12.10.2019
121 Clouds 13 1015 66 16093 2.6 50 11:43 12.10.2019
122 Clouds 13 1016 71 16093 2.1 60 11:22 12.10.2019
123 Clouds 13 1015 71 16093 3.6 20 10:58 12.10.2019
124 Clouds 13 1015 62 16093 3.1 30 10:39 12.10.2019
125 Clouds 13 1016 66 16093 3.1 0 10:20 12.10.2019
126 Clouds 13 1015 62 16093 3.6 10 09:57 12.10.2019
127 Clouds 13 1016 58 16093 2.6 30 09:37 12.10.2019
128 Clouds 13 1017 62 16093 2.6 0 09:19 12.10.2019
129 Clouds 13 1016 62 16093 5.7 20 08:44 12.10.2019
130 Clouds 13 1016 58 16093 2.6 30 08:23 12.10.2019
131 Clouds 13 1016 76 16093 4.6 10 07:50 12.10.2019
132 Clear 13 1017 58 16093 3.6 50 07:30 12.10.2019
133 Clouds 14 1017 54 16093 5.7 50 06:27 12.10.2019
134 Clouds 14 1018 54 16093 4.6 50 05:42 12.10.2019
135 Clouds 15 1018 55 16093 4.6 70 04:34 12.10.2019
136 Clouds 15 1018 67 16093 7.2 30 03:53 12.10.2019
137 Clouds 15 1018 48 16093 6.7 60 02:45 12.10.2019
138 Clouds 16 1019 48 16093 5.1 50 01:32 12.10.2019
139 Clouds 16 1018 63 16093 7.2 20 00:55 12.10.2019
140 Clouds 16 1019 51 16093 5.1 40 00:37 12.10.2019
141 Clouds 17 1018 42 16093 5.1 50 23:55 11.10.2019
142 Clouds 17 1018 42 16093 5.1 50 23:36 11.10.2019
143 Clouds 17 1019 48 16093 3.6 20 23:18 11.10.2019
144 Clouds 17 1018 45 16093 5.7 50 22:38 11.10.2019
145 Clouds 17 1019 48 16093 3.1 0 22:19 11.10.2019
146 Clouds 17 1019 55 16093 6.2 40 21:43 11.10.2019
147 Clouds 17 1019 63 16093 5.7 20 21:22 11.10.2019
148 Clouds 17 1018 51 16093 8.2 10 20:57 11.10.2019
149 Clouds 17 1018 51 16093 8.2 10 20:57 11.10.2019
150 Clouds 17 1019 48 16093 6.7 60 20:39 11.10.2019
151 Clouds 17 1020 51 16093 5.1 40 20:20 11.10.2019
152 Clouds 17 1019 48 16093 9.3 30 19:55 11.10.2019
153 Clouds 17 1019 45 16093 6.2 50 19:37 11.10.2019
154 Clouds 17 1019 45 16093 6.2 50 19:37 11.10.2019
155 Clouds 17 1020 51 16093 4.1 20 19:18 11.10.2019
156 Clouds 17 1020 51 16093 4.1 20 19:18 11.10.2019
157 Clouds 17 1020 51 16093 4.1 20 19:18 11.10.2019
158 Clouds 17 1019 48 16093 6.7 30 18:56 11.10.2019
159 Clouds 17 1020 42 16093 7.7 60 18:37 11.10.2019
160 Clouds 16 1020 51 16093 7.7 50 18:18 11.10.2019
161 Clouds 16 1020 51 16093 8.7 40 17:57 11.10.2019
162 Clouds 16 1020 39 16093 7.2 50 17:37 11.10.2019
163 Clouds 16 1021 41 16093 5.7 50 17:18 11.10.2019
164 Clouds 15 1020 36 16093 2.6 50 16:42 11.10.2019
165 Clouds 15 1020 36 16093 2.6 50 16:21 11.10.2019
166 Clouds 15 1020 47 16093 6.7 10 15:59 11.10.2019
167 Clouds 14 1021 50 16093 2.6 0 15:39 11.10.2019
168 Clouds 14 1021 50 16093 2.6 0 15:19 11.10.2019
169 Clear 13 1021 44 16093 3.6 20 14:48 11.10.2019
170 Clear 13 1021 44 16093 3.6 20 14:29 11.10.2019
171 Clouds 12 1021 50 16093 6.2 20 13:57 11.10.2019
172 Clear 12 1021 43 16093 4.1 30 13:39 11.10.2019
173 Clear 12 1021 50 16093 4.1 40 13:21 11.10.2019
174 Clear 12 1021 50 16093 4.1 40 13:21 11.10.2019
175 Clear 12 1021 74 16093 3.1 30 12:56 11.10.2019
176 Clear 12 1021 74 16093 3.1 30 12:38 11.10.2019
177 Clear 13 1021 50 16093 2.6 0 12:19 11.10.2019
178 Clear 13 1021 60 16093 3.6 20 11:41 11.10.2019
179 Clear 13 1021 60 16093 3.6 20 11:41 11.10.2019
180 Clear 13 1020 50 16093 1.5 0 11:22 11.10.2019
181 Clouds 13 1020 50 16093 5.7 10 10:59 11.10.2019
182 Clouds 13 1020 50 16093 5.7 10 10:59 11.10.2019
183 Clear 13 1020 60 16093 4.6 30 10:41 11.10.2019
184 Clear 13 1021 43 16093 3.6 50 10:23 11.10.2019
185 Clouds 13 1020 44 16093 4.6 20 09:56 11.10.2019
186 Clear 13 1021 64 16093 4.6 50 09:37 11.10.2019
187 Clear 13 1021 64 16093 4.6 50 09:37 11.10.2019
188 Clouds 14 1022 41 16093 3.1 0 09:19 11.10.2019
189 Clouds 14 1021 44 16093 7.7 20 08:55 11.10.2019
190 Clouds 14 1021 66 16093 4.1 50 08:37 11.10.2019
191 Clear 14 1022 41 16093 4.1 30 08:19 11.10.2019
192 Clouds 14 1022 33 16093 5.1 50 07:44 11.10.2019
193 Clouds 14 1022 33 16093 5.1 50 07:44 11.10.2019
194 Clouds 15 1023 66 16093 3.1 0 07:25 11.10.2019
195 Clouds 15 1022 31 16093 6.2 50 06:49 11.10.2019
196 Clouds 15 1022 44 16093 5.1 30 06:24 11.10.2019
197 Clouds 15 1022 29 16093 7.7 60 05:41 11.10.2019
198 Clouds 15 1023 31 16093 4.1 30 05:20 11.10.2019
199 Clouds 16 1022 39 16093 7.7 30 04:28 11.10.2019
200 Clouds 17 1021 24 16093 5.7 50 02:41 11.10.2019
201 Clouds 18 1022 39 16093 7.2 40 00:52 11.10.2019
202 Rain 19 1022 32 16093 4.6 40 00:29 11.10.2019
203 Clouds 20 1022 32 16093 3.6 360 23:48 10.10.2019
204 Clouds 20 1022 32 16093 3.6 360 23:23 10.10.2019
205 Clouds 20 1021 28 16093 8.2 20 22:58 10.10.2019
206 Clear 21 1021 28 16093 4.6 40 22:40 10.10.2019
207 Clear 21 1022 32 16093 4.6 360 22:21 10.10.2019
208 Clear 21 1022 32 16093 4.6 360 22:21 10.10.2019
209 Clear 21 1022 32 16093 4.6 360 22:21 10.10.2019
210 Clouds 21 1021 28 16093 8.7 360 21:59 10.10.2019
211 Clear 21 1021 30 16093 5.7 360 21:40 10.10.2019
212 Clear 21 1021 30 16093 5.7 360 21:22 10.10.2019
213 Clouds 20 1021 35 16093 8.2 360 20:57 10.10.2019
214 Clouds 20 1023 42 16093 3.6 30 20:39 10.10.2019
215 Clouds 20 1023 42 16093 3.6 30 20:19 10.10.2019
216 Clouds 20 1023 42 16093 3.6 30 20:19 10.10.2019
217 Clouds 20 1022 32 16093 5.7 40 19:55 10.10.2019
218 Clouds 19 1022 32 16093 5.7 40 19:37 10.10.2019
219 Clouds 19 1023 37 16093 9.3 20 19:19 10.10.2019
220 Clouds 18 1023 34 16093 5.7 30 18:42 10.10.2019
221 Clouds 18 1024 48 16093 5.1 30 18:20 10.10.2019
222 Clouds 17 1023 42 16093 8.2 10 17:57 10.10.2019
223 Clouds 17 1023 36 16093 5.1 50 17:37 10.10.2019
224 Clouds 17 1024 48 16093 3.1 0 17:18 10.10.2019
225 Clouds 17 1024 48 16093 3.1 0 17:18 10.10.2019
226 Clouds 16 1023 45 16093 7.2 350 16:54 10.10.2019
227 Clouds 16 1023 42 16093 4.6 10 16:36 10.10.2019
228 Clouds 16 1024 51 16093 3.6 10 16:18 10.10.2019
229 Clouds 14 1024 51 16093 5.1 30 15:39 10.10.2019
230 Clear 14 1025 58 16093 4.1 50 15:21 10.10.2019
231 Clouds 14 1024 58 16093 4.6 40 14:56 10.10.2019
232 Clouds 13 1024 58 16093 4.6 40 14:37 10.10.2019
233 Clouds 13 1024 66 16093 5.1 30 14:19 10.10.2019
234 Clouds 13 1023 66 16093 6.7 20 13:55 10.10.2019
235 Clouds 13 1023 62 16093 3.1 40 13:37 10.10.2019
236 Clouds 13 1024 66 16093 5.34 14.869 13:18 10.10.2019
237 Clouds 12 1024 71 16093 4.6 360 12:42 10.10.2019
238 Clouds 12 1023 66 16093 7.7 20 12:21 10.10.2019
239 Clouds 12 1023 66 16093 6.2 10 11:58 10.10.2019
240 Clouds 12 1024 66 16093 4.1 40 11:40 10.10.2019
241 Clouds 12 1025 71 16093 2.1 0 11:19 10.10.2019
242 Clouds 12 1024 66 16093 3.6 30 10:47 10.10.2019
243 Clouds 12 1024 66 16093 3.6 30 10:28 10.10.2019
244 Clouds 12 1023 71 16093 5.1 360 09:59 10.10.2019
245 Clouds 12 1024 71 16093 3.6 350 09:41 10.10.2019
246 Clouds 12 1025 66 16093 5.1 20 09:23 10.10.2019
247 Drizzle 12 1023 71 16093 5.1 360 08:59 10.10.2019
248 Drizzle 12 1023 71 16093 5.1 360 08:59 10.10.2019
249 Drizzle 12 1024 71 16093 3.6 20 08:39 10.10.2019
250 Drizzle 12 1025 71 16093 2.6 0 08:20 10.10.2019
251 Rain 12 1024 76 16093 6.2 10 07:47 10.10.2019
252 Rain 12 1024 76 16093 6.2 10 07:26 10.10.2019
253 Rain 11 1024 76 16093 5.7 10 06:55 10.10.2019
254 Rain 12 1025 71 16093 3.1 50 06:36 10.10.2019
255 Rain 12 1026 76 16093 4.1 30 05:50 10.10.2019
256 Rain 12 1026 76 16093 3.6 20 05:19 10.10.2019
257 Rain 12 1025 71 16093 5.1 50 04:35 10.10.2019
258 Rain 12 1025 76 16093 3.1 50 02:29 10.10.2019
259 Clouds 12 1024 71 16093 4.1 50 01:37 10.10.2019
260 Clouds 12 1025 81 16093 4.1 40 01:18 10.10.2019
261 Clouds 12 1025 81 16093 4.1 40 01:18 10.10.2019
262 Clouds 12 1024 76 16093 6.2 30 00:39 10.10.2019
263 Rain 12 1024 76 16093 5.7 20 23:55 09.10.2019
264 Rain 12 1025 76 16093 5.1 20 23:36 09.10.2019
265 Rain 13 1025 81 16093 4.6 40 23:18 09.10.2019
266 Rain 13 1025 81 16093 4.6 40 23:18 09.10.2019
267 Rain 13 1024 82 16093 5.1 50 22:41 09.10.2019
268 Rain 13 1025 81 16093 3.1 0 22:22 09.10.2019
269 Rain 13 1024 76 16093 7.2 30 21:58 09.10.2019
270 Rain 13 1024 82 8047 5.1 50 21:39 09.10.2019
271 Rain 13 1025 87 16093 5.7 20 21:19 09.10.2019
272 Rain 12 1024 76 16093 6.7 20 20:55 09.10.2019
273 Rain 12 1025 87 11265 3.6 40 20:37 09.10.2019
274 Rain 12 1025 93 8047 3.6 40 20:18 09.10.2019
275 Rain 12 1025 93 8047 3.6 40 20:18 09.10.2019
276 Rain 12 1025 93 8047 3.6 40 20:18 09.10.2019
277 Rain 12 1025 87 4828 6.2 30 19:45 09.10.2019
278 Rain 12 1025 87 4828 6.2 30 19:23 09.10.2019
279 Rain 12 1025 81 4023 8.2 30 18:58 09.10.2019
280 Rain 11 1025 93 4023 6.7 30 18:37 09.10.2019
281 Rain 12 1026 93 2012 4.1 40 18:18 09.10.2019
282 Rain 12 1026 81 16093 5.1 40 17:55 09.10.2019
283 Rain 12 1026 81 3219 4.1 20 17:36 09.10.2019
284 Rain 12 1027 87 3219 7.7 40 17:18 09.10.2019
285 Rain 13 1027 87 4023 5.7 50 16:40 09.10.2019
286 Rain 13 1027 71 12874 6.2 60 16:22 09.10.2019
287 Rain 13 1026 76 6437 10.3 60 15:58 09.10.2019
288 Rain 13 1026 62 16093 5.7 50 15:39 09.10.2019
289 Rain 13 1026 62 16093 5.7 50 15:39 09.10.2019
290 Rain 14 1026 62 16093 3.6 50 15:20 09.10.2019
291 Rain 14 1025 76 16093 9.8 50 14:58 09.10.2019
292 Clouds 14 1024 58 16093 3.6 40 14:39 09.10.2019
293 Clouds 14 1025 62 16093 7.2 50 14:18 09.10.2019
294 Clouds 14 1025 62 16093 4.1 50 13:40 09.10.2019
295 Clouds 14 1025 62 16093 4.1 50 13:21 09.10.2019
296 Clouds 14 1024 58 16093 5.1 20 12:59 09.10.2019
297 Clouds 14 1023 62 16093 4.6 60 12:40 09.10.2019
298 Clouds 14 1024 62 16093 4.1 50 12:21 09.10.2019
299 Clouds 14 1023 62 16093 6.7 40 11:55 09.10.2019
300 Clouds 14 1023 58 16093 6.2 60 11:37 09.10.2019
301 Clouds 14 1024 62 16093 4.6 50 11:19 09.10.2019
302 Rain 14 1023 71 16093 2.6 10 10:43 09.10.2019
303 Rain 14 1023 71 16093 2.6 10 10:43 09.10.2019
304 Rain 14 1023 63 16093 6.7 30 10:21 09.10.2019
305 Rain 14 1023 62 16093 6.7 30 09:59 09.10.2019
306 Rain 14 1023 58 16093 4.6 30 09:40 09.10.2019
307 Rain 14 1023 58 16093 4.6 30 09:40 09.10.2019
308 Rain 14 1023 58 16093 4.6 30 09:40 09.10.2019
309 Rain 14 1023 63 16093 5.7 20 09:19 09.10.2019
310 Clouds 14 1023 58 16093 3.1 40 08:41 09.10.2019
311 Clouds 15 1023 58 16093 3.1 40 08:23 09.10.2019
312 Clouds 15 1023 63 16093 8.2 40 07:58 09.10.2019
313 Clouds 15 1023 62 16093 3.6 40 07:39 09.10.2019
314 Clouds 15 1023 63 16093 6.7 40 07:20 09.10.2019
315 Clouds 15 1023 62 16093 3.6 40 06:51 09.10.2019
316 Clouds 15 1023 63 16093 6.7 30 05:56 09.10.2019
317 Clouds 15 1024 63 16093 4.6 40 05:37 09.10.2019
318 Clouds 15 1023 63 16093 4.6 40 04:25 09.10.2019
319 Clouds 15 1023 55 16093 8.7 40 02:53 09.10.2019
320 Clouds 15 1023 51 16093 4.6 50 01:43 09.10.2019
321 Clear 16 1024 48 16093 3.6 50 01:20 09.10.2019
322 Clouds 16 1023 48 16093 6.7 40 00:57 09.10.2019
323 Clouds 16 1023 48 16093 4.6 50 00:38 09.10.2019
324 Clouds 17 1024 55 16093 4.1 40 00:20 09.10.2019
325 Clouds 17 1023 48 16093 4.1 50 23:39 08.10.2019
326 Clouds 17 1023 59 16093 5.1 40 23:19 08.10.2019
327 Clouds 17 1023 52 16093 6.2 40 22:57 08.10.2019
328 Clouds 17 1023 51 16093 3.84 28.624 22:38 08.10.2019
329 Clouds 17 1024 59 16093 2.6 0 22:19 08.10.2019
330 Clouds 17 1023 52 16093 6.2 30 21:57 08.10.2019
331 Clouds 17 1023 51 16093 3.6 40 21:39 08.10.2019
332 Clouds 17 1023 51 16093 3.6 40 21:39 08.10.2019
333 Clouds 17 1024 55 16093 2.6 0 21:19 08.10.2019
334 Clouds 17 1023 52 16093 5.1 30 20:56 08.10.2019
335 Clouds 17 1023 51 16093 3.88 34.525 20:38 08.10.2019
336 Clouds 17 1024 55 16093 4.1 40 20:20 08.10.2019
337 Clouds 17 1024 48 16093 3.1 40 19:58 08.10.2019
338 Clouds 17 1024 48 16093 3.1 40 19:40 08.10.2019
339 Clouds 17 1025 55 16093 3.1 0 19:21 08.10.2019
340 Clouds 16 1024 51 16093 6.2 60 18:55 08.10.2019
341 Clouds 16 1024 51 16093 6.2 60 18:36 08.10.2019
342 Clouds 16 1025 59 16093 4.1 40 18:18 08.10.2019
343 Clouds 16 1025 63 16093 4.6 40 17:40 08.10.2019
344 Clouds 16 1025 63 16093 3.6 40 17:21 08.10.2019
345 Clouds 15 1024 59 16093 4.6 40 16:59 08.10.2019
346 Clouds 15 1025 67 16093 4.6 50 16:40 08.10.2019
347 Clouds 15 1026 67 16093 3.6 30 16:21 08.10.2019
348 Rain 15 1025 77 16093 4.6 50 15:41 08.10.2019
349 Rain 14 1025 77 16093 3.6 50 15:22 08.10.2019
350 Rain 14 1025 77 16093 3.6 50 15:22 08.10.2019
351 Rain 14 1024 72 16093 5.7 40 14:59 08.10.2019
352 Rain 14 1024 77 16093 1.5 40 14:41 08.10.2019
353 Rain 14 1025 82 16093 3.1 0 14:21 08.10.2019
354 Rain 14 1024 72 16093 3.6 20 13:57 08.10.2019
355 Rain 14 1024 87 16093 1.9 16.823 13:39 08.10.2019
356 Rain 14 1024 87 16093 1.9 16.823 13:20 08.10.2019
357 Rain 14 1023 77 16093 3.1 20 12:59 08.10.2019
358 Rain 14 1024 82 16093 2.2 25.666 12:38 08.10.2019
359 Clouds 14 1024 82 16093 2.6 30 12:19 08.10.2019
360 Clouds 14 1023 87 16093 2.1 50 11:43 08.10.2019
361 Clouds 14 1023 87 16093 2.1 50 11:24 08.10.2019
362 Rain 14 1023 82 16093 3.6 360 10:59 08.10.2019
363 Rain 14 1024 87 16093 4.1 30 10:40 08.10.2019
364 Rain 14 1022 87 16093 3.1 20 10:20 08.10.2019
365 Rain 14 1022 77 16093 4.6 20 09:58 08.10.2019
366 Rain 15 1023 93 16093 3.6 40 09:39 08.10.2019
367 Rain 15 1023 93 6437 3.1 30 09:20 08.10.2019
368 Rain 15 1023 93 9656 3.1 20 08:43 08.10.2019
369 Rain 15 1023 93 16093 3.6 50 08:25 08.10.2019
370 Rain 15 1022 87 16093 3.6 360 07:46 08.10.2019
371 Rain 15 1023 87 6437 3.1 0 07:23 08.10.2019
372 Rain 15 1022 87 16093 5.1 10 06:57 08.10.2019
373 Rain 15 1023 87 6437 1.5 0 06:34 08.10.2019
374 Rain 15 1022 87 8047 4.6 30 05:57 08.10.2019
375 Rain 15 1022 87 8047 4.6 30 05:57 08.10.2019
376 Rain 16 1022 82 16093 4.6 50 05:38 08.10.2019
377 Rain 16 1022 87 4828 4.1 20 05:38 08.10.2019
378 Rain 16 1021 93 6437 4.1 30 04:42 08.10.2019
379 Rain 17 1021 88 11265 4.1 20 03:30 08.10.2019
380 Rain 19 1019 82 16093 7.2 330 02:40 08.10.2019
381 Rain 21 1019 83 8047 4.6 320 01:51 08.10.2019
382 Clouds 21 1018 64 16093 3.66 350.353 01:32 08.10.2019
383 Clouds 22 1018 64 16093 4.1 200 00:55 08.10.2019
384 Clouds 22 1019 73 16093 2.1 0 00:22 08.10.2019
385 Clouds 23 1018 44 16093 2.1 210 23:43 07.10.2019
386 Clouds 23 1019 73 16093 2.1 0 23:21 07.10.2019
387 Clouds 24 1018 44 16093 3.27 239.692 22:58 07.10.2019
388 Clouds 24 1018 44 16093 3.27 239.692 22:58 07.10.2019
389 Clouds 24 1018 44 16093 3.27 239.692 22:40 07.10.2019
390 Clouds 24 1018 44 16093 3.27 239.692 22:21 07.10.2019
391 Clouds 24 1018 61 16093 7.7 170 21:59 07.10.2019
392 Clouds 25 1018 42 16093 1.5 220 21:40 07.10.2019
393 Clouds 25 1019 50 16093 1.5 0 21:20 07.10.2019
394 Clouds 25 1018 57 16093 7.2 150 20:58 07.10.2019
395 Clouds 25 1018 44 16093 2.1 270 20:39 07.10.2019
396 Clouds 25 1018 44 16093 2.1 270 20:39 07.10.2019
397 Clouds 25 1018 44 16093 2.1 270 20:39 07.10.2019
398 Clouds 24 1020 53 16093 1.5 0 20:21 07.10.2019
399 Clouds 24 1019 54 16093 3.6 170 19:59 07.10.2019
400 Clouds 24 1019 47 16093 7.2 220 19:41 07.10.2019
401 Clouds 24 1019 47 16093 7.2 220 19:41 07.10.2019
402 Clouds 24 1021 60 16093 5.02 214.834 19:20 07.10.2019
403 Clouds 24 1020 50 16093 6.7 220 18:59 07.10.2019
404 Clouds 24 1020 53 16093 1.5 210 18:39 07.10.2019
405 Clouds 24 1021 57 16093 2.6 0 18:19 07.10.2019
406 Clouds 24 1020 53 16093 8.2 220 17:54 07.10.2019
407 Clouds 24 1020 53 16093 8.2 220 17:54 07.10.2019
408 Clouds 23 1021 57 16093 1.5 260 17:36 07.10.2019
409 Clouds 23 1022 64 16093 2.1 0 17:18 07.10.2019
410 Clouds 22 1022 68 16093 6.18 209.247 16:43 07.10.2019
411 Clouds 22 1022 68 16093 6.18 209.247 16:25 07.10.2019
412 Clouds 21 1022 73 16093 1.5 0 15:46 07.10.2019
413 Clouds 21 1022 73 16093 1.5 0 15:26 07.10.2019
414 Clouds 21 1022 73 16093 5.42 198.716 14:58 07.10.2019
415 Clouds 21 1022 73 16093 2.1 210 14:40 07.10.2019
416 Clouds 21 1022 73 16093 1.5 0 14:22 07.10.2019
417 Clouds 20 1022 68 16093 4.1 200 13:44 07.10.2019
418 Clouds 20 1022 73 16093 2.1 0 13:21 07.10.2019
419 Clouds 20 1022 73 16093 5.1 190 12:57 07.10.2019
420 Clouds 20 1022 68 16093 5.53 198.94 12:39 07.10.2019
421 Clouds 20 1022 68 16093 4.81 192.029 12:20 07.10.2019
422 Clouds 20 1021 77 16093 5.1 180 11:59 07.10.2019
423 Clouds 20 1022 68 16093 1.5 210 11:39 07.10.2019
424 Clouds 20 1022 68 16093 1.5 210 11:20 07.10.2019
425 Clouds 20 1022 73 16093 4.81 192.029 10:43 07.10.2019
426 Clouds 20 1022 73 16093 2.6 0 10:23 07.10.2019
427 Rain 20 1021 77 16093 4.6 180 09:58 07.10.2019
428 Rain 20 1022 68 16093 3.6 200 09:38 07.10.2019
429 Rain 20 1023 73 16093 1.5 0 09:20 07.10.2019
430 Clouds 20 1022 68 16093 1.5 210 08:44 07.10.2019
431 Clouds 20 1022 68 16093 1.5 210 08:21 07.10.2019
432 Drizzle 20 1023 64 16093 5.1 190 07:55 07.10.2019
433 Drizzle 20 1023 68 16093 4.33 190.389 07:36 07.10.2019
434 Drizzle 20 1024 73 16093 2.6 0 07:18 07.10.2019
435 Clouds 20 1023 68 16093 1.5 220 06:43 07.10.2019
436 Clouds 20 1024 73 16093 3.8 194.142 06:20 07.10.2019
437 Rain 20 1024 68 16093 3.8 194.142 05:27 07.10.2019
438 Rain 20 1024 73 16093 4.1 190 04:54 07.10.2019
439 Clouds 20 1024 73 16093 4.6 180 03:51 07.10.2019
440 Rain 20 1024 68 16093 3.8 194.142 03:32 07.10.2019
441 Rain 20 1024 88 16093 7.7 180 02:53 07.10.2019
442 Rain 20 1025 82 16093 1.5 0 02:19 07.10.2019
443 Rain 20 1025 82 16093 1.5 0 02:19 07.10.2019
444 Rain 20 1024 77 16093 2.44 174.638 01:24 07.10.2019
445 Rain 20 1024 77 16093 4.6 180 00:55 07.10.2019
446 Drizzle 20 1024 77 16093 2.44 174.638 00:36 07.10.2019
447 Rain 21 1025 73 16093 4.15 193.233 00:18 07.10.2019
448 Clouds 21 1024 73 16093 2.6 210 23:40 06.10.2019
449 Clouds 21 1025 73 16093 4.15 193.233 23:21 06.10.2019
450 Clouds 21 1024 77 16093 6.2 180 22:58 06.10.2019
451 Clouds 21 1024 64 16093 3.6 200 22:39 06.10.2019
452 Clouds 21 1025 77 16093 1.5 0 22:21 06.10.2019
453 Clouds 21 1025 77 16093 1.5 0 22:21 06.10.2019
454 Clouds 21 1024 73 16093 6.7 180 21:57 06.10.2019
455 Clouds 21 1024 64 16093 4.15 193.233 21:37 06.10.2019
456 Clouds 21 1024 64 16093 4.15 193.233 21:37 06.10.2019
457 Clouds 21 1025 73 16093 2.1 0 21:19 06.10.2019
458 Clouds 21 1024 73 16093 8.2 180 20:57 06.10.2019
459 Clouds 20 1025 68 16093 3.6 200 20:38 06.10.2019
460 Clouds 20 1026 73 16093 3.98 175.358 20:20 06.10.2019
461 Clouds 20 1026 83 16093 7.7 180 19:57 06.10.2019
462 Clouds 20 1026 68 16093 4.1 200 19:37 06.10.2019
463 Clouds 20 1027 72 16093 1.5 0 19:19 06.10.2019
464 Clouds 20 1026 64 16093 6.2 190 18:56 06.10.2019
465 Clouds 19 1026 68 16093 3.98 175.358 18:38 06.10.2019
466 Clouds 19 1027 72 16093 2.6 0 18:19 06.10.2019
467 Clouds 19 1027 68 16093 3.6 180 17:43 06.10.2019
468 Clouds 19 1027 68 16093 3.6 180 17:43 06.10.2019
469 Clouds 18 1027 72 16093 2.6 0 17:21 06.10.2019
470 Clouds 18 1027 68 16093 6.2 170 16:59 06.10.2019
471 Clouds 18 1027 68 16093 3.59 169.178 16:41 06.10.2019
472 Clouds 17 1027 68 16093 3.59 169.178 16:23 06.10.2019
473 Clouds 16 1027 72 16093 3.59 169.178 15:45 06.10.2019
474 Clouds 16 1027 72 16093 3.59 169.178 15:45 06.10.2019
475 Clouds 16 1027 72 16093 3.18 164.767 15:23 06.10.2019
476 Clouds 16 1026 63 16093 4.6 170 14:59 06.10.2019
477 Clouds 15 1027 67 16093 3.18 164.767 14:41 06.10.2019
478 Clouds 15 1027 67 16093 3.18 164.767 14:23 06.10.2019
479 Clouds 15 1027 67 16093 3.18 164.767 13:56 06.10.2019
480 Clouds 15 1027 67 16093 3.08 162.094 13:37 06.10.2019
481 Clouds 15 1027 63 16093 1.5 0 13:19 06.10.2019
482 Clouds 14 1026 67 16093 3.08 162.094 12:56 06.10.2019
483 Clouds 14 1026 67 16093 3.08 162.094 12:37 06.10.2019
484 Clouds 14 1027 63 16093 2.09 154.246 12:19 06.10.2019
485 Clouds 14 1027 59 16093 3.6 170 11:55 06.10.2019
486 Clouds 13 1027 63 16093 2.09 154.246 11:36 06.10.2019
487 Clouds 13 1028 59 16093 2.09 154.246 11:18 06.10.2019
488 Clouds 13 1027 67 16093 2.09 154.246 10:42 06.10.2019
489 Clouds 13 1027 67 16093 2.09 154.246 10:24 06.10.2019
490 Clouds 13 1027 59 16093 2.09 154.246 09:42 06.10.2019
491 Clouds 13 1028 67 16093 2.23 154.068 09:21 06.10.2019
492 Clouds 13 1027 62 16093 3.6 100 08:59 06.10.2019
493 Clouds 13 1027 67 16093 2.01 157.026 08:40 06.10.2019
494 Clouds 13 1029 67 16093 2.01 157.026 08:20 06.10.2019
495 Clouds 13 1028 62 16093 3.1 160 07:42 06.10.2019
496 Clouds 12 1029 67 16093 1.5 0 07:18 06.10.2019
497 Clouds 12 1029 66 16093 2.07 170.173 06:19 06.10.2019
498 Clouds 12 1030 62 16093 1.5 0 05:28 06.10.2019
499 Clouds 11 1029 54 16093 2.07 170.173 03:35 06.10.2019
500 Clouds 11 1029 54 16093 2.19 155.378 02:42 06.10.2019
501 Clear 11 1030 50 16093 2.19 155.378 02:19 06.10.2019
502 Clear 12 1029 50 16093 2.19 155.378 01:38 06.10.2019
503 Clear 12 1030 54 16093 2.1 0 01:20 06.10.2019
504 Clear 13 1029 63 16093 2.3 148.37 00:45 06.10.2019
505 Clear 13 1029 35 16093 2.37 121.412 00:24 06.10.2019
506 Clear 14 1029 41 16093 2.37 121.412 23:44 05.10.2019
507 Clear 14 1029 41 16093 2.37 121.412 23:22 05.10.2019
508 Clouds 15 1029 44 16093 2.6 170 22:58 05.10.2019
509 Clear 15 1029 38 16093 2.37 121.412 22:39 05.10.2019
510 Clear 15 1030 47 16093 2.37 121.412 22:20 05.10.2019
511 Clear 15 1030 47 16093 2.37 121.412 22:20 05.10.2019
512 Clear 15 1030 38 16093 2.37 121.412 21:56 05.10.2019
513 Clear 15 1030 38 16093 2.37 121.412 21:37 05.10.2019
514 Clouds 15 1030 44 16093 2.6 200 21:18 05.10.2019
515 Clouds 15 1030 38 16093 4.1 50 20:55 05.10.2019
516 Clear 15 1030 47 16093 2.48 110.104 20:36 05.10.2019
517 Clear 15 1031 38 16093 2.1 0 20:18 05.10.2019
518 Clear 15 1031 41 16093 2.48 110.104 19:37 05.10.2019
519 Clear 14 1032 41 16093 3.6 10 19:19 05.10.2019
520 Clouds 14 1031 41 16093 4.1 50 18:55 05.10.2019
521 Clear 14 1032 30 16093 2.48 110.104 18:37 05.10.2019
522 Clear 13 1033 37 16093 3.1 0 18:19 05.10.2019
523 Clear 12 1032 42 16093 2.1 110 17:43 05.10.2019
524 Clear 12 1032 42 16093 2.1 110 17:23 05.10.2019
525 Clouds 12 1032 47 16093 4.1 40 16:57 05.10.2019
526 Clear 11 1032 50 16093 3.1 60 16:39 05.10.2019
527 Clear 11 1033 50 16093 3.1 0 16:20 05.10.2019
528 Clear 11 1033 50 16093 3.1 0 16:20 05.10.2019
529 Clear 10 1032 53 16093 2.6 40 15:56 05.10.2019
530 Clear 10 1032 53 16093 2.6 40 15:38 05.10.2019
531 Clear 9 1032 76 16093 4.1 40 15:19 05.10.2019
532 Clear 8 1032 65 16093 2.1 0 14:43 05.10.2019
533 Clear 7 1032 65 16093 2.1 0 14:24 05.10.2019
534 Clouds 7 1031 57 16093 6.2 30 13:58 05.10.2019
535 Clear 6 1031 70 16093 3.39 36.826 13:40 05.10.2019
536 Clear 6 1031 65 16093 3.6 20 13:19 05.10.2019
537 Clear 6 1030 65 16093 2.6 10 12:43 05.10.2019
538 Clear 6 1031 61 16093 3.6 60 12:19 05.10.2019
539 Clear 7 1030 61 16093 2.1 20 11:44 05.10.2019
540 Clear 7 1030 61 16093 2.1 20 11:23 05.10.2019
541 Clear 7 1030 65 16093 4.6 20 10:59 05.10.2019
542 Clear 7 1030 61 16093 3.1 20 10:40 05.10.2019
543 Clear 7 1030 57 16093 4.1 20 10:21 05.10.2019
544 Clear 7 1029 61 16093 4.6 10 09:56 05.10.2019
545 Clear 8 1029 61 16093 2.02 17.538 09:37 05.10.2019
546 Clear 8 1030 57 16093 5.1 30 09:19 05.10.2019
547 Clear 8 1029 57 16093 3.1 30 08:39 05.10.2019
548 Clear 8 1030 66 16093 2.6 0 08:19 05.10.2019
549 Clouds 9 1029 70 16093 6.2 10 07:52 05.10.2019
550 Clear 9 1028 57 16093 3.6 10 07:31 05.10.2019
551 Clouds 9 1028 57 16093 7.2 350 06:57 05.10.2019
552 Clear 10 1028 61 16093 1.5 30 06:26 05.10.2019
553 Clear 10 1027 61 16093 1.61 359.073 05:40 05.10.2019
554 Clear 11 1026 58 16093 3.1 0 03:41 05.10.2019
555 Clear 11 1026 58 16093 3.1 0 03:22 05.10.2019
556 Clear 13 1024 54 16093 4.6 340 01:30 05.10.2019
557 Clouds 13 1023 47 16093 6.7 350 00:58 05.10.2019
558 Clear 14 1023 47 16093 6.2 340 00:40 05.10.2019
559 Clear 14 1023 50 16093 4.78 347.749 00:22 05.10.2019
560 Clouds 15 1022 47 16093 5.1 340 23:43 04.10.2019
561 Clouds 15 1022 47 16093 5.1 340 23:43 04.10.2019
562 Clouds 15 1022 47 16093 5.1 340 23:24 04.10.2019
563 Clouds 15 1021 44 16093 7.2 360 22:59 04.10.2019
564 Clouds 15 1021 44 16093 7.7 340 22:39 04.10.2019
565 Clouds 16 1022 48 16093 4.1 360 22:19 04.10.2019
566 Clouds 16 1021 45 16093 8.2 10 21:56 04.10.2019
567 Clouds 16 1021 42 16093 5.7 330 21:38 04.10.2019
568 Clouds 16 1021 45 16093 3.6 10 21:19 04.10.2019
569 Clouds 17 1020 45 16093 5.1 20 20:54 04.10.2019
570 -273 0 0 0 0 0 20:36 04.10.2019
571 Clouds 17 1020 45 16093 5.1 20 20:18 04.10.2019
572 Clouds 17 1020 45 16093 5.7 350 19:41 04.10.2019
573 Clouds 18 1019 45 16093 4.1 320 19:23 04.10.2019
574 Clouds 18 1018 45 16093 9.8 330 18:56 04.10.2019
575 Clouds 18 1019 48 16093 6.76 335.161 18:37 04.10.2019
576 Clouds 18 1019 48 16093 6.85 331.621 18:19 04.10.2019
577 Clouds 18 1018 59 16093 4.1 300 17:42 04.10.2019
578 Clouds 18 1018 59 16093 4.1 300 17:42 04.10.2019
579 Clouds 18 1018 59 16093 4.1 300 17:22 04.10.2019
580 Clouds 18 1018 59 16093 4.1 300 16:59 04.10.2019
581 Clouds 17 1017 59 16093 6.7 340 16:41 04.10.2019
582 Clouds 17 1017 59 16093 6.7 340 16:41 04.10.2019
583 Clouds 17 1017 67 16093 4.1 300 16:19 04.10.2019
584 Clouds 17 1017 67 16093 4.1 300 16:19 04.10.2019
585 Clear 17 1017 77 16093 4.1 330 15:58 04.10.2019
586 Clear 17 1017 77 16093 4.1 330 15:40 04.10.2019
587 Clear 16 1017 82 16093 3.6 290 15:21 04.10.2019
588 Fog 15 1017 82 16093 3.6 290 14:59 04.10.2019
589 Fog 15 1016 87 16093 3.8 323.033 14:41 04.10.2019
590 Fog 14 1016 87 16093 3.8 323.033 14:21 04.10.2019
591 Mist 13 1015 100 6437 1.5 300 13:46 04.10.2019
592 Mist 13 1014 93 16093 4.6 290 13:25 04.10.2019
593 Clouds 13 1014 93 16093 4.6 300 12:59 04.10.2019
594 Clouds 13 1015 93 16093 2.1 290 12:41 04.10.2019
595 Clouds 14 1015 93 16093 2.1 290 12:22 04.10.2019
596 Clouds 14 1014 93 14484 2.1 300 11:43 04.10.2019
597 Clouds 14 1014 93 14484 2.1 300 11:43 04.10.2019
598 Clouds 14 1014 93 14484 2.1 300 11:43 04.10.2019
599 Clouds 14 1014 93 14484 2.1 300 11:43 04.10.2019
600 Mist 14 1013 87 16093 1.5 280 11:22 04.10.2019
601 Mist 14 1013 82 16093 3.1 300 10:57 04.10.2019
602 Mist 14 1014 93 16093 3.85 305.968 10:38 04.10.2019
603 Mist 14 1013 100 16093 3.1 290 10:19 04.10.2019
604 Mist 14 1013 93 11265 3.85 305.968 09:43 04.10.2019
605 Mist 14 1014 100 6437 2.73 229.219 09:25 04.10.2019
606 Rain 14 1014 93 8047 2.73 229.219 08:46 04.10.2019
607 Rain 14 1014 93 8047 2.73 229.219 08:27 04.10.2019
608 Rain 14 1014 87 9656 3.6 330 07:56 04.10.2019
609 Rain 14 1015 100 4828 2.73 229.219 07:37 04.10.2019
610 Rain 14 1015 100 4023 2.73 229.219 07:18 04.10.2019
611 Rain 14 1015 93 3219 2.73 229.219 06:40 04.10.2019
612 Rain 14 1015 93 3219 1.8 167.947 06:21 04.10.2019
613 Rain 15 1015 93 3219 1.8 167.947 05:22 04.10.2019
614 Rain 15 1015 100 4023 2.1 40 04:53 04.10.2019
615 Rain 14 1016 93 2816 1.5 40 03:32 04.10.2019
616 Rain 14 1016 93 6437 5.22 139.496 02:45 04.10.2019
617 Rain 14 1017 93 3219 3.1 90 01:54 04.10.2019
618 Rain 13 1017 93 2816 5.85 146.302 01:27 04.10.2019
619 Rain 13 1018 93 4828 5.85 146.302 00:44 04.10.2019
620 Rain 13 1019 93 6437 2.6 120 23:41 03.10.2019
621 Rain 13 1019 93 3219 2.1 0 23:22 03.10.2019
622 Rain 13 1019 93 3219 2.1 0 23:22 03.10.2019
623 Rain 13 1018 87 3219 5.7 90 22:58 03.10.2019
624 Rain 12 1018 87 4023 2.1 50 22:40 03.10.2019
625 Rain 12 1018 87 4023 2.1 50 22:21 03.10.2019
626 Rain 12 1019 87 3219 6.2 70 21:59 03.10.2019
627 Rain 12 1019 93 4023 3.6 60 21:40 03.10.2019
628 Rain 12 1020 93 4828 2.6 0 21:21 03.10.2019
629 Rain 12 1020 93 4828 2.6 0 20:59 03.10.2019
630 Rain 12 1019 93 4828 5.7 80 20:41 03.10.2019
631 Rain 12 1021 93 16093 3.6 70 20:23 03.10.2019
632 Rain 12 1020 87 6437 4.1 110 19:59 03.10.2019
633 Rain 12 1020 87 6437 4.1 110 19:41 03.10.2019
634 Rain 12 1021 93 14484 3.1 0 19:22 03.10.2019
635 Rain 12 1020 87 11265 6.2 70 18:58 03.10.2019
636 Rain 12 1021 93 8047 4.1 50 18:38 03.10.2019
637 Rain 12 1021 93 6437 3.6 100 18:19 03.10.2019
638 Rain 12 1021 93 6437 3.6 100 18:19 03.10.2019
639 Rain 12 1020 93 6437 3.6 40 17:55 03.10.2019
640 Rain 12 1020 93 6437 3.6 40 17:55 03.10.2019
641 Rain 12 1020 93 6437 3.6 40 17:37 03.10.2019
642 Rain 12 1022 93 16093 2.6 0 17:18 03.10.2019
643 Rain 12 1022 93 14484 4.6 70 16:41 03.10.2019
644 Rain 12 1021 87 16093 6.2 100 16:23 03.10.2019
645 Rain 12 1021 82 4828 7.7 90 15:55 03.10.2019
646 Rain 12 1021 93 8047 4.6 110 15:37 03.10.2019
647 Rain 12 1022 93 16093 4.1 70 15:19 03.10.2019
648 Rain 12 1021 87 6437 6.7 90 14:45 03.10.2019
649 Rain 12 1021 87 6437 6.7 90 14:26 03.10.2019
650 Rain 12 1021 87 16093 4.6 30 13:57 03.10.2019
651 Rain 12 1020 93 11265 5.7 110 13:39 03.10.2019
652 Rain 12 1021 93 8047 3.1 50 13:19 03.10.2019
653 Rain 13 1020 93 6437 2.6 40 12:55 03.10.2019
654 Rain 13 1020 93 6437 2.6 40 12:36 03.10.2019
655 Rain 13 1020 93 6437 2.1 0 12:18 03.10.2019
656 Rain 13 1019 93 6437 2.1 0 11:41 03.10.2019
657 Rain 13 1019 93 6437 2.1 0 11:41 03.10.2019
658 Rain 13 1018 87 11265 4.05 43.357 11:22 03.10.2019
659 Rain 13 1018 87 12874 6.7 30 10:58 03.10.2019
660 Rain 13 1017 93 6437 4.05 43.357 10:40 03.10.2019
661 Rain 14 1018 87 16093 4.1 50 10:19 03.10.2019
662 Rain 14 1017 82 16093 6.7 40 09:58 03.10.2019
663 Rain 14 1018 100 12874 4.1 60 09:39 03.10.2019
664 Rain 14 1018 93 3219 2.6 30 09:20 03.10.2019
665 Rain 15 1018 93 4828 3.6 30 08:45 03.10.2019
666 Rain 16 1016 87 8047 3.92 37.2 08:27 03.10.2019
667 Rain 16 1016 87 8047 3.92 37.2 08:27 03.10.2019
668 Rain 16 1016 93 6437 5.7 10 07:57 03.10.2019
669 Rain 17 1015 68 16093 5.7 60 07:39 03.10.2019
670 Rain 18 1017 77 8047 5.1 30 07:19 03.10.2019
671 Rain 18 1017 77 8047 5.1 30 07:19 03.10.2019
672 Rain 19 1015 72 16093 7.2 10 06:47 03.10.2019
673 Clouds 20 1015 72 16093 4.6 360 06:24 03.10.2019
674 Clouds 20 1015 73 16093 4.1 50 05:44 03.10.2019
675 Clouds 21 1014 68 16093 5.1 350 04:56 03.10.2019
676 Clouds 21 1014 73 16093 5.1 60 04:25 03.10.2019
677 Clouds 22 1013 78 16093 3.4 11.171 03:24 03.10.2019
678 Rain 23 1011 88 16093 3.4 11.171 02:38 03.10.2019
679 Rain 24 1010 78 9656 8.7 290 01:52 03.10.2019
680 Rain 24 1010 74 16093 6.7 320 01:32 03.10.2019
681 Rain 25 1009 88 6437 2.1 320 00:49 03.10.2019
682 Rain 27 1009 54 16093 3.76 318.282 00:19 03.10.2019
683 Rain 29 1007 66 16093 7.2 10 23:43 02.10.2019
684 Rain 30 1007 66 16093 7.2 10 23:22 02.10.2019
685 Rain 30 1008 41 16093 4.6 270 22:44 02.10.2019
686 Rain 30 1008 41 16093 4.6 270 22:44 02.10.2019
687 Clouds 31 1008 41 16093 4.6 270 22:22 02.10.2019
688 Clouds 32 1007 41 16093 9.8 280 21:57 02.10.2019
689 Clouds 33 1008 41 16093 2.1 0 21:38 02.10.2019
690 Clouds 33 1008 41 16093 2.1 0 21:20 02.10.2019
691 Clouds 33 1007 38 16093 6.7 250 20:57 02.10.2019
692 Clouds 33 1008 43 16093 2.6 0 20:38 02.10.2019
693 Clouds 33 1008 43 16093 2.6 0 20:20 02.10.2019
694 Clear 33 1008 38 16093 6.2 280 19:56 02.10.2019
695 Clear 32 1008 38 16093 6.2 280 19:38 02.10.2019
696 Clear 32 1009 46 16093 2.1 0 19:19 02.10.2019
697 Clouds 32 1008 43 16093 7.7 260 18:56 02.10.2019
698 Clear 31 1010 51 16093 3.1 0 18:38 02.10.2019
699 Clear 30 1010 51 16093 3.1 0 18:19 02.10.2019
700 Clear 29 1010 54 16093 3.7 256.915 17:43 02.10.2019
701 Clear 29 1011 58 16093 2.1 0 17:21 02.10.2019
702 Clear 29 1011 58 16093 2.1 0 17:21 02.10.2019
703 Clouds 28 1009 54 16093 4.1 260 16:59 02.10.2019
704 Clear 28 1011 61 16093 4.6 290 16:41 02.10.2019
705 Clear 27 1011 61 16093 4.6 290 16:21 02.10.2019
706 Clear 26 1012 73 14484 1.5 0 15:57 02.10.2019
707 Clear 25 1012 73 14484 1.5 0 15:38 02.10.2019
708 Clear 24 1012 73 14484 1.5 0 15:19 02.10.2019
709 Clear 23 1012 83 16093 2.05 272.267 14:56 02.10.2019
710 Clouds 23 1012 78 16093 3.1 230 14:38 02.10.2019
711 Clouds 22 1011 73 16093 3.1 210 14:20 02.10.2019
712 Clear 22 1012 83 16093 2.05 272.267 13:43 02.10.2019
713 Clear 22 1012 83 16093 1.94 265.361 13:23 02.10.2019
714 Clouds 22 1012 100 16093 2.1 220 12:57 02.10.2019
715 Clouds 22 1012 100 16093 2.1 220 12:57 02.10.2019
716 Clear 22 1011 83 16093 1.94 265.361 12:37 02.10.2019
717 Clear 22 1011 83 16093 3.39 265.106 12:18 02.10.2019
718 Clear 22 1011 83 16093 3.39 265.106 11:43 02.10.2019
719 Clear 22 1011 83 16093 2.1 240 11:23 02.10.2019
720 Clear 22 1011 83 16093 3.39 265.106 10:42 02.10.2019
721 Clouds 22 1012 78 16093 3.6 240 10:20 02.10.2019
722 Clouds 22 1011 83 16093 1.5 270 09:58 02.10.2019
723 Clear 22 1012 73 16093 3.6 220 09:37 02.10.2019
724 Clear 22 1012 73 16093 3.6 220 09:18 02.10.2019
725 Clear 22 1012 78 16093 2.6 280 08:43 02.10.2019
726 Clear 22 1012 73 16093 4.44 248.56 08:23 02.10.2019
727 Clear 22 1012 73 16093 3.1 270 07:57 02.10.2019
728 Clear 22 1011 73 16093 2.1 260 07:38 02.10.2019
729 Clear 22 1011 73 16093 2.1 260 07:19 02.10.2019
730 Clear 22 1012 73 16093 3.1 270 06:31 02.10.2019
731 Clear 23 1013 73 16093 3.1 270 05:54 02.10.2019
732 -273 0 0 0 0 0 05:54 02.10.2019
733 Clear 23 1014 69 16093 2.1 0 05:23 02.10.2019
734 Clear 23 1014 69 16093 3.1 260 04:47 02.10.2019
735 Clear 23 1014 65 16093 4.52 233.799 03:52 02.10.2019
736 Clear 24 1014 65 16093 3.75 230.899 02:40 02.10.2019
737 Clear 24 1015 65 16093 3.75 230.899 02:22 02.10.2019
738 Clear 24 1015 61 16093 3.6 220 01:22 02.10.2019
739 Clear 25 1014 57 16093 3.42 225.722 00:49 02.10.2019
740 Clear 26 1015 61 16093 2.6 230 00:25 02.10.2019
741 Clear 27 1015 57 16093 1.5 210 23:43 01.10.2019
742 Clear 27 1015 57 16093 1.5 210 23:24 01.10.2019
743 Clear 27 1015 51 16093 3.1 270 22:59 01.10.2019
744 Clear 27 1016 54 16093 2.1 0 22:39 01.10.2019
745 Clear 27 1016 54 16093 2.1 0 22:19 01.10.2019
746 Clear 27 1015 61 16093 5.1 260 21:56 01.10.2019
747 Clear 27 1016 57 16093 2.1 0 21:37 01.10.2019
748 Clouds 26 1016 57 24140 3.6 280 21:19 01.10.2019
749 Clouds 26 1016 57 24140 3.6 280 20:55 01.10.2019
750 Clouds 26 1016 65 16093 3.1 0 20:36 01.10.2019
751 Clouds 25 1018 57 16093 1.5 0 20:18 01.10.2019
752 Clouds 25 1018 64 16093 6.7 230 19:44 01.10.2019
753 Clouds 24 1018 60 16093 2.1 250 19:26 01.10.2019
754 Clouds 23 1018 60 16093 5.1 250 18:59 01.10.2019
755 Clouds 23 1020 64 16093 3.89 236.004 18:39 01.10.2019
756 Clouds 23 1020 64 16093 3.89 236.004 18:39 01.10.2019
757 Clouds 23 1018 56 16093 6.2 240 18:21 01.10.2019
758 Clouds 21 1019 73 16093 2.6 280 17:57 01.10.2019
759 Clouds 21 1020 64 16093 2.6 0 17:38 01.10.2019
760 Clouds 21 1020 64 16093 2.6 0 17:19 01.10.2019
761 Clouds 21 1020 68 16093 6.2 280 16:57 01.10.2019
762 Clouds 21 1020 68 16093 6.2 280 16:57 01.10.2019
763 Clouds 21 1020 64 16093 4 235.431 16:39 01.10.2019
764 Clouds 20 1020 64 16093 4 235.431 16:20 01.10.2019
765 Clouds 19 1020 82 16093 3.6 240 15:42 01.10.2019
766 Clouds 19 1021 72 16093 2.98 221.22 15:21 01.10.2019
767 Clouds 18 1020 72 16093 1.5 270 14:41 01.10.2019
768 Clouds 18 1021 72 16093 1.5 0 14:20 01.10.2019
769 -273 0 0 0 0 0 14:20 01.10.2019
770 Clouds 18 1021 88 16093 2.98 221.22 13:57 01.10.2019
771 Clouds 17 1021 72 16093 2.98 221.22 13:39 01.10.2019
772 Clouds 17 1021 72 16093 2.98 221.22 13:39 01.10.2019
773 Clouds 17 1021 72 16093 2.52 211.526 13:20 01.10.2019
774 Clouds 17 1021 87 16093 2.6 260 12:57 01.10.2019
775 Clouds 17 1021 72 16093 2.52 211.526 12:39 01.10.2019
776 Clouds 17 1020 72 16093 3.6 210 12:19 01.10.2019
777 Clouds 17 1021 72 16093 2.43 199.882 11:58 01.10.2019
778 Clouds 17 1022 72 16093 2.43 199.882 11:38 01.10.2019
779 Clouds 17 1021 72 16093 3.1 220 11:18 01.10.2019
780 Clouds 17 1021 77 16093 3.1 190 10:49 01.10.2019
781 Clouds 17 1021 68 16093 3.1 200 10:29 01.10.2019
782 Clouds 17 1023 68 16093 2.43 199.882 09:49 01.10.2019
783 Clouds 17 1023 72 16093 1.94 193.325 09:31 01.10.2019
784 Clouds 17 1023 72 16093 1.94 193.325 08:57 01.10.2019
785 Clouds 17 1023 72 16093 2.34 194.262 08:39 01.10.2019
786 Clouds 17 1023 72 16093 2.34 194.262 08:21 01.10.2019
787 Drizzle 17 1022 72 16093 2.34 194.262 07:43 01.10.2019
788 Drizzle 17 1022 72 16093 2.34 194.262 07:24 01.10.2019
789 Rain 17 1023 77 16093 2.34 194.262 06:47 01.10.2019
790 Rain 17 1023 77 16093 2.4 183.295 06:18 01.10.2019
791 Rain 17 1023 77 16093 2.4 183.295 06:18 01.10.2019
792 Clouds 18 1024 72 16093 2.4 183.295 05:46 01.10.2019
793 Clouds 18 1025 68 16093 2.1 0 05:18 01.10.2019
794 Clouds 18 1025 68 16093 2.4 183.295 04:29 01.10.2019
795 Clouds 18 1025 63 16093 2.47 156.012 02:28 01.10.2019
796 Clouds 18 1024 63 16093 2.47 156.012 01:58 01.10.2019
797 Clouds 18 1024 77 16093 2.1 160 00:53 01.10.2019
798 Clouds 18 1024 63 16093 4.1 170 00:28 01.10.2019
799 Clouds 19 1024 63 16093 4.1 160 23:57 30.09.2019
800 Clouds 19 1025 59 16093 2.1 0 23:39 30.09.2019
801 Clouds 19 1025 59 16093 2.1 0 23:19 30.09.2019
802 Clouds 19 1024 68 16093 4.6 160 22:43 30.09.2019
803 Clouds 19 1026 64 16093 2.1 80 22:25 30.09.2019
804 Clouds 20 1025 56 16093 4.6 160 21:57 30.09.2019
805 Clouds 20 1025 60 16093 4.1 150 21:38 30.09.2019
806 Clouds 20 1025 60 16093 4.1 150 21:19 30.09.2019
807 Clouds 20 1025 68 16093 5.1 180 20:57 30.09.2019
808 Clouds 20 1027 56 16093 3.6 90 20:39 30.09.2019
809 Clouds 20 1027 56 16093 3.6 90 20:20 30.09.2019
810 Clouds 20 1026 56 16093 5.1 150 19:56 30.09.2019
811 -273 0 0 0 0 0 19:56 30.09.2019
812 Clouds 20 1026 60 16093 3.1 160 19:38 30.09.2019
813 Clouds 20 1026 60 16093 3.1 160 19:19 30.09.2019
814 -273 0 0 0 0 0 18:57 30.09.2019
815 Clouds 19 1027 52 16093 2.6 100 18:37 30.09.2019
816 Clouds 19 1027 52 16093 2.6 100 18:19 30.09.2019
817 Clear 18 1028 63 16093 3.1 50 17:43 30.09.2019
818 Clear 18 1028 63 16093 3.1 50 17:23 30.09.2019
819 Clouds 18 1027 52 16093 3.01 80.735 16:57 30.09.2019
820 Clear 17 1028 55 16093 3.1 60 16:39 30.09.2019
821 Clear 17 1028 55 16093 3.1 60 16:19 30.09.2019
822 Clear 17 1028 55 16093 3.1 60 16:19 30.09.2019
823 Clouds 17 1028 59 16093 3.6 60 15:58 30.09.2019
824 Clear 16 1028 55 16093 3.1 60 15:38 30.09.2019
825 Clear 16 1028 55 16093 3.1 60 15:19 30.09.2019
826 Clouds 16 1028 67 16093 3.6 40 14:57 30.09.2019
827 Clouds 16 1028 51 16093 2.1 50 14:37 30.09.2019
828 Clouds 16 1028 51 16093 2.1 50 14:37 30.09.2019
829 Clouds 16 1028 51 16093 2.1 50 14:19 30.09.2019
830 Rain 16 1027 76 16093 3.1 40 13:57 30.09.2019
831 Rain 16 1027 51 16093 2.6 50 13:38 30.09.2019
832 Rain 16 1027 51 16093 2.6 50 13:20 30.09.2019
833 Clouds 16 1027 55 16093 7.2 60 12:43 30.09.2019
834 Clouds 16 1026 51 16093 3.3 43.551 12:22 30.09.2019
835 Clouds 16 1026 51 16093 3.3 43.551 11:57 30.09.2019
836 Clouds 16 1027 51 16093 3.1 0 11:39 30.09.2019
837 Clouds 16 1027 51 16093 3.1 0 11:19 30.09.2019
838 Clouds 16 1026 48 16093 3.6 50 10:54 30.09.2019
839 Clouds 17 1026 52 16093 6.2 50 10:36 30.09.2019
840 Clouds 17 1026 52 16093 6.2 50 10:18 30.09.2019
841 Clear 17 1026 45 16093 4.1 50 09:40 30.09.2019
842 Clear 17 1026 45 16093 4.1 50 09:21 30.09.2019
843 Clear 17 1026 45 16093 2.58 29.77 08:51 30.09.2019
844 Clear 17 1027 45 16093 3.6 60 08:33 30.09.2019
845 Clear 17 1026 45 16093 3.1 20 07:47 30.09.2019
846 Clear 17 1026 45 16093 1.5 20 07:28 30.09.2019
847 Clear 17 1026 42 16093 2.78 35.046 06:59 30.09.2019
848 Clear 18 1026 42 16093 2.78 35.046 06:41 30.09.2019
849 Clear 18 1026 39 16093 3.26 33.997 05:56 30.09.2019
850 Clear 18 1026 48 16093 2.1 20 05:38 30.09.2019
851 Clear 20 1025 28 16093 2.99 28.632 02:49 30.09.2019
852 Clear 21 1025 37 16093 2.1 0 01:50 30.09.2019
853 Clear 23 1024 19 16093 4.1 60 00:57 30.09.2019
854 Clear 23 1024 27 16093 3.6 60 00:37 30.09.2019
855 Clear 23 1024 27 16093 3.6 60 00:18 30.09.2019
856 Clear 24 1025 36 16093 4.6 30 23:40 29.09.2019
857 Clear 25 1025 36 16093 4.6 30 23:20 29.09.2019
858 Clear 25 1023 28 16093 2.6 60 22:44 29.09.2019
859 Clear 25 1025 36 16093 4.6 50 22:25 29.09.2019
860 Clear 25 1025 36 16093 4.6 50 22:25 29.09.2019
861 Clouds 26 1024 39 16093 4.1 50 21:59 29.09.2019
862 Clear 26 1025 36 16093 3.6 20 21:39 29.09.2019
863 Clear 26 1025 36 16093 3.6 20 21:20 29.09.2019
864 Clear 26 1025 34 16093 4.1 40 20:59 29.09.2019
865 Clear 26 1025 34 16093 4.1 40 20:41 29.09.2019
866 Clear 26 1025 34 16093 4.1 40 20:41 29.09.2019
867 Clear 26 1025 34 16093 4.1 40 20:19 29.09.2019
868 Clear 26 1024 41 16093 2.1 40 19:55 29.09.2019
869 Clear 25 1024 44 16093 2.6 330 19:37 29.09.2019
870 Clear 25 1024 44 16093 2.6 330 19:18 29.09.2019
871 -273 0 0 0 0 0 18:55 29.09.2019
872 Clouds 24 1025 50 16093 3.6 360 18:36 29.09.2019
873 Clouds 24 1025 50 16093 3.6 360 18:18 29.09.2019
874 Clouds 24 1025 53 16093 4.31 23.501 17:55 29.09.2019
875 Clouds 23 1025 53 16093 3.6 10 17:36 29.09.2019
876 -273 0 0 0 0 0 17:18 29.09.2019
877 Clouds 23 1024 56 16093 3.1 60 16:54 29.09.2019
878 Clouds 22 1025 56 16093 3.6 10 16:36 29.09.2019
879 Clouds 22 1025 56 16093 3.6 10 16:18 29.09.2019
880 Clouds 22 1024 64 16093 5.7 40 15:41 29.09.2019
881 Clouds 22 1024 64 16093 5.7 40 15:19 29.09.2019
882 Clear 22 1023 69 16093 2.98 356.6 14:59 29.09.2019
883 Clouds 21 1023 78 16093 3.6 10 14:39 29.09.2019
884 Clouds 21 1023 78 16093 3.6 10 14:20 29.09.2019
885 Clear 21 1022 73 16093 2.98 356.6 13:57 29.09.2019
886 Clear 20 1022 73 16093 3.61 345.937 13:39 29.09.2019
887 Clear 20 1022 73 16093 3.61 345.937 13:18 29.09.2019
888 Clear 20 1022 73 16093 3.61 345.937 13:18 29.09.2019
889 Clear 20 1021 73 16093 3.61 345.937 12:57 29.09.2019
890 Clear 21 1022 73 16093 2.1 330 12:39 29.09.2019
891 Clear 21 1020 73 16093 3.1 340 12:21 29.09.2019
892 Clear 21 1021 78 16093 3.39 339.082 11:55 29.09.2019
893 Clear 21 1021 83 16093 1.5 0 11:37 29.09.2019
894 Clear 21 1021 83 16093 1.5 0 11:18 29.09.2019
895 Clear 21 1020 83 16093 3.39 339.082 10:55 29.09.2019
896 Clear 21 1020 78 16093 3.39 339.082 10:36 29.09.2019
897 Mist 21 1020 88 16093 3.39 339.082 10:18 29.09.2019
898 Mist 21 1019 88 16093 2.6 300 09:43 29.09.2019
899 Mist 21 1019 88 16093 2.6 300 09:20 29.09.2019
900 Clear 21 1019 83 16093 2.09 318.401 08:57 29.09.2019
901 Clear 21 1019 83 16093 3.04 333.055 08:37 29.09.2019
902 Clear 22 1020 83 16093 3.04 333.055 08:18 29.09.2019
903 Clear 22 1019 78 16093 3.04 333.055 07:41 29.09.2019
904 Clear 22 1019 78 16093 3.04 333.055 07:23 29.09.2019
905 Clear 22 1018 83 16093 3.04 333.055 06:42 29.09.2019
906 Clear 23 1019 83 16093 1.67 302.173 04:59 29.09.2019
907 Clear 23 1019 83 16093 1.67 302.173 04:25 29.09.2019
908 Clear 23 1018 78 16093 1.67 302.173 03:56 29.09.2019
909 Clear 23 1018 69 16093 1.47 246.668 02:45 29.09.2019
910 Clouds 24 1019 78 16093 1.47 246.668 02:18 29.09.2019
911 Clouds 24 1018 73 16093 1.91 221.611 01:31 29.09.2019
912 Clouds 25 1017 58 16093 1.91 221.611 00:47 29.09.2019
913 Clouds 26 1018 65 16093 4.05 250.362 00:20 29.09.2019
914 Clouds 27 1018 65 16093 1.5 0 23:42 28.09.2019
915 Clouds 27 1018 65 16093 1.5 0 23:22 28.09.2019
916 Clouds 27 1018 65 16093 1.5 0 23:22 28.09.2019
917 Clouds 27 1017 65 16093 4.1 220 22:57 28.09.2019
918 Clear 27 1018 61 16093 4.05 250.362 22:38 28.09.2019
919 Clear 27 1018 61 16093 4.05 250.362 22:20 28.09.2019
920 Clouds 27 1018 61 16093 2.1 0 21:56 28.09.2019
921 Clouds 27 1018 61 16093 2.1 0 21:38 28.09.2019
922 Clouds 28 1018 61 16093 2.1 0 21:19 28.09.2019
923 Clouds 27 1018 54 16093 1.5 270 20:57 28.09.2019
924 Clear 27 1019 51 16093 3.1 0 20:38 28.09.2019
925 Clear 27 1019 51 16093 3.1 0 20:18 28.09.2019
926 Clouds 27 1018 65 16093 5.7 230 19:55 28.09.2019
927 Clear 27 1019 51 16093 3.6 250 19:36 28.09.2019
928 Clear 27 1019 51 16093 3.6 250 19:18 28.09.2019
929 Clouds 26 1020 47 16093 1.5 250 18:42 28.09.2019
930 Clouds 25 1020 47 16093 1.5 250 18:22 28.09.2019
931 Clouds 25 1021 47 16093 4.04 209.687 17:59 28.09.2019
932 Clear 24 1021 53 16093 2.6 0 17:40 28.09.2019
933 Clear 24 1021 53 16093 2.6 0 17:21 28.09.2019
934 Clouds 23 1020 69 16093 2.1 230 16:55 28.09.2019
935 Clear 23 1021 68 16093 1.5 0 16:37 28.09.2019
936 Clouds 22 1020 56 16093 5.7 200 16:18 28.09.2019
937 Clear 21 1021 73 16093 1.5 0 15:40 28.09.2019
938 Clear 20 1021 73 16093 1.5 0 15:22 28.09.2019
939 Fog 19 1021 82 16093 2.03 209.811 14:55 28.09.2019
940 Fog 18 1021 82 16093 2.03 209.811 14:37 28.09.2019
941 Fog 17 1020 72 16093 4.1 200 14:19 28.09.2019
942 Fog 17 1021 88 16093 2.03 209.811 13:43 28.09.2019
943 Fog 16 1020 77 16093 4.1 200 13:20 28.09.2019
944 Clear 16 1020 87 16093 1.88 206.402 12:58 28.09.2019
945 Clear 16 1020 87 16093 1.88 206.402 12:39 28.09.2019
946 Clear 16 1020 87 16093 2.18 192.273 12:18 28.09.2019
947 Clouds 16 1020 87 16093 2.18 192.273 11:42 28.09.2019
948 Clear 16 1021 77 16093 1.5 0 11:21 28.09.2019
949 Clear 16 1020 82 16093 2.18 192.273 10:59 28.09.2019
950 Clear 16 1020 82 16093 2.18 192.273 10:39 28.09.2019
951 Clear 16 1020 77 16093 3.1 230 10:19 28.09.2019
952 Clear 16 1020 82 16093 2.18 192.273 09:42 28.09.2019
953 Clear 16 1021 72 16093 2.1 0 09:22 28.09.2019
954 Clear 16 1020 82 16093 2.05 191.644 08:55 28.09.2019
955 Clear 16 1021 72 16093 2.1 0 08:37 28.09.2019
956 Clear 16 1021 72 16093 2.1 0 08:18 28.09.2019
957 Clear 16 1020 82 16093 1.83 192.906 07:43 28.09.2019
958 Clear 16 1020 82 16093 1.83 192.906 07:19 28.09.2019
959 Clear 16 1020 82 16093 1.83 192.906 06:52 28.09.2019
960 Clear 17 1022 72 16093 1.5 0 06:30 28.09.2019
961 Clear 17 1021 72 16093 2.14 190.386 05:43 28.09.2019
962 Clear 17 1021 72 16093 2.1 220 05:20 28.09.2019
963 Clear 17 1021 72 16093 2.6 0 04:38 28.09.2019
964 Clear 18 1021 68 16093 2.1 0 03:49 28.09.2019
965 Clear 18 1021 68 16093 2.1 0 03:21 28.09.2019
966 Clear 18 1020 68 16093 1.46 188.008 02:44 28.09.2019
967 Clear 18 1021 63 16093 2.1 0 02:26 28.09.2019
968 Clear 19 1020 60 16093 1.46 188.008 01:47 28.09.2019
969 Clear 19 1020 56 16093 1.19 193.196 01:26 28.09.2019
970 Smoke 20 1020 49 16093 1.19 193.196 00:52 28.09.2019
971 Smoke 21 1020 46 16093 2.1 160 00:31 28.09.2019
972 Clouds 22 1019 38 16093 2.32 233.278 23:58 27.09.2019
973 Clear 22 1020 43 16093 3.1 0 23:36 27.09.2019
974 Clear 22 1020 43 16093 3.1 0 23:18 27.09.2019
975 Clear 23 1019 40 16093 4.1 150 22:44 27.09.2019
976 Clear 23 1020 33 16093 1.5 270 22:19 27.09.2019
977 Clear 24 1019 27 16093 2.32 233.278 21:56 27.09.2019
978 Clear 24 1020 33 16093 3.1 230 21:37 27.09.2019
979 Clear 24 1020 33 16093 3.1 230 21:18 27.09.2019
980 Clear 24 1019 31 16093 2.04 240.488 20:55 27.09.2019
981 Clear 24 1021 36 16093 1.5 0 20:37 27.09.2019
982 Clear 23 1021 36 16093 1.5 0 20:18 27.09.2019
983 Clear 23 1020 33 16093 1.99 235.895 19:43 27.09.2019
984 Clear 23 1020 33 16093 1.99 235.895 19:23 27.09.2019
985 Clouds 23 1021 46 16093 1.5 260 18:59 27.09.2019
986 Clear 22 1021 40 16093 1.99 235.895 18:40 27.09.2019
987 Clear 21 1021 40 16093 1.35 309.316 18:21 27.09.2019
988 -273 0 0 0 0 0 17:55 27.09.2019
989 Clear 21 1022 42 16093 2.1 0 17:36 27.09.2019
990 Clear 21 1022 42 16093 2.1 0 17:18 27.09.2019
991 -273 0 0 0 0 0 16:54 27.09.2019
992 Clear 20 1022 45 16093 2.6 40 16:36 27.09.2019
993 Rain 19 1022 45 16093 2.6 40 16:18 27.09.2019
994 Rain 18 1021 59 16093 1.35 309.316 15:43 27.09.2019
995 Rain 16 1020 77 16093 1.21 307.268 15:20 27.09.2019
996 Rain 15 1020 77 16093 1.21 307.268 14:56 27.09.2019
997 Rain 15 1020 68 16093 3.1 60 14:38 27.09.2019
998 Rain 15 1020 68 16093 3.1 60 14:38 27.09.2019
999 Rain 14 1020 68 16093 3.1 60 14:20 27.09.2019
1000 Fog 13 1019 93 16093 1.21 307.268 13:57 27.09.2019
1001 Fog 13 1019 93 16093 1.21 307.268 13:38 27.09.2019
1002 Fog 12 1019 93 16093 1.15 303.47 13:19 27.09.2019
1003 Fog 13 1019 100 805 1.15 303.47 12:51 27.09.2019
1004 Fog 13 1018 87 16093 1.08 334.074 12:22 27.09.2019
1005 Fog 13 1017 87 16093 1.08 334.074 11:57 27.09.2019
1006 Fog 13 1017 100 6437 1.08 334.074 11:37 27.09.2019
1007 Fog 13 1017 87 16093 1.08 334.074 11:19 27.09.2019
1008 Fog 14 1016 77 16093 2.1 60 10:42 27.09.2019
1009 Fog 14 1016 77 16093 2.1 60 10:21 27.09.2019
1010 Fog 14 1016 87 16093 1.08 334.074 09:56 27.09.2019
1011 Fog 14 1016 82 16093 1.5 240 09:38 27.09.2019
1012 Fog 14 1016 82 16093 1.5 240 09:18 27.09.2019
1013 Fog 15 1016 77 16093 1.78 319.252 08:41 27.09.2019
1014 Fog 15 1016 77 16093 1.78 319.252 08:21 27.09.2019
1015 Fog 15 1015 87 16093 1.78 319.252 07:50 27.09.2019
1016 Fog 15 1015 87 16093 1.78 319.252 07:29 27.09.2019
1017 Fog 16 1015 77 16093 2.1 260 06:49 27.09.2019
1018 Fog 16 1015 77 16093 2.1 260 06:31 27.09.2019
1019 Fog 16 1015 88 16093 2.04 309.424 05:54 27.09.2019
1020 Fog 16 1015 77 16093 2.6 250 05:34 27.09.2019
1021 Fog 16 1014 88 16093 2.04 309.424 04:52 27.09.2019
1022 Mist 17 1013 82 16093 2.04 309.424 03:39 27.09.2019
1023 Clear 18 1011 82 16093 2.54 323.752 01:56 27.09.2019
1024 Clear 19 1010 82 16093 1.96 311.894 01:31 27.09.2019
1025 Rain 19 1009 83 16093 3.6 60 00:41 27.09.2019
1026 Rain 19 1009 94 16093 3.1 330 23:57 26.09.2019
1027 Rain 19 1009 68 16093 3.52 351.835 23:39 26.09.2019
1028 Rain 20 1009 68 16093 3.52 351.835 23:20 26.09.2019
1029 Rain 21 1008 60 16093 8.7 320 22:58 26.09.2019
1030 Rain 21 1008 60 16093 8.7 320 22:40 26.09.2019
1031 Rain 23 1007 57 14484 2.1 0 22:18 26.09.2019
1032 Rain 24 1007 47 16093 7.2 330 21:59 26.09.2019
1033 Rain 24 1007 65 16093 3.52 351.835 21:38 26.09.2019
1034 Rain 25 1007 65 16093 3.52 351.835 21:38 26.09.2019
1035 Rain 26 1007 65 16093 4.52 236.472 21:19 26.09.2019
1036 Clouds 26 1007 45 16093 2.6 290 20:59 26.09.2019
1037 Clouds 26 1007 45 16093 2.6 290 20:59 26.09.2019
1038 Clouds 27 1007 58 16093 4.6 160 20:40 26.09.2019
1039 Clouds 27 1007 58 16093 4.6 160 20:21 26.09.2019
1040 Clouds 27 1007 57 16093 5.1 230 19:59 26.09.2019
1041 Clouds 27 1007 51 16093 4.1 200 19:40 26.09.2019
1042 Clouds 27 1007 54 16093 6.7 170 19:18 26.09.2019
1043 Clouds 27 1007 54 16093 6.7 170 18:56 26.09.2019
1044 Clouds 26 1008 54 16093 4.6 190 18:37 26.09.2019
1045 Clouds 26 1008 54 16093 4.6 190 18:18 26.09.2019
1046 Clear 24 1010 69 16093 3.1 220 17:38 26.09.2019
1047 Clear 24 1010 69 16093 3.1 220 17:38 26.09.2019
1048 Clear 24 1010 69 16093 3.1 220 17:19 26.09.2019
1049 Clear 23 1009 64 16093 3.96 208.856 16:58 26.09.2019
1050 Clear 23 1011 69 16093 2.6 270 16:39 26.09.2019
1051 Clear 22 1011 69 16093 2.6 270 16:20 26.09.2019
1052 Clouds 21 1011 82 16093 4.1 220 15:57 26.09.2019
1053 Clear 21 1011 73 16093 3.6 250 15:37 26.09.2019
1054 Clear 20 1011 73 16093 3.6 250 15:18 26.09.2019
1055 Clear 18 1011 72 16093 2.72 208.481 14:41 26.09.2019
1056 Clear 17 1011 82 16093 3.1 240 14:23 26.09.2019
1057 Clear 17 1011 82 16093 3.1 240 14:23 26.09.2019
1058 Clear 17 1010 82 16093 2.72 208.481 13:58 26.09.2019
1059 Clear 17 1010 82 16093 2.72 208.481 13:58 26.09.2019
1060 Clear 17 1010 82 16093 2.72 208.481 13:40 26.09.2019
1061 Clear 16 1010 82 16093 2.48 215.562 13:20 26.09.2019
1062 Clear 16 1011 87 16093 2.48 215.562 12:56 26.09.2019
1063 Clear 15 1011 87 16093 2.48 215.562 12:38 26.09.2019
1064 Clear 15 1011 87 16093 2.14 229.146 12:19 26.09.2019
1065 Clear 15 1011 77 16093 3.1 250 11:42 26.09.2019
1066 Clear 15 1011 77 16093 3.1 250 11:21 26.09.2019
1067 Clear 15 1011 82 16093 2.14 229.146 10:56 26.09.2019
1068 Clear 15 1011 82 16093 2.14 229.146 10:56 26.09.2019
1069 Clear 15 1011 82 16093 2.14 229.146 10:56 26.09.2019
1070 Clear 15 1011 72 16093 3.1 280 10:38 26.09.2019
1071 Clear 15 1011 72 16093 3.1 280 10:38 26.09.2019
1072 Clear 15 1011 72 16093 3.1 280 10:19 26.09.2019
1073 Clear 16 1011 77 16093 2.14 229.146 09:44 26.09.2019
1074 Clear 16 1011 72 16093 2.6 260 09:25 26.09.2019
1075 Clear 16 1011 72 16093 1.92 237.808 08:57 26.09.2019
1076 Clear 16 1012 64 16093 2.6 260 08:39 26.09.2019
1077 Clear 16 1012 64 16093 2.6 260 08:21 26.09.2019
1078 Clear 17 1012 63 16093 1.48 255.71 07:42 26.09.2019
1079 Clear 17 1012 63 16093 1.48 255.71 07:21 26.09.2019
1080 Clear 17 1011 59 16093 1.48 255.71 06:44 26.09.2019
1081 Clear 17 1012 59 16093 2.26 255.374 06:25 26.09.2019
1082 Clear 18 1012 55 16093 2.26 255.374 05:44 26.09.2019
1083 Clear 18 1012 68 16093 1.5 260 05:24 26.09.2019
1084 Clear 20 1011 60 16093 2.5 238.91 02:53 26.09.2019
1085 Clear 21 1011 56 16093 2.5 238.91 01:53 26.09.2019
1086 Clear 21 1011 64 16093 2.1 190 01:29 26.09.2019
1087 Clear 22 1011 68 16093 1.5 250 00:56 26.09.2019
1088 Rain 23 1011 57 16093 3.1 200 00:37 26.09.2019
1089 Rain 25 1010 41 24140 3.6 280 23:58 25.09.2019
1090 Rain 25 1010 44 16093 3.1 240 23:39 25.09.2019
1091 Clear 25 1009 36 16093 2.6 0 23:18 25.09.2019
1092 Clear 25 1009 36 16093 2.6 0 23:18 25.09.2019
1093 Clear 25 1010 36 16093 2.1 270 22:42 25.09.2019
1094 Clear 25 1010 42 16093 2.6 240 22:21 25.09.2019
1095 Clear 25 1010 34 16093 2.71 240.952 21:58 25.09.2019
1096 Clear 25 1011 39 16093 3.1 0 21:39 25.09.2019
1097 Clear 25 1011 39 16093 3.1 0 21:19 25.09.2019
1098 Clear 25 1011 36 16093 2.1 320 20:58 25.09.2019
1099 Clouds 25 1012 36 16093 1.24 294.202 20:40 25.09.2019
1100 Clouds 25 1012 36 16093 1.24 294.202 20:22 25.09.2019
1101 Clouds 24 1012 38 16093 5.1 290 19:55 25.09.2019
1102 Clouds 24 1012 41 16093 5.1 320 19:36 25.09.2019
1103 Clouds 24 1012 41 16093 5.1 320 19:18 25.09.2019
1104 Clouds 23 1012 47 24140 3.6 320 18:55 25.09.2019
1105 Clouds 23 1013 38 16093 5.7 310 18:37 25.09.2019
1106 Clouds 23 1013 38 16093 5.7 310 18:37 25.09.2019
1107 Clouds 23 1013 38 16093 5.7 310 18:18 25.09.2019
1108 Clear 22 1014 53 16093 2.6 240 17:40 25.09.2019
1109 Clear 22 1014 53 16093 2.6 240 17:20 25.09.2019
1110 Clear 21 1014 56 16093 2.25 315.575 16:56 25.09.2019
1111 Clear 21 1014 52 14484 3.1 240 16:37 25.09.2019
1112 Clear 20 1014 52 14484 3.1 240 16:19 25.09.2019
1113 Clear 19 1014 59 16093 2.25 315.575 15:42 25.09.2019
1114 Clear 18 1014 63 16093 2.6 240 15:23 25.09.2019
1115 Clouds 17 1014 93 16093 1.97 308.737 14:59 25.09.2019
1116 Clear 15 1014 72 16093 1.97 308.737 14:41 25.09.2019
1117 Clouds 15 1014 72 16093 1.97 308.737 14:21 25.09.2019
1118 Smoke 14 1014 76 16093 1.97 308.737 13:56 25.09.2019
1119 Smoke 14 1014 76 16093 1.97 308.737 13:56 25.09.2019
1120 Smoke 14 1013 72 16093 2.1 250 13:38 25.09.2019
1121 Clear 13 1013 72 16093 2.1 250 13:19 25.09.2019
1122 Clear 13 1013 82 16093 1.86 298.959 12:42 25.09.2019
1123 Clear 13 1013 82 16093 1.96 294.342 12:23 25.09.2019
1124 Clear 13 1013 82 16093 1.96 294.342 11:59 25.09.2019
1125 Clear 13 1013 82 16093 1.96 294.342 11:59 25.09.2019
1126 Clear 13 1013 63 16093 1.96 294.342 11:40 25.09.2019
1127 Clear 13 1013 63 16093 1.96 294.342 11:40 25.09.2019
1128 Clear 13 1013 63 16093 1.96 294.342 11:19 25.09.2019
1129 Clear 13 1013 63 16093 1.96 294.342 11:19 25.09.2019
1130 Clear 14 1012 76 16093 1.96 294.342 10:45 25.09.2019
1131 Clear 14 1012 63 16093 1.96 294.342 10:26 25.09.2019
1132 Clear 14 1012 76 16093 1.96 294.342 09:58 25.09.2019
1133 Clear 14 1012 76 16093 1.96 294.342 09:58 25.09.2019
1134 Clear 14 1012 76 16093 1.96 294.342 09:58 25.09.2019
1135 Clear 14 1012 63 16093 1.96 294.342 09:38 25.09.2019
1136 Clear 14 1012 63 16093 1.62 297.56 09:20 25.09.2019
1137 -273 0 0 0 0 0 08:56 25.09.2019
1138 Clear 15 1012 59 16093 2.6 250 08:37 25.09.2019
1139 Clear 15 1012 59 16093 2.6 250 08:19 25.09.2019
1140 Clear 15 1012 67 16093 1.61 292.508 07:40 25.09.2019
1141 Clear 15 1012 67 16093 1.61 292.508 07:22 25.09.2019
1142 Clear 16 1012 59 16093 1.61 292.508 06:52 25.09.2019
1143 Clear 16 1012 59 16093 2.1 280 06:32 25.09.2019
1144 Clear 17 1013 52 16093 2.1 270 05:39 25.09.2019
1145 Clear 18 1012 52 16093 1.54 305.555 04:58 25.09.2019
1146 Clouds 20 1011 53 16093 2.6 0 02:32 25.09.2019
1147 Clouds 22 1010 49 16093 3.56 313.77 01:29 25.09.2019
1148 Clouds 23 1010 43 16093 3.6 300 00:37 25.09.2019
1149 Clouds 23 1010 43 16093 3.6 300 00:19 25.09.2019
1150 Clouds 23 1009 46 16093 3.6 300 23:41 24.09.2019
1151 Clouds 24 1009 46 16093 3.6 300 23:22 24.09.2019
1152 Clouds 24 1008 36 16093 6.2 310 22:56 24.09.2019
1153 Clouds 24 1008 36 16093 6.2 310 22:56 24.09.2019
1154 Clouds 24 1008 41 16093 1.5 0 22:38 24.09.2019
1155 Clouds 24 1008 41 16093 1.5 0 22:18 24.09.2019
1156 Clouds 24 1009 41 16093 8.7 330 21:54 24.09.2019
1157 Clouds 24 1009 43 16093 4.1 290 21:36 24.09.2019
1158 Clouds 24 1009 43 16093 4.1 290 21:18 24.09.2019
1159 Clouds 24 1009 44 16093 5.7 310 20:55 24.09.2019
1160 Clouds 24 1009 44 16093 5.7 310 20:55 24.09.2019
1161 Clouds 24 1009 47 16093 2.6 0 20:37 24.09.2019
1162 Clouds 23 1009 47 16093 2.6 0 20:18 24.09.2019
1163 Clouds 23 1009 44 16093 6.7 310 19:42 24.09.2019
1164 Clouds 23 1009 44 16093 6.7 310 19:19 24.09.2019
1165 Clouds 23 1009 44 16093 6.7 310 19:19 24.09.2019
1166 Clouds 23 1009 44 16093 8.7 280 18:57 24.09.2019
1167 Clouds 23 1009 44 16093 8.7 280 18:57 24.09.2019
1168 Clouds 23 1010 49 16093 5.1 320 18:39 24.09.2019
1169 Clouds 23 1010 49 16093 5.1 320 18:39 24.09.2019
1170 Clouds 23 1010 49 16093 5.1 320 18:20 24.09.2019
1171 Clouds 22 1009 47 16093 5.7 270 17:56 24.09.2019
1172 Clouds 22 1010 53 16093 2.1 0 17:37 24.09.2019
1173 Clouds 22 1010 53 16093 2.1 0 17:19 24.09.2019
1174 Clouds 22 1010 53 16093 3.1 250 16:42 24.09.2019
1175 Clouds 21 1010 53 16093 3.1 250 16:21 24.09.2019
1176 Clouds 21 1010 64 16093 5.1 300 15:58 24.09.2019
1177 Clouds 21 1010 64 16093 5.1 300 15:40 24.09.2019
1178 Clear 20 1010 60 16093 4.6 260 15:21 24.09.2019
1179 Clear 19 1010 72 16093 3.1 260 14:40 24.09.2019
1180 Clear 19 1010 72 16093 3.1 260 14:19 24.09.2019
1181 Clouds 18 1010 88 16093 2.1 220 13:45 24.09.2019
1182 Fog 18 1009 88 16093 1.5 300 13:23 24.09.2019
1183 Clear 18 1009 68 16093 2.89 298.056 12:59 24.09.2019
1184 Clear 18 1009 68 16093 2.89 298.056 12:39 24.09.2019
1185 Clear 18 1009 68 16093 2.9 303.887 12:18 24.09.2019
1186 Clear 18 1008 73 16093 2.6 260 11:42 24.09.2019
1187 Clear 19 1008 73 16093 2.6 260 11:21 24.09.2019
1188 Clear 19 1008 82 16093 2.9 303.887 10:56 24.09.2019
1189 Clear 19 1008 73 16093 1.5 260 10:36 24.09.2019
1190 Clear 19 1008 73 16093 1.5 260 10:18 24.09.2019
1191 Clouds 20 1008 68 16093 3.6 260 09:46 24.09.2019
1192 Clouds 20 1008 68 16093 3.6 260 09:27 24.09.2019
1193 Clouds 21 1008 73 16093 3.72 307.39 08:57 24.09.2019
1194 -273 0 0 0 0 0 08:38 24.09.2019
1195 Clouds 21 1008 69 16093 1.5 0 08:20 24.09.2019
1196 Rain 22 1008 83 16093 3.6 300 07:52 24.09.2019
1197 Rain 22 1008 88 16093 2.6 250 07:25 24.09.2019
1198 Rain 22 1008 88 16093 2.6 250 07:25 24.09.2019
1199 Rain 22 1009 94 6437 1.5 290 06:57 24.09.2019
1200 Rain 23 1008 88 12874 3.1 290 06:36 24.09.2019
1201 Rain 24 1008 65 16093 4.6 310 05:52 24.09.2019
1202 Rain 25 1008 57 16093 5.7 270 05:20 24.09.2019
1203 Rain 27 1008 48 16093 3.1 290 03:45 24.09.2019
1204 Clouds 28 1007 51 16093 4.1 250 02:57 24.09.2019
1205 Clouds 28 1007 51 16093 4.1 250 02:39 24.09.2019
1206 Clouds 28 1007 37 16093 1.5 230 01:40 24.09.2019
1207 Clouds 29 1008 51 16093 4.1 260 00:40 24.09.2019
1208 Clouds 30 1008 51 16093 4.1 260 00:21 24.09.2019
1209 Clouds 30 1008 48 16093 4.6 260 23:41 23.09.2019
1210 Clouds 30 1008 48 16093 4.6 260 23:22 23.09.2019
1211 Clear 31 1008 48 16093 4.1 230 22:40 23.09.2019
1212 Clear 31 1008 48 16093 4.1 230 22:21 23.09.2019
1213 Clear 31 1008 48 16093 4.1 230 22:21 23.09.2019
1214 Clear 32 1009 52 16093 4.1 230 21:59 23.09.2019
1215 Clear 32 1009 52 16093 4.1 230 21:41 23.09.2019
1216 Clear 32 1009 52 16093 4.1 230 21:20 23.09.2019
1217 Clear 32 1009 52 16093 4.1 230 21:20 23.09.2019
1218 Clear 32 1011 55 16093 4.6 220 20:59 23.09.2019
1219 Clear 31 1011 55 16093 4.6 220 20:39 23.09.2019
1220 Clear 31 1011 55 16093 4.6 220 20:18 23.09.2019
1221 Clear 31 1011 55 16093 4.6 220 20:18 23.09.2019
1222 Clear 31 1011 55 16093 4.6 220 20:18 23.09.2019
1223 Clear 31 1011 58 16093 2.6 0 19:40 23.09.2019
1224 Clear 30 1011 58 16093 2.6 0 19:22 23.09.2019
1225 Clear 30 1011 58 16093 2.6 0 19:22 23.09.2019
1226 Clear 30 1011 58 16093 2.6 0 19:22 23.09.2019
1227 Clouds 30 1011 40 16093 4.6 220 18:59 23.09.2019
1228 Clear 29 1012 51 16093 1.5 230 18:41 23.09.2019
1229 Clear 28 1012 58 16093 3.98 233.271 18:19 23.09.2019
1230 Clear 28 1012 58 16093 3.98 233.271 17:56 23.09.2019
1231 Clear 27 1013 69 16093 3.6 210 17:38 23.09.2019
1232 Clear 27 1013 69 16093 3.6 210 17:20 23.09.2019
1233 Clouds 26 1013 74 16093 3.6 220 16:55 23.09.2019
1234 Clear 25 1014 78 16093 3.1 240 16:36 23.09.2019
1235 Clear 25 1014 78 16093 3.1 240 16:36 23.09.2019
1236 Clear 24 1014 78 16093 3.1 240 16:18 23.09.2019
1237 Clouds 24 1013 78 16093 1.5 270 15:56 23.09.2019
1238 Clouds 24 1013 78 16093 1.5 270 15:56 23.09.2019
1239 Clear 23 1014 78 16093 4.1 240 15:38 23.09.2019
1240 Clear 23 1014 78 16093 4.1 240 15:18 23.09.2019
1241 Clear 22 1014 83 16093 3.1 220 14:40 23.09.2019
1242 Clear 22 1014 83 16093 3.1 220 14:20 23.09.2019
1243 Clear 21 1014 83 16093 3.26 230.86 13:58 23.09.2019
1244 Clear 21 1014 83 16093 3.42 231.762 13:38 23.09.2019
1245 Clouds 21 1014 83 16093 4.1 200 13:18 23.09.2019
1246 Clear 21 1014 83 16093 3.42 231.762 13:18 23.09.2019
1247 Clear 21 1014 83 16093 3.42 231.762 12:44 23.09.2019
1248 Clear 21 1014 83 16093 2.99 235.506 12:23 23.09.2019
1249 Clear 21 1014 83 16093 2.99 235.506 11:58 23.09.2019
1250 Clear 21 1014 83 16093 2.1 260 11:40 23.09.2019
1251 Clear 21 1014 83 16093 2.1 260 11:22 23.09.2019
1252 Clear 21 1014 83 16093 2.99 235.506 10:49 23.09.2019
1253 Clear 21 1015 78 16093 2.6 250 10:22 23.09.2019
1254 Clear 21 1015 78 16093 2.6 250 10:22 23.09.2019
1255 Clear 21 1014 83 16093 2.99 235.506 09:59 23.09.2019
1256 Clear 22 1015 78 16093 2.6 250 09:38 23.09.2019
1257 Clear 22 1015 78 16093 2.6 250 09:20 23.09.2019
1258 Clear 22 1016 78 16093 3.1 250 08:48 23.09.2019
1259 Clear 22 1016 78 16093 3.1 250 08:29 23.09.2019
1260 Clear 22 1016 69 16093 2.7 227.945 07:58 23.09.2019
1261 Clear 22 1016 64 16093 2.7 227.945 07:30 23.09.2019
1262 Clear 23 1016 73 16093 3.6 280 06:40 23.09.2019
1263 Clear 23 1016 69 16093 2.64 218.731 05:54 23.09.2019
1264 Clear 23 1017 69 16093 2.1 260 05:21 23.09.2019
1265 Squall 24 1017 61 16093 2.64 218.731 04:54 23.09.2019
1266 Clear 24 1017 65 16093 2.6 240 03:33 23.09.2019
1267 Clear 25 1017 57 16093 2.1 200 01:19 23.09.2019
1268 Clear 27 1017 51 16093 3.6 190 00:23 23.09.2019
1269 Rain 28 1017 40 16093 3.53 221.51 23:57 22.09.2019
1270 Rain 28 1018 51 16093 4.1 160 23:33 22.09.2019
1271 Clouds 29 1017 48 16093 4.1 220 22:59 22.09.2019
1272 Haze 29 1019 48 3219 2.1 0 22:41 22.09.2019
1273 Haze 30 1019 48 3219 2.1 0 22:22 22.09.2019
1274 Clear 30 1019 48 16093 2.1 170 21:55 22.09.2019
1275 Clear 30 1019 48 16093 2.1 170 21:37 22.09.2019
1276 Clear 30 1019 48 16093 2.1 170 21:19 22.09.2019
1277 Clear 30 1020 51 16093 2.6 190 20:42 22.09.2019
1278 Clear 30 1020 51 16093 2.6 190 20:23 22.09.2019
1279 Rain 30 1019 51 16093 2.6 280 19:55 22.09.2019
1280 Rain 30 1021 58 16093 3.1 210 19:37 22.09.2019
1281 Rain 29 1021 58 16093 3.1 210 19:19 22.09.2019
1282 Clear 29 1020 45 16093 3.78 228.536 18:55 22.09.2019
1283 Clear 28 1020 45 16093 3.78 228.536 18:36 22.09.2019
1284 Clear 28 1020 45 16093 2.73 221.435 18:18 22.09.2019
1285 Clear 27 1021 57 16093 1.5 270 17:41 22.09.2019
1286 Clear 26 1021 57 16093 1.5 270 17:22 22.09.2019
1287 Clear 25 1021 57 16093 2.73 221.435 16:46 22.09.2019
1288 Clear 24 1022 69 16093 2.1 260 16:27 22.09.2019
1289 Clear 23 1022 68 16093 2.73 221.435 15:58 22.09.2019
1290 Clear 22 1022 68 16093 2.73 221.435 15:40 22.09.2019
1291 Clear 22 1022 73 16093 1.5 250 15:40 22.09.2019
1292 Clear 20 1022 73 16093 1.5 250 15:22 22.09.2019
1293 Clear 18 1022 77 16093 1.22 233.149 14:47 22.09.2019
1294 Clear 18 1022 77 16093 1.22 233.149 14:47 22.09.2019
1295 Clear 18 1022 82 16093 2.1 270 14:27 22.09.2019
1296 Fog 16 1022 87 16093 1.22 233.149 13:59 22.09.2019
1297 Fog 16 1022 87 16093 1.22 233.149 13:41 22.09.2019
1298 Fog 15 1022 87 16093 1.22 238.843 13:23 22.09.2019
1299 Fog 15 1021 87 16093 1.22 238.843 12:56 22.09.2019
1300 Fog 16 1022 87 16093 1.22 238.843 12:38 22.09.2019
1301 Fog 15 1022 87 16093 0.97 292.044 12:18 22.09.2019
1302 Fog 15 1022 77 16093 2.1 220 11:43 22.09.2019
1303 Fog 15 1022 77 16093 2.1 220 11:24 22.09.2019
1304 Fog 15 1022 82 16093 0.97 292.044 10:56 22.09.2019
1305 Fog 16 1022 82 16093 2.1 230 10:37 22.09.2019
1306 Fog 16 1022 77 16093 0.97 292.044 10:19 22.09.2019
1307 Fog 16 1022 82 16093 2.1 230 10:19 22.09.2019
1308 Fog 16 1022 77 16093 0.97 292.044 09:42 22.09.2019
1309 Fog 16 1022 73 16093 2.1 260 09:21 22.09.2019
1310 Clear 16 1022 82 16093 1.25 276.107 08:55 22.09.2019
1311 Clear 17 1022 73 16093 2.1 260 08:37 22.09.2019
1312 Clear 17 1022 73 16093 2.1 260 08:18 22.09.2019
1313 Clear 17 1022 72 16093 1.32 262.011 07:41 22.09.2019
1314 Clear 17 1022 72 16093 1.32 262.011 07:23 22.09.2019
1315 Clouds 18 1022 77 16093 3.1 220 06:56 22.09.2019
1316 Clear 18 1022 68 16093 1.32 262.011 06:31 22.09.2019
1317 Clear 20 1022 68 16093 1.5 264.491 03:54 22.09.2019
1318 Clear 21 1022 60 16093 1.13 246.374 02:44 22.09.2019
1319 Clear 22 1022 60 16093 1.13 246.374 02:24 22.09.2019
1320 Clear 23 1021 53 16093 1.13 246.374 01:35 22.09.2019
1321 Clear 25 1021 39 16093 1.16 245.907 00:40 22.09.2019
1322 Clear 27 1021 39 16093 0.57 226.201 00:21 22.09.2019
1323 Clear 27 1021 39 16093 3.6 160 23:47 21.09.2019
1324 Clear 28 1022 39 16093 2.1 0 23:27 21.09.2019
1325 Clear 28 1022 39 16093 1.5 200 22:43 21.09.2019
1326 Clear 29 1022 39 16093 1.5 200 22:23 21.09.2019
1327 Rain 28 1022 42 16093 2.1 0 21:58 21.09.2019
1328 Rain 29 1022 42 16093 2.1 0 21:40 21.09.2019
1329 Rain 29 1022 42 16093 2.1 0 21:19 21.09.2019
1330 Clouds 28 1022 37 16093 1.5 100 20:55 21.09.2019
1331 Clear 28 1023 51 16093 3.6 250 20:36 21.09.2019
1332 Clear 28 1023 51 16093 3.6 250 20:18 21.09.2019
1333 Fog 28 1022 32 16093 0.78 284.25 19:42 21.09.2019
1334 Fog 27 1023 34 16093 0.78 284.25 19:19 21.09.2019
1335 Fog 26 1023 39 16093 0.78 284.25 18:40 21.09.2019
1336 Fog 26 1023 39 16093 0.34 15.945 18:21 21.09.2019
1337 Fog 25 1024 50 16093 2.1 0 17:42 21.09.2019
1338 Fog 25 1024 50 16093 2.1 0 17:42 21.09.2019
1339 Fog 24 1024 50 16093 2.1 0 17:23 21.09.2019
1340 Fog 24 1024 60 16093 0.34 15.945 16:57 21.09.2019
1341 Fog 23 1024 56 16093 2.6 0 16:37 21.09.2019
1342 Fog 22 1024 56 16093 2.6 0 16:19 21.09.2019
1343 Fog 21 1024 60 16093 0.34 15.945 15:43 21.09.2019
1344 Fog 19 1024 60 16093 1.74 332.7 15:22 21.09.2019
1345 Fog 17 1024 72 16093 1.74 332.7 14:48 21.09.2019
1346 Fog 17 1023 77 16093 2.1 260 14:30 21.09.2019
1347 Fog 14 1023 77 16093 1.74 332.7 13:54 21.09.2019
1348 Fog 14 1024 82 16093 1.74 332.7 13:36 21.09.2019
1349 Fog 14 1024 82 16093 1.63 327.767 13:18 21.09.2019
1350 Clear 14 1023 82 16093 1.63 327.767 12:41 21.09.2019
1351 Clear 14 1023 82 16093 1.91 288.767 12:22 21.09.2019
1352 Clear 14 1023 82 16093 1.91 288.767 11:59 21.09.2019
1353 Clear 14 1023 68 16093 3.1 270 11:41 21.09.2019
1354 Clear 14 1023 68 16093 3.1 270 11:22 21.09.2019
1355 Clear 14 1023 63 16093 2.6 260 10:43 21.09.2019
1356 Clear 15 1023 63 16093 2.6 260 10:24 21.09.2019
1357 Clear 15 1023 67 16093 1.91 288.767 09:58 21.09.2019
1358 Clear 15 1023 63 16093 2.1 270 09:39 21.09.2019
1359 Clear 15 1023 63 16093 2.1 270 09:20 21.09.2019
1360 Clear 15 1023 63 16093 2.1 270 09:20 21.09.2019
1361 Clear 16 1023 63 16093 1.94 286.586 08:52 21.09.2019
1362 Clear 16 1023 63 16093 3.1 250 08:27 21.09.2019
1363 Clear 17 1023 63 16093 1.96 284.873 07:42 21.09.2019
1364 Clear 17 1023 55 16093 1.96 284.873 07:23 21.09.2019
1365 Clear 17 1022 55 16093 1.96 284.873 06:57 21.09.2019
1366 Clear 17 1022 55 16093 1.96 284.873 06:32 21.09.2019
1367 Clear 17 1023 53 16093 2.6 270 05:32 21.09.2019
1368 Clear 18 1023 53 16093 3.1 260 04:36 21.09.2019
1369 Clear 19 1023 46 16093 2.6 260 03:22 21.09.2019
1370 Clear 20 1022 46 16093 2.43 257.451 02:21 21.09.2019
1371 Clear 21 1022 44 16093 3.1 270 01:46 21.09.2019
1372 Clear 24 1022 36 16093 2.6 320 00:51 21.09.2019
1373 Clear 24 1022 38 16093 2.6 0 00:20 21.09.2019
1374 Clouds 25 1021 41 16093 3.6 250 23:46 20.09.2019
1375 Clear 25 1021 39 16093 4.1 260 23:28 20.09.2019
1376 Clear 26 1022 36 16093 4.1 250 22:42 20.09.2019
1377 Clear 26 1022 36 16093 4.1 250 22:24 20.09.2019
1378 Clouds 26 1022 41 16093 4.6 270 21:57 20.09.2019
1379 Clear 25 1022 39 16093 6.7 250 21:38 20.09.2019
1380 Clear 25 1022 39 16093 6.7 250 21:20 20.09.2019
1381 Clear 25 1022 31 16093 3.6 280 20:57 20.09.2019
1382 Clear 25 1023 39 16093 4.1 250 20:37 20.09.2019
1383 Clear 25 1023 39 16093 4.1 250 20:18 20.09.2019
1384 Clear 24 1023 36 16093 2.6 300 19:45 20.09.2019
1385 Clear 24 1023 33 16093 4.1 310 19:26 20.09.2019
1386 Clouds 23 1023 33 16093 4.1 250 18:58 20.09.2019
1387 Clear 23 1024 40 16093 5.1 320 18:38 20.09.2019
1388 Clear 22 1024 40 16093 5.1 290 18:18 20.09.2019
1389 Fog 21 1025 37 16093 4.6 310 17:46 20.09.2019
1390 Fog 21 1025 49 11265 2.6 0 17:27 20.09.2019
1391 Fog 20 1025 45 16093 3.6 280 16:54 20.09.2019
1392 Fog 20 1026 55 16093 3.1 240 16:36 20.09.2019
1393 Fog 19 1026 55 16093 3.1 240 16:18 20.09.2019
1394 Rain 17 1026 55 16093 2.92 287.485 15:41 20.09.2019
1395 Rain 16 1026 63 16093 3.1 240 15:22 20.09.2019
1396 Fog 14 1026 67 16093 2.23 289.906 14:44 20.09.2019
1397 Fog 12 1026 76 16093 2.6 250 14:20 20.09.2019
1398 Fog 12 1026 76 16093 2.6 250 14:20 20.09.2019
1399 Fog 12 1026 67 16093 2.6 270 13:59 20.09.2019
1400 Fog 12 1026 76 16093 2.23 289.906 13:40 20.09.2019
1401 Clear 11 1025 87 16093 1.99 295.523 13:21 20.09.2019
1402 Clear 11 1025 87 16093 1.99 295.523 12:40 20.09.2019
1403 Clear 10 1025 87 16093 1.55 288.107 12:22 20.09.2019
1404 Clear 10 1025 87 16093 1.55 288.107 11:51 20.09.2019
1405 Clear 10 1025 77 16093 3.1 250 11:26 20.09.2019
1406 Clear 10 1025 81 16093 1.55 288.107 10:58 20.09.2019
1407 Clear 11 1025 72 16093 2.1 260 10:40 20.09.2019
1408 Clear 11 1025 72 16093 2.1 260 10:22 20.09.2019
1409 Clear 11 1025 63 16093 3.1 260 09:38 20.09.2019
1410 Clear 11 1025 63 16093 3.1 260 09:38 20.09.2019
1411 Clear 11 1025 63 16093 3.1 260 09:19 20.09.2019
1412 Clear 11 1025 71 16093 1.41 285.081 08:48 20.09.2019
1413 Clear 11 1025 63 16093 2.1 0 08:28 20.09.2019
1414 Clear 11 1025 71 16093 1.41 285.081 07:59 20.09.2019
1415 Clear 12 1025 71 16093 1.3 287.129 07:40 20.09.2019
1416 Clear 12 1025 71 16093 1.3 287.129 07:22 20.09.2019
1417 Clear 12 1025 62 16093 1.3 287.129 06:42 20.09.2019
1418 Clear 12 1025 62 16093 1.13 283.778 06:18 20.09.2019
1419 Rain 14 1026 58 16093 1.13 283.778 04:58 20.09.2019
1420 Clear 15 1026 59 16093 2.6 200 03:29 20.09.2019
1421 Clear 15 1026 59 16093 2.6 200 03:29 20.09.2019
1422 Clear 15 1026 52 16093 3.1 160 02:39 20.09.2019
1423 Clear 17 1026 42 16093 0.93 272.826 01:43 20.09.2019
1424 Clear 19 1026 28 16093 0.78 244.128 00:43 20.09.2019
1425 Clouds 20 1025 35 16093 1.5 0 23:56 19.09.2019
1426 Clear 21 1027 20 16093 0.81 102.744 23:38 19.09.2019
1427 Clear 21 1026 31 16093 3.1 0 23:18 19.09.2019
1428 Clear 21 1026 28 16093 0.81 102.744 22:40 19.09.2019
1429 Clear 21 1026 28 16093 0.81 102.744 22:22 19.09.2019
1430 Clear 21 1026 30 16093 0.81 102.744 21:57 19.09.2019
1431 Clear 21 1027 33 16093 2.1 0 21:39 19.09.2019
1432 Clear 21 1027 33 16093 2.1 0 21:20 19.09.2019
1433 Clear 21 1027 37 16093 1.5 270 20:58 19.09.2019
1434 Haze 20 1027 35 16093 2.6 0 20:40 19.09.2019
1435 Haze 20 1027 35 16093 2.6 0 20:19 19.09.2019
1436 Haze 20 1027 34 1609 1.61 22.984 19:55 19.09.2019
1437 Haze 20 1027 37 1609 1.61 22.984 19:37 19.09.2019
1438 Haze 20 1027 37 1609 1.61 22.984 19:18 19.09.2019
1439 Haze 19 1028 39 1207 1.61 22.984 18:42 19.09.2019
1440 Haze 18 1028 39 1207 1.72 26.669 18:23 19.09.2019
1441 Clear 17 1029 52 16093 2.6 70 17:44 19.09.2019
1442 -273 0 0 0 0 0 17:25 19.09.2019
1443 Clear 17 1029 52 16093 2.6 70 17:25 19.09.2019
1444 Clear 16 1028 45 16093 2.1 60 16:59 19.09.2019
1445 Clear 16 1029 51 16093 1.72 26.669 16:40 19.09.2019
1446 Clear 15 1029 51 16093 1.72 26.669 16:20 19.09.2019
1447 Clear 15 1029 58 16093 3.1 0 15:41 19.09.2019
1448 Clear 14 1029 58 16093 3.1 0 15:22 19.09.2019
1449 Clear 13 1028 54 16093 1.38 341.618 14:58 19.09.2019
1450 Clear 12 1028 67 16093 4.6 40 14:39 19.09.2019
1451 Clear 11 1028 67 16093 4.6 40 14:21 19.09.2019
1452 Clear 10 1029 100 16093 1.38 341.618 13:58 19.09.2019
1453 Clear 10 1028 66 16093 1.38 341.618 13:37 19.09.2019
1454 Clear 9 1028 66 16093 1.31 352.347 13:18 19.09.2019
1455 Clear 10 1027 66 16093 1.31 352.347 12:37 19.09.2019
1456 Clear 9 1027 66 16093 1.82 24.196 12:18 19.09.2019
1457 Mist 9 1027 67 16093 3.6 30 11:41 19.09.2019
1458 Clear 10 1027 67 16093 3.6 30 11:22 19.09.2019
1459 Clear 10 1027 76 16093 1.82 24.196 10:59 19.09.2019
1460 Clear 10 1028 66 16093 2.1 20 10:40 19.09.2019
1461 Clear 10 1027 67 16093 4.1 30 10:21 19.09.2019
1462 Clear 11 1027 62 16093 1.82 24.196 09:58 19.09.2019
1463 Clear 11 1028 62 16093 2.1 20 09:40 19.09.2019
1464 Clear 11 1028 62 16093 2.1 20 09:20 19.09.2019
1465 Clear 12 1027 54 16093 3.6 130 08:51 19.09.2019
1466 Clear 12 1027 58 16093 5.1 40 08:26 19.09.2019
1467 Clear 13 1027 63 16093 4.6 60 07:45 19.09.2019
1468 Clear 13 1027 63 16093 4.6 60 07:24 19.09.2019
1469 Clear 13 1027 54 16093 3.1 130 06:59 19.09.2019
1470 Clear 13 1027 51 16093 1.5 140 06:40 19.09.2019
1471 Clear 13 1027 51 16093 1.5 140 06:21 19.09.2019
1472 Clear 13 1027 51 16093 1.5 140 06:21 19.09.2019
1473 Clouds 14 1026 51 16093 2.11 44.442 05:49 19.09.2019
1474 Clear 15 1026 63 16093 3.6 80 04:23 19.09.2019
1475 Clear 16 1026 63 16093 4.6 50 03:20 19.09.2019
1476 Clear 17 1024 45 16093 2.58 36.728 01:45 19.09.2019
1477 Clear 17 1024 45 16093 3.6 120 01:20 19.09.2019
1478 Clear 18 1024 45 16093 3.1 120 00:43 19.09.2019
1479 Clear 19 1024 40 16093 2.6 110 00:20 19.09.2019
1480 Clear 20 1025 48 16093 3.1 90 23:38 18.09.2019
1481 Clear 20 1024 46 16093 4.1 90 23:20 18.09.2019
1482 Clouds 20 1024 46 16093 2.6 0 22:42 18.09.2019
1483 Clouds 21 1024 56 16093 2.1 70 22:20 18.09.2019
1484 Clouds 21 1024 56 16093 2.1 70 21:58 18.09.2019
1485 Clouds 21 1024 56 16093 4.6 40 21:40 18.09.2019
1486 Clouds 21 1024 56 16093 4.6 40 21:40 18.09.2019
1487 Clouds 21 1023 40 16093 3.6 70 21:19 18.09.2019
1488 Clouds 21 1024 52 16093 2.1 50 20:58 18.09.2019
1489 Clouds 21 1024 40 16093 3.1 20 20:40 18.09.2019
1490 Clouds 20 1024 40 16093 3.1 20 20:22 18.09.2019
1491 Clouds 20 1024 46 16093 3.1 30 19:57 18.09.2019
1492 Clouds 20 1024 45 16093 3.6 100 19:38 18.09.2019
1493 Clouds 20 1024 45 16093 3.6 100 19:19 18.09.2019
1494 Clouds 20 1024 45 16093 3.6 100 19:19 18.09.2019
1495 Clouds 19 1024 49 16093 3.6 90 18:56 18.09.2019
1496 Clouds 19 1024 60 16093 4.6 60 18:37 18.09.2019
1497 Clouds 19 1024 60 16093 4.6 60 18:19 18.09.2019
1498 Clouds 19 1024 60 16093 4.6 60 18:19 18.09.2019
1499 Clouds 19 1025 59 16093 3.6 60 17:57 18.09.2019
1500 Clouds 19 1024 60 16093 6.2 40 17:39 18.09.2019
1501 Clouds 18 1024 55 14484 4.1 90 17:19 18.09.2019
1502 Clouds 18 1025 59 16093 2.6 0 16:56 18.09.2019
1503 Clouds 18 1024 64 16093 4.1 60 16:37 18.09.2019
1504 Clear 18 1025 55 16093 3.6 40 16:18 18.09.2019
1505 Clouds 17 1025 68 16093 3.1 0 15:55 18.09.2019
1506 Clouds 17 1025 63 16093 1.5 0 15:36 18.09.2019
1507 Clouds 16 1025 63 16093 1.5 0 15:18 18.09.2019
1508 Clouds 16 1024 63 16093 3.43 27.737 14:57 18.09.2019
1509 Clouds 15 1024 72 16093 4.6 40 14:38 18.09.2019
1510 Clouds 15 1024 63 16093 3.1 20 14:20 18.09.2019
1511 Clouds 14 1023 67 16093 2.86 30.359 13:43 18.09.2019
1512 Clouds 14 1023 67 16093 2.86 30.359 13:19 18.09.2019
1513 Clouds 14 1023 71 16093 5.7 360 12:55 18.09.2019
1514 Clouds 14 1023 62 16093 2.86 30.359 12:36 18.09.2019
1515 Clouds 14 1023 62 16093 3.04 21.623 12:18 18.09.2019
1516 Clouds 14 1022 93 16093 2.1 20 11:39 18.09.2019
1517 Clouds 14 1022 77 16093 3.6 60 11:19 18.09.2019
1518 Clear 14 1022 77 16093 3.6 60 10:41 18.09.2019
1519 Clear 14 1022 77 16093 3.6 60 10:22 18.09.2019
1520 Clear 14 1022 62 16093 3.04 21.623 09:59 18.09.2019
1521 Clear 14 1022 77 16093 2.6 60 09:41 18.09.2019
1522 Clear 14 1022 77 16093 2.6 60 09:22 18.09.2019
1523 Clear 14 1022 51 16093 2.69 21.125 08:55 18.09.2019
1524 Clear 14 1022 72 16093 2.72 22.169 08:37 18.09.2019
1525 Clear 14 1022 72 16093 2.72 22.169 08:18 18.09.2019
1526 Clear 15 1021 52 16093 2.72 22.169 07:41 18.09.2019
1527 Clear 15 1021 52 16093 2.72 22.169 07:23 18.09.2019
1528 Clouds 15 1021 63 16093 2.72 22.169 06:42 18.09.2019
1529 Clear 16 1021 59 16093 1.99 7.061 05:58 18.09.2019
1530 Clear 16 1022 55 16093 2.1 0 05:22 18.09.2019
1531 Clear 18 1021 53 16093 4.1 70 03:38 18.09.2019
1532 Clear 19 1020 35 16093 4.1 30 02:40 18.09.2019
1533 Clear 21 1019 28 16093 4.1 60 01:37 18.09.2019
1534 Clear 22 1019 25 16093 2.1 90 00:51 18.09.2019
1535 Clear 23 1019 23 16093 2.1 40 00:29 18.09.2019
1536 Clear 24 1019 22 16093 4.1 50 23:47 17.09.2019
1537 Clear 24 1019 22 16093 4.1 50 23:47 17.09.2019
1538 Clear 24 1020 27 16093 4.6 50 23:24 17.09.2019
1539 Clear 24 1019 24 16093 3.6 40 22:56 17.09.2019
1540 Clear 24 1019 24 16093 3.6 40 22:56 17.09.2019
1541 Clear 24 1020 29 16093 3.08 31.633 22:37 17.09.2019
1542 Clear 24 1020 29 16093 3.08 31.633 22:19 17.09.2019
1543 Clear 25 1020 38 16093 2.6 60 21:54 17.09.2019
1544 Clear 24 1020 31 16093 4.1 50 21:36 17.09.2019
1545 Clear 24 1020 31 16093 4.1 50 21:18 17.09.2019
1546 Clear 24 1020 33 16093 3.6 90 20:55 17.09.2019
1547 Clear 24 1020 25 16093 3.6 20 20:37 17.09.2019
1548 Clear 24 1020 25 16093 3.6 20 20:19 17.09.2019
1549 Clear 24 1021 29 16093 3.1 40 19:40 17.09.2019
1550 Clear 24 1021 29 16093 3.1 40 19:20 17.09.2019
1551 Haze 23 1021 31 16093 3.6 40 18:59 17.09.2019
1552 Haze 23 1021 31 16093 3.6 40 18:59 17.09.2019
1553 Haze 23 1021 31 1207 3.1 60 18:41 17.09.2019
1554 Haze 23 1021 31 1207 3.1 60 18:22 17.09.2019
1555 Clear 22 1021 38 16093 3.57 29.665 17:55 17.09.2019
1556 Clear 22 1021 35 16093 3.1 60 17:37 17.09.2019
1557 Clear 22 1021 35 16093 3.1 60 17:18 17.09.2019
1558 Clear 21 1022 43 16093 3.6 40 16:41 17.09.2019
1559 Clear 21 1022 43 16093 3.6 40 16:41 17.09.2019
1560 Clear 21 1022 43 16093 3.6 40 16:41 17.09.2019
1561 Clear 21 1022 43 16093 3.6 40 16:41 17.09.2019
1562 Clear 20 1022 43 16093 3.6 40 16:22 17.09.2019
1563 Clear 20 1022 68 16093 2.1 70 15:58 17.09.2019
1564 Clear 19 1021 49 16093 3.57 29.665 15:37 17.09.2019
1565 Clear 18 1021 59 16093 3.6 10 15:19 17.09.2019
1566 Clear 17 1021 63 16093 1.5 20 14:55 17.09.2019
1567 Clear 17 1021 63 16093 2.6 30 14:37 17.09.2019
1568 Clear 17 1021 63 16093 2.6 30 14:19 17.09.2019
1569 Clear 15 1021 67 16093 2.6 20 13:42 17.09.2019
1570 Clear 15 1021 67 16093 2.6 20 13:23 17.09.2019
1571 Clouds 15 1021 100 16093 2.53 24.721 12:56 17.09.2019
1572 Clouds 15 1021 100 16093 2.53 24.721 12:56 17.09.2019
1573 Clear 15 1020 67 16093 2.53 24.721 12:37 17.09.2019
1574 Clear 15 1020 67 16093 2.75 23.563 12:18 17.09.2019
1575 Clear 16 1019 63 16093 2.75 23.563 11:42 17.09.2019
1576 Clear 16 1019 63 16093 2.75 23.563 11:24 17.09.2019
1577 Clear 16 1019 63 16093 2.75 23.563 11:24 17.09.2019
1578 Clear 17 1019 59 16093 3.6 40 10:55 17.09.2019
1579 Clear 17 1019 59 16093 2.1 40 10:37 17.09.2019
1580 Clear 17 1019 59 16093 2.1 40 10:18 17.09.2019
1581 Clouds 18 1019 59 16093 2.75 23.563 09:41 17.09.2019
1582 Clouds 18 1019 60 16093 2.24 16.061 09:21 17.09.2019
1583 Clouds 18 1019 68 16093 2.24 16.061 08:50 17.09.2019
1584 Clouds 18 1019 68 16093 2.05 10.695 08:32 17.09.2019
1585 Clouds 19 1018 46 16093 2.6 60 07:59 17.09.2019
1586 Drizzle 19 1018 83 16093 4.6 110 07:39 17.09.2019
1587 Drizzle 19 1018 83 16093 4.6 110 07:21 17.09.2019
1588 Clouds 19 1018 88 16093 2.05 10.695 06:47 17.09.2019
1589 Clouds 19 1018 73 16093 4.6 40 06:23 17.09.2019
1590 Clouds 19 1018 78 16093 3.6 60 05:49 17.09.2019
1591 Clouds 20 1017 78 16093 1.37 5.339 04:31 17.09.2019
1592 Clouds 21 1017 78 16093 1.42 19.277 02:58 17.09.2019
1593 Clouds 21 1017 73 16093 1.42 19.277 02:39 17.09.2019
1594 Clouds 22 1016 69 16093 1.02 27.12 01:29 17.09.2019
1595 Clouds 23 1016 73 16093 1.02 27.12 00:40 17.09.2019
1596 Clouds 23 1016 69 16093 1.5 150 23:40 16.09.2019
1597 Clouds 23 1016 69 16093 1.5 150 23:19 16.09.2019
1598 Clouds 24 1016 64 16093 2.1 150 22:56 16.09.2019
1599 Clouds 24 1016 64 16093 2.1 150 22:56 16.09.2019
1600 Clouds 24 1016 64 16093 2.1 34.643 22:38 16.09.2019
1601 Clouds 24 1017 78 16093 2.6 150 22:20 16.09.2019
1602 Clouds 24 1016 61 16093 2.1 160 21:55 16.09.2019
1603 Clouds 24 1016 57 16093 2.1 34.643 21:37 16.09.2019
1604 Clouds 24 1016 57 16093 1.97 13.289 21:18 16.09.2019
1605 Clouds 24 1018 69 16093 2.36 15.104 20:40 16.09.2019
1606 Clouds 24 1018 69 16093 2.36 15.104 20:22 16.09.2019
1607 Clouds 24 1017 50 16093 1.5 120 19:57 16.09.2019
1608 Clouds 24 1017 50 16093 2.1 80 19:39 16.09.2019
1609 Clouds 24 1017 50 16093 2.1 80 19:19 16.09.2019
1610 Clouds 24 1018 53 16093 2.36 15.104 18:47 16.09.2019
1611 Clouds 24 1018 53 16093 2.36 15.104 18:29 16.09.2019
1612 Clouds 23 1018 54 16093 1.4 21.138 17:59 16.09.2019
1613 Clouds 23 1018 53 16093 2.6 60 17:41 16.09.2019
1614 Clouds 23 1018 53 16093 2.6 60 17:22 16.09.2019
1615 Clouds 22 1018 73 16093 2.6 50 16:55 16.09.2019
1616 Clouds 22 1018 64 16093 1.4 21.138 16:37 16.09.2019
1617 Clouds 22 1018 64 16093 1.4 21.138 16:18 16.09.2019
1618 Rain 21 1019 68 16093 1.4 21.138 15:55 16.09.2019
1619 Rain 21 1019 69 16093 1.5 0 15:37 16.09.2019
1620 Rain 21 1019 69 16093 1.5 0 15:18 16.09.2019
1621 Clouds 20 1019 77 16093 0.99 308.886 14:44 16.09.2019
1622 Clouds 20 1019 77 16093 0.99 308.886 14:23 16.09.2019
1623 Clouds 20 1019 77 16093 0.99 308.886 13:58 16.09.2019
1624 Clouds 20 1019 72 16093 0.99 308.886 13:39 16.09.2019
1625 Clouds 19 1019 72 16093 0.76 322.205 13:20 16.09.2019
1626 Rain 19 1019 72 16093 0.76 322.205 13:20 16.09.2019
1627 Rain 19 1018 77 16093 0.76 322.205 12:43 16.09.2019
1628 Rain 19 1018 77 16093 0.81 290.074 12:25 16.09.2019
1629 Rain 19 1018 77 16093 0.81 290.074 12:25 16.09.2019
1630 Rain 19 1018 77 16093 0.81 290.074 12:25 16.09.2019
1631 Clouds 19 1018 72 16093 0.81 290.074 11:56 16.09.2019
1632 Clouds 19 1018 72 16093 0.81 290.074 11:56 16.09.2019
1633 Clouds 19 1018 72 16093 0.81 290.074 11:37 16.09.2019
1634 Clouds 19 1017 82 16093 1.5 210 11:19 16.09.2019
1635 Clouds 19 1018 68 16093 2.1 250 10:39 16.09.2019
1636 Clouds 19 1018 68 16093 2.1 250 10:20 16.09.2019
1637 Clouds 19 1018 68 16093 0.81 290.074 09:58 16.09.2019
1638 Clouds 19 1018 68 16093 2.1 240 09:39 16.09.2019
1639 Clouds 19 1018 68 16093 2.1 240 09:19 16.09.2019
1640 Clear 19 1018 72 16093 1.52 302.599 08:46 16.09.2019
1641 Clear 19 1018 64 16093 1.69 299.615 08:26 16.09.2019
1642 Clouds 19 1018 100 16093 1.69 299.615 07:56 16.09.2019
1643 Clouds 19 1018 100 16093 1.69 299.615 07:56 16.09.2019
1644 Clear 19 1018 72 16093 1.69 299.615 07:38 16.09.2019
1645 Clear 19 1018 72 16093 1.69 299.615 07:20 16.09.2019
1646 Clear 19 1019 72 16093 1.69 299.615 06:46 16.09.2019
1647 Clear 19 1019 72 16093 1.69 299.615 06:27 16.09.2019
1648 Clear 19 1018 64 16093 1.56 262.052 05:51 16.09.2019
1649 Clear 19 1018 64 16093 1.56 262.052 05:29 16.09.2019
1650 Clear 20 1018 60 16093 1.56 262.052 04:49 16.09.2019
1651 Clouds 22 1019 93 16093 1.33 267.157 02:58 16.09.2019
1652 Clear 25 1019 39 16093 1.5 310 00:44 16.09.2019
1653 Clear 26 1019 39 16093 1.5 310 00:26 16.09.2019
1654 Clear 27 1019 37 16093 4.1 250 23:45 15.09.2019
1655 Clear 27 1019 34 16093 3.6 340 23:22 15.09.2019
1656 Clear 27 1019 34 16093 1.5 0 22:59 15.09.2019
1657 Clear 28 1019 32 16093 1.5 330 22:38 15.09.2019
1658 Clear 28 1019 32 16093 1.5 330 22:18 15.09.2019
1659 Clear 28 1019 45 16093 2.1 210 21:56 15.09.2019
1660 Clear 28 1019 32 16093 2.6 290 21:37 15.09.2019
1661 Clear 28 1019 32 16093 2.6 290 21:37 15.09.2019
1662 Clear 28 1019 32 16093 2.6 290 21:19 15.09.2019
1663 Clouds 27 1019 42 16093 1.91 293.187 20:44 15.09.2019
1664 Clear 27 1020 37 16093 1.91 293.187 20:26 15.09.2019
1665 Clear 27 1021 51 16093 2.1 220 19:56 15.09.2019
1666 Clear 27 1020 47 16093 1.91 293.187 19:37 15.09.2019
1667 Clouds 26 1020 44 16093 4.1 230 19:19 15.09.2019
1668 Clear 26 1021 50 16093 1.91 293.187 18:40 15.09.2019
1669 Clear 25 1021 50 16093 1.77 332.493 18:20 15.09.2019
1670 Clear 24 1022 53 16093 1.77 332.493 17:43 15.09.2019
1671 Clouds 24 1022 53 16093 2.6 340 17:22 15.09.2019
1672 Clear 24 1022 50 16093 1.77 332.493 16:58 15.09.2019
1673 Clear 24 1022 57 16093 1.77 332.493 16:40 15.09.2019
1674 Clear 23 1022 57 16093 1.77 332.493 16:22 15.09.2019
1675 Clear 23 1022 64 16093 1.77 332.493 15:56 15.09.2019
1676 Clouds 22 1022 73 16093 1.77 332.493 15:38 15.09.2019
1677 Clouds 21 1022 73 16093 0.93 329.872 15:19 15.09.2019
1678 Mist 21 1022 78 16093 0.93 329.872 14:55 15.09.2019
1679 Mist 20 1022 88 16093 0.93 329.872 14:37 15.09.2019
1680 Mist 20 1022 88 16093 0.93 329.872 14:18 15.09.2019
1681 Fog 19 1021 83 16093 0.93 329.872 13:43 15.09.2019
1682 Fog 19 1021 88 16093 1.09 334.095 13:21 15.09.2019
1683 Fog 19 1021 78 16093 2.1 320 12:43 15.09.2019
1684 Fog 20 1021 78 16093 2.1 320 12:24 15.09.2019
1685 Fog 20 1021 93 16093 1.24 328.663 11:58 15.09.2019
1686 Mist 20 1021 88 16093 1.24 328.663 11:40 15.09.2019
1687 Mist 20 1021 88 16093 1.24 328.663 11:21 15.09.2019
1688 Mist 20 1022 93 2816 1.24 328.663 10:46 15.09.2019
1689 Mist 20 1022 83 16093 1.24 328.663 10:23 15.09.2019
1690 Mist 20 1021 88 16093 2.1 280 09:59 15.09.2019
1691 Mist 20 1021 88 16093 2.1 240 09:39 15.09.2019
1692 Mist 20 1021 88 16093 2.1 240 09:19 15.09.2019
1693 Mist 20 1021 83 16093 1.68 229.039 08:46 15.09.2019
1694 Mist 21 1021 83 16093 2.01 236.27 08:27 15.09.2019
1695 Mist 21 1022 83 16093 2.01 236.27 07:48 15.09.2019
1696 Fog 21 1021 83 16093 2.01 236.27 07:28 15.09.2019
1697 Drizzle 21 1022 78 16093 2.01 236.27 06:43 15.09.2019
1698 Clouds 22 1022 73 16093 2.25 211.728 03:31 15.09.2019
1699 Clouds 22 1022 73 16093 2.25 211.728 03:31 15.09.2019
1700 Rain 22 1022 83 16093 2.1 230 02:41 15.09.2019
1701 Clouds 23 1022 69 16093 1.9 229.874 01:41 15.09.2019
1702 Clouds 23 1022 69 16093 1.9 229.874 01:41 15.09.2019
1703 Clouds 23 1022 69 16093 1.77 211.397 01:21 15.09.2019
1704 Clouds 23 1022 83 16093 2.6 220 00:46 15.09.2019
1705 Clouds 23 1022 69 16093 2.67 196.482 00:24 15.09.2019
1706 Clouds 23 1022 78 16093 2.6 200 23:58 14.09.2019
1707 Clouds 23 1022 64 16093 2.67 196.482 23:40 14.09.2019
1708 Clouds 23 1022 64 16093 2.67 196.482 23:21 14.09.2019
1709 Clouds 23 1022 69 16093 2.67 196.482 22:59 14.09.2019
1710 Clouds 23 1023 73 16093 4.6 180 22:40 14.09.2019
1711 Clouds 23 1023 73 16093 4.6 180 22:21 14.09.2019
1712 Clouds 23 1023 64 16093 2.67 196.482 21:57 14.09.2019
1713 Clouds 23 1024 73 16093 6.7 200 21:39 14.09.2019
1714 Clouds 23 1024 73 16093 6.7 200 21:19 14.09.2019
1715 Clouds 23 1023 60 16093 3.6 210 20:55 14.09.2019
1716 Clouds 23 1024 60 16093 3.52 197.025 20:37 14.09.2019
1717 Clouds 23 1024 60 16093 3.52 197.025 20:19 14.09.2019
1718 Clouds 23 1024 73 16093 2.6 210 19:44 14.09.2019
1719 Clouds 23 1025 57 16093 2.6 230 19:21 14.09.2019
1720 Clouds 23 1025 78 16093 4.1 230 18:57 14.09.2019
1721 Clouds 23 1025 57 16093 1.5 230 18:37 14.09.2019
1722 Clouds 23 1025 57 16093 1.5 230 18:19 14.09.2019
1723 Clouds 23 1026 60 16093 2.6 190 17:43 14.09.2019
1724 Clouds 22 1026 60 16093 3.1 180 17:22 14.09.2019
1725 Clouds 22 1027 60 16093 2.6 200 16:48 14.09.2019
1726 Clouds 21 1027 60 16093 3.92 192.736 16:28 14.09.2019
1727 Clouds 21 1027 82 16093 3.92 192.736 15:59 14.09.2019
1728 Clouds 21 1027 64 16093 3.92 192.736 15:40 14.09.2019
1729 Clouds 20 1027 68 16093 3.1 180 15:21 14.09.2019
1730 Clouds 20 1027 64 16093 3.68 174.822 14:44 14.09.2019
1731 Clouds 18 1027 68 16093 3.68 174.822 14:19 14.09.2019
1732 Clouds 18 1027 68 16093 3.68 174.822 13:56 14.09.2019
1733 Clouds 18 1027 68 16093 3.68 174.822 13:37 14.09.2019
1734 Clouds 18 1027 68 16093 3.16 175.496 13:19 14.09.2019
1735 Clouds 17 1027 68 16093 3.16 175.496 12:43 14.09.2019
1736 Clouds 17 1027 68 16093 2.29 172.458 12:20 14.09.2019
1737 Clouds 17 1027 68 16093 2.29 172.458 11:41 14.09.2019
1738 Clouds 17 1027 68 16093 2.29 172.458 11:20 14.09.2019
1739 Clouds 17 1027 68 16093 2.29 172.458 10:40 14.09.2019
1740 Clouds 17 1027 68 16093 2.29 172.458 10:21 14.09.2019
1741 Clouds 16 1027 68 16093 2.29 172.458 09:58 14.09.2019
1742 Clouds 16 1028 68 16093 1.5 0 09:39 14.09.2019
1743 Clouds 16 1028 68 16093 1.5 0 09:20 14.09.2019
1744 Clouds 16 1028 68 16093 2.53 144.655 08:48 14.09.2019
1745 Clear 16 1029 68 16093 2.53 144.655 08:26 14.09.2019
1746 Clouds 16 1029 63 16093 2.53 144.655 07:49 14.09.2019
1747 Clouds 16 1029 63 16093 2.53 144.655 07:29 14.09.2019
1748 Clouds 17 1029 63 16093 2.53 144.655 06:54 14.09.2019
1749 Clouds 17 1030 68 16093 2.1 0 06:31 14.09.2019
1750 Clouds 17 1030 59 16093 3.1 160 05:27 14.09.2019
1751 Clouds 17 1031 55 16093 1.5 150 03:59 14.09.2019
1752 Clouds 17 1030 52 16093 3.6 140 02:57 14.09.2019
1753 Clouds 18 1030 52 16093 4.1 150 02:30 14.09.2019
1754 Clouds 18 1031 48 16093 4.1 140 01:44 14.09.2019
1755 Clouds 18 1031 48 16093 4.1 140 01:19 14.09.2019
1756 Clouds 19 1031 52 16093 5.1 150 00:40 14.09.2019
1757 Clouds 19 1031 52 16093 5.1 150 00:21 14.09.2019
1758 -273 0 0 0 0 0 23:55 13.09.2019
1759 Clouds 19 1031 56 16093 6.2 130 23:55 13.09.2019
1760 Clouds 20 1031 56 16093 4.1 150 23:36 13.09.2019
1761 Clouds 20 1031 56 16093 4.1 150 23:18 13.09.2019
1762 Clouds 20 1031 56 16093 5.1 130 22:40 13.09.2019
1763 Clouds 20 1031 56 16093 5.1 130 22:22 13.09.2019
1764 Clouds 21 1031 49 16093 6.2 140 21:59 13.09.2019
1765 Clouds 21 1031 49 16093 6.2 140 21:39 13.09.2019
1766 Clouds 21 1031 49 16093 6.2 140 21:19 13.09.2019
1767 Clouds 21 1031 49 16093 5.1 150 20:57 13.09.2019
1768 Clouds 21 1031 49 16093 5.1 150 20:57 13.09.2019
1769 Clouds 21 1031 49 16093 5.1 150 20:57 13.09.2019
1770 Clouds 21 1032 53 16093 3.6 90 20:37 13.09.2019
1771 Clouds 21 1032 53 16093 3.6 90 20:19 13.09.2019
1772 Clouds 21 1031 52 16093 4.1 130 19:54 13.09.2019
1773 Clouds 21 1031 46 16093 5.1 130 19:36 13.09.2019
1774 Clouds 20 1031 46 16093 4.1 100 19:18 13.09.2019
1775 Clouds 20 1032 53 16093 4.6 80 18:38 13.09.2019
1776 Clouds 20 1031 46 16093 4.1 110 18:19 13.09.2019
1777 Clouds 20 1033 59 16093 3.6 60 18:19 13.09.2019
1778 Clouds 19 1033 68 16093 3.6 50 17:55 13.09.2019
1779 Clouds 19 1033 68 16093 3.6 50 17:36 13.09.2019
1780 Clouds 19 1031 59 16093 4.1 80 17:18 13.09.2019
1781 Clouds 18 1031 55 16093 5.1 110 16:40 13.09.2019
1782 Clouds 18 1031 55 16093 5.1 110 16:20 13.09.2019
1783 Clouds 18 1032 72 16093 3.6 40 15:43 13.09.2019
1784 Clouds 17 1032 72 16093 3.6 40 15:25 13.09.2019
1785 Rain 16 1032 77 16093 5.7 50 14:56 13.09.2019
1786 Rain 16 1030 67 16093 3.6 100 14:37 13.09.2019
1787 Rain 15 1030 67 16093 3.6 100 14:19 13.09.2019
1788 Clear 14 1030 72 16093 3.1 51.968 13:44 13.09.2019
1789 Clear 14 1029 77 16093 3.5 63.669 13:22 13.09.2019
1790 Clouds 14 1029 100 16093 2.1 50 12:54 13.09.2019
1791 Rain 14 1029 77 16093 3.5 63.669 12:36 13.09.2019
1792 Rain 14 1029 77 16093 2.36 40.543 12:18 13.09.2019
1793 Rain 14 1028 72 16093 2.36 40.543 11:54 13.09.2019
1794 Clouds 15 1028 72 16093 2.36 40.543 11:18 13.09.2019
1795 Clouds 15 1027 72 16093 2.36 40.543 10:37 13.09.2019
1796 Clouds 15 1027 72 16093 2.36 40.543 10:19 13.09.2019
1797 Clouds 15 1027 67 16093 2.1 70 09:44 13.09.2019
1798 Clouds 15 1027 77 16093 3.1 30 09:44 13.09.2019
1799 Clouds 16 1027 67 16093 2.1 70 09:23 13.09.2019
1800 Clouds 16 1026 82 16093 5.1 30 08:58 13.09.2019
1801 Clouds 16 1027 63 16093 4.6 110 08:40 13.09.2019
1802 Clouds 16 1027 63 16093 4.6 110 08:20 13.09.2019
1803 Clouds 16 1026 72 16093 3.1 70 07:45 13.09.2019
1804 Clouds 17 1026 72 16093 6.7 60 07:27 13.09.2019
1805 Clouds 17 1025 82 16093 1.5 50 06:45 13.09.2019
1806 Rain 18 1025 88 16093 3.6 20 05:47 13.09.2019
1807 Rain 17 1025 93 8047 7.7 40 04:53 13.09.2019
1808 Rain 17 1024 93 14484 5.7 50 03:39 13.09.2019
1809 Rain 18 1024 93 4828 3.1 0 02:20 13.09.2019
1810 Rain 19 1022 82 8047 7.2 20 01:42 13.09.2019
1811 Rain 20 1022 82 8047 7.2 20 01:22 13.09.2019
1812 Rain 21 1020 78 16093 5.1 20 00:38 13.09.2019
1813 Clouds 22 1020 73 16093 6.2 30 23:59 12.09.2019
1814 Rain 22 1019 73 16093 4.1 100 23:36 12.09.2019
1815 Clouds 23 1020 88 16093 3.6 40 22:59 12.09.2019
1816 Clouds 23 1019 78 16093 4.6 40 22:41 12.09.2019
1817 Clouds 23 1019 78 16093 4.6 40 22:41 12.09.2019
1818 Rain 23 1019 78 16093 4.6 40 22:23 12.09.2019
1819 Rain 23 1020 83 4828 1.5 60 21:57 12.09.2019
1820 Clouds 24 1018 69 16093 4.1 90 21:38 12.09.2019
1821 Haze 24 1018 69 16093 4.1 90 21:19 12.09.2019
1822 Rain 24 1019 78 9656 3.6 60 20:56 12.09.2019
1823 Rain 24 1018 65 16093 4.6 50 20:38 12.09.2019
1824 Rain 25 1018 65 16093 4.6 50 20:19 12.09.2019
1825 Rain 25 1018 69 16093 5.7 40 19:54 12.09.2019
1826 Rain 25 1018 58 16093 2.6 60 19:36 12.09.2019
1827 Rain 25 1018 58 16093 2.6 60 19:36 12.09.2019
1828 Rain 25 1018 58 16093 2.6 60 19:18 12.09.2019
1829 Clouds 26 1018 58 16093 2.1 70 18:38 12.09.2019
1830 Clouds 26 1018 58 16093 2.1 70 18:19 12.09.2019
1831 Clouds 26 1018 83 16093 1.5 50 17:56 12.09.2019
1832 Clouds 26 1018 65 16093 5.7 70 17:38 12.09.2019
1833 Clouds 26 1018 65 16093 5.7 70 17:19 12.09.2019
1834 Clouds 26 1018 65 16093 1.5 40 16:42 12.09.2019
1835 Clouds 26 1018 65 16093 1.5 40 16:22 12.09.2019
1836 Clouds 25 1018 69 16093 2.1 0 15:55 12.09.2019
1837 Clouds 25 1017 74 16093 2.6 10 15:36 12.09.2019
1838 Clouds 24 1018 88 12874 1.5 10 15:18 12.09.2019
1839 Clouds 24 1017 78 16093 2.29 27.247 14:41 12.09.2019
1840 Clouds 24 1017 78 16093 2.29 27.247 14:21 12.09.2019
1841 Rain 23 1017 83 16093 2.29 27.247 13:40 12.09.2019
1842 Rain 23 1017 83 16093 2.19 23.309 13:22 12.09.2019
1843 Drizzle 23 1017 100 16093 1.5 10 12:57 12.09.2019
1844 Drizzle 23 1016 83 16093 2.6 310 12:38 12.09.2019
1845 Rain 23 1016 83 16093 2.1 290 12:18 12.09.2019
1846 Rain 23 1016 83 16093 2.1 290 11:54 12.09.2019
1847 Rain 23 1016 83 16093 3.1 270 11:36 12.09.2019
1848 Mist 23 1016 78 16093 3.1 290 11:18 12.09.2019
1849 Clouds 24 1016 78 16093 3.1 290 10:42 12.09.2019
1850 Drizzle 24 1016 78 16093 1.45 20.338 10:42 12.09.2019
1851 Drizzle 24 1016 78 16093 1.45 20.338 10:42 12.09.2019
1852 Drizzle 24 1016 78 16093 1.45 20.338 10:23 12.09.2019
1853 Clouds 24 1016 78 16093 3.1 270 09:44 12.09.2019
1854 Clouds 24 1016 78 16093 3.1 270 09:20 12.09.2019
1855 Clouds 24 1016 78 16093 0.99 320.402 08:57 12.09.2019
1856 Clouds 24 1016 78 16093 2.6 250 08:39 12.09.2019
1857 Clouds 24 1016 78 16093 2.6 250 08:21 12.09.2019
1858 Clouds 25 1016 74 16093 1.05 346.375 07:39 12.09.2019
1859 Clouds 25 1016 74 16093 1.05 346.375 07:19 12.09.2019
1860 Clouds 25 1016 74 16093 3.6 240 06:50 12.09.2019
1861 Clouds 25 1016 74 16093 3.6 240 06:50 12.09.2019
1862 Clear 25 1016 69 16093 2.05 273.104 06:19 12.09.2019
1863 Clear 25 1017 69 16093 2.1 280 05:48 12.09.2019
1864 Clouds 25 1017 69 16093 2.05 273.104 05:29 12.09.2019
1865 Clear 26 1017 65 16093 1.5 270 04:35 12.09.2019
1866 Clear 27 1017 62 16093 2.64 241.705 02:24 12.09.2019
1867 Clear 28 1017 66 16093 2.63 247.352 01:30 12.09.2019
1868 Clouds 29 1017 70 24140 1.5 240 00:59 12.09.2019
1869 Clear 29 1017 58 16093 2.1 250 00:41 12.09.2019
1870 Clear 30 1017 58 16093 2.1 250 00:23 12.09.2019
1871 Rain 31 1017 55 16093 2.6 250 23:41 11.09.2019
1872 Rain 31 1017 55 16093 2.6 250 23:41 11.09.2019
1873 Rain 31 1017 55 16093 2.6 250 23:21 11.09.2019
1874 Clear 31 1018 55 16093 3.1 220 22:56 11.09.2019
1875 Clear 32 1018 55 16093 3.1 220 22:37 11.09.2019
1876 Clear 32 1018 55 16093 3.1 220 22:19 11.09.2019
1877 Clear 32 1018 55 16093 3.1 220 22:19 11.09.2019
1878 Clear 31 1018 58 16093 2.6 220 21:42 11.09.2019
1879 Clouds 31 1018 52 16093 5.7 250 21:42 11.09.2019
1880 Clouds 31 1018 52 16093 5.7 250 21:24 11.09.2019
1881 Clear 30 1019 55 16093 2.6 250 20:58 11.09.2019
1882 Clear 30 1019 55 16093 2.6 250 20:39 11.09.2019
1883 Clear 30 1019 55 16093 2.6 250 20:39 11.09.2019
1884 Clear 30 1019 55 16093 2.6 250 20:19 11.09.2019
1885 Clouds 30 1019 69 16093 3.6 230 19:58 11.09.2019
1886 Clear 29 1020 62 16093 4.1 270 19:39 11.09.2019
1887 Clear 29 1020 62 16093 4.1 270 19:21 11.09.2019
1888 Clouds 28 1020 65 16093 4.1 230 18:58 11.09.2019
1889 Clear 28 1021 61 16093 3.1 270 18:38 11.09.2019
1890 Clouds 27 1021 69 16093 3.1 260 18:19 11.09.2019
1891 Clouds 26 1021 69 16093 3.1 260 17:56 11.09.2019
1892 Clouds 26 1022 69 16093 1.5 280 17:37 11.09.2019
1893 Clear 25 1021 65 16093 5.7 210 17:19 11.09.2019
1894 Clouds 25 1023 73 16093 4.6 240 16:48 11.09.2019
1895 Clouds 24 1023 73 16093 4.6 240 16:25 11.09.2019
1896 Clouds 23 1023 83 16093 4.6 260 15:54 11.09.2019
1897 Clouds 23 1023 78 16093 4.83 242.14 15:36 11.09.2019
1898 Clouds 22 1023 78 16093 4.48 229.497 15:18 11.09.2019
1899 -273 0 0 0 0 0 14:55 11.09.2019
1900 Clouds 21 1023 83 16093 4.48 229.497 14:36 11.09.2019
1901 Clouds 21 1023 83 16093 4.48 229.497 14:18 11.09.2019
1902 Clouds 20 1023 88 16093 3.6 220 13:38 11.09.2019
1903 Clouds 20 1023 88 16093 3.6 220 13:38 11.09.2019
1904 Clouds 20 1023 88 16093 3.6 220 13:20 11.09.2019
1905 Clouds 20 1023 88 16093 3.6 220 13:20 11.09.2019
1906 Clouds 20 1024 100 16093 3.72 229.571 12:56 11.09.2019
1907 Clouds 20 1023 88 16093 3.72 229.571 12:38 11.09.2019
1908 Clear 20 1023 83 16093 4.6 220 12:20 11.09.2019
1909 Clouds 20 1024 88 16093 5.7 240 11:39 11.09.2019
1910 Clouds 20 1024 88 16093 5.7 240 11:21 11.09.2019
1911 Clouds 20 1024 88 16093 5.7 240 11:21 11.09.2019
1912 Clouds 20 1024 88 16093 5.1 260 10:57 11.09.2019
1913 Clouds 20 1024 83 16093 3.41 228.369 10:38 11.09.2019
1914 Clouds 20 1024 83 16093 3.41 228.369 10:19 11.09.2019
1915 Clear 20 1024 88 16093 5.7 240 09:39 11.09.2019
1916 Clear 20 1024 88 16093 5.7 240 09:20 11.09.2019
1917 Clear 20 1024 88 16093 1.5 210 08:55 11.09.2019
1918 Clear 20 1024 88 16093 1.5 210 08:55 11.09.2019
1919 Clear 20 1024 83 16093 3.36 205.802 08:37 11.09.2019
1920 Clear 20 1024 83 16093 3.36 205.802 08:19 11.09.2019
1921 Clear 20 1025 83 16093 3.36 205.802 07:40 11.09.2019
1922 Clear 20 1025 83 16093 3.36 205.802 07:22 11.09.2019
1923 Clear 21 1025 83 16093 3.36 205.802 06:48 11.09.2019
1924 Clear 21 1024 83 16093 3.36 205.802 06:29 11.09.2019
1925 Clouds 21 1025 83 16093 2.6 230 05:37 11.09.2019
1926 Clouds 21 1025 83 16093 2.6 230 05:37 11.09.2019
1927 Clouds 21 1025 83 16093 2.6 230 05:19 11.09.2019
1928 Clouds 21 1025 83 16093 2.6 230 05:19 11.09.2019
1929 Rain 21 1026 83 16093 3.6 210 04:23 11.09.2019
1930 Clear 21 1025 78 16093 2.93 192.104 03:32 11.09.2019
1931 Clear 22 1025 78 16093 1.72 175.706 02:42 11.09.2019
1932 Clouds 22 1025 94 16093 1.72 175.706 01:53 11.09.2019
1933 Clouds 23 1025 61 16093 2.6 190 00:50 11.09.2019
1934 Clouds 24 1025 69 16093 4.6 130 00:21 11.09.2019
1935 -273 0 0 0 0 0 23:55 10.09.2019
1936 Clear 25 1026 65 16093 3.6 180 23:36 10.09.2019
1937 Clear 25 1026 65 16093 3.6 180 23:18 10.09.2019
1938 Clouds 25 1027 65 16093 3.1 190 22:41 10.09.2019
1939 Clouds 25 1026 57 16093 3.42 219.524 22:19 10.09.2019
1940 Clouds 25 1027 65 16093 3.1 190 22:19 10.09.2019
1941 Clouds 25 1026 57 16093 3.42 219.524 21:55 10.09.2019
1942 Clouds 25 1027 69 16093 4.1 190 21:37 10.09.2019
1943 Clouds 25 1027 69 16093 4.1 190 21:37 10.09.2019
1944 Clouds 25 1027 69 16093 4.1 190 21:37 10.09.2019
1945 Clouds 25 1027 69 16093 4.1 190 21:37 10.09.2019
1946 Clouds 25 1027 69 16093 4.1 190 21:18 10.09.2019
1947 Clouds 24 1027 73 16093 1.5 0 20:57 10.09.2019
1948 Rain 24 1028 73 16093 3.1 0 20:38 10.09.2019
1949 Rain 24 1027 61 16093 2.1 170 20:20 10.09.2019
1950 Rain 24 1027 69 16093 3.6 180 19:56 10.09.2019
1951 Clouds 24 1027 64 16093 3.07 198.93 19:37 10.09.2019
1952 Clouds 23 1027 64 16093 3.07 198.93 19:19 10.09.2019
1953 Clouds 23 1028 73 16093 3.07 198.93 18:55 10.09.2019
1954 Clouds 23 1028 73 16093 2.6 190 18:37 10.09.2019
1955 Clouds 23 1027 73 16093 3.1 190 18:18 10.09.2019
1956 Clouds 23 1028 73 16093 1.94 167.843 17:43 10.09.2019
1957 Clouds 22 1028 73 16093 1.94 167.843 17:22 10.09.2019
1958 Clouds 22 1028 78 16093 3.1 160 16:58 10.09.2019
1959 Mist 22 1028 78 16093 1.94 167.843 16:39 10.09.2019
1960 Mist 21 1028 78 16093 1.94 167.843 16:21 10.09.2019
1961 Mist 21 1029 100 8047 1.94 167.843 15:58 10.09.2019
1962 Mist 21 1028 83 16093 2.1 120 15:39 10.09.2019
1963 Mist 20 1028 83 16093 2.1 120 15:20 10.09.2019
1964 Rain 20 1027 88 16093 0.61 116.106 14:41 10.09.2019
1965 Rain 20 1027 88 16093 0.61 116.106 14:23 10.09.2019
1966 Rain 19 1027 93 16093 0.61 116.106 13:56 10.09.2019
1967 Rain 19 1028 83 16093 0.61 116.106 13:37 10.09.2019
1968 Rain 19 1027 88 16093 2.1 30 13:19 10.09.2019
1969 Rain 19 1026 82 16093 0.42 101.575 12:43 10.09.2019
1970 Rain 19 1026 82 16093 0.72 195.541 12:24 10.09.2019
1971 Clouds 19 1027 88 16093 2.1 40 11:56 10.09.2019
1972 Clouds 19 1026 88 16093 0.72 195.541 11:38 10.09.2019
1973 Clouds 19 1026 88 16093 0.72 195.541 11:20 10.09.2019
1974 Clouds 19 1026 88 16093 0.72 195.541 10:39 10.09.2019
1975 Clouds 19 1026 88 16093 1.5 90 10:19 10.09.2019
1976 Clouds 19 1026 88 16093 1.5 90 10:19 10.09.2019
1977 Clouds 19 1026 88 16093 1.5 90 09:56 10.09.2019
1978 Clouds 19 1026 88 16093 1.5 40 09:37 10.09.2019
1979 Clouds 19 1026 88 16093 1.5 40 09:18 10.09.2019
1980 Clouds 19 1026 88 16093 1.2 58.652 08:43 10.09.2019
1981 Clouds 19 1026 88 16093 1.2 58.652 08:24 10.09.2019
1982 Mist 19 1026 88 16093 1.5 80 07:45 10.09.2019
1983 Mist 19 1026 88 16093 1.5 80 07:26 10.09.2019
1984 Mist 19 1026 88 16093 1.5 80 07:26 10.09.2019
1985 Clear 19 1026 93 16093 1.2 58.652 06:53 10.09.2019
1986 Clear 19 1025 88 16093 1.2 58.652 06:35 10.09.2019
1987 Mist 19 1025 88 16093 0.79 82.534 05:24 10.09.2019
1988 Clouds 20 1025 78 16093 0.79 82.534 03:51 10.09.2019
1989 Clouds 21 1024 78 16093 2.6 150 02:23 10.09.2019
1990 Clouds 21 1024 78 16093 2.6 150 02:23 10.09.2019
1991 Clouds 21 1024 78 16093 2.6 150 02:23 10.09.2019
1992 Clear 21 1024 78 16093 2.6 0 02:23 10.09.2019
1993 Clouds 21 1025 73 16093 2.6 0 01:57 10.09.2019
1994 Clouds 21 1025 73 16093 2.6 0 01:57 10.09.2019
1995 Clouds 21 1024 78 16093 1.92 109.399 01:39 10.09.2019
1996 Rain 22 1025 68 16093 2.1 0 00:54 10.09.2019
1997 Rain 23 1024 73 16093 4.1 160 00:25 10.09.2019
1998 Rain 23 1024 73 16093 2.1 150 23:47 09.09.2019
1999 Rain 24 1024 73 16093 2.1 150 23:20 09.09.2019
2000 Clouds 24 1023 65 16093 1.5 120 22:57 09.09.2019
2001 Clouds 24 1024 57 14484 3.6 120 22:38 09.09.2019
2002 Clouds 24 1024 57 14484 3.6 120 22:20 09.09.2019
2003 Clouds 24 1023 61 16093 4.1 170 21:57 09.09.2019
2004 Clouds 24 1023 53 16093 4.6 130 21:39 09.09.2019
2005 Clouds 25 1023 53 16093 4.6 130 21:20 09.09.2019
2006 Clouds 25 1023 65 16093 2.6 70 20:56 09.09.2019
2007 Clouds 25 1023 57 16093 1.5 160 20:37 09.09.2019
2008 Clear 25 1024 53 16093 2.6 0 20:19 09.09.2019
2009 Clear 25 1024 53 16093 2.6 0 20:19 09.09.2019
2010 Clouds 25 1023 57 16093 1.5 160 20:19 09.09.2019
2011 Clear 25 1024 53 16093 2.6 0 19:58 09.09.2019
2012 Clouds 24 1024 57 16093 3.6 50 19:39 09.09.2019
2013 Clouds 24 1024 57 16093 3.6 50 19:19 09.09.2019
2014 Clouds 24 1024 57 16093 3.6 50 19:19 09.09.2019
2015 Clouds 24 1024 53 16093 3.6 170 18:57 09.09.2019
2016 Clouds 23 1024 57 16093 2.07 83.972 18:39 09.09.2019
2017 Clouds 23 1024 57 16093 2.42 48.465 18:21 09.09.2019
2018 Clouds 22 1025 68 16093 2.42 48.465 17:58 09.09.2019
2019 Clear 22 1024 53 16093 2.42 48.465 17:40 09.09.2019
2020 Clouds 22 1025 64 16093 2.6 50 17:21 09.09.2019
2021 Clouds 21 1024 60 16093 2.42 48.465 16:55 09.09.2019
2022 Clouds 21 1024 56 16093 2.42 48.465 16:37 09.09.2019
2023 Clouds 21 1024 56 16093 2.42 48.465 16:19 09.09.2019
2024 Clouds 20 1024 60 16093 2.42 48.465 15:55 09.09.2019
2025 Clouds 20 1025 64 16093 2.6 60 15:55 09.09.2019
2026 Clear 20 1024 60 16093 2.42 48.465 15:36 09.09.2019
2027 Clear 20 1024 60 16093 2.5 30.182 15:18 09.09.2019
2028 Clouds 19 1024 82 16093 1.5 50 14:55 09.09.2019
2029 Clear 19 1023 60 16093 2.5 30.182 14:37 09.09.2019
2030 Clear 19 1023 60 16093 2.5 30.182 14:37 09.09.2019
2031 Clouds 18 1023 73 16093 4.6 30 14:18 09.09.2019
2032 Clouds 18 1023 63 16093 2.5 30.182 13:44 09.09.2019
2033 Clouds 18 1023 72 16093 5.7 30 13:20 09.09.2019
2034 Clouds 18 1024 68 16093 2.6 0 12:58 09.09.2019
2035 Clouds 18 1022 59 16093 2.91 30.511 12:38 09.09.2019
2036 Clouds 18 1022 59 16093 2.55 20.949 12:19 09.09.2019
2037 Clouds 18 1022 56 16093 2.55 20.949 11:46 09.09.2019
2038 Clouds 18 1022 56 16093 2.55 20.949 11:22 09.09.2019
2039 Clouds 18 1022 68 16093 4.6 20 10:58 09.09.2019
2040 Clouds 19 1022 64 16093 5.1 30 10:40 09.09.2019
2041 Clouds 19 1022 64 16093 5.1 30 10:20 09.09.2019
2042 Rain 19 1022 63 16093 4.6 20 09:56 09.09.2019
2043 Rain 19 1021 49 16093 2.1 60 09:37 09.09.2019
2044 Rain 19 1021 49 16093 2.1 60 09:19 09.09.2019
2045 Clouds 19 1021 56 16093 5.1 80 08:38 09.09.2019
2046 Clouds 20 1021 56 16093 5.1 80 08:20 09.09.2019
2047 Clouds 20 1021 73 16093 5.7 50 07:46 09.09.2019
2048 Clouds 20 1022 56 16093 2.6 0 07:22 09.09.2019
2049 Clouds 20 1022 56 16093 2.6 0 06:56 09.09.2019
2050 Clouds 20 1022 56 16093 2.6 0 06:56 09.09.2019
2051 Clouds 20 1021 73 16093 2.3 18.443 06:32 09.09.2019
2052 Clouds 20 1020 73 16093 2.32 16.023 04:55 09.09.2019
2053 -273 0 0 0 0 0 04:55 09.09.2019
2054 Clouds 20 1020 73 16093 2.32 16.023 04:55 09.09.2019
2055 Clouds 21 1019 69 16093 0.77 307.868 02:43 09.09.2019
2056 Clouds 22 1019 53 16093 0.77 307.868 02:19 09.09.2019
2057 Clouds 24 1018 47 16093 1.05 347.56 00:41 09.09.2019
2058 Clouds 24 1019 56 16093 1.01 279.453 00:21 09.09.2019
2059 Clouds 24 1017 47 16093 4.1 290 23:44 08.09.2019
2060 Clouds 25 1017 47 16093 4.1 290 23:23 08.09.2019
2061 Clouds 25 1017 47 16093 4.1 260 22:56 08.09.2019
2062 Clouds 25 1017 47 16093 5.1 290 22:37 08.09.2019
2063 Clouds 25 1017 44 16093 3.1 290 22:19 08.09.2019
2064 Clear 25 1017 44 16093 1.01 279.453 21:42 08.09.2019
2065 Clear 25 1017 44 16093 2.95 289.807 21:23 08.09.2019
2066 Clouds 25 1017 47 16093 2.95 289.807 20:58 08.09.2019
2067 Clouds 25 1017 50 16093 2.1 300 20:39 08.09.2019
2068 Clouds 25 1017 50 16093 2.1 300 20:20 08.09.2019
2069 Clouds 25 1017 50 16093 5.1 230 19:59 08.09.2019
2070 Clouds 25 1018 50 16093 3.04 283.113 19:38 08.09.2019
2071 Clear 24 1019 49 16093 1.5 0 19:19 08.09.2019
2072 Clear 24 1019 49 16093 1.5 0 18:57 08.09.2019
2073 Clouds 24 1018 53 16093 3.04 283.113 18:38 08.09.2019
2074 Clouds 23 1018 53 16093 3.02 303.49 18:18 08.09.2019
2075 Clear 22 1018 53 16093 3.02 303.49 17:56 08.09.2019
2076 Clear 22 1018 60 16093 3.02 303.49 17:36 08.09.2019
2077 Clouds 21 1018 56 16093 2.1 290 17:18 08.09.2019
2078 Clear 20 1018 68 16093 3.02 303.49 16:43 08.09.2019
2079 Clear 20 1018 68 16093 3.02 303.49 16:22 08.09.2019
2080 Clouds 19 1017 60 16093 1.5 310 15:58 08.09.2019
2081 Clear 19 1018 72 16093 3.02 303.49 15:40 08.09.2019
2082 Clouds 18 1017 68 16093 3.1 290 15:21 08.09.2019
2083 Clouds 18 1017 68 16093 3.1 290 14:56 08.09.2019
2084 Clear 17 1017 77 16093 3.28 311.513 14:37 08.09.2019
2085 Clear 17 1017 77 16093 3.28 311.513 14:19 08.09.2019
2086 Clouds 17 1017 72 16093 3.28 311.513 13:55 08.09.2019
2087 Clear 16 1016 82 16093 3.19 314.213 13:36 08.09.2019
2088 Clear 16 1016 82 16093 3.19 314.213 13:18 08.09.2019
2089 Clear 15 1016 87 16093 3.19 314.213 12:41 08.09.2019
2090 Clear 15 1016 87 16093 2.5 299.518 12:23 08.09.2019
2091 Clear 15 1016 68 16093 1.5 0 11:58 08.09.2019
2092 Clear 15 1015 82 16093 2.5 299.518 11:39 08.09.2019
2093 Clear 15 1015 82 16093 2.5 299.518 11:20 08.09.2019
2094 Clouds 15 1014 77 16093 1.5 250 10:57 08.09.2019
2095 Clouds 15 1014 77 16093 1.5 250 10:57 08.09.2019
2096 Clear 15 1014 82 16093 2.5 299.518 10:39 08.09.2019
2097 Clear 15 1014 82 16093 2.5 299.518 10:21 08.09.2019
2098 Clear 16 1014 77 16093 2.5 299.518 09:38 08.09.2019
2099 Clear 16 1014 77 16093 2.99 301.237 09:20 08.09.2019
2100 Clouds 16 1014 72 16093 3.1 270 08:56 08.09.2019
2101 Clear 16 1014 82 16093 3.26 293.518 08:38 08.09.2019
2102 Clouds 16 1014 72 16093 3.6 280 08:18 08.09.2019
2103 Clouds 16 1014 72 16093 3.6 280 08:18 08.09.2019
2104 Clear 16 1014 77 16093 3.26 293.518 07:39 08.09.2019
2105 Clear 17 1014 77 16093 3.26 293.518 07:20 08.09.2019
2106 Clear 17 1014 68 16093 3.26 293.518 06:53 08.09.2019
2107 Clear 17 1013 72 16093 3.26 293.518 06:31 08.09.2019
2108 Clear 18 1013 68 16093 2.28 299.133 05:38 08.09.2019
2109 Clouds 18 1013 100 16093 1.5 300 03:56 08.09.2019
2110 Clouds 19 1012 53 16093 3.1 270 02:59 08.09.2019
2111 Clear 20 1012 52 16093 3.36 289.993 02:26 08.09.2019
2112 Clouds 22 1011 49 16093 3.36 289.993 01:49 08.09.2019
2113 Clouds 22 1011 49 16093 3.06 289.376 01:22 08.09.2019
2114 Clouds 23 1011 46 16093 5.1 310 00:45 08.09.2019
2115 Clouds 23 1011 46 16093 5.1 310 00:26 08.09.2019
2116 Clouds 24 1010 44 16093 5.1 310 23:39 07.09.2019
2117 Clouds 24 1010 44 16093 5.1 310 23:21 07.09.2019
2118 Clouds 24 1010 56 16093 4.6 310 22:58 07.09.2019
2119 Clouds 24 1010 41 16093 5.1 330 22:39 07.09.2019
2120 Clouds 24 1009 44 16093 6.7 310 22:20 07.09.2019
2121 Clouds 24 1009 44 14484 2.6 0 21:43 07.09.2019
2122 Clouds 24 1009 44 14484 2.6 0 21:25 07.09.2019
2123 Clouds 24 1009 44 16093 5.1 310 20:58 07.09.2019
2124 Clouds 24 1009 47 16093 4.6 300 20:39 07.09.2019
2125 Clouds 23 1009 47 16093 4.6 300 20:20 07.09.2019
2126 Rain 23 1009 44 16093 7.2 290 19:55 07.09.2019
2127 Rain 23 1010 46 16093 4.1 310 19:37 07.09.2019
2128 Clear 23 1011 46 16093 4.69 301.557 19:19 07.09.2019
2129 Clouds 23 1010 56 16093 4.1 350 18:56 07.09.2019
2130 Clear 22 1010 46 16093 6.7 320 18:36 07.09.2019
2131 Clear 22 1010 46 16093 6.7 320 18:18 07.09.2019
2132 Clear 21 1011 56 16093 1.5 0 17:56 07.09.2019
2133 Clear 21 1010 56 16093 3.1 260 17:38 07.09.2019
2134 Clear 20 1010 56 16093 3.1 260 17:18 07.09.2019
2135 Clear 20 1010 56 16093 3.1 260 17:18 07.09.2019
2136 Clear 19 1011 63 16093 2.1 0 16:43 07.09.2019
2137 Clear 18 1011 63 16093 2.1 0 16:23 07.09.2019
2138 Clear 18 1010 59 16093 3.1 300 15:57 07.09.2019
2139 Clear 17 1010 72 16093 1.5 0 15:38 07.09.2019
2140 Clear 16 1010 72 16093 1.5 0 15:20 07.09.2019
2141 Rain 15 1010 67 16093 3.19 314.187 14:55 07.09.2019
2142 Rain 15 1010 67 16093 3.19 314.187 14:36 07.09.2019
2143 Rain 15 1010 67 16093 3.19 314.187 14:36 07.09.2019
2144 Clouds 14 1009 72 16093 5.7 350 14:18 07.09.2019
2145 Clear 14 1010 82 16093 3.19 314.187 13:43 07.09.2019
2146 Clear 13 1010 82 16093 3.03 311.535 13:25 07.09.2019
2147 Clear 13 1010 82 16093 3.03 311.535 13:25 07.09.2019
2148 Clear 13 1010 93 16093 2.1 0 12:54 07.09.2019
2149 Clear 13 1009 82 16093 1.5 340 12:36 07.09.2019
2150 Clear 13 1009 87 16093 2.1 0 12:18 07.09.2019
2151 Clear 13 1009 100 16093 2.1 300 11:40 07.09.2019
2152 Rain 14 1008 87 16093 4.6 340 11:21 07.09.2019
2153 Rain 14 1008 93 16093 3.55 3.196 10:41 07.09.2019
2154 Rain 14 1008 93 16093 3.55 3.196 10:22 07.09.2019
2155 Rain 14 1007 82 16093 6.7 340 09:59 07.09.2019
2156 Rain 14 1007 87 16093 3.1 0 09:40 07.09.2019
2157 Rain 14 1007 87 16093 3.1 0 09:40 07.09.2019
2158 Rain 14 1007 87 16093 3.1 0 09:21 07.09.2019
2159 Rain 15 1007 87 16093 2.1 0 08:48 07.09.2019
2160 Rain 15 1007 87 16093 2.1 0 08:30 07.09.2019
2161 Rain 15 1008 82 16093 5.1 10 07:49 07.09.2019
2162 Rain 15 1008 82 16093 5.1 10 07:29 07.09.2019
2163 Clouds 15 1008 87 16093 3.1 350 06:57 07.09.2019
2164 Clouds 15 1008 87 16093 3.1 350 06:39 07.09.2019
2165 Rain 16 1009 87 16093 3.6 360 05:38 07.09.2019
2166 Rain 16 1008 72 16093 4.6 10 04:26 07.09.2019
2167 Clouds 16 1009 72 16093 5.1 30 03:31 07.09.2019
2168 Rain 16 1009 77 16093 4.1 10 02:22 07.09.2019
2169 Rain 16 1008 77 9656 5.1 10 01:27 07.09.2019
2170 Rain 16 1010 77 16093 4.1 40 00:52 07.09.2019
2171 Rain 16 1010 87 12874 5.7 60 00:23 07.09.2019
2172 Rain 16 1010 87 12874 5.7 60 23:57 06.09.2019
2173 Rain 16 1011 93 4023 4.1 60 23:37 06.09.2019
2174 Rain 16 1010 93 8047 8.2 30 23:19 06.09.2019
2175 Rain 16 1010 93 8047 8.2 30 23:19 06.09.2019
2176 Rain 17 1010 87 6437 8.7 20 22:55 06.09.2019
2177 Rain 17 1011 93 8047 4.1 50 22:36 06.09.2019
2178 Rain 17 1009 93 4023 8.2 30 22:18 06.09.2019
2179 Rain 17 1010 93 6437 7.7 30 21:42 06.09.2019
2180 Rain 18 1011 82 8047 2.6 110 21:24 06.09.2019
2181 Rain 18 1011 82 8047 2.6 110 21:00 06.09.2019
2182 Rain 18 1011 82 4828 6.2 120 20:41 06.09.2019
2183 Rain 18 1013 77 16093 3.6 70 20:21 06.09.2019
2184 Rain 18 1013 77 16093 3.6 70 19:59 06.09.2019
2185 Rain 18 1012 68 11265 6.7 110 19:41 06.09.2019
2186 Rain 18 1012 68 11265 6.7 110 19:41 06.09.2019
2187 Rain 19 1013 72 16093 5.7 70 19:21 06.09.2019
2188 Rain 19 1013 77 24140 5.1 60 18:55 06.09.2019
2189 Rain 19 1014 68 16093 8.2 50 18:37 06.09.2019
2190 Rain 19 1014 68 16093 8.2 50 18:37 06.09.2019
2191 Clouds 19 1014 68 16093 5.1 70 18:18 06.09.2019
2192 Clouds 19 1013 68 16093 6.2 100 17:39 06.09.2019
2193 Clouds 19 1013 68 16093 6.2 100 17:20 06.09.2019
2194 Clouds 19 1014 64 16093 4.6 100 16:43 06.09.2019
2195 Clouds 19 1014 72 16093 6.7 30 16:20 06.09.2019
2196 Clouds 19 1014 72 16093 6.7 30 15:59 06.09.2019
2197 Clouds 19 1014 68 16093 8.2 100 15:41 06.09.2019
2198 Clouds 18 1014 68 16093 8.2 100 15:22 06.09.2019
2199 Clouds 18 1014 82 16093 6.7 50 14:47 06.09.2019
2200 Clouds 17 1014 82 16093 6.7 50 14:19 06.09.2019
2201 Clear 17 1015 77 16093 3.17 47.711 13:44 06.09.2019
2202 Clear 17 1015 77 16093 3.17 47.711 13:44 06.09.2019
2203 Clear 17 1015 77 16093 3.17 47.711 13:23 06.09.2019
2204 Clouds 17 1016 77 16093 2.6 50 12:58 06.09.2019
2205 Clouds 17 1015 77 16093 3.17 47.711 12:37 06.09.2019
2206 Clouds 17 1015 77 16093 3.17 47.711 12:37 06.09.2019
2207 Clouds 17 1016 82 16093 3.1 50 12:18 06.09.2019
2208 Clouds 17 1015 72 16093 2.28 25.094 11:41 06.09.2019
2209 Clouds 17 1015 72 16093 2.28 25.094 11:23 06.09.2019
2210 Clouds 17 1015 82 16093 4.1 10 10:57 06.09.2019
2211 Clear 17 1015 72 16093 2.28 25.094 10:39 06.09.2019
2212 Clear 17 1015 72 16093 2.85 23.051 10:19 06.09.2019
2213 Clear 17 1016 72 16093 2.85 23.051 09:40 06.09.2019
2214 Clear 17 1016 72 16093 2.21 28.387 09:20 06.09.2019
2215 Clouds 17 1016 82 16093 3.6 10 08:57 06.09.2019
2216 Clouds 17 1016 72 16093 2.21 28.387 08:38 06.09.2019
2217 Clouds 17 1016 72 16093 2.21 28.387 08:20 06.09.2019
2218 Clouds 17 1017 72 16093 2.21 28.387 07:45 06.09.2019
2219 Clouds 17 1017 72 16093 2.21 28.387 07:26 06.09.2019
2220 Clear 17 1018 72 16093 2.6 0 06:56 06.09.2019
2221 Clear 18 1018 72 16093 2.1 0 05:58 06.09.2019
2222 Clouds 18 1017 72 16093 1.85 46.272 05:27 06.09.2019
2223 Clear 18 1018 72 16093 1.85 46.272 04:42 06.09.2019
2224 Clouds 19 1018 64 16093 1.85 46.272 03:45 06.09.2019
2225 Clouds 19 1018 64 16093 1.85 46.272 03:45 06.09.2019
2226 Clear 20 1017 56 16093 1.76 41.458 01:51 06.09.2019
2227 Clear 22 1017 49 16093 1.38 50.269 00:40 06.09.2019
2228 Clear 22 1017 43 16093 1.33 32.756 23:44 05.09.2019
2229 Clear 22 1018 56 16093 1.33 32.756 23:25 05.09.2019
2230 Clear 23 1018 41 16093 1.33 32.756 22:56 05.09.2019
2231 Clear 23 1018 41 16093 1.33 32.756 22:56 05.09.2019
2232 Clear 23 1018 41 16093 1.33 32.756 22:37 05.09.2019
2233 Clear 23 1019 56 16093 1.33 32.756 22:19 05.09.2019
2234 Clear 23 1019 56 16093 1.33 32.756 21:56 05.09.2019
2235 Clear 23 1018 43 16093 1.33 32.756 21:37 05.09.2019
2236 Clouds 23 1018 46 16093 3.1 360 21:19 05.09.2019
2237 Clouds 23 1018 43 16093 1.31 4.039 20:55 05.09.2019
2238 Clouds 23 1018 43 16093 1.31 4.039 20:37 05.09.2019
2239 Clouds 23 1020 49 16093 2.6 40 20:18 05.09.2019
2240 Clouds 23 1019 46 16093 1.31 4.039 19:42 05.09.2019
2241 Clouds 23 1019 46 16093 1.31 4.039 19:23 05.09.2019
2242 Clouds 22 1020 53 16093 1.5 60 18:58 05.09.2019
2243 Clouds 22 1019 46 16093 1.31 4.039 18:39 05.09.2019
2244 Clear 22 1020 56 16093 1.5 0 18:20 05.09.2019
2245 Clear 21 1020 56 16093 1.5 0 17:55 05.09.2019
2246 Clear 21 1020 46 16093 2.15 31.297 17:37 05.09.2019
2247 Clear 21 1020 46 16093 2.15 31.297 17:18 05.09.2019
2248 Clear 20 1020 49 16093 3.6 30 16:40 05.09.2019
2249 Clouds 20 1020 60 16093 4.6 30 16:20 05.09.2019
2250 Clouds 20 1020 60 16093 4.6 30 15:58 05.09.2019
2251 Clear 19 1020 56 16093 2.15 31.297 15:39 05.09.2019
2252 Clear 19 1020 56 16093 2.15 31.297 15:39 05.09.2019
2253 Clouds 19 1019 63 16093 5.1 20 15:19 05.09.2019
2254 Clear 18 1019 63 16093 4.6 50 14:43 05.09.2019
2255 Clear 18 1020 68 16093 4.6 40 14:22 05.09.2019
2256 Clear 18 1020 68 16093 4.6 40 13:59 05.09.2019
2257 Clear 18 1019 63 16093 4.1 50 13:39 05.09.2019
2258 Clear 17 1019 68 16093 3.1 0 13:18 05.09.2019
2259 Clear 18 1018 63 16093 3.1 40 12:41 05.09.2019
2260 Clear 18 1018 63 16093 3.1 40 12:23 05.09.2019
2261 Clear 18 1017 72 16093 1.79 351.215 11:44 05.09.2019
2262 Clear 18 1017 72 16093 1.79 351.215 11:20 05.09.2019
2263 Clear 18 1017 64 16093 1.79 351.215 10:57 05.09.2019
2264 Clear 19 1017 64 16093 1.79 351.215 10:37 05.09.2019
2265 Clear 18 1017 64 16093 1.79 351.215 10:37 05.09.2019
2266 Clouds 19 1017 82 16093 5.1 20 10:18 05.09.2019
2267 Clear 19 1017 60 16093 2.1 360 09:41 05.09.2019
2268 Clear 20 1017 60 16093 2.1 360 09:21 05.09.2019
2269 Clouds 20 1017 68 16093 4.1 350 08:56 05.09.2019
2270 Clear 20 1017 60 16093 3.62 335.854 08:38 05.09.2019
2271 Clear 21 1017 68 16093 3.1 0 08:19 05.09.2019
2272 Clear 21 1016 56 16093 3.6 10 07:44 05.09.2019
2273 Clear 22 1016 56 16093 3.6 10 07:24 05.09.2019
2274 Clear 22 1016 53 16093 3.62 335.854 06:48 05.09.2019
2275 Clear 23 1016 57 16093 4.1 10 06:28 05.09.2019
2276 Clear 23 1015 53 16093 3.6 360 05:47 05.09.2019
2277 Clear 24 1015 57 16093 3.8 348.814 05:28 05.09.2019
2278 Clear 24 1014 57 16093 3.8 348.814 04:41 05.09.2019
2279 Clear 24 1014 57 16093 3.8 348.814 04:18 05.09.2019
2280 Clear 26 1014 54 16093 1.48 290.311 02:59 05.09.2019
2281 Clear 26 1014 54 16093 1.48 290.311 02:59 05.09.2019
2282 Clear 26 1012 61 16093 1.48 290.311 02:38 05.09.2019
2283 Clear 26 1012 61 16093 1.48 290.311 02:18 05.09.2019
2284 Rain 28 1013 54 16093 2.1 0 00:58 05.09.2019
2285 Rain 28 1011 55 16093 2.1 240 00:40 05.09.2019
2286 Rain 29 1012 62 16093 3.6 240 00:19 05.09.2019
2287 Rain 30 1011 62 16093 4.11 264.708 23:42 04.09.2019
2288 Rain 30 1011 62 16093 4.11 264.708 23:23 04.09.2019
2289 Rain 30 1012 62 16093 2.6 0 22:49 04.09.2019
2290 Rain 30 1011 48 16093 4.6 250 22:22 04.09.2019
2291 Thunderstorm 30 1012 62 16093 3.6 230 21:58 04.09.2019
2292 Clouds 30 1011 66 16093 3.6 250 21:39 04.09.2019
2293 Clouds 30 1012 62 16093 5.89 234.496 21:20 04.09.2019
2294 Clouds 30 1012 62 16093 4.6 250 20:56 04.09.2019
2295 Clouds 30 1012 62 16093 4.6 250 20:37 04.09.2019
2296 Clouds 30 1012 62 16093 4.6 250 20:18 04.09.2019
2297 Clouds 29 1013 66 16093 4.6 220 19:45 04.09.2019
2298 Clouds 29 1013 65 16093 2.1 0 19:25 04.09.2019
2299 Clouds 29 1013 65 16093 2.1 0 18:58 04.09.2019
2300 Clouds 28 1013 58 16093 6.7 210 18:38 04.09.2019
2301 Clouds 27 1014 69 16093 3.1 0 18:19 04.09.2019
2302 Clouds 26 1014 65 16093 5.56 219.432 17:41 04.09.2019
2303 Clouds 26 1014 65 16093 5.56 219.432 17:23 04.09.2019
2304 Clouds 25 1014 65 16093 5.7 220 16:58 04.09.2019
2305 Clouds 25 1015 69 16093 5.56 219.432 16:39 04.09.2019
2306 Clouds 24 1015 78 16093 3.1 190 16:21 04.09.2019
2307 Clouds 23 1015 78 16093 3.1 190 15:55 04.09.2019
2308 Mist 23 1015 83 16093 4.6 200 15:37 04.09.2019
2309 Mist 22 1015 83 12874 3.1 200 15:18 04.09.2019
2310 Mist 21 1016 83 16093 3.6 220 14:54 04.09.2019
2311 Mist 21 1016 88 16093 3.62 200.932 14:36 04.09.2019
2312 Mist 20 1016 83 16093 2.1 240 14:18 04.09.2019
2313 Mist 20 1016 88 8047 3.65 196.595 13:39 04.09.2019
2314 Mist 20 1017 83 16093 2.1 0 13:21 04.09.2019
2315 Mist 20 1016 93 16093 3.65 196.595 12:46 04.09.2019
2316 Mist 19 1016 88 16093 2.17 185.075 12:27 04.09.2019
2317 Mist 19 1016 93 16093 2.17 185.075 12:27 04.09.2019
2318 Mist 19 1016 88 16093 2.17 185.075 11:59 04.09.2019
2319 Mist 19 1016 88 11265 2.17 185.075 11:41 04.09.2019
2320 Mist 19 1016 88 11265 2.17 185.075 11:21 04.09.2019
2321 Clouds 19 1016 94 16093 2.6 220 10:58 04.09.2019
2322 Clouds 19 1016 83 16093 2.17 185.075 10:39 04.09.2019
2323 Clouds 19 1015 94 16093 2.6 200 10:21 04.09.2019
2324 Clouds 18 1016 88 16093 3.1 200 09:46 04.09.2019
2325 Clouds 18 1015 88 16093 1.71 183.011 09:22 04.09.2019
2326 Clear 18 1016 88 16093 1.71 183.011 08:58 04.09.2019
2327 Clear 18 1016 88 16093 1.71 183.011 08:39 04.09.2019
2328 Clear 18 1016 88 16093 1.71 183.011 08:19 04.09.2019
2329 Clear 18 1017 82 16093 1.71 183.011 07:46 04.09.2019
2330 Clear 19 1017 82 16093 1.71 183.011 07:28 04.09.2019
2331 Clear 19 1017 77 16093 1.71 183.011 06:39 04.09.2019
2332 Clouds 20 1017 77 16093 3.1 200 04:57 04.09.2019
2333 Clear 21 1017 60 16093 1.7 185.825 04:25 04.09.2019
2334 Clear 21 1017 60 16093 1.7 185.825 03:45 04.09.2019
2335 Clear 24 1017 53 16093 1.15 209.714 01:22 04.09.2019
2336 Rain 25 1016 39 16093 3.1 170 00:50 04.09.2019
2337 Rain 25 1016 39 16093 3.1 170 00:31 04.09.2019
2338 Clear 26 1017 53 16093 1.49 143.947 23:54 03.09.2019
2339 Clear 27 1017 51 16093 3.1 0 23:28 03.09.2019
2340 Clear 27 1017 54 16093 1.49 143.947 22:58 03.09.2019
2341 Clear 27 1017 51 14484 3.1 0 22:39 03.09.2019
2342 Clear 27 1017 51 14484 3.1 0 22:21 03.09.2019
2343 Clouds 27 1017 45 16093 2.1 210 21:56 03.09.2019
2344 Clouds 27 1017 45 16093 2.1 210 21:56 03.09.2019
2345 Clear 27 1017 42 16093 1.13 175.085 21:36 03.09.2019
2346 Clear 27 1018 42 16093 1.5 40 21:18 03.09.2019
2347 Clear 27 1017 45 16093 4.1 60 20:42 03.09.2019
2348 Clear 27 1017 45 16093 4.1 60 20:24 03.09.2019
2349 Clouds 27 1017 51 16093 2.1 310 19:56 03.09.2019
2350 Clear 27 1017 36 16093 1.5 93.56 19:38 03.09.2019
2351 Clear 27 1017 36 16093 1.5 93.56 19:19 03.09.2019
2352 Clear 26 1018 41 16093 1.5 93.56 18:47 03.09.2019
2353 Clear 25 1019 47 16093 1.5 0 18:27 03.09.2019
2354 Clear 25 1019 47 16093 1.5 0 17:59 03.09.2019
2355 Clear 25 1018 47 16093 1.5 110 17:41 03.09.2019
2356 Clear 24 1018 47 16093 1.5 110 17:20 03.09.2019
2357 Clear 24 1019 53 16093 3.1 40 16:58 03.09.2019
2358 Clear 24 1018 53 16093 1.91 21.087 16:38 03.09.2019
2359 Clear 23 1018 53 16093 1.91 21.087 16:20 03.09.2019
2360 Clear 23 1018 53 16093 1.91 21.087 16:20 03.09.2019
2361 Clear 22 1018 68 16093 1.91 21.087 15:41 03.09.2019
2362 Clear 21 1018 68 16093 1.79 352.792 15:21 03.09.2019
2363 Clear 21 1019 68 16093 2.6 350 14:58 03.09.2019
2364 Rain 20 1018 82 16093 1.79 352.792 14:40 03.09.2019
2365 Rain 20 1018 82 16093 1.79 352.792 14:20 03.09.2019
2366 Rain 19 1018 82 16093 1.5 330 13:57 03.09.2019
2367 Clear 19 1017 88 16093 2.1 340 13:37 03.09.2019
2368 Rain 18 1017 88 16093 2.1 340 13:19 03.09.2019
2369 Rain 18 1018 88 16093 2.1 0 13:19 03.09.2019
2370 Rain 18 1018 88 16093 2.1 0 12:56 03.09.2019
2371 Rain 18 1016 88 16093 1.91 338.288 12:38 03.09.2019
2372 Mist 18 1016 88 16093 2.07 328.694 12:19 03.09.2019
2373 Mist 18 1016 88 16093 2.07 328.694 12:19 03.09.2019
2374 Clear 19 1016 88 16093 2.07 328.694 11:41 03.09.2019
2375 Clear 19 1016 88 16093 2.07 328.694 11:22 03.09.2019
2376 Clear 19 1017 83 16093 2.07 328.694 10:56 03.09.2019
2377 Clear 19 1016 88 16093 2.07 328.694 10:38 03.09.2019
2378 Clear 19 1016 88 16093 2.07 328.694 10:19 03.09.2019
2379 Clear 20 1015 88 16093 1.85 331.811 09:44 03.09.2019
2380 Clear 20 1015 88 16093 2.24 326.168 09:25 03.09.2019
2381 Clouds 20 1016 88 16093 3.6 330 08:55 03.09.2019
2382 Clear 20 1016 94 16093 2.24 326.168 08:36 03.09.2019
2383 Mist 20 1016 94 16093 2.24 326.168 08:18 03.09.2019
2384 Mist 21 1016 94 16093 2.24 326.168 07:40 03.09.2019
2385 Mist 21 1016 94 16093 2.24 326.168 07:40 03.09.2019
2386 Mist 21 1016 94 16093 2.24 326.168 07:22 03.09.2019
2387 Rain 21 1016 88 16093 2.24 326.168 06:45 03.09.2019
2388 Rain 21 1017 88 16093 2.13 318.213 05:53 03.09.2019
2389 Clear 22 1015 88 16093 2.13 318.213 03:42 03.09.2019
2390 Clouds 22 1015 83 16093 1.15 281.232 02:46 03.09.2019
2391 Clouds 23 1015 83 16093 1.15 281.232 02:24 03.09.2019
2392 Clouds 23 1015 94 16093 1.5 170 01:50 03.09.2019
2393 Clear 23 1015 83 16093 1.96 286.452 01:32 03.09.2019
2394 Rain 24 1014 83 16093 1.96 286.452 00:43 03.09.2019
2395 Rain 24 1014 83 16093 3.7 259.347 00:23 03.09.2019
2396 Rain 24 1014 83 16093 3.7 259.347 00:23 03.09.2019
2397 Rain 24 1015 83 16093 3.7 259.347 23:40 02.09.2019
2398 Rain 24 1015 83 16093 3.7 259.347 23:20 02.09.2019
2399 Rain 24 1015 83 16093 3.7 259.347 23:20 02.09.2019
2400 Rain 24 1016 94 16093 1.5 0 22:56 02.09.2019
2401 Rain 24 1015 83 6437 3.7 259.347 22:38 02.09.2019
2402 Rain 24 1015 83 6437 3.7 259.347 22:38 02.09.2019
2403 Rain 24 1015 83 6437 3.7 259.347 22:19 02.09.2019
2404 Rain 24 1016 94 11265 3.55 248.474 21:57 02.09.2019
2405 Rain 23 1016 94 9656 3.55 248.474 21:39 02.09.2019
2406 Rain 23 1016 94 9656 4.68 230.983 21:20 02.09.2019
2407 Rain 23 1016 100 1207 4.68 230.983 20:58 02.09.2019
2408 Rain 23 1015 83 4023 1.5 90 20:39 02.09.2019
2409 Rain 23 1016 83 4023 3.1 170 20:18 02.09.2019
2410 Rain 23 1017 94 14484 4.68 230.983 19:56 02.09.2019
2411 Rain 23 1017 94 16093 4.68 230.983 19:38 02.09.2019
2412 Rain 23 1017 94 16093 4.68 230.983 19:19 02.09.2019
2413 Rain 22 1018 100 3219 1.5 0 18:40 02.09.2019
2414 Rain 22 1018 100 3219 1.5 0 18:40 02.09.2019
2415 Rain 22 1018 100 3219 1.5 0 18:40 02.09.2019
2416 Rain 22 1018 100 3219 1.5 0 18:40 02.09.2019
2417 Rain 22 1018 100 3219 1.5 0 18:40 02.09.2019
2418 Rain 22 1018 94 8047 4.23 202.255 18:22 02.09.2019
2419 Rain 22 1018 94 4828 4.23 202.255 17:57 02.09.2019
2420 Rain 22 1018 88 9656 3.6 150 17:39 02.09.2019
2421 Rain 22 1018 88 4828 4.23 202.255 17:20 02.09.2019
2422 Rain 22 1019 88 4023 1.5 0 16:54 02.09.2019
2423 Rain 22 1019 64 16093 6.7 170 16:36 02.09.2019
2424 Clouds 23 1020 73 16093 3.1 0 16:18 02.09.2019
2425 Clouds 23 1020 78 16093 2.1 0 15:44 02.09.2019
2426 Clouds 22 1020 78 16093 2.1 0 15:22 02.09.2019
2427 Clouds 22 1020 73 16093 1.5 0 14:56 02.09.2019
2428 Clouds 21 1020 73 16093 3.1 170 14:37 02.09.2019
2429 Clouds 21 1020 73 16093 3.1 170 14:19 02.09.2019
2430 Clouds 20 1020 73 16093 3.1 160 13:45 02.09.2019
2431 Clouds 20 1021 77 16093 2.1 160 13:25 02.09.2019
2432 Clouds 20 1020 100 16093 3.64 173.774 12:58 02.09.2019
2433 Clouds 20 1021 77 16093 3.64 173.774 12:40 02.09.2019
2434 Clouds 20 1021 77 16093 3.64 173.774 12:40 02.09.2019
2435 Clouds 19 1021 77 16093 2.38 163.146 12:22 02.09.2019
2436 Clouds 19 1022 73 16093 2.38 163.146 11:56 02.09.2019
2437 Clouds 19 1021 73 16093 2.38 163.146 11:37 02.09.2019
2438 Clouds 19 1020 77 16093 4.1 160 11:19 02.09.2019
2439 Clear 19 1021 73 16093 2.38 163.146 10:42 02.09.2019
2440 Clouds 19 1021 77 16093 3.1 160 10:22 02.09.2019
2441 Clouds 19 1021 77 16093 3.1 160 09:59 02.09.2019
2442 Clear 19 1022 73 16093 2.22 160.602 09:39 02.09.2019
2443 Clouds 20 1022 73 16093 4.1 140 09:20 02.09.2019
2444 Clear 20 1022 77 16093 2.55 157.097 08:43 02.09.2019
2445 Clear 20 1023 73 16093 1.5 0 08:22 02.09.2019
2446 Clear 20 1022 77 16093 2.55 157.097 08:22 02.09.2019
2447 Clear 20 1023 77 16093 2.55 157.097 07:57 02.09.2019
2448 Clear 20 1023 77 16093 2.1 170 07:38 02.09.2019
2449 Clear 20 1024 73 16093 3.1 0 07:20 02.09.2019
2450 Clear 20 1024 68 16093 2.55 157.097 06:43 02.09.2019
2451 Clear 20 1025 73 16093 3.56 147.729 05:54 02.09.2019
2452 Clouds 20 1024 73 16093 2.6 130 05:54 02.09.2019
2453 Clouds 20 1024 73 16093 2.6 130 05:26 02.09.2019
2454 Clouds 20 1024 73 16093 3.56 147.729 04:48 02.09.2019
2455 Clouds 21 1026 60 16093 2.1 140 02:30 02.09.2019
2456 Clouds 22 1026 64 16093 3.49 139.081 01:41 02.09.2019
2457 Clouds 22 1026 64 16093 3.49 139.081 01:41 02.09.2019
2458 Clear 23 1025 60 16093 6.7 140 00:42 02.09.2019
2459 Clear 23 1025 60 16093 6.7 140 00:20 02.09.2019
2460 Clear 24 1025 57 16093 4.6 150 23:39 01.09.2019
2461 Clear 24 1025 57 16093 4.6 150 23:19 01.09.2019
2462 Clear 24 1025 57 16093 4.6 150 23:19 01.09.2019
2463 Clouds 24 1026 56 16093 2.1 0 22:57 01.09.2019
2464 Clear 24 1026 57 16093 4.1 140 22:38 01.09.2019
2465 Clouds 24 1027 56 16093 1.5 0 22:18 01.09.2019
2466 Clouds 24 1027 56 16093 1.5 0 22:18 01.09.2019
2467 Clouds 24 1027 56 16093 1.5 0 21:54 01.09.2019
2468 Clear 24 1026 53 16093 5.7 170 21:36 01.09.2019
2469 Clear 24 1026 53 16093 5.7 170 21:36 01.09.2019
2470 Clear 24 1026 53 16093 5.7 170 21:18 01.09.2019
2471 Clouds 24 1027 53 16093 3.4 131.922 20:54 01.09.2019
2472 Clear 25 1026 57 16093 5.7 140 20:36 01.09.2019
2473 Clouds 25 1027 53 16093 3.4 131.922 20:18 01.09.2019
2474 Clear 25 1027 53 16093 5.7 130 19:40 01.09.2019
2475 Clouds 24 1028 57 16093 2.6 0 19:21 01.09.2019
2476 Clouds 24 1028 57 16093 2.6 0 19:21 01.09.2019
2477 Clouds 24 1027 64 16093 5.1 40 18:55 01.09.2019
2478 Clouds 24 1027 50 16093 5.7 150 18:37 01.09.2019
2479 Clear 24 1028 60 16093 2.51 107.613 18:18 01.09.2019
2480 Clear 23 1028 53 16093 3.1 140 17:40 01.09.2019
2481 Clear 23 1028 53 16093 3.1 140 17:22 01.09.2019
2482 Clear 23 1029 64 16093 3.1 0 16:58 01.09.2019
2483 Clear 22 1028 53 16093 3.1 90 16:38 01.09.2019
2484 Clear 22 1028 53 16093 3.1 90 16:18 01.09.2019
2485 Clear 20 1027 56 16093 2.51 107.613 15:43 01.09.2019
2486 Clear 20 1027 56 16093 2.09 37.726 15:24 01.09.2019
2487 Clear 19 1027 64 16093 5.1 30 14:45 01.09.2019
2488 Clear 19 1027 64 16093 5.1 30 14:27 01.09.2019
2489 Clouds 18 1027 63 16093 4.1 30 13:59 01.09.2019
2490 Clear 18 1027 63 16093 2.09 37.726 13:41 01.09.2019
2491 Clear 17 1027 63 16093 2.35 40.424 13:23 01.09.2019
2492 Clear 17 1027 100 16093 2.35 40.424 12:45 01.09.2019
2493 Clear 17 1027 100 16093 2.4 26.32 12:26 01.09.2019
2494 Clear 17 1027 59 16093 1.5 0 11:59 01.09.2019
2495 Clear 17 1026 59 16093 2.4 26.32 11:39 01.09.2019
2496 Clear 17 1026 59 16093 2.4 26.32 11:19 01.09.2019
2497 Clear 17 1026 59 16093 2.4 26.32 11:19 01.09.2019
2498 Clear 17 1026 52 16093 2.4 26.32 10:45 01.09.2019
2499 Clear 17 1027 63 16093 2.6 60 10:24 01.09.2019
2500 Clear 17 1027 63 16093 2.6 60 09:59 01.09.2019
2501 Clear 18 1026 49 16093 2.58 28.554 09:41 01.09.2019
2502 Clear 18 1026 49 16093 1.79 23.367 09:22 01.09.2019
2503 Clear 18 1026 43 16093 2.1 40 08:43 01.09.2019
2504 Clear 18 1026 43 16093 2.1 40 08:22 01.09.2019
2505 Clear 19 1026 43 16093 1.79 23.367 07:47 01.09.2019
2506 Clear 19 1027 46 16093 3.1 60 07:23 01.09.2019
2507 Clear 19 1026 49 16093 1.79 23.367 06:41 01.09.2019
2508 Clear 19 1026 40 16093 4.6 40 06:18 01.09.2019
2509 Clear 20 1025 46 16093 2.22 4.609 05:38 01.09.2019
2510 Clear 21 1025 43 16093 2.22 4.609 04:22 01.09.2019
2511 Clear 21 1025 40 16093 2.22 4.609 03:39 01.09.2019
2512 Clouds 22 1024 43 16093 5.1 360 02:57 01.09.2019
2513 Clear 22 1024 47 16093 1.5 220 02:25 01.09.2019
2514 Clear 24 1024 31 16093 2.22 6.859 01:41 01.09.2019
2515 Clear 24 1024 31 16093 2.08 4.975 01:22 01.09.2019
2516 Clear 24 1024 31 16093 2.08 4.975 01:22 01.09.2019
2517 Clear 25 1023 29 16093 2.1 350 00:42 01.09.2019
2518 Clear 26 1024 34 16093 2.1 40 00:21 01.09.2019
2519 Clear 25 1023 29 16093 2.1 350 00:21 01.09.2019
2520 Clear 26 1023 28 16093 3.6 350 23:48 31.08.2019
2521 Clouds 26 1023 26 16093 3.6 330 23:22 31.08.2019
2522 Clear 27 1024 34 16093 2.6 40 22:57 31.08.2019
2523 Clear 27 1023 26 16093 2.6 10 22:39 31.08.2019
2524 Clear 27 1023 26 16093 2.6 10 22:21 31.08.2019
2525 Clear 27 1024 36 16093 2.6 0 21:55 31.08.2019
2526 Clouds 27 1023 28 16093 3.6 360 21:37 31.08.2019
2527 Clouds 27 1023 28 16093 3.6 360 21:18 31.08.2019
2528 Clouds 27 1023 32 16093 4.1 350 20:43 31.08.2019
2529 Clouds 26 1023 32 16093 4.1 350 20:24 31.08.2019
2530 Clear 26 1024 44 16093 2.1 0 19:47 31.08.2019
2531 Clear 26 1024 44 16093 2.1 0 19:24 31.08.2019
2532 Clouds 26 1024 44 16093 2.6 0 18:59 31.08.2019
2533 Clear 26 1024 39 16093 4.1 350 18:39 31.08.2019
2534 Clear 25 1024 39 16093 4.1 350 18:20 31.08.2019
2535 Clear 24 1024 41 16093 4.1 340 17:55 31.08.2019
2536 Clear 24 1024 44 16093 3.33 356.502 17:37 31.08.2019
2537 Clear 24 1024 44 16093 3.33 356.502 17:18 31.08.2019
2538 Clear 24 1025 53 16093 3.1 0 16:55 31.08.2019
2539 Clear 23 1024 44 16093 4.1 60 16:37 31.08.2019
2540 Clear 23 1024 44 16093 4.1 60 16:19 31.08.2019
2541 Clouds 22 1023 47 16093 3.6 30 15:42 31.08.2019
2542 Clouds 22 1023 47 16093 3.6 30 15:19 31.08.2019
2543 Clouds 21 1023 60 16093 3.1 10 14:57 31.08.2019
2544 Clouds 21 1023 60 16093 2.16 341.833 14:39 31.08.2019
2545 Clouds 21 1023 56 16093 4.6 60 14:19 31.08.2019
2546 Clear 20 1022 64 16093 2.6 40 13:41 31.08.2019
2547 Clear 20 1022 64 16093 2.6 40 13:23 31.08.2019
2548 Clear 20 1023 52 16093 2.6 50 13:23 31.08.2019
2549 Clear 20 1022 73 16093 2 339.541 12:58 31.08.2019
2550 Mist 20 1022 73 16093 2 339.541 12:39 31.08.2019
2551 Mist 20 1022 73 16093 2.12 346.981 12:20 31.08.2019
2552 Clear 20 1021 68 16093 2.6 50 11:54 31.08.2019
2553 Clear 20 1021 68 16093 2.6 30 11:36 31.08.2019
2554 Clear 20 1021 68 16093 2.6 30 11:18 31.08.2019
2555 Clear 20 1020 73 16093 2.12 346.981 10:41 31.08.2019
2556 Clouds 21 1020 73 16093 4.6 10 10:19 31.08.2019
2557 Clouds 21 1020 73 16093 4.6 10 09:56 31.08.2019
2558 Clear 21 1019 69 16093 2.12 346.075 09:37 31.08.2019
2559 Clear 21 1019 69 16093 1.94 331.347 09:19 31.08.2019
2560 Clouds 21 1019 69 16093 2.1 330 08:42 31.08.2019
2561 Clouds 21 1019 69 16093 2.1 330 08:23 31.08.2019
2562 Clouds 22 1019 60 16093 1.94 331.347 07:40 31.08.2019
2563 Clouds 22 1019 60 16093 1.94 331.347 07:22 31.08.2019
2564 Clear 22 1019 57 16093 1.94 331.347 06:41 31.08.2019
2565 Clear 23 1019 57 16093 2.1 280 06:18 31.08.2019
2566 Clear 23 1018 57 16093 1.3 319.236 05:33 31.08.2019
2567 Clear 24 1018 54 16093 1.3 319.236 04:36 31.08.2019
2568 Clear 24 1017 57 16093 1.3 319.236 03:45 31.08.2019
2569 Clear 26 1017 51 16093 2.61 265.642 02:49 31.08.2019
2570 Rain 27 1017 51 16093 2.1 270 01:55 31.08.2019
2571 Rain 28 1016 48 16093 3.1 270 01:34 31.08.2019
2572 Clear 29 1016 40 16093 6.2 300 00:52 31.08.2019
2573 Clear 29 1016 40 16093 6.2 300 00:30 31.08.2019
2574 Clouds 30 1016 45 16093 4.1 270 23:59 30.08.2019
2575 Clear 30 1015 38 16093 5.1 290 23:39 30.08.2019
2576 Clouds 30 1015 45 16093 4.1 260 23:18 30.08.2019
2577 Clouds 30 1015 43 16093 5.1 260 22:42 30.08.2019
2578 Clouds 30 1015 43 16093 5.1 260 22:24 30.08.2019
2579 Rain 30 1016 45 16093 3.6 230 21:59 30.08.2019
2580 Rain 30 1016 45 16093 3.6 230 21:38 30.08.2019
2581 Rain 30 1016 45 16093 3.6 230 21:20 30.08.2019
2582 Rain 30 1016 45 16093 3.6 230 21:20 30.08.2019
2583 Clear 30 1016 42 16093 3.6 260 20:59 30.08.2019
2584 Clear 30 1016 43 16093 4.6 250 20:41 30.08.2019
2585 Clear 30 1017 42 16093 5.1 247.136 20:20 30.08.2019
2586 Clear 29 1017 48 16093 3.6 240 19:59 30.08.2019
2587 Clear 29 1017 48 16093 3.6 240 19:40 30.08.2019
2588 Clear 29 1017 48 16093 3.6 240 19:19 30.08.2019
2589 Clouds 28 1016 37 16093 6.7 210 18:55 30.08.2019
2590 Clouds 28 1016 37 16093 6.7 210 18:55 30.08.2019
2591 Clear 28 1017 37 16093 4.1 280 18:37 30.08.2019
2592 Clear 28 1017 37 16093 4.1 280 18:18 30.08.2019
2593 Clouds 27 1017 42 16093 4.1 280 17:55 30.08.2019
2594 Clouds 27 1017 42 16093 4.1 280 17:37 30.08.2019
2595 Clouds 26 1017 42 16093 4.1 280 17:18 30.08.2019
2596 Clear 25 1017 47 16093 4.6 290 16:43 30.08.2019
2597 Clear 24 1017 60 16093 4.1 250 16:24 30.08.2019
2598 Clear 23 1017 56 16093 5.17 239.578 15:45 30.08.2019
2599 Clear 22 1017 56 16093 3.2 223.558 15:25 30.08.2019
2600 Clear 21 1017 56 16093 5.1 240 14:59 30.08.2019
2601 Clear 20 1017 64 16093 3.2 223.558 14:41 30.08.2019
2602 Clear 20 1017 64 16093 3.2 223.558 14:23 30.08.2019
2603 Clear 19 1017 72 16093 3.2 223.558 13:45 30.08.2019
2604 Clear 18 1017 72 16093 3.1 260 13:23 30.08.2019
2605 Clear 18 1018 60 16093 2.6 260 12:59 30.08.2019
2606 Clear 17 1017 77 16093 2.88 231.586 12:41 30.08.2019
2607 Clear 16 1017 77 16093 1.83 246.209 12:22 30.08.2019
2608 Clear 16 1017 77 16093 1.83 246.209 11:43 30.08.2019
2609 Clear 16 1017 77 16093 1.83 246.209 11:25 30.08.2019
2610 Clear 16 1016 72 16093 3.6 240 10:59 30.08.2019
2611 Clear 16 1016 72 16093 1.83 246.209 10:37 30.08.2019
2612 Mist 17 1016 72 16093 1.83 246.209 10:18 30.08.2019
2613 Clear 17 1016 72 16093 1.83 246.209 09:42 30.08.2019
2614 Clear 17 1016 72 16093 1.64 251.864 09:20 30.08.2019
2615 Clear 17 1016 72 16093 1.64 251.864 08:59 30.08.2019
2616 Clear 17 1016 72 16093 1.64 251.864 08:40 30.08.2019
2617 Clear 17 1016 72 16093 1.64 251.864 08:21 30.08.2019
2618 Clear 18 1016 68 16093 1.64 251.864 07:44 30.08.2019
2619 Clear 18 1016 60 16093 1.5 250 07:23 30.08.2019
2620 Clear 18 1016 64 16093 1.64 251.864 06:49 30.08.2019
2621 Clear 18 1016 64 16093 1.64 251.864 06:30 30.08.2019
2622 Clear 19 1016 60 16093 1.34 267.012 05:55 30.08.2019
2623 Clear 20 1016 53 16093 1.34 267.012 04:27 30.08.2019
2624 Clear 21 1016 49 16093 3.6 270 03:55 30.08.2019
2625 Clear 21 1016 49 16093 1.34 267.012 03:33 30.08.2019
2626 Clear 23 1014 44 16093 2.27 285.151 02:34 30.08.2019
2627 Clear 25 1014 38 16093 3.1 320 01:38 30.08.2019
2628 Clear 26 1014 39 16093 3.1 0 00:46 30.08.2019
2629 Clear 26 1014 39 16093 3.1 0 00:18 30.08.2019
2630 Clear 27 1012 39 16093 1.5 0 23:42 29.08.2019
2631 Clear 27 1012 39 16093 1.5 0 23:21 29.08.2019
2632 Clear 27 1012 39 16093 1.5 0 23:21 29.08.2019
2633 Clouds 27 1013 36 16093 3.6 260 22:45 29.08.2019
2634 Clouds 27 1013 36 16093 3.6 260 22:45 29.08.2019
2635 Clouds 27 1013 36 16093 3.6 260 22:45 29.08.2019
2636 Clear 28 1012 35 16093 4.31 306.455 22:26 29.08.2019
2637 Clear 28 1012 35 16093 4.31 306.455 22:26 29.08.2019
2638 Clouds 28 1012 34 16093 7.2 300 21:58 29.08.2019
2639 Clouds 28 1012 34 16093 7.2 300 21:58 29.08.2019
2640 Clouds 28 1012 34 16093 7.2 300 21:58 29.08.2019
2641 Clear 28 1012 34 16093 7.2 310 21:40 29.08.2019
2642 Clouds 28 1012 34 16093 5.7 300 21:21 29.08.2019
2643 Clear 28 1013 37 16093 3.1 0 20:57 29.08.2019
2644 Clear 28 1013 37 16093 3.1 0 20:38 29.08.2019
2645 Clear 28 1013 37 16093 3.1 0 20:18 29.08.2019
2646 Clouds 27 1013 39 16093 2.1 0 19:47 29.08.2019
2647 Clouds 27 1013 39 16093 2.1 0 19:26 29.08.2019
2648 Clouds 27 1012 42 16093 6.2 310 18:58 29.08.2019
2649 Clouds 26 1013 42 16093 5.1 330 18:40 29.08.2019
2650 Clear 26 1013 44 16093 3.1 0 18:18 29.08.2019
2651 Clear 26 1013 44 16093 3.1 0 18:18 29.08.2019
2652 Clear 26 1013 44 16093 4.6 330 17:54 29.08.2019
2653 Clear 25 1013 44 16093 4.6 330 17:36 29.08.2019
2654 Clear 25 1013 54 16093 2.1 0 17:18 29.08.2019
2655 Clear 24 1013 53 16093 4.1 360 16:42 29.08.2019
2656 Clouds 23 1012 53 16093 5.1 330 16:23 29.08.2019
2657 Clear 23 1013 69 16093 4.6 320 15:54 29.08.2019
2658 Clear 22 1013 60 16093 4.51 329.366 15:36 29.08.2019
2659 Clouds 21 1012 60 16093 5.7 330 15:18 29.08.2019
2660 Clear 20 1012 64 16093 4.65 323.792 14:42 29.08.2019
2661 Clear 20 1012 64 16093 4.65 323.792 14:21 29.08.2019
2662 Clear 19 1012 77 16093 2.6 350 13:57 29.08.2019
2663 Clear 19 1012 72 16093 4.65 323.792 13:39 29.08.2019
2664 Clear 19 1012 72 16093 4.33 325.826 13:39 29.08.2019
2665 Clear 18 1012 72 16093 4.33 325.826 13:19 29.08.2019
2666 Clear 18 1012 72 16093 4.33 325.826 12:57 29.08.2019
2667 Clear 18 1011 77 16093 4.33 325.826 12:38 29.08.2019
2668 Clear 18 1011 77 16093 4.16 322.362 12:20 29.08.2019
2669 Clear 18 1012 82 16093 1.5 0 11:56 29.08.2019
2670 Clear 18 1011 77 16093 4.16 322.362 11:36 29.08.2019
2671 Clouds 18 1011 72 16093 2.6 310 11:18 29.08.2019
2672 Clouds 19 1011 82 16093 4.16 322.362 10:41 29.08.2019
2673 Clouds 19 1011 82 16093 4.16 322.362 10:23 29.08.2019
2674 Clouds 19 1011 83 16093 2.6 50 09:42 29.08.2019
2675 Clouds 19 1011 83 16093 2.6 50 09:20 29.08.2019
2676 Rain 20 1010 73 16093 3.6 340 08:58 29.08.2019
2677 Rain 20 1010 78 16093 1.5 0 08:39 29.08.2019
2678 Clouds 20 1010 77 16093 4.1 300 08:21 29.08.2019
2679 Clouds 20 1010 83 16093 3.56 330.945 07:43 29.08.2019
2680 Clouds 20 1011 88 16093 1.5 280 07:25 29.08.2019
2681 Clear 21 1011 94 16093 3.56 330.945 06:47 29.08.2019
2682 Clear 21 1011 94 16093 3.56 330.945 06:28 29.08.2019
2683 Clouds 21 1010 88 16093 2.56 305.089 05:41 29.08.2019
2684 Rain 21 1010 88 16093 2.56 305.089 04:50 29.08.2019
2685 Rain 21 1010 88 16093 2.56 305.089 04:29 29.08.2019
2686 Rain 22 1009 88 16093 3.11 329.538 02:49 29.08.2019
2687 Rain 22 1010 88 16093 1.5 260 01:49 29.08.2019
2688 Rain 22 1009 88 16093 1.5 320 01:30 29.08.2019
2689 Rain 22 1010 88 16093 3.1 70 00:40 29.08.2019
2690 Rain 22 1010 88 16093 3.1 70 00:20 29.08.2019
2691 Rain 22 1010 88 9656 2.6 360 23:43 28.08.2019
2692 Rain 22 1010 88 9656 2.6 360 23:24 28.08.2019
2693 Rain 22 1010 88 16093 3.6 60 22:59 28.08.2019
2694 Rain 22 1010 88 12874 2.6 330 22:39 28.08.2019
2695 Rain 22 1010 88 2816 2.22 250.594 22:18 28.08.2019
2696 Rain 23 1010 88 14484 2.6 20 21:57 28.08.2019
2697 Rain 23 1010 88 4828 2.6 70 21:39 28.08.2019
2698 Rain 23 1010 88 4828 2.6 70 21:20 28.08.2019
2699 Rain 23 1011 78 16093 2.78 154.469 20:41 28.08.2019
2700 Rain 23 1011 83 9656 2.6 80 20:22 28.08.2019
2701 Rain 23 1012 94 4828 5.1 50 19:57 28.08.2019
2702 Rain 23 1012 88 2816 3.6 60 19:39 28.08.2019
2703 Rain 24 1013 83 11265 2.6 70 19:20 28.08.2019
2704 Rain 24 1012 83 3219 4.6 50 18:42 28.08.2019
2705 Rain 24 1012 83 3219 4.6 50 18:21 28.08.2019
2706 Rain 24 1012 69 16093 3.1 100 17:55 28.08.2019
2707 Rain 24 1013 73 16093 4.1 50 17:37 28.08.2019
2708 Rain 23 1013 73 16093 2.6 0 17:19 28.08.2019
2709 Rain 23 1014 78 16093 5.1 50 16:42 28.08.2019
2710 Rain 23 1014 78 16093 5.1 50 16:19 28.08.2019
2711 Rain 22 1013 73 16093 2.6 60 15:58 28.08.2019
2712 Rain 22 1013 78 16093 3.1 70 15:37 28.08.2019
2713 Clouds 21 1015 83 16093 2.1 0 15:18 28.08.2019
2714 Clouds 21 1014 83 16093 3.6 40 14:56 28.08.2019
2715 Clouds 21 1014 78 16093 0.88 100.223 14:37 28.08.2019
2716 Clouds 20 1014 83 16093 3.1 40 14:19 28.08.2019
2717 Clouds 20 1014 83 16093 3.1 40 13:56 28.08.2019
2718 Mist 20 1014 77 16093 0.81 82.091 13:36 28.08.2019
2719 Mist 19 1014 77 16093 0.81 82.091 13:18 28.08.2019
2720 Clouds 19 1014 82 16093 0.81 82.091 12:41 28.08.2019
2721 Clouds 19 1014 82 16093 0.56 86.544 12:23 28.08.2019
2722 Clouds 19 1014 82 16093 0.56 86.544 11:41 28.08.2019
2723 Clouds 19 1014 82 16093 0.56 86.544 11:23 28.08.2019
2724 Clouds 19 1014 88 16093 3.6 20 10:59 28.08.2019
2725 Clouds 19 1015 88 16093 0.56 86.544 10:41 28.08.2019
2726 Clouds 19 1015 88 16093 0.56 86.544 10:20 28.08.2019
2727 Clouds 19 1015 83 16093 0.56 86.544 09:56 28.08.2019
2728 Clear 19 1015 88 16093 1.04 108.036 09:38 28.08.2019
2729 Clear 19 1015 88 16093 1.31 129.677 09:18 28.08.2019
2730 Clouds 18 1016 82 16093 1.31 129.677 08:38 28.08.2019
2731 Clouds 18 1016 82 16093 1.31 129.677 08:20 28.08.2019
2732 Clouds 18 1016 77 16093 3.6 140 07:39 28.08.2019
2733 Clouds 18 1016 77 16093 2.1 110 07:20 28.08.2019
2734 Clear 18 1016 82 16093 1.31 129.677 06:51 28.08.2019
2735 Clouds 18 1017 82 16093 1.31 129.677 06:32 28.08.2019
2736 Clouds 19 1017 82 16093 1.64 161.907 05:32 28.08.2019
2737 Clear 20 1017 68 16093 1.89 153.544 02:46 28.08.2019
2738 Clear 21 1016 68 16093 3.1 130 01:32 28.08.2019
2739 Clear 21 1017 64 16093 2.1 0 00:55 28.08.2019
2740 Clear 21 1017 60 16093 2.14 146.562 00:37 28.08.2019
2741 Clear 22 1018 68 16093 1.5 0 23:58 27.08.2019
2742 Clear 22 1017 60 16093 3.1 150 23:39 27.08.2019
2743 Clear 22 1017 68 16093 3.1 150 23:20 27.08.2019
2744 Clear 23 1017 60 16093 2.15 181.305 22:42 27.08.2019
2745 Clear 23 1018 56 16093 1.2 166.01 22:23 27.08.2019
2746 Clear 23 1018 56 16093 1.2 166.01 21:57 27.08.2019
2747 Clear 23 1017 56 16093 1.2 166.01 21:39 27.08.2019
2748 Clear 23 1017 56 16093 2.38 174.208 21:21 27.08.2019
2749 Clouds 23 1017 60 16093 4.6 190 20:59 27.08.2019
2750 Clear 23 1018 56 16093 3.6 150 20:40 27.08.2019
2751 Clear 23 1018 56 16093 3.6 150 20:20 27.08.2019
2752 Clouds 23 1018 53 16093 3.1 0 19:56 27.08.2019
2753 Clear 23 1018 53 16093 2.38 174.208 19:38 27.08.2019
2754 Clear 23 1019 53 16093 2.6 0 19:20 27.08.2019
2755 Clear 22 1019 60 16093 2.38 174.208 18:42 27.08.2019
2756 Clear 22 1019 60 16093 2.17 135.354 18:19 27.08.2019
2757 Clouds 21 1019 73 16093 3.6 210 17:56 27.08.2019
2758 Clouds 21 1020 64 16093 2.17 135.354 17:38 27.08.2019
2759 Clouds 21 1019 60 16093 3.6 140 17:19 27.08.2019
2760 Clouds 21 1020 60 16093 2.17 135.354 16:47 27.08.2019
2761 Clouds 20 1019 60 16093 3.6 90 16:28 27.08.2019
2762 Clear 20 1020 60 16093 2.17 135.354 15:57 27.08.2019
2763 Clear 20 1020 60 16093 2.17 135.354 15:39 27.08.2019
2764 Clouds 19 1019 64 16093 3.6 70 15:20 27.08.2019
2765 Clear 18 1019 60 16093 1.05 34.961 14:54 27.08.2019
2766 Clear 18 1019 64 16093 2.6 110 14:36 27.08.2019
2767 Clouds 17 1019 77 16093 2.1 20 14:18 27.08.2019
2768 Clear 16 1019 72 16093 1.05 34.961 13:41 27.08.2019
2769 Clear 16 1019 72 16093 1.15 42.028 13:20 27.08.2019
2770 Clear 15 1019 82 16093 1.15 42.028 12:42 27.08.2019
2771 Mist 15 1019 82 16093 0.96 59.864 12:21 27.08.2019
2772 Clear 15 1019 82 16093 0.96 59.864 12:21 27.08.2019
2773 Mist 15 1019 87 16093 3.1 20 11:58 27.08.2019
2774 Clear 15 1019 100 16093 0.96 59.864 11:40 27.08.2019
2775 Clear 15 1019 100 16093 0.96 59.864 11:21 27.08.2019
2776 Mist 15 1019 87 16093 0.96 59.864 10:41 27.08.2019
2777 Mist 15 1019 82 16093 2.6 20 10:20 27.08.2019
2778 Mist 15 1019 82 16093 2.6 20 09:57 27.08.2019
2779 Mist 15 1020 82 16093 1.22 51.333 09:37 27.08.2019
2780 Clouds 15 1020 72 16093 1.5 0 09:19 27.08.2019
2781 Fog 16 1021 100 402 0.93 148.3 08:45 27.08.2019
2782 Fog 16 1021 100 402 0.93 148.3 08:24 27.08.2019
2783 Clouds 16 1020 68 16093 1.5 90 07:55 27.08.2019
2784 Mist 16 1021 72 16093 2.6 60 07:37 27.08.2019
2785 Mist 16 1021 72 16093 2.6 60 07:18 27.08.2019
2786 Mist 16 1021 72 16093 3.1 60 06:48 27.08.2019
2787 Mist 17 1021 68 16093 3.6 120 06:19 27.08.2019
2788 Clear 17 1021 68 16093 1.51 176.925 05:29 27.08.2019
2789 Clouds 18 1021 64 16093 2.1 130 04:20 27.08.2019
2790 Clouds 19 1021 68 16093 1.51 176.925 03:31 27.08.2019
2791 Clouds 20 1021 64 16093 3.6 150 01:55 27.08.2019
2792 Clear 21 1021 60 16093 4.6 160 01:30 27.08.2019
2793 Clouds 21 1021 56 16093 3.6 150 00:50 27.08.2019
2794 Clear 22 1021 56 16093 3.1 170 00:29 27.08.2019
2795 Clouds 22 1021 53 16093 2.6 90 23:54 26.08.2019
2796 Clear 22 1021 56 16093 3.6 160 23:36 26.08.2019
2797 Clear 22 1021 56 16093 3.6 160 23:18 26.08.2019
2798 Clear 23 1021 49 16093 4.6 170 22:38 26.08.2019
2799 Clouds 23 1022 64 16093 4.6 240 22:19 26.08.2019
2800 Clear 23 1021 46 16093 4.1 50 21:55 26.08.2019
2801 Clear 23 1022 49 16093 3.1 160 21:37 26.08.2019
2802 Clear 23 1023 49 16093 4.6 50 21:18 26.08.2019
2803 Clear 23 1022 43 16093 4.6 80 20:54 26.08.2019
2804 Clear 23 1022 43 16093 4.6 80 20:36 26.08.2019
2805 Clear 23 1023 50 16093 4.1 40 20:18 26.08.2019
2806 Clear 23 1023 43 16093 4.1 100 19:42 26.08.2019
2807 Clear 22 1023 56 16093 5.7 40 19:19 26.08.2019
2808 Clear 22 1023 56 16093 5.7 40 18:58 26.08.2019
2809 Clouds 22 1023 52 16093 4.6 110 18:37 26.08.2019
2810 Clouds 22 1023 52 16093 4.6 110 18:37 26.08.2019
2811 Clouds 21 1024 56 16093 4.6 60 18:19 26.08.2019
2812 Clouds 20 1024 60 16093 4.6 40 17:44 26.08.2019
2813 Clouds 20 1024 60 16093 6.2 40 17:20 26.08.2019
2814 Clouds 19 1024 56 16093 2.99 67.722 16:57 26.08.2019
2815 Clouds 19 1024 56 16093 2.99 67.722 16:39 26.08.2019
2816 Clouds 18 1024 68 16093 5.7 20 16:18 26.08.2019
2817 Clouds 18 1023 63 16093 3.6 30 15:54 26.08.2019
2818 Clouds 17 1024 63 16093 4.1 30 15:36 26.08.2019
2819 Clouds 17 1024 77 16093 7.2 60 15:18 26.08.2019
2820 Clouds 16 1025 67 16093 4.1 50 14:42 26.08.2019
2821 Clouds 16 1024 77 16093 4.6 30 14:22 26.08.2019
2822 Clouds 16 1024 67 16093 2.1 10 13:54 26.08.2019
2823 Clouds 16 1024 67 16093 4.1 40 13:36 26.08.2019
2824 Clouds 16 1024 77 16093 5.7 30 13:18 26.08.2019
2825 Clouds 16 1023 72 16093 2.1 30 12:42 26.08.2019
2826 Clouds 16 1023 72 16093 5.1 30 12:21 26.08.2019
2827 Clear 16 1023 72 16093 2.59 14.686 11:43 26.08.2019
2828 Clouds 15 1024 72 16093 3.1 0 11:25 26.08.2019
2829 Clouds 16 1024 72 16093 3.1 0 11:25 26.08.2019
2830 Clouds 16 1023 72 16093 2.1 40 10:58 26.08.2019
2831 Clouds 16 1023 72 16093 5.7 40 10:58 26.08.2019
2832 Clouds 16 1023 72 16093 3.6 40 10:40 26.08.2019
2833 Clear 16 1023 72 16093 4.1 30 10:19 26.08.2019
2834 Clear 16 1023 72 16093 4.1 30 10:19 26.08.2019
2835 Clouds 16 1024 72 16093 3.6 50 09:45 26.08.2019
2836 Clear 16 1024 67 16093 2.6 0 09:25 26.08.2019
2837 Clouds 16 1023 67 16093 4.6 10 08:59 26.08.2019
2838 Clear 16 1023 63 16093 4.6 50 08:41 26.08.2019
2839 Clear 17 1023 72 16093 6.2 40 08:22 26.08.2019
2840 Clear 17 1023 59 16093 4.1 100 07:46 26.08.2019
2841 Clear 17 1024 68 16093 6.2 50 07:25 26.08.2019
2842 Clear 18 1023 68 16093 4.1 50 06:59 26.08.2019
2843 Clear 18 1024 64 16093 5.1 110 06:39 26.08.2019
2844 Clear 18 1024 72 16093 5.7 50 06:20 26.08.2019
2845 Clouds 18 1024 64 16093 5.7 110 05:48 26.08.2019
2846 Clouds 19 1024 73 16093 6.2 60 04:24 26.08.2019
2847 Clouds 20 1024 73 16093 1.79 79.035 02:48 26.08.2019
2848 Clear 21 1024 53 16093 5.1 50 01:27 26.08.2019
2849 Clear 22 1024 56 16093 4.6 60 00:46 26.08.2019
2850 Clear 22 1023 44 16093 4.6 110 00:27 26.08.2019
2851 Clear 23 1024 49 16093 4.6 70 23:58 25.08.2019
2852 Clouds 23 1023 41 16093 6.2 90 23:39 25.08.2019
2853 Clouds 23 1023 50 16093 5.7 50 23:18 25.08.2019
2854 Clear 24 1023 38 16093 5.1 110 22:54 25.08.2019
2855 Clear 24 1023 38 16093 5.1 110 22:36 25.08.2019
2856 Clear 24 1023 38 16093 5.1 110 22:36 25.08.2019
2857 Clear 24 1024 47 16093 4.1 90 22:18 25.08.2019
2858 Clear 24 1024 47 16093 4.1 90 22:18 25.08.2019
2859 Clear 24 1023 36 16093 6.7 100 21:54 25.08.2019
2860 Clear 24 1023 36 16093 6.7 100 21:36 25.08.2019
2861 Clouds 24 1025 47 16093 4.1 50 21:18 25.08.2019
2862 Clouds 24 1024 36 16093 5.7 110 20:39 25.08.2019
2863 Clouds 24 1025 50 16093 4.1 60 20:19 25.08.2019
2864 Clouds 24 1024 44 16093 5.1 110 19:56 25.08.2019
2865 Clouds 24 1024 46 16093 4.6 80 19:37 25.08.2019
2866 Clear 24 1025 50 16093 6.7 70 19:18 25.08.2019
2867 Clouds 23 1025 44 16093 4.6 80 18:55 25.08.2019
2868 Clear 23 1025 57 16093 7.7 60 18:37 25.08.2019
2869 Clear 23 1025 57 16093 7.7 60 18:18 25.08.2019
2870 Clouds 22 1025 60 16093 7.7 50 17:40 25.08.2019
2871 Clouds 22 1025 60 16093 7.7 50 17:22 25.08.2019
2872 Clouds 21 1026 64 16093 6.7 40 16:45 25.08.2019
2873 Clouds 21 1026 60 16093 3.6 40 16:24 25.08.2019
2874 Clouds 20 1025 60 16093 5.7 40 15:59 25.08.2019
2875 Clouds 20 1025 73 16093 6.2 40 15:40 25.08.2019
2876 Clouds 19 1025 72 16093 6.7 40 15:21 25.08.2019
2877 Clouds 19 1025 68 16093 2.1 50 14:42 25.08.2019
2878 Clouds 18 1025 82 16093 5.1 40 14:23 25.08.2019
2879 Clear 18 1025 72 16093 3.1 30 13:55 25.08.2019
2880 Clouds 17 1024 82 16093 5.1 30 13:37 25.08.2019
2881 Clouds 17 1024 82 16093 5.1 30 13:37 25.08.2019
2882 Clouds 17 1024 82 16093 4.6 30 13:18 25.08.2019
2883 Clear 17 1024 72 16093 3.6 30 12:41 25.08.2019
2884 Clouds 17 1024 82 16093 6.2 30 12:22 25.08.2019
2885 Clear 17 1024 77 16093 2.6 30 11:57 25.08.2019
2886 Clouds 17 1024 72 16093 1.87 58.004 11:37 25.08.2019
2887 Clouds 17 1025 77 16093 2.6 0 11:19 25.08.2019
2888 Clear 17 1024 72 16093 3.1 30 10:56 25.08.2019
2889 Clear 17 1024 64 16093 5.1 110 10:37 25.08.2019
2890 Clouds 18 1024 77 16093 5.7 50 10:19 25.08.2019
2891 Drizzle 18 1024 77 16093 2.6 30 09:42 25.08.2019
2892 Drizzle 18 1024 77 16093 2.6 30 09:24 25.08.2019
2893 Clouds 18 1024 73 16093 4.6 70 08:47 25.08.2019
2894 Clouds 18 1024 73 16093 4.6 70 08:29 25.08.2019
2895 Clouds 18 1024 60 16093 2.6 90 07:54 25.08.2019
2896 Clouds 18 1025 68 16093 3.6 60 07:32 25.08.2019
2897 Clouds 18 1024 56 16093 0.51 64.186 06:39 25.08.2019
2898 Clouds 19 1024 60 16093 2.1 100 05:27 25.08.2019
2899 Clouds 20 1023 53 16093 1.74 31.19 03:45 25.08.2019
2900 Clouds 20 1022 40 16093 1.93 11.549 02:43 25.08.2019
2901 Clouds 22 1022 33 16093 3.1 30 01:54 25.08.2019
2902 Clear 23 1022 36 16093 2.1 60 00:54 25.08.2019
2903 Clouds 23 1023 40 16093 3.1 50 00:23 25.08.2019
2904 Clouds 23 1021 38 16093 2.6 330 23:58 24.08.2019
2905 Clouds 23 1022 31 16093 3.04 25.409 23:40 24.08.2019
2906 Clouds 24 1022 43 16093 3.1 0 23:22 24.08.2019
2907 Clouds 24 1021 36 16093 4.1 10 22:54 24.08.2019
2908 Clouds 24 1021 33 16093 4.6 80 22:36 24.08.2019
2909 Clouds 24 1021 41 16093 3.1 0 22:18 24.08.2019
2910 Clouds 24 1022 33 16093 4.6 310 21:42 24.08.2019
2911 Clouds 24 1022 33 16093 4.6 310 21:42 24.08.2019
2912 Clouds 24 1022 41 16093 3.1 0 21:23 24.08.2019
2913 Clouds 24 1022 40 16093 4.6 340 20:58 24.08.2019
2914 Clouds 24 1022 40 16093 4.6 340 20:39 24.08.2019
2915 Clouds 24 1022 38 16093 3.1 50 20:20 24.08.2019
2916 Clouds 24 1021 40 16093 2.1 360 19:58 24.08.2019
2917 Clear 24 1022 36 16093 5.7 340 19:39 24.08.2019
2918 Clear 24 1022 44 16093 4.1 110 19:21 24.08.2019
2919 Clear 24 1022 44 16093 4.1 110 19:21 24.08.2019
2920 Smoke 23 1022 35 16093 7.2 330 18:47 24.08.2019
2921 Smoke 23 1023 40 16093 4.1 20 18:25 24.08.2019
2922 Smoke 23 1022 40 16093 5.1 350 17:59 24.08.2019
2923 Clear 22 1022 35 16093 2.6 20 17:41 24.08.2019
2924 Clear 22 1022 47 16093 1.5 0 17:22 24.08.2019
2925 Clear 22 1022 43 16093 4.05 13.937 16:42 24.08.2019
2926 Clear 21 1023 56 16093 3.1 0 16:19 24.08.2019
2927 Clear 21 1022 49 16093 4.1 10 15:55 24.08.2019
2928 Clear 20 1022 46 16093 4.05 13.937 15:37 24.08.2019
2929 Clear 20 1022 53 16093 2.6 0 15:19 24.08.2019
2930 Clear 19 1022 56 16093 2.1 40 14:42 24.08.2019
2931 Clear 18 1022 60 16093 4.6 50 14:20 24.08.2019
2932 -273 0 0 0 0 0 13:55 24.08.2019
2933 Clouds 17 1021 63 16093 3.18 16.872 13:37 24.08.2019
2934 Clouds 17 1021 60 16093 4.1 40 13:18 24.08.2019
2935 Clouds 17 1021 68 16093 2.1 20 12:42 24.08.2019
2936 Clouds 17 1021 68 16093 2.1 20 12:42 24.08.2019
2937 Clouds 17 1021 68 16093 2.6 0 12:23 24.08.2019
2938 Clouds 17 1020 72 16093 1.5 360 11:55 24.08.2019
2939 Clouds 17 1020 68 16093 2.6 30 11:37 24.08.2019
2940 Clouds 17 1021 63 16093 3.1 30 11:18 24.08.2019
2941 Clouds 17 1019 68 16093 3.7 20.496 10:41 24.08.2019
2942 Clear 17 1019 72 16093 3.7 20.496 10:21 24.08.2019
2943 Clear 17 1019 72 16093 3.7 20.496 09:44 24.08.2019
2944 Clear 17 1019 72 16093 3.7 20.496 09:44 24.08.2019
2945 Clear 18 1019 68 16093 1.5 0 09:20 24.08.2019
2946 Clear 18 1018 72 16093 2.2 356.946 08:56 24.08.2019
2947 Clear 18 1018 72 16093 2.2 356.946 08:36 24.08.2019
2948 Clear 18 1018 68 16093 2.2 356.946 08:18 24.08.2019
2949 Clouds 18 1019 72 16093 2.2 356.946 07:41 24.08.2019
2950 Clear 18 1019 73 16093 1.5 260 07:22 24.08.2019
2951 Clear 18 1018 68 16093 1.5 250 06:24 24.08.2019
2952 Clear 19 1018 77 16093 2.47 344.539 05:40 24.08.2019
2953 Clear 20 1017 64 16093 2.6 350 03:54 24.08.2019
2954 Clear 20 1017 68 16093 2.47 344.539 03:34 24.08.2019
2955 Clear 21 1016 53 16093 4.1 30 02:25 24.08.2019
2956 Clear 22 1016 60 16093 3.93 340.036 01:30 24.08.2019
2957 Clear 23 1016 60 16093 3.93 340.036 00:52 24.08.2019
2958 Clear 23 1016 60 16093 2.1 0 00:25 24.08.2019
2959 Clear 23 1015 50 16093 2.1 70 23:57 23.08.2019
2960 Clear 23 1016 60 16093 3.07 318.447 23:37 23.08.2019
2961 Clouds 23 1016 64 16093 2.6 0 23:18 23.08.2019
2962 Clear 23 1016 60 16093 3.07 318.447 22:41 23.08.2019
2963 Clouds 23 1016 64 16093 2.1 0 22:23 23.08.2019
2964 Clear 23 1016 64 16093 1.24 306.058 21:39 23.08.2019
2965 Clear 23 1016 64 16093 1.55 351.018 21:20 23.08.2019
2966 Rain 23 1016 60 16093 3.1 10 20:56 23.08.2019
2967 Rain 22 1016 64 16093 1.55 351.018 20:37 23.08.2019
2968 Rain 22 1017 69 16093 3.6 250 20:19 23.08.2019
2969 Clear 22 1016 60 16093 1.5 330 19:43 23.08.2019
2970 Rain 22 1016 64 16093 4.1 220 19:18 23.08.2019
2971 Rain 21 1016 68 16093 1.55 351.018 18:45 23.08.2019
2972 Rain 21 1016 73 16093 2.6 0 18:27 23.08.2019
2973 Rain 20 1016 73 16093 2.16 31.817 17:56 23.08.2019
2974 Rain 19 1017 77 16093 2.1 80 17:38 23.08.2019
2975 Rain 19 1018 88 16093 1.5 20 17:20 23.08.2019
2976 Rain 19 1017 88 16093 2.16 31.817 16:47 23.08.2019
2977 Rain 19 1018 93 11265 1.5 30 16:29 23.08.2019
2978 Rain 18 1016 82 11265 2.16 31.817 15:56 23.08.2019
2979 Rain 18 1017 77 16093 2.16 31.817 15:37 23.08.2019
2980 Rain 18 1018 88 11265 2.6 30 15:19 23.08.2019
2981 Rain 19 1017 72 16093 2.76 342.838 14:41 23.08.2019
2982 Rain 19 1017 82 16093 2.1 0 14:21 23.08.2019
2983 Rain 19 1016 78 16093 2.1 0 13:57 23.08.2019
2984 Rain 19 1017 83 16093 3.1 360 13:39 23.08.2019
2985 Rain 19 1015 73 16093 2.11 348.823 13:20 23.08.2019
2986 Rain 20 1015 77 16093 2.11 348.823 12:57 23.08.2019
2987 Rain 20 1015 77 16093 2.11 348.823 12:38 23.08.2019
2988 Rain 20 1015 78 16093 3.1 0 12:20 23.08.2019
2989 Rain 20 1014 77 16093 1.5 340 11:56 23.08.2019
2990 Rain 20 1014 83 16093 3.6 70 11:37 23.08.2019
2991 Rain 20 1014 83 16093 3.6 70 11:18 23.08.2019
2992 Rain 21 1013 88 16093 3.56 346.323 10:43 23.08.2019
2993 Rain 21 1013 88 16093 3.56 346.323 10:43 23.08.2019
2994 Rain 21 1013 88 16093 3.56 346.323 10:43 23.08.2019
2995 Rain 21 1013 83 16093 3.6 40 10:22 23.08.2019
2996 Rain 21 1013 88 16093 2.6 310 09:57 23.08.2019
2997 Rain 21 1013 88 16093 2.1 340 09:39 23.08.2019
2998 Rain 21 1013 94 16093 2.64 265.568 09:20 23.08.2019
2999 Rain 22 1013 94 16093 2.6 260 08:43 23.08.2019
3000 Rain 22 1013 94 16093 2.6 260 08:19 23.08.2019
3001 Rain 22 1014 94 6437 1.5 270 07:43 23.08.2019
3002 Rain 22 1014 94 16093 2.1 250 07:24 23.08.2019
3003 Rain 22 1014 94 16093 2.1 250 07:24 23.08.2019
3004 Rain 22 1014 94 16093 2.1 250 07:24 23.08.2019
3005 Rain 22 1014 94 16093 2.1 250 06:58 23.08.2019
3006 Rain 22 1014 94 8047 2.64 265.568 06:39 23.08.2019
3007 Rain 22 1014 94 11265 1.79 266.448 06:20 23.08.2019
3008 Rain 22 1014 88 2816 1.79 266.448 05:43 23.08.2019
3009 Rain 22 1013 94 16093 1.79 266.448 05:22 23.08.2019
3010 Rain 23 1014 88 2414 1.99 279.836 03:23 23.08.2019
3011 Thunderstorm 26 1011 69 16093 3.1 360 02:24 23.08.2019
3012 Clear 28 1011 48 16093 1.99 279.836 01:52 23.08.2019
3013 Clouds 29 1010 54 16093 4.6 340 00:46 23.08.2019
3014 Clouds 29 1012 51 16093 4.1 360 00:22 23.08.2019
3015 Clear 30 1011 46 16093 6.2 270 23:53 22.08.2019
3016 Clear 31 1011 46 16093 6.2 270 23:33 22.08.2019
3017 Clear 31 1011 46 16093 6.2 270 22:59 22.08.2019
3018 Clear 31 1011 46 16093 6.2 270 22:59 22.08.2019
3019 Clear 32 1011 49 16093 6.2 260 22:41 22.08.2019
3020 Clear 32 1011 49 16093 6.2 260 22:22 22.08.2019
3021 Clear 32 1011 49 16093 6.2 260 21:58 22.08.2019
3022 Clouds 32 1012 52 16093 4.6 260 21:40 22.08.2019
3023 Clouds 32 1012 52 16093 4.6 260 21:21 22.08.2019
3024 Clouds 32 1012 52 16093 5.1 260 20:57 22.08.2019
3025 Clouds 32 1012 52 16093 5.1 260 20:39 22.08.2019
3026 Clouds 32 1012 52 16093 5.1 260 20:19 22.08.2019
3027 Clouds 32 1011 49 16093 3.1 290 19:56 22.08.2019
3028 Clear 31 1012 52 16093 3.6 230 19:38 22.08.2019
3029 Clear 31 1012 52 16093 3.6 230 19:20 22.08.2019
3030 Clouds 31 1011 48 16093 4.1 280 18:57 22.08.2019
3031 Clear 30 1012 52 16093 2.6 0 18:39 22.08.2019
3032 Clear 30 1012 52 16093 2.6 0 18:18 22.08.2019
3033 Clear 29 1012 58 16093 2.1 320 17:43 22.08.2019
3034 Clear 29 1012 62 14484 2.6 250 17:24 22.08.2019
3035 Clear 28 1013 65 16093 3.6 320 16:59 22.08.2019
3036 Clear 28 1013 65 16093 3.6 320 16:40 22.08.2019
3037 Clear 28 1012 69 16093 2.6 220 16:21 22.08.2019
3038 Clear 28 1012 69 16093 2.6 220 16:21 22.08.2019
3039 Clear 28 1012 69 16093 2.6 220 16:21 22.08.2019
3040 Clear 27 1012 69 16093 2.6 220 15:59 22.08.2019
3041 Clear 26 1012 74 16093 1.5 300 15:40 22.08.2019
3042 Clear 26 1012 74 16093 1.5 300 15:40 22.08.2019
3043 Clear 26 1012 78 16093 3.1 250 15:21 22.08.2019
3044 Clear 25 1012 83 16093 1.83 295.85 14:57 22.08.2019
3045 Clear 24 1012 83 16093 1.83 295.85 14:38 22.08.2019
3046 Clear 24 1012 88 16093 2.6 250 14:18 22.08.2019
3047 Smoke 23 1011 83 16093 2.6 200 13:56 22.08.2019
3048 Smoke 23 1012 83 16093 1.69 297.004 13:37 22.08.2019
3049 Smoke 23 1012 88 16093 2.6 250 13:18 22.08.2019
3050 Clear 23 1011 83 16093 1.69 297.004 12:40 22.08.2019
3051 Clear 23 1011 88 16093 3.1 250 12:22 22.08.2019
3052 Clear 23 1011 88 16093 3.1 250 11:57 22.08.2019
3053 Clear 23 1010 88 16093 2.6 240 11:57 22.08.2019
3054 Clear 23 1010 83 16093 1.35 282.29 11:39 22.08.2019
3055 Clear 23 1010 88 16093 2.1 240 11:19 22.08.2019
3056 Mist 23 1009 83 16093 1.35 282.29 10:57 22.08.2019
3057 Mist 23 1010 88 16093 1.35 282.29 10:37 22.08.2019
3058 Clear 23 1011 94 16093 2.6 240 10:19 22.08.2019
3059 Clear 23 1009 83 16093 1.5 180 09:54 22.08.2019
3060 Clear 23 1010 88 16093 1.3 276.048 09:36 22.08.2019
3061 Clear 23 1011 94 16093 1.5 230 09:18 22.08.2019
3062 Clouds 24 1011 83 16093 1.48 267.836 08:41 22.08.2019
3063 Clear 24 1012 88 16093 3.1 240 08:21 22.08.2019
3064 Clouds 24 1012 83 16093 1.48 267.836 07:55 22.08.2019
3065 Clouds 24 1012 83 16093 1.48 267.836 07:37 22.08.2019
3066 Clear 24 1011 83 16093 1.5 0 07:18 22.08.2019
3067 Clear 24 1012 83 16093 1.48 267.836 06:44 22.08.2019
3068 Clouds 24 1012 83 16093 3.1 230 06:20 22.08.2019
3069 Rain 24 1012 83 16093 2.1 280 04:58 22.08.2019
3070 Clouds 24 1012 78 16093 1.5 240 03:22 22.08.2019
3071 Rain 25 1011 83 16093 2.43 243.719 02:36 22.08.2019
3072 Rain 25 1011 78 16093 2.84 247.783 01:36 22.08.2019
3073 Rain 26 1012 94 11265 1.5 0 00:52 22.08.2019
3074 Rain 26 1012 83 16093 4.6 210 00:30 22.08.2019
3075 Rain 28 1010 74 16093 5.7 260 23:59 21.08.2019
3076 Rain 29 1011 65 16093 3.6 310 23:40 21.08.2019
3077 Rain 29 1011 58 11265 2.6 260 23:21 21.08.2019
3078 Rain 30 1011 74 16093 3.6 320 22:58 21.08.2019
3079 Thunderstorm 30 1011 58 16093 3.6 230 22:39 21.08.2019
3080 Thunderstorm 30 1012 62 16093 4.6 230 22:20 21.08.2019
3081 Clouds 30 1012 49 16093 3.1 250 21:55 21.08.2019
3082 Clouds 30 1012 62 16093 4.1 220 21:37 21.08.2019
3083 Clouds 30 1012 62 16093 4.1 220 21:19 21.08.2019
3084 Clouds 31 1012 52 16093 5.19 219.513 20:55 21.08.2019
3085 Clouds 31 1012 52 16093 5.19 219.513 20:55 21.08.2019
3086 Clouds 31 1012 52 16093 5.19 219.513 20:37 21.08.2019
3087 Clouds 30 1013 62 11265 4.6 230 20:19 21.08.2019
3088 Rain 30 1013 55 16093 5.19 219.513 19:42 21.08.2019
3089 Rain 30 1013 70 16093 2.6 250 19:23 21.08.2019
3090 Rain 28 1013 58 16093 3.6 210 18:57 21.08.2019
3091 Rain 28 1014 65 16093 5.19 219.513 18:38 21.08.2019
3092 Rain 28 1014 70 16093 7.2 250 18:20 21.08.2019
3093 Clouds 28 1014 65 16093 3.64 200.289 17:44 21.08.2019
3094 Clear 28 1014 66 16093 5.1 230 17:22 21.08.2019
3095 Clear 28 1014 66 16093 5.1 230 16:58 21.08.2019
3096 Clear 28 1014 58 16093 3.64 200.289 16:39 21.08.2019
3097 Clear 28 1015 69 16093 4.6 230 16:20 21.08.2019
3098 Clear 27 1014 65 16093 5.7 190 15:57 21.08.2019
3099 Mist 27 1015 65 16093 3.64 200.289 15:38 21.08.2019
3100 Mist 26 1015 83 16093 2.1 210 15:19 21.08.2019
3101 Haze 25 1015 83 16093 2.1 210 14:56 21.08.2019
3102 Haze 25 1015 83 16093 1.53 148.356 14:38 21.08.2019
3103 Haze 25 1016 88 14484 1.5 250 14:19 21.08.2019
3104 Mist 24 1015 88 11265 2.6 160 13:43 21.08.2019
3105 Mist 24 1015 94 14484 1.44 139.736 13:21 21.08.2019
3106 Mist 24 1015 88 8047 1.5 130 12:58 21.08.2019
3107 Mist 24 1015 94 11265 1.5 260 12:40 21.08.2019
3108 Mist 24 1015 88 11265 0.81 157.581 12:20 21.08.2019
3109 Mist 24 1015 88 11265 0.81 157.581 12:20 21.08.2019
3110 Mist 24 1015 88 11265 0.81 157.581 12:20 21.08.2019
3111 Mist 24 1015 94 16093 1.5 230 11:56 21.08.2019
3112 Mist 24 1015 94 16093 1.5 230 11:37 21.08.2019
3113 Mist 24 1015 94 16093 1.5 250 11:19 21.08.2019
3114 Mist 24 1015 88 9656 0.81 157.581 10:56 21.08.2019
3115 Mist 24 1015 83 9656 2.6 170 10:37 21.08.2019
3116 Clouds 24 1016 88 16093 3.1 240 10:19 21.08.2019
3117 Clouds 24 1017 88 16093 0.81 157.581 09:42 21.08.2019
3118 Clouds 24 1016 94 16093 3.1 190 09:23 21.08.2019
3119 Clouds 24 1017 88 16093 1.5 270 08:58 21.08.2019
3120 Clear 24 1018 88 16093 3.1 160 08:39 21.08.2019
3121 Clear 23 1018 88 16093 3.1 160 08:20 21.08.2019
3122 Clear 24 1017 78 16093 1.37 184.986 07:40 21.08.2019
3123 Clear 24 1017 78 16093 1.37 184.986 07:20 21.08.2019
3124 Clear 24 1017 78 16093 1.37 184.986 06:48 21.08.2019
3125 Clear 24 1017 78 16093 1.5 190 06:21 21.08.2019
3126 Clear 24 1017 74 16093 1.4 206.729 05:41 21.08.2019
3127 Clear 25 1017 74 16093 1.4 206.729 05:19 21.08.2019
3128 Clear 26 1018 61 16093 1.5 160 03:28 21.08.2019
3129 Clear 27 1017 54 16093 3.1 170 01:42 21.08.2019
3130 Clear 29 1017 45 16093 4.1 150 00:45 21.08.2019
3131 Clear 30 1018 48 16093 3.6 170 00:24 21.08.2019
3132 Clear 30 1018 40 16093 4.6 170 23:57 20.08.2019
3133 Clear 30 1018 40 16093 4.6 170 23:38 20.08.2019
3134 Clear 31 1018 48 16093 2.6 210 23:18 20.08.2019
3135 Clear 31 1017 45 16093 5.1 190 22:56 20.08.2019
3136 Clear 31 1018 43 16093 2.1 160 22:37 20.08.2019
3137 Clear 31 1018 46 16093 4.1 210 22:18 20.08.2019
3138 Clear 31 1017 45 16093 4.1 160 21:57 20.08.2019
3139 Clear 31 1019 43 16093 5.1 160 21:37 20.08.2019
3140 Clear 31 1019 48 12874 3.6 230 21:19 20.08.2019
3141 Clear 31 1019 43 16093 1.19 250.605 20:43 20.08.2019
3142 Clear 31 1019 55 16093 5.7 240 20:24 20.08.2019
3143 Clear 31 1019 55 16093 5.7 240 19:58 20.08.2019
3144 Clear 31 1019 45 16093 1.19 250.605 19:38 20.08.2019
3145 Clear 30 1019 58 16093 4.1 210 19:20 20.08.2019
3146 Clouds 30 1018 48 16093 1.5 0 18:55 20.08.2019
3147 Clear 30 1019 42 16093 1.19 250.605 18:37 20.08.2019
3148 Clouds 30 1019 48 16093 2.1 140 18:18 20.08.2019
3149 Clouds 29 1020 54 16093 1.5 90 17:54 20.08.2019
3150 Clear 29 1020 45 16093 0.19 126.384 17:36 20.08.2019
3151 Clear 29 1020 45 16093 0.19 126.384 17:18 20.08.2019
3152 Clear 28 1020 51 16093 1.5 150 16:41 20.08.2019
3153 Clouds 27 1019 58 16093 3.6 20 16:23 20.08.2019
3154 Clear 27 1020 54 16093 0.19 126.384 15:42 20.08.2019
3155 Clouds 26 1019 61 16093 4.1 10 15:19 20.08.2019
3156 Clouds 25 1019 61 16093 4.1 10 14:56 20.08.2019
3157 Clear 25 1019 57 16093 0.82 1.607 14:38 20.08.2019
3158 Clear 24 1019 57 16093 0.82 1.607 14:20 20.08.2019
3159 Clouds 24 1019 65 16093 5.7 20 13:56 20.08.2019
3160 Clear 23 1019 73 16093 0.82 1.607 13:37 20.08.2019
3161 Clear 22 1019 73 16093 0.93 20.513 13:18 20.08.2019
3162 Clear 22 1019 78 16093 0.93 20.513 12:50 20.08.2019
3163 Mist 22 1018 78 16093 4.6 360 12:25 20.08.2019
3164 -273 0 0 0 0 0 11:56 20.08.2019
3165 Clear 22 1018 88 16093 1.35 339.905 11:38 20.08.2019
3166 Clouds 22 1017 78 16093 1.5 320 11:18 20.08.2019
3167 Clear 22 1018 88 16093 1.35 339.905 10:56 20.08.2019
3168 Clear 22 1017 88 16093 1.35 339.905 10:37 20.08.2019
3169 Clear 22 1017 88 16093 1.35 339.905 10:19 20.08.2019
3170 Clear 22 1017 83 16093 2.1 240 09:42 20.08.2019
3171 Clear 23 1017 83 16093 2.1 240 09:24 20.08.2019
3172 Clear 23 1017 83 16093 1.92 332.393 08:43 20.08.2019
3173 Clear 23 1017 83 16093 1.92 332.393 08:43 20.08.2019
3174 Clear 23 1017 83 16093 1.92 332.393 08:25 20.08.2019
3175 Clear 23 1017 83 16093 1.92 332.393 08:25 20.08.2019
3176 Clouds 23 1017 83 16093 2.1 230 07:59 20.08.2019
3177 Clear 23 1017 78 16093 1.92 332.393 07:41 20.08.2019
3178 Clear 23 1017 78 16093 1.92 332.393 07:22 20.08.2019
3179 Clouds 23 1016 78 16093 3.6 280 06:59 20.08.2019
3180 Clear 24 1016 78 16093 1.67 303.27 06:25 20.08.2019
3181 Clear 24 1016 74 16093 1.67 303.27 05:49 20.08.2019
3182 Clouds 25 1016 74 16093 3.6 230 04:57 20.08.2019
3183 Clouds 25 1016 69 16093 4.1 270 03:52 20.08.2019
3184 Clear 26 1015 65 16093 1.55 276.205 02:42 20.08.2019
3185 Rain 27 1015 61 16093 1.55 276.205 01:38 20.08.2019
3186 Rain 27 1015 69 16093 4.1 170 00:57 20.08.2019
3187 Thunderstorm 28 1015 65 16093 1.8 259.741 00:39 20.08.2019
3188 Thunderstorm 28 1015 65 16093 1.8 259.741 00:39 20.08.2019
3189 Clouds 30 1015 65 16093 2.97 256.169 00:19 20.08.2019
3190 Rain 30 1014 46 16093 3.1 110 23:39 19.08.2019
3191 Thunderstorm 31 1014 46 16093 3.1 110 23:18 19.08.2019
3192 Thunderstorm 31 1013 62 16093 3.6 190 22:54 19.08.2019
3193 Thunderstorm 31 1014 83 16093 8.2 180 22:36 19.08.2019
3194 Thunderstorm 32 1013 66 16093 3.1 170 22:18 19.08.2019
3195 Thunderstorm 32 1013 66 16093 3.1 170 21:55 19.08.2019
3196 Clouds 33 1013 55 16093 6.7 170 21:36 19.08.2019
3197 Clear 33 1014 59 16093 4.6 260 21:18 19.08.2019
3198 Clear 33 1015 62 14484 3.1 220 20:40 19.08.2019
3199 Clear 33 1015 62 14484 3.1 220 20:40 19.08.2019
3200 Clear 33 1015 62 14484 3.1 220 20:40 19.08.2019
3201 Clear 33 1015 62 14484 3.1 220 20:20 19.08.2019
3202 Clouds 32 1015 62 16093 4.6 220 19:59 19.08.2019
3203 Clouds 32 1015 55 16093 3.55 257.611 19:40 19.08.2019
3204 Clouds 32 1015 58 16093 6.2 200 19:19 19.08.2019
3205 Clouds 32 1015 52 16093 6.2 230 18:57 19.08.2019
3206 Clouds 31 1016 62 12874 3.6 210 18:39 19.08.2019
3207 Clear 30 1016 62 16093 2.1 0 18:20 19.08.2019
3208 Clouds 30 1015 70 16093 4.6 230 17:54 19.08.2019
3209 Clear 30 1016 66 16093 4.6 300 17:36 19.08.2019
3210 Clear 29 1016 66 16093 4.6 300 17:18 19.08.2019
3211 Clear 28 1016 78 16093 2.46 245.323 16:38 19.08.2019
3212 Mist 27 1016 83 16093 3.1 0 16:20 19.08.2019
3213 Mist 26 1016 83 16093 2.1 280 15:56 19.08.2019
3214 Mist 26 1016 83 16093 2.1 280 15:37 19.08.2019
3215 Mist 25 1016 83 14484 2.1 240 15:19 19.08.2019
3216 Clouds 24 1016 88 16093 2.1 250 14:43 19.08.2019
3217 Clouds 24 1016 88 16093 1.5 250 14:23 19.08.2019
3218 Clouds 23 1016 83 16093 1.78 245.521 13:58 19.08.2019
3219 Clouds 23 1016 83 16093 1.78 245.521 13:38 19.08.2019
3220 Clear 23 1016 83 16093 1.33 258.386 13:19 19.08.2019
3221 Clear 22 1015 78 16093 1.33 258.386 12:57 19.08.2019
3222 Clear 22 1015 78 16093 1.33 258.386 12:57 19.08.2019
3223 Clear 22 1016 88 16093 1.33 258.386 12:39 19.08.2019
3224 Clear 22 1016 83 16093 2.1 260 12:19 19.08.2019
3225 Clouds 22 1016 94 16093 1.64 221.596 11:40 19.08.2019
3226 Clouds 22 1015 88 16093 2.1 260 11:21 19.08.2019
3227 Clouds 22 1016 78 16093 1.64 221.596 10:58 19.08.2019
3228 Clouds 22 1015 83 16093 1.64 221.596 10:37 19.08.2019
3229 Clouds 22 1015 83 16093 1.5 270 10:18 19.08.2019
3230 Clouds 22 1015 78 16093 1.64 221.596 09:45 19.08.2019
3231 Clear 22 1014 83 16093 1.5 300 09:24 19.08.2019
3232 Clear 22 1014 83 16093 1.5 300 08:59 19.08.2019
3233 Clear 22 1014 78 16093 1.67 220.18 08:41 19.08.2019
3234 Clear 22 1014 78 16093 1.67 220.18 08:41 19.08.2019
3235 Clouds 22 1015 83 16093 1.67 220.18 08:20 19.08.2019
3236 Clouds 22 1014 78 16093 2.1 100 07:52 19.08.2019
3237 Clear 22 1015 78 16093 1.67 220.18 07:32 19.08.2019
3238 Clear 22 1015 78 16093 1.5 50 06:58 19.08.2019
3239 Mist 22 1015 78 16093 1.67 220.18 06:36 19.08.2019
3240 Clear 23 1016 73 16093 1.35 187.589 05:26 19.08.2019
3241 Clear 23 1016 69 16093 1.35 187.589 04:33 19.08.2019
3242 Rain 24 1016 69 16093 3.6 60 03:24 19.08.2019
3243 Rain 25 1016 78 16093 1.5 0 02:30 19.08.2019
3244 Rain 27 1015 78 16093 3.1 280 01:36 19.08.2019
3245 Rain 27 1016 83 11265 2.1 0 00:46 19.08.2019
3246 Rain 28 1016 83 6437 5.1 330 00:23 19.08.2019
3247 Thunderstorm 29 1015 70 3219 3.1 240 23:43 18.08.2019
3248 Thunderstorm 30 1015 62 16093 2.1 0 23:22 18.08.2019
3249 Thunderstorm 31 1015 66 16093 3.6 160 22:59 18.08.2019
3250 Clouds 31 1015 62 16093 5.1 150 22:40 18.08.2019
3251 Clouds 32 1015 62 16093 5.1 150 22:21 18.08.2019
3252 Clear 32 1014 55 16093 5.1 180 21:57 18.08.2019
3253 Clouds 32 1015 49 16093 2.6 210 21:38 18.08.2019
3254 Clear 32 1016 62 16093 1.5 270 21:20 18.08.2019
3255 Rain 32 1016 66 16093 2.6 220 20:45 18.08.2019
3256 Rain 32 1016 66 16093 2.6 220 20:45 18.08.2019
3257 Clear 32 1016 62 16093 2.6 230 20:27 18.08.2019
3258 Clear 31 1016 62 16093 2.6 230 19:59 18.08.2019
3259 Clear 31 1016 66 16093 2.6 260 19:41 18.08.2019
3260 Clear 31 1016 66 16093 2.6 260 19:23 18.08.2019
3261 Clear 30 1015 55 16093 4.1 180 18:56 18.08.2019
3262 Clouds 30 1016 66 16093 2.1 180 18:38 18.08.2019
3263 Clouds 30 1016 66 16093 2.1 180 18:38 18.08.2019
3264 Clouds 30 1016 66 16093 2.1 180 18:20 18.08.2019
3265 Clouds 28 1017 79 16093 1.65 246.51 17:54 18.08.2019
3266 Clouds 28 1017 79 16093 1.65 246.51 17:36 18.08.2019
3267 Clear 28 1017 78 16093 2.6 250 17:18 18.08.2019
3268 Clouds 27 1018 78 11265 1.65 246.51 16:42 18.08.2019
3269 Clouds 27 1017 83 14484 1.65 246.51 16:23 18.08.2019
3270 Haze 26 1017 83 14484 1.5 100 15:59 18.08.2019
3271 Haze 26 1018 83 11265 1.65 246.51 15:39 18.08.2019
3272 Haze 25 1017 88 16093 0.64 283.819 15:20 18.08.2019
3273 Haze 25 1017 88 16093 0.64 283.819 15:20 18.08.2019
3274 Mist 25 1018 83 11265 0.64 283.819 14:57 18.08.2019
3275 Mist 24 1017 88 16093 0.64 283.819 14:38 18.08.2019
3276 Mist 24 1017 88 14484 2.1 270 14:19 18.08.2019
3277 Mist 24 1017 83 16093 0.64 283.819 13:56 18.08.2019
3278 Mist 23 1016 88 11265 0.64 283.819 13:38 18.08.2019
3279 Mist 23 1016 88 16093 1.5 120 13:19 18.08.2019
3280 Mist 23 1017 88 12874 0.64 283.819 12:44 18.08.2019
3281 Mist 23 1016 94 16093 1.06 281.925 12:22 18.08.2019
3282 Mist 23 1015 88 16093 1.5 20 11:55 18.08.2019
3283 Mist 23 1016 94 11265 1.06 281.925 11:37 18.08.2019
3284 Mist 23 1016 88 16093 1.06 281.925 11:18 18.08.2019
3285 Mist 23 1016 88 16093 1.06 281.925 10:41 18.08.2019
3286 Mist 23 1016 88 16093 1.06 281.925 10:22 18.08.2019
3287 Rain 23 1015 83 16093 1.06 281.925 09:53 18.08.2019
3288 Rain 24 1016 88 14484 1.08 248.336 09:24 18.08.2019
3289 Rain 23 1015 73 16093 1.5 340 08:59 18.08.2019
3290 Rain 23 1016 94 16093 1.08 248.336 08:41 18.08.2019
3291 Rain 24 1017 88 12874 1.5 60 08:23 18.08.2019
3292 Rain 24 1016 94 16093 2.6 50 07:49 18.08.2019
3293 Rain 24 1015 88 16093 2.1 60 07:29 18.08.2019
3294 Rain 24 1016 94 16093 1.5 180 05:49 18.08.2019
3295 Mist 24 1015 78 16093 2.6 180 04:54 18.08.2019
3296 Mist 25 1015 88 16093 1.6 202.917 03:43 18.08.2019
3297 Clouds 26 1015 88 16093 1.79 214.913 02:48 18.08.2019
3298 Clouds 26 1015 83 16093 2.1 160 02:25 18.08.2019
3299 Clouds 27 1014 74 16093 1.79 214.913 01:47 18.08.2019
3300 Clear 27 1015 74 16093 3.6 170 01:20 18.08.2019
3301 Fog 28 1014 69 16093 4.1 150 00:39 18.08.2019
3302 Fog 28 1015 69 16093 3.6 140 00:19 18.08.2019
3303 Fog 29 1014 62 16093 4.1 160 23:57 17.08.2019
3304 Fog 30 1015 62 16093 2.6 150 23:37 17.08.2019
3305 Fog 30 1015 62 16093 2.6 150 23:18 17.08.2019
3306 Fog 30 1014 62 16093 4.1 130 22:56 17.08.2019
3307 Fog 30 1015 62 16093 3.6 150 22:38 17.08.2019
3308 Fog 30 1015 62 16093 3.6 150 22:20 17.08.2019
3309 Fog 30 1016 62 16093 2.1 0 21:42 17.08.2019
3310 Fog 30 1016 62 16093 2.1 0 21:23 17.08.2019
3311 Clear 29 1016 55 16093 1.53 184.95 20:56 17.08.2019
3312 Clear 29 1016 55 16093 1.53 184.95 20:36 17.08.2019
3313 Clear 29 1017 66 16093 2.1 0 20:18 17.08.2019
3314 Rain 29 1016 58 16093 1.53 184.95 19:43 17.08.2019
3315 Rain 29 1016 58 16093 1.53 184.95 19:43 17.08.2019
3316 Rain 29 1017 70 12874 2.6 260 19:24 17.08.2019
3317 Clouds 29 1016 66 16093 3.1 90 18:55 17.08.2019
3318 Clouds 28 1017 58 16093 1.53 184.95 18:37 17.08.2019
3319 Clear 28 1017 66 16093 2.6 0 18:18 17.08.2019
3320 Clouds 27 1017 78 16093 4.1 50 17:42 17.08.2019
3321 Clouds 27 1017 69 16093 2.6 50 17:22 17.08.2019
3322 Clouds 26 1017 78 16093 4.1 50 16:56 17.08.2019
3323 Clouds 26 1017 78 16093 4.1 50 16:38 17.08.2019
3324 Clouds 26 1017 78 16093 4.1 50 16:19 17.08.2019
3325 Clouds 25 1017 88 16093 3.1 60 15:54 17.08.2019
3326 Clouds 25 1017 88 16093 3.1 60 15:54 17.08.2019
3327 Clouds 25 1017 88 16093 3.1 60 15:36 17.08.2019
3328 Clouds 24 1017 88 14484 3.1 70 15:18 17.08.2019
3329 Clouds 24 1017 88 16093 2.6 60 14:40 17.08.2019
3330 Clouds 24 1017 88 16093 2.6 60 14:21 17.08.2019
3331 Mist 23 1017 94 16093 2.1 90 13:45 17.08.2019
3332 Mist 23 1017 94 16093 3.1 50 13:21 17.08.2019
3333 Clouds 23 1018 88 12874 2.6 60 12:45 17.08.2019
3334 Clouds 23 1018 88 12874 2.6 60 12:45 17.08.2019
3335 Clouds 23 1017 88 16093 2.6 30 12:21 17.08.2019
3336 Clouds 23 1017 88 16093 2.6 30 11:59 17.08.2019
3337 Rain 23 1016 88 16093 4.1 40 11:39 17.08.2019
3338 Rain 23 1016 88 16093 2.1 160 11:20 17.08.2019
3339 Clouds 23 1017 88 16093 1.5 40 10:44 17.08.2019
3340 Clouds 23 1017 88 16093 2.6 40 10:25 17.08.2019
3341 Clouds 23 1017 88 16093 1.5 40 10:25 17.08.2019
3342 Rain 23 1016 83 16093 1.5 70 09:59 17.08.2019
3343 Rain 23 1017 88 16093 0.31 95.563 09:41 17.08.2019
3344 Rain 23 1017 88 16093 0.31 95.563 09:41 17.08.2019
3345 Rain 23 1017 88 16093 2.1 50 09:23 17.08.2019
3346 Clouds 23 1017 88 16093 2.6 110 08:52 17.08.2019
3347 Clouds 23 1017 88 16093 2.6 120 08:23 17.08.2019
3348 Clouds 23 1017 100 16093 3.6 120 07:44 17.08.2019
3349 Clouds 23 1017 88 16093 2.1 0 07:20 17.08.2019
3350 Rain 23 1017 88 16093 1.02 162.061 06:40 17.08.2019
3351 Clouds 23 1017 83 16093 2.6 110 04:52 17.08.2019
3352 Clouds 23 1017 83 16093 2.6 110 04:27 17.08.2019
3353 Clouds 24 1017 94 16093 3.6 120 02:49 17.08.2019
3354 Clear 25 1016 69 16093 4.1 160 01:40 17.08.2019
3355 Clear 25 1016 65 16093 3.1 180 01:22 17.08.2019
3356 Clear 26 1016 65 16093 2.6 160 00:48 17.08.2019
3357 Clear 26 1017 69 16093 2.95 189.395 00:26 17.08.2019
3358 Clouds 27 1017 61 16093 3.6 190 23:48 16.08.2019
3359 Clouds 27 1017 65 16093 3.6 190 23:26 16.08.2019
3360 Clouds 27 1016 58 16093 3.1 160 22:55 16.08.2019
3361 Clouds 27 1017 65 16093 3.1 0 22:36 16.08.2019
3362 Clouds 27 1017 61 16093 1.5 250 22:18 16.08.2019
3363 Clouds 27 1017 61 16093 1.5 250 22:18 16.08.2019
3364 Rain 27 1018 65 16093 2.1 0 21:39 16.08.2019
3365 Rain 27 1018 61 16093 2.6 260 21:19 16.08.2019
3366 Clouds 27 1017 61 16093 2.6 0 20:55 16.08.2019
3367 Clouds 26 1018 73 16093 3.6 260 20:37 16.08.2019
3368 Clouds 26 1018 73 16093 3.6 260 20:18 16.08.2019
3369 Clouds 26 1018 74 16093 4.1 150 19:41 16.08.2019
3370 Clouds 26 1018 78 16093 3.1 0 19:22 16.08.2019
3371 Clouds 25 1018 74 14484 2.6 0 18:43 16.08.2019
3372 Clouds 25 1017 61 16093 1.5 110 18:25 16.08.2019
3373 Clouds 25 1017 65 16093 1.5 0 17:57 16.08.2019
3374 Clouds 25 1017 69 16093 1.14 152.761 17:38 16.08.2019
3375 Clouds 25 1017 65 16093 2.1 210 17:20 16.08.2019
3376 Clouds 24 1017 65 16093 1.5 130 16:42 16.08.2019
3377 Clouds 24 1017 73 16093 2.6 50 16:21 16.08.2019
3378 Clouds 23 1017 73 16093 2.6 50 15:59 16.08.2019
3379 Clouds 23 1017 73 16093 2.6 80 15:40 16.08.2019
3380 Clouds 22 1017 78 16093 3.1 50 15:21 16.08.2019
3381 Mist 22 1017 73 16093 1.5 80 14:57 16.08.2019
3382 Mist 21 1018 78 16093 1.03 160.545 14:38 16.08.2019
3383 Mist 21 1018 83 16093 2.6 50 14:19 16.08.2019
3384 Mist 20 1017 78 16093 0.79 125.883 13:42 16.08.2019
3385 Mist 20 1017 83 16093 4.1 40 13:23 16.08.2019
3386 Clouds 20 1017 83 16093 4.1 40 12:58 16.08.2019
3387 Clouds 20 1017 78 16093 0.79 125.883 12:37 16.08.2019
3388 Clouds 19 1017 83 16093 3.1 30 12:19 16.08.2019
3389 Clouds 20 1018 83 16093 1.5 0 11:42 16.08.2019
3390 Fog 20 1017 83 16093 2.6 40 11:24 16.08.2019
3391 Clouds 20 1018 83 16093 1.5 120 10:44 16.08.2019
3392 Clouds 20 1017 83 16093 2.1 90 10:26 16.08.2019
3393 Mist 20 1016 83 16093 2.1 60 09:56 16.08.2019
3394 Mist 20 1016 78 16093 0.74 127.072 09:37 16.08.2019
3395 Mist 20 1017 83 16093 4.1 40 09:18 16.08.2019
3396 Mist 20 1017 83 16093 4.1 40 09:18 16.08.2019
3397 Clouds 20 1017 83 16093 2.61 151.056 08:41 16.08.2019
3398 Clear 21 1017 83 16093 3.6 60 08:21 16.08.2019
3399 Clear 21 1017 83 16093 3.6 60 07:59 16.08.2019
3400 Clouds 21 1017 83 16093 3.6 40 07:41 16.08.2019
3401 Clouds 21 1018 83 16093 3.1 50 07:21 16.08.2019
3402 Clear 21 1017 83 16093 2.61 151.056 06:32 16.08.2019
3403 Clouds 21 1018 78 16093 1.05 135.73 05:43 16.08.2019
3404 Clear 21 1017 83 16093 1.05 135.73 04:32 16.08.2019
3405 Clouds 22 1016 78 16093 3.6 140 02:47 16.08.2019
3406 Clouds 23 1016 73 16093 3.1 100 01:43 16.08.2019
3407 Clouds 24 1017 73 16093 3.1 150 01:21 16.08.2019
3408 Clear 25 1016 73 16093 5.1 160 00:43 16.08.2019
3409 Clear 25 1016 73 16093 4.1 130 00:22 16.08.2019
3410 Clear 26 1016 54 16093 4.6 150 23:45 15.08.2019
3411 Clear 26 1016 54 16093 4.6 150 23:22 15.08.2019
3412 Clouds 27 1015 42 16093 4.1 120 22:58 15.08.2019
3413 Clouds 27 1015 42 16093 4.1 120 22:40 15.08.2019
3414 Clear 27 1016 51 16093 4.6 140 22:21 15.08.2019
3415 Clouds 28 1015 51 16093 5.1 160 21:56 15.08.2019
3416 Clear 28 1016 58 16093 4.6 140 21:38 15.08.2019
3417 Clear 28 1016 58 16093 4.6 140 21:18 15.08.2019
3418 Clear 28 1016 45 16093 4.1 140 20:44 15.08.2019
3419 Clouds 28 1016 69 16093 2.1 250 20:22 15.08.2019
3420 Clear 28 1016 57 16093 1.5 150 19:58 15.08.2019
3421 Clear 28 1016 57 16093 1.5 150 19:39 15.08.2019
3422 Clouds 28 1017 74 16093 4.1 240 19:21 15.08.2019
3423 Clouds 28 1016 61 16093 2.53 137 18:47 15.08.2019
3424 Clear 27 1017 58 16093 2.1 0 18:24 15.08.2019
3425 Clear 27 1016 51 16093 4.1 100 17:58 15.08.2019
3426 Clear 26 1017 61 16093 4.1 50 17:38 15.08.2019
3427 Clear 26 1017 61 16093 4.1 50 17:20 15.08.2019
3428 Clouds 26 1017 69 16093 3.6 80 16:58 15.08.2019
3429 Clouds 26 1017 69 16093 3.6 80 16:40 15.08.2019
3430 Clouds 25 1017 69 16093 3.6 80 16:21 15.08.2019
3431 Clouds 24 1016 69 16093 1.97 75.243 15:39 15.08.2019
3432 Clouds 24 1016 83 16093 3.1 70 15:20 15.08.2019
3433 Mist 23 1016 83 16093 3.1 70 14:57 15.08.2019
3434 Mist 23 1016 73 16093 2.3 27.324 14:38 15.08.2019
3435 Mist 22 1016 83 16093 5.1 60 14:20 15.08.2019
3436 Clear 22 1016 83 16093 5.1 60 13:56 15.08.2019
3437 Clouds 21 1015 83 14484 2.1 20 13:38 15.08.2019
3438 Clear 21 1015 83 16093 3.6 50 13:19 15.08.2019
3439 Clouds 21 1015 88 16093 2.43 34.878 12:40 15.08.2019
3440 Clouds 21 1016 83 14484 2.1 60 12:22 15.08.2019
3441 Clouds 21 1014 88 14484 1.69 24.399 11:59 15.08.2019
3442 Mist 21 1014 78 16093 3.1 40 11:39 15.08.2019
3443 Mist 21 1015 83 16093 3.1 60 11:20 15.08.2019
3444 Mist 21 1015 83 16093 3.1 60 10:59 15.08.2019
3445 Mist 21 1014 88 9656 2.1 30 10:59 15.08.2019
3446 Mist 21 1014 88 9656 2.1 30 10:59 15.08.2019
3447 Clouds 21 1014 78 16093 2.6 50 10:37 15.08.2019
3448 Clouds 21 1014 78 16093 2.6 50 10:37 15.08.2019
3449 Clouds 21 1014 78 16093 2.6 50 10:37 15.08.2019
3450 Clouds 21 1014 83 16093 2.1 50 10:19 15.08.2019
3451 Mist 21 1015 94 12874 1.69 24.399 09:44 15.08.2019
3452 Mist 21 1015 94 12874 1.69 24.399 09:44 15.08.2019
3453 Mist 21 1014 83 16093 3.1 40 09:23 15.08.2019
3454 -273 0 0 0 0 0 08:55 15.08.2019
3455 Mist 21 1014 83 16093 3.1 40 08:55 15.08.2019
3456 Mist 21 1014 88 16093 1.32 15.886 08:36 15.08.2019
3457 Mist 21 1014 88 14484 2.6 60 08:18 15.08.2019
3458 Mist 21 1014 88 11265 2.1 160 07:42 15.08.2019
3459 Mist 21 1014 94 11265 2.6 0 07:22 15.08.2019
3460 Mist 22 1014 94 8047 1.32 15.886 06:53 15.08.2019
3461 Mist 22 1014 83 16093 1.5 80 06:32 15.08.2019
3462 Clear 22 1014 94 11265 1.6 31.615 05:44 15.08.2019
3463 Mist 22 1014 83 16093 1.6 31.615 05:25 15.08.2019
3464 Clouds 22 1013 88 11265 1.6 31.615 04:32 15.08.2019
3465 Rain 23 1012 94 11265 1.6 31.615 03:37 15.08.2019
3466 Mist 23 1012 88 16093 1.9 40.913 02:44 15.08.2019
3467 Rain 24 1012 88 16093 1.9 40.913 01:52 15.08.2019
3468 Rain 24 1012 88 16093 2.15 51.552 01:30 15.08.2019
3469 Rain 24 1012 74 16093 2.6 90 00:41 15.08.2019
3470 Rain 24 1012 94 14484 2.87 39.749 00:21 15.08.2019
3471 Rain 24 1012 94 14484 2.87 39.749 23:57 14.08.2019
3472 Rain 25 1012 94 12874 2.6 160 23:37 14.08.2019
3473 Rain 25 1012 94 6437 2.6 170 23:19 14.08.2019
3474 Rain 25 1012 94 6437 2.6 170 23:19 14.08.2019
3475 Rain 25 1011 69 16093 2.6 90 22:57 14.08.2019
3476 Rain 25 1011 94 1609 2.6 180 22:38 14.08.2019
3477 Rain 25 1011 88 2414 2.6 70 22:19 14.08.2019
3478 Rain 25 1010 88 2414 1.5 0 21:55 14.08.2019
3479 Rain 25 1010 65 16093 6.2 40 21:36 14.08.2019
3480 Rain 25 1011 78 14484 4.1 140 21:18 14.08.2019
3481 Rain 26 1011 88 12874 2.1 50 20:41 14.08.2019
3482 Rain 26 1010 69 12874 1.5 0 20:21 14.08.2019
3483 Rain 26 1009 61 16093 3.1 130 19:56 14.08.2019
3484 Rain 27 1011 74 16093 2.1 240 19:37 14.08.2019
3485 Clouds 27 1011 65 16093 3.1 40 19:19 14.08.2019
3486 Rain 27 1010 69 16093 2.63 39.345 18:56 14.08.2019
3487 Rain 27 1010 69 16093 2.63 39.345 18:38 14.08.2019
3488 Rain 27 1011 65 16093 4.1 60 18:19 14.08.2019
3489 Clouds 25 1010 78 11265 2.28 40.386 17:56 14.08.2019
3490 Clouds 25 1010 78 11265 2.28 40.386 17:37 14.08.2019
3491 Rain 25 1011 78 11265 3.1 0 17:18 14.08.2019
3492 Rain 24 1010 83 16093 4.6 30 16:42 14.08.2019
3493 Rain 24 1010 88 9656 4.6 50 16:20 14.08.2019
3494 Haze 24 1011 83 8047 2.6 100 15:55 14.08.2019
3495 Haze 24 1010 83 4828 4.6 50 15:37 14.08.2019
3496 Haze 24 1010 88 8047 3.6 70 15:18 14.08.2019
3497 Mist 23 1009 88 3219 4.1 60 14:41 14.08.2019
3498 Mist 23 1011 83 4828 2.1 0 14:19 14.08.2019
3499 Mist 23 1009 88 8047 2.6 60 13:59 14.08.2019
3500 Mist 23 1009 83 16093 2.96 34.604 13:41 14.08.2019
3501 Mist 22 1009 88 9656 1.5 60 13:22 14.08.2019
3502 Mist 22 1009 88 9656 1.5 60 13:22 14.08.2019
3503 Mist 22 1009 88 9656 1.5 60 13:22 14.08.2019
3504 Mist 22 1009 88 8047 2.6 350 12:56 14.08.2019
3505 Mist 23 1008 94 2414 4.1 40 12:38 14.08.2019
3506 Mist 22 1008 88 14484 1.75 356.649 12:20 14.08.2019
3507 Mist 22 1008 88 16093 2.1 270 11:47 14.08.2019
3508 Mist 22 1008 88 16093 2.1 270 11:23 14.08.2019
3509 Mist 22 1008 94 8047 1.75 356.649 10:59 14.08.2019
3510 Mist 22 1008 83 16093 1.75 356.649 10:40 14.08.2019
3511 Mist 22 1008 88 16093 1.5 240 10:22 14.08.2019
3512 Mist 22 1008 88 16093 1.5 240 09:45 14.08.2019
3513 Mist 22 1008 88 16093 1.5 240 09:22 14.08.2019
3514 Mist 23 1008 94 16093 0.75 304.008 08:52 14.08.2019
3515 Mist 23 1008 94 16093 0.75 304.008 08:34 14.08.2019
3516 Rain 23 1008 100 2414 0.75 304.008 07:58 14.08.2019
3517 Rain 23 1008 83 16093 0.75 304.008 07:39 14.08.2019
3518 Rain 23 1008 88 16093 0.75 304.008 07:21 14.08.2019
3519 Mist 23 1009 78 16093 0.75 304.008 06:43 14.08.2019
3520 Rain 23 1009 78 16093 1.25 281.471 05:47 14.08.2019
3521 Clouds 24 1009 83 16093 1.25 281.471 04:45 14.08.2019
3522 Clouds 24 1008 78 16093 2.1 190 02:56 14.08.2019
3523 Clouds 25 1008 78 16093 1.73 229.561 02:32 14.08.2019
3524 Rain 25 1008 74 16093 1.32 244.831 01:38 14.08.2019
3525 Rain 26 1007 69 16093 3.6 180 00:54 14.08.2019
3526 Clouds 26 1008 69 16093 2.6 180 23:50 13.08.2019
3527 Clouds 26 1009 69 16093 3.1 190 23:25 13.08.2019
3528 Clouds 26 1009 69 16093 3.1 190 22:59 13.08.2019
3529 Clouds 26 1008 69 16093 2.49 236.329 22:39 13.08.2019
3530 Clouds 26 1009 69 16093 1.5 260 22:21 13.08.2019
3531 Clouds 25 1009 69 16093 1.5 260 21:58 13.08.2019
3532 Clouds 25 1009 78 16093 2.1 80 21:38 13.08.2019
3533 Clouds 25 1009 78 16093 2.1 80 21:38 13.08.2019
3534 Clouds 25 1009 65 16093 1.5 0 21:19 13.08.2019
3535 Rain 25 1009 65 16093 1.81 200.797 20:56 13.08.2019
3536 Rain 24 1009 65 16093 1.81 200.797 20:37 13.08.2019
3537 Rain 24 1009 74 16093 2.1 70 20:18 13.08.2019
3538 Rain 24 1010 78 11265 4.6 340 19:43 13.08.2019
3539 Rain 24 1011 83 12874 1.5 0 19:22 13.08.2019
3540 Rain 24 1011 94 8047 6.2 230 18:59 13.08.2019
3541 Rain 25 1011 94 8047 6.2 230 18:40 13.08.2019
3542 Rain 25 1011 74 16093 4.6 250 18:20 13.08.2019
3543 Rain 25 1011 78 16093 2.16 226.744 17:43 13.08.2019
3544 Rain 25 1011 78 16093 3.1 260 17:22 13.08.2019
3545 Rain 25 1010 73 16093 2.16 226.744 16:57 13.08.2019
3546 Rain 25 1010 73 16093 2.16 226.744 16:39 13.08.2019
3547 Rain 25 1010 83 16093 2.6 220 16:20 13.08.2019
3548 Rain 24 1010 83 16093 2.6 220 15:59 13.08.2019
3549 Rain 24 1010 73 16093 2.16 226.744 15:38 13.08.2019
3550 Rain 24 1010 83 11265 2.6 230 15:19 13.08.2019
3551 Rain 24 1010 83 11265 2.6 230 15:19 13.08.2019
3552 Rain 24 1010 78 16093 2.78 237.47 14:41 13.08.2019
3553 Rain 23 1011 88 16093 2.1 230 14:20 13.08.2019
3554 Clouds 23 1011 88 16093 2.1 230 13:56 13.08.2019
3555 Clouds 23 1011 88 16093 2.1 230 13:56 13.08.2019
3556 Clouds 23 1010 78 16093 2.78 237.47 13:38 13.08.2019
3557 Clouds 23 1010 78 16093 3.1 240 13:18 13.08.2019
3558 Clouds 23 1010 78 16093 3.19 242.1 12:42 13.08.2019
3559 Clouds 23 1011 78 16093 3.1 240 12:24 13.08.2019
3560 Rain 23 1010 83 16093 3.32 227.493 11:59 13.08.2019
3561 -273 0 0 0 0 0 11:40 13.08.2019
3562 Rain 23 1011 88 16093 2.1 240 11:21 13.08.2019
3563 Rain 23 1010 83 16093 3.32 227.493 10:57 13.08.2019
3564 Rain 23 1010 83 16093 3.32 227.493 10:38 13.08.2019
3565 Rain 23 1011 83 16093 2.6 260 10:19 13.08.2019
3566 Rain 23 1011 83 16093 2.1 210 09:45 13.08.2019
3567 Rain 23 1011 69 16093 2.6 260 09:24 13.08.2019
3568 Clouds 24 1011 65 16093 2.59 212.413 08:57 13.08.2019
3569 Clouds 24 1011 65 16093 2.59 212.413 08:39 13.08.2019
3570 Clouds 24 1012 73 16093 2.6 270 08:19 13.08.2019
3571 Clouds 24 1012 64 16093 1.5 250 07:40 13.08.2019
3572 Clear 24 1012 69 16093 2.6 260 07:20 13.08.2019
3573 Clouds 24 1012 61 16093 2.59 212.413 06:43 13.08.2019
3574 Clear 24 1012 61 16093 2.3 235.993 05:47 13.08.2019
3575 Clear 24 1013 65 16093 3.6 220 04:24 13.08.2019
3576 Clear 26 1012 54 16093 2.6 260 02:22 13.08.2019
3577 Clear 28 1012 37 16093 2.4 239.232 01:29 13.08.2019
3578 Clear 28 1012 35 16093 3.1 260 00:48 13.08.2019
3579 Clear 29 1012 40 16093 4.1 260 00:22 13.08.2019
3580 Clear 30 1012 33 16093 1.5 270 23:43 12.08.2019
3581 Clear 30 1013 40 16093 4.6 240 23:21 12.08.2019
3582 Rain 30 1013 33 16093 4.6 290 22:41 12.08.2019
3583 Rain 30 1013 35 16093 5.1 240 22:20 12.08.2019
3584 Rain 30 1013 35 16093 5.1 240 21:57 12.08.2019
3585 Clear 30 1013 33 16093 4.1 243.697 21:38 12.08.2019
3586 Clear 30 1014 38 16093 5.1 260 21:20 12.08.2019
3587 Clear 30 1014 38 16093 5.1 260 20:59 12.08.2019
3588 Clear 30 1014 37 16093 4.1 280 20:41 12.08.2019
3589 Clear 30 1014 42 16093 4.6 240 20:20 12.08.2019
3590 Clear 29 1014 39 16093 6.7 300 19:58 12.08.2019
3591 Clear 29 1015 37 16093 2.6 270 19:39 12.08.2019
3592 Clear 29 1015 37 16093 4.1 250 19:20 12.08.2019
3593 Clear 29 1015 37 16093 4.1 250 18:58 12.08.2019
3594 Clear 29 1015 34 16093 3.6 270 18:39 12.08.2019
3595 Clouds 28 1016 39 16093 3.1 240 18:20 12.08.2019
3596 Clear 28 1016 36 16093 4.1 280 17:48 12.08.2019
3597 Clear 27 1016 42 16093 4.6 250 17:29 12.08.2019
3598 Clear 27 1016 42 16093 4.6 250 16:58 12.08.2019
3599 Clear 26 1016 44 16093 4.6 290 16:39 12.08.2019
3600 Clear 25 1016 50 16093 3.6 260 16:20 12.08.2019
3601 Clear 25 1016 50 16093 3.6 260 15:59 12.08.2019
3602 Clear 25 1016 50 16093 3.6 260 15:59 12.08.2019
3603 Clear 24 1016 53 16093 2.46 280.697 15:41 12.08.2019
3604 Clouds 23 1017 60 16093 4.6 270 15:22 12.08.2019
3605 Clear 22 1016 56 16093 1.82 295.156 14:58 12.08.2019
3606 Clouds 21 1017 64 16093 1.82 295.156 14:39 12.08.2019
3607 Clouds 21 1017 64 16093 1.82 295.156 14:39 12.08.2019
3608 Clouds 21 1017 64 16093 1.82 295.156 14:39 12.08.2019
3609 Clouds 21 1017 64 16093 1.82 295.156 14:39 12.08.2019
3610 Clouds 20 1017 77 16093 2.6 230 14:20 12.08.2019
3611 Clear 20 1016 60 16093 1.82 295.156 13:55 12.08.2019
3612 Clear 20 1016 60 16093 1.82 295.156 13:55 12.08.2019
3613 Clear 20 1016 60 16093 1.82 295.156 13:55 12.08.2019
3614 Fog 19 1017 88 16093 1.82 295.156 13:37 12.08.2019
3615 Fog 18 1016 73 16093 3.1 240 13:19 12.08.2019
3616 Fog 18 1016 77 16093 1.39 289.296 12:43 12.08.2019
3617 Fog 16 1016 73 16093 2.6 270 12:19 12.08.2019
3618 Clear 17 1016 77 16093 1.41 291.4 11:44 12.08.2019
3619 Clear 17 1016 68 16093 2.6 240 11:26 12.08.2019
3620 Clear 17 1016 68 16093 2.6 240 10:58 12.08.2019
3621 Clear 17 1016 77 16093 1.41 291.4 10:40 12.08.2019
3622 Clear 17 1016 64 16093 2.1 260 10:21 12.08.2019
3623 Clear 17 1016 64 16093 2.1 260 09:55 12.08.2019
3624 Clear 17 1016 77 16093 1.41 291.4 09:36 12.08.2019
3625 Clear 17 1016 77 16093 1.41 291.4 09:36 12.08.2019
3626 Clear 17 1016 60 16093 2.1 270 09:18 12.08.2019
3627 Clear 18 1016 77 16093 1.15 289.543 08:40 12.08.2019
3628 Mist 18 1016 64 16093 2.1 250 08:22 12.08.2019
3629 Mist 18 1016 64 16093 2.1 250 08:22 12.08.2019
3630 Mist 18 1016 72 16093 1.15 289.543 07:56 12.08.2019
3631 Clear 18 1016 64 16093 1.15 289.543 07:35 12.08.2019
3632 Clear 19 1016 64 16093 1.15 289.543 06:54 12.08.2019
3633 Clear 19 1016 60 16093 1.5 180 06:18 12.08.2019
3634 Clear 21 1016 49 16093 1.25 325.166 04:26 12.08.2019
3635 Clear 23 1016 41 16093 1.32 334.623 02:43 12.08.2019
3636 Clear 25 1016 39 16093 1.32 334.623 01:45 12.08.2019
3637 Clear 26 1016 42 16093 1.32 334.623 01:18 12.08.2019
3638 Rain 26 1015 41 16093 3.6 310 00:54 12.08.2019
3639 Rain 26 1016 36 16093 2.6 280 00:36 12.08.2019
3640 Rain 26 1016 42 16093 4.1 250 00:18 12.08.2019
3641 Rain 27 1016 36 16093 6.7 310 23:39 11.08.2019
3642 Rain 27 1016 45 16093 4.6 260 23:20 11.08.2019
3643 Rain 27 1016 45 16093 4.6 260 22:56 11.08.2019
3644 Clouds 27 1016 42 16093 5.7 250 22:37 11.08.2019
3645 Clouds 27 1016 42 16093 5.7 250 22:18 11.08.2019
3646 Clouds 27 1015 39 16093 1.78 326.087 21:56 11.08.2019
3647 Clouds 27 1016 34 16093 4.1 280 21:38 11.08.2019
3648 Clouds 27 1016 37 16093 2.6 250 21:19 11.08.2019
3649 Clouds 27 1016 37 16093 2.6 250 21:19 11.08.2019
3650 Clear 27 1016 34 16093 3.1 290 20:44 11.08.2019
3651 Clouds 27 1017 34 16093 3.1 270 20:23 11.08.2019
3652 Clouds 26 1016 39 16093 4.6 330 19:56 11.08.2019
3653 Clouds 26 1017 36 16093 4.1 300 19:37 11.08.2019
3654 Clouds 26 1017 39 16093 2.6 240 19:18 11.08.2019
3655 Clear 26 1017 39 16093 4.1 330 18:40 11.08.2019
3656 Clear 25 1017 42 16093 4.1 250 18:20 11.08.2019
3657 Clear 25 1017 44 16093 1.5 10 17:56 11.08.2019
3658 Clear 25 1017 44 16093 1.5 10 17:38 11.08.2019
3659 Clear 24 1018 44 16093 2.6 220 17:19 11.08.2019
3660 Clear 24 1017 47 16093 4.1 350 16:55 11.08.2019
3661 Clear 24 1017 47 16093 4.1 350 16:37 11.08.2019
3662 Clear 23 1017 50 16093 1.5 0 16:18 11.08.2019
3663 Clear 22 1017 49 16093 3.1 350 15:42 11.08.2019
3664 Clear 21 1017 56 16093 2.1 280 15:22 11.08.2019
3665 Clear 21 1017 56 16093 2.1 280 14:56 11.08.2019
3666 Clear 20 1017 60 16093 3.16 331.88 14:38 11.08.2019
3667 Clear 19 1017 64 16093 2.1 0 14:19 11.08.2019
3668 Clear 18 1017 68 16093 3.16 331.88 13:43 11.08.2019
3669 Clear 17 1017 64 16093 3.01 313.452 13:24 11.08.2019
3670 Clear 16 1016 67 16093 3.1 300 12:48 11.08.2019
3671 Clear 16 1016 68 16093 2.16 301.986 12:23 11.08.2019
3672 Clear 16 1015 72 16093 2.16 301.986 11:56 11.08.2019
3673 Clear 16 1015 72 16093 2.16 301.986 11:38 11.08.2019
3674 Clear 16 1015 68 16093 2.6 260 11:20 11.08.2019
3675 Clear 16 1015 63 16093 2.16 301.986 10:41 11.08.2019
3676 Clear 16 1015 59 16093 1.5 0 10:22 11.08.2019
3677 Clear 16 1014 72 16093 2.16 301.986 09:59 11.08.2019
3678 Clear 16 1015 63 16093 2.16 301.986 09:38 11.08.2019
3679 Clear 16 1015 52 16093 2.6 280 09:20 11.08.2019
3680 Clear 17 1015 63 16093 1.53 300.238 08:45 11.08.2019
3681 Mist 17 1015 46 16093 1.53 300.238 08:26 11.08.2019
3682 Clear 17 1014 63 16093 1.53 300.238 07:55 11.08.2019
3683 Clear 18 1015 49 16093 1.53 300.238 07:25 11.08.2019
3684 Clear 18 1014 56 16093 1.53 300.238 06:45 11.08.2019
3685 Clouds 20 1014 43 16093 2.3 335.566 05:39 11.08.2019
3686 Clouds 22 1013 38 16093 3.6 360 03:43 11.08.2019
3687 Clear 23 1012 36 16093 3.1 350 02:49 11.08.2019
3688 Clear 25 1011 34 16093 6.2 320 01:43 11.08.2019
3689 Clouds 26 1012 34 16093 3.1 300 01:20 11.08.2019
3690 Clouds 26 1010 34 16093 5.1 330 00:48 11.08.2019
3691 Clouds 27 1011 36 16093 4.1 280 00:28 11.08.2019
3692 Clouds 27 1010 34 16093 5.1 330 23:47 10.08.2019
3693 Clouds 27 1011 39 16093 3.1 0 23:28 10.08.2019
3694 Rain 27 1010 34 16093 7.2 300 22:44 10.08.2019
3695 Rain 27 1010 34 16093 7.2 300 22:44 10.08.2019
3696 Rain 27 1010 35 16093 3.1 0 22:26 10.08.2019
3697 Rain 27 1010 35 16093 3.1 0 21:58 10.08.2019
3698 Clouds 27 1010 32 16093 6.2 320 21:39 10.08.2019
3699 Clouds 27 1009 37 16093 3.6 250 21:20 10.08.2019
3700 Clouds 27 1009 36 16093 5.06 296.616 20:56 10.08.2019
3701 Clouds 27 1010 34 16093 6.7 300 20:37 10.08.2019
3702 Clouds 27 1010 37 16093 3.1 0 20:18 10.08.2019
3703 Clouds 27 1010 34 16093 6.7 290 19:40 10.08.2019
3704 Clouds 27 1010 39 16093 5.1 260 19:21 10.08.2019
3705 Clear 27 1011 34 16093 7.7 310 18:41 10.08.2019
3706 Clear 26 1011 37 16093 7.2 260 18:23 10.08.2019
3707 Clear 26 1011 44 16093 4.1 280 17:55 10.08.2019
3708 Clear 26 1011 44 16093 4.1 280 17:36 10.08.2019
3709 Clear 26 1012 50 16093 4.1 270 17:18 10.08.2019
3710 Clear 25 1011 47 16093 5.1 290 16:42 10.08.2019
3711 Clear 24 1011 44 16093 2.1 0 16:20 10.08.2019
3712 Clear 23 1011 53 16093 4.6 310 15:43 10.08.2019
3713 Clear 22 1011 56 16093 2.1 0 15:21 10.08.2019
3714 Clear 21 1011 64 16093 2.99 298.71 14:43 10.08.2019
3715 Clear 21 1011 60 16093 2.99 298.71 14:19 10.08.2019
3716 Clear 19 1011 68 16093 2.99 298.71 13:40 10.08.2019
3717 Clouds 19 1011 64 16093 3.52 298.916 13:19 10.08.2019
3718 Mist 18 1011 72 16093 3.52 298.916 12:44 10.08.2019
3719 Clear 17 1011 68 16093 2.1 290 12:23 10.08.2019
3720 Clear 17 1010 72 16093 2.89 301.134 11:58 10.08.2019
3721 Clear 17 1010 72 16093 2.89 301.134 11:39 10.08.2019
3722 Clear 17 1011 68 16093 1.5 290 11:21 10.08.2019
3723 Clear 17 1009 72 16093 2.89 301.134 10:55 10.08.2019
3724 Clear 18 1010 68 16093 2.89 301.134 10:36 10.08.2019
3725 Clear 18 1010 60 16093 2.6 250 10:18 10.08.2019
3726 Clear 18 1011 63 16093 1.5 0 10:18 10.08.2019
3727 Clear 18 1010 72 16093 2.89 301.134 09:40 10.08.2019
3728 Clear 19 1010 64 16093 2.1 0 09:21 10.08.2019
3729 Clear 19 1010 77 16093 3.27 303.539 08:41 10.08.2019
3730 Mist 19 1010 56 16093 1.5 0 08:20 10.08.2019
3731 Clear 19 1009 64 16093 3.6 300 07:54 10.08.2019
3732 Clear 19 1009 64 16093 3.6 300 07:54 10.08.2019
3733 Mist 19 1009 82 16093 3.27 303.539 07:29 10.08.2019
3734 Clear 20 1009 82 16093 3.27 303.539 06:49 10.08.2019
3735 Clear 20 1009 50 16093 3.08 314.947 06:26 10.08.2019
3736 Clear 20 1009 61 16093 3.08 314.947 05:25 10.08.2019
3737 Clear 21 1009 47 16093 3.08 314.947 04:35 10.08.2019
3738 Clouds 23 1008 47 16093 2.7 306.049 02:56 10.08.2019
3739 Rain 24 1008 44 16093 2.7 306.049 02:26 10.08.2019
3740 Rain 25 1007 69 16093 2.7 306.049 01:42 10.08.2019
3741 Rain 26 1007 57 16093 2.71 297.388 01:22 10.08.2019
3742 Rain 26 1007 45 16093 2.71 297.388 00:49 10.08.2019
3743 Rain 27 1007 57 16093 2.1 240 00:25 10.08.2019
3744 Clouds 27 1007 51 16093 1.98 287.859 23:45 09.08.2019
3745 Rain 27 1007 57 16093 1.5 70 23:24 09.08.2019
3746 Rain 27 1006 39 16093 5.7 260 22:58 09.08.2019
3747 Rain 27 1006 42 16093 5.1 310 22:39 09.08.2019
3748 Rain 28 1006 42 16093 5.1 310 22:21 09.08.2019
3749 Thunderstorm 28 1006 45 16093 5.1 260 21:57 09.08.2019
3750 Clear 28 1008 51 16093 1.98 287.859 21:39 09.08.2019
3751 Clear 28 1008 51 16093 3.08 262.667 21:20 09.08.2019
3752 Rain 28 1006 45 16093 4.1 300 20:56 09.08.2019
3753 Rain 28 1007 42 16093 2.38 277.268 20:37 09.08.2019
3754 Rain 28 1008 51 16093 1.5 0 20:18 09.08.2019
3755 Rain 28 1007 45 16093 8.2 330 19:41 09.08.2019
3756 Rain 28 1008 45 16093 4.1 280 19:22 09.08.2019
3757 Clouds 28 1008 45 16093 2.38 277.268 18:42 09.08.2019
3758 Clouds 28 1008 48 16093 2.1 180 18:23 09.08.2019
3759 Clouds 27 1008 48 16093 2.1 180 17:59 09.08.2019
3760 Clear 27 1008 44 16093 2.93 308.171 17:41 09.08.2019
3761 Clear 27 1008 48 16093 3.1 250 17:23 09.08.2019
3762 -273 0 0 0 0 0 16:54 09.08.2019
3763 Clear 26 1008 47 16093 3.1 300 16:36 09.08.2019
3764 Clear 26 1008 54 16093 2.6 0 16:18 09.08.2019
3765 Clear 24 1008 53 16093 2.93 308.171 15:41 09.08.2019
3766 Clear 23 1009 69 16093 3.1 250 15:21 09.08.2019
3767 Clear 23 1009 69 16093 3.1 250 14:57 09.08.2019
3768 Clear 22 1009 73 16093 2.6 0 14:37 09.08.2019
3769 Clear 22 1009 73 16093 2.6 0 14:19 09.08.2019
3770 Clear 21 1008 78 16093 3.6 250 13:44 09.08.2019
3771 Clear 20 1008 78 16093 3.6 250 13:21 09.08.2019
3772 Fog 20 1008 77 16093 2.72 316.653 12:48 09.08.2019
3773 Fog 20 1008 78 16093 2.1 260 12:26 09.08.2019
3774 Fog 20 1008 78 16093 2.1 260 11:59 09.08.2019
3775 Mist 20 1007 77 16093 2.85 303.278 11:41 09.08.2019
3776 Mist 20 1007 78 16093 1.5 0 11:20 09.08.2019
3777 Mist 20 1007 83 16093 2.85 303.278 10:41 09.08.2019
3778 Mist 20 1007 83 16093 3.1 250 10:22 09.08.2019
3779 Clear 20 1007 83 16093 3.1 250 09:59 09.08.2019
3780 Clear 20 1007 83 16093 2.85 303.278 09:38 09.08.2019
3781 Mist 20 1007 78 16093 3.1 250 09:19 09.08.2019
3782 Mist 20 1007 78 16093 2.79 292.602 08:44 09.08.2019
3783 Fog 20 1007 73 16093 2.1 270 08:25 09.08.2019
3784 Clouds 21 1007 73 16093 2.1 270 07:56 09.08.2019
3785 Clouds 21 1007 73 16093 2.1 270 07:56 09.08.2019
3786 Clouds 21 1007 73 16093 2.1 270 07:56 09.08.2019
3787 Clouds 21 1006 78 16093 2.79 292.602 07:37 09.08.2019
3788 Clouds 21 1006 73 16093 2.79 292.602 07:19 09.08.2019
3789 Clouds 20 1006 73 16093 2.79 292.602 06:40 09.08.2019
3790 Mist 21 1006 78 16093 2.1 260 06:20 09.08.2019
3791 Clear 21 1006 78 16093 2.73 280.271 05:31 09.08.2019
3792 Rain 24 1007 73 11265 7.7 40 02:27 09.08.2019
3793 Clouds 28 1006 54 16093 6.2 270 01:24 09.08.2019
3794 Clear 29 1006 48 16093 4.1 270 00:42 09.08.2019
3795 Clouds 29 1005 55 16093 6.2 280 00:23 09.08.2019
3796 Clouds 29 1005 55 16093 6.2 280 23:56 08.08.2019
3797 Clouds 30 1005 48 16093 2.1 250 23:37 08.08.2019
3798 Clouds 30 1005 55 16093 4.6 250 23:18 08.08.2019
3799 Clouds 30 1005 48 16093 4.64 247.905 22:54 08.08.2019
3800 Clouds 30 1005 48 16093 4.64 247.905 22:36 08.08.2019
3801 Clear 30 1005 51 16093 5.1 250 22:18 08.08.2019
3802 Clear 30 1005 51 16093 5.1 250 22:18 08.08.2019
3803 Clouds 30 1006 48 16093 2.6 280 21:42 08.08.2019
3804 Clouds 30 1006 58 16093 4.6 250 21:23 08.08.2019
3805 Clouds 29 1006 51 16093 5.7 290 20:57 08.08.2019
3806 Clouds 29 1006 51 16093 5.7 290 20:39 08.08.2019
3807 Clouds 29 1006 51 16093 5.7 290 20:39 08.08.2019
3808 Clear 29 1006 62 16093 4.1 220 20:19 08.08.2019
3809 Clouds 29 1007 54 16093 3.6 290 19:49 08.08.2019
3810 Clear 29 1007 62 16093 3.6 210 19:29 08.08.2019
3811 Clear 28 1007 58 16093 3.6 280 18:59 08.08.2019
3812 Clear 28 1007 58 16093 3.6 280 18:40 08.08.2019
3813 Clear 27 1007 65 16093 1.5 220 18:19 08.08.2019
3814 Clear 26 1007 61 16093 1.78 257.685 17:42 08.08.2019
3815 Clear 26 1008 69 14484 2.6 230 17:24 08.08.2019
3816 Clouds 26 1008 74 16093 3.1 0 16:58 08.08.2019
3817 Clouds 25 1008 74 16093 3.1 0 16:40 08.08.2019
3818 Clouds 25 1008 78 16093 3.6 270 16:22 08.08.2019
3819 Clouds 24 1008 78 16093 3.6 270 15:57 08.08.2019
3820 Mist 23 1009 83 11265 1.78 257.685 15:38 08.08.2019
3821 Rain 23 1009 83 11265 1.51 250.195 15:20 08.08.2019
3822 Rain 22 1008 83 16093 1.51 250.195 14:38 08.08.2019
3823 Mist 21 1008 88 16093 3.1 210 14:19 08.08.2019
3824 Mist 21 1007 83 12874 1.35 262.559 13:43 08.08.2019
3825 Mist 20 1007 83 12874 1.35 262.559 13:24 08.08.2019
3826 Mist 20 1007 88 9656 1.35 262.559 12:58 08.08.2019
3827 Mist 20 1007 88 16093 1.35 262.559 12:38 08.08.2019
3828 Mist 20 1007 88 16093 2.6 270 12:18 08.08.2019
3829 Mist 20 1007 88 16093 1.73 300.287 11:43 08.08.2019
3830 Mist 20 1007 94 16093 3.1 260 11:24 08.08.2019
3831 Mist 20 1007 88 16093 2.6 230 10:56 08.08.2019
3832 Mist 20 1008 94 16093 2.6 230 10:37 08.08.2019
3833 Mist 20 1008 94 16093 2.6 230 10:19 08.08.2019
3834 Mist 20 1008 94 9656 3.1 0 09:40 08.08.2019
3835 Mist 20 1008 88 8047 3.1 0 09:20 08.08.2019
3836 Mist 20 1008 94 14484 1.5 0 08:42 08.08.2019
3837 Mist 20 1008 88 6437 2.1 0 08:22 08.08.2019
3838 Mist 20 1007 88 16093 2.6 180 07:58 08.08.2019
3839 Mist 20 1008 94 16093 4.1 240 07:39 08.08.2019
3840 Mist 20 1008 94 16093 4.1 240 07:18 08.08.2019
3841 Mist 20 1008 94 16093 3.6 250 06:45 08.08.2019
3842 Mist 21 1008 88 14484 1.5 220 05:58 08.08.2019
3843 Mist 21 1009 94 6437 1.22 222.204 05:40 08.08.2019
3844 Rain 21 1008 94 16093 2.1 220 04:39 08.08.2019
3845 Rain 21 1009 94 6437 1.5 0 03:48 08.08.2019
3846 Rain 21 1010 88 9656 1.5 170 01:59 08.08.2019
3847 Rain 21 1009 88 11265 3.1 270 01:24 08.08.2019
3848 Rain 24 1009 83 4828 4.6 230 00:25 08.08.2019
3849 Rain 24 1009 94 8047 2.67 241.273 23:42 07.08.2019
3850 Rain 24 1009 88 8047 7.2 220 23:19 07.08.2019
3851 Rain 24 1007 88 16093 4.1 110 22:55 07.08.2019
3852 Rain 24 1008 83 16093 2.67 241.273 22:36 07.08.2019
3853 Rain 24 1008 83 16093 2.67 241.273 22:18 07.08.2019
3854 Rain 23 1007 78 16093 2.1 130 21:54 07.08.2019
3855 Rain 24 1009 83 14484 2.1 20 21:36 07.08.2019
3856 Rain 26 1010 78 14484 6.2 220 21:18 07.08.2019
3857 Rain 27 1009 88 1609 4.89 231.379 20:41 07.08.2019
3858 Rain 28 1009 69 1207 4.1 30 20:23 07.08.2019
3859 Thunderstorm 29 1010 74 16093 4.89 231.379 19:56 07.08.2019
3860 Clouds 29 1009 70 16093 5.7 140 19:38 07.08.2019
3861 Rain 29 1011 70 16093 4.6 200 19:20 07.08.2019
3862 Mist 28 1011 69 16093 4.89 231.379 18:42 07.08.2019
3863 Mist 28 1011 69 14484 4.6 180 18:21 07.08.2019
3864 Mist 28 1011 69 14484 4.6 180 17:58 07.08.2019
3865 Mist 27 1011 78 16093 2.93 185.139 17:39 07.08.2019
3866 Mist 27 1011 74 16093 4.1 190 17:21 07.08.2019
3867 Mist 27 1011 74 16093 4.1 190 16:57 07.08.2019
3868 Mist 26 1011 78 16093 1.5 180 16:39 07.08.2019
3869 Mist 26 1011 74 16093 5.7 170 16:20 07.08.2019
3870 Fog 25 1010 78 16093 3.6 150 15:56 07.08.2019
3871 Fog 25 1011 78 16093 2.93 185.139 15:37 07.08.2019
3872 Mist 24 1012 88 14484 1.27 144.201 15:19 07.08.2019
3873 Rain 23 1012 88 11265 1.27 144.201 14:45 07.08.2019
3874 Rain 23 1011 88 16093 2.1 150 14:27 07.08.2019
3875 Rain 23 1010 88 16093 1.27 144.201 13:54 07.08.2019
3876 Rain 23 1010 88 16093 1.27 144.201 13:36 07.08.2019
3877 Rain 23 1011 88 16093 1.36 149.34 13:18 07.08.2019
3878 Rain 23 1010 88 12874 3.1 190 12:55 07.08.2019
3879 Rain 22 1011 88 16093 1.36 149.34 12:36 07.08.2019
3880 Rain 22 1011 94 16093 1.5 220 12:18 07.08.2019
3881 Rain 22 1011 88 16093 1.33 207.568 11:41 07.08.2019
3882 Rain 22 1011 94 16093 1.5 220 11:19 07.08.2019
3883 Mist 22 1010 94 16093 1.33 207.568 10:56 07.08.2019
3884 Mist 22 1010 88 16093 1.33 207.568 10:38 07.08.2019
3885 Thunderstorm 22 1011 94 16093 1.33 207.568 10:18 07.08.2019
3886 Mist 22 1011 88 16093 1.33 207.568 09:44 07.08.2019
3887 Mist 22 1011 88 16093 1.5 260 09:22 07.08.2019
3888 Mist 22 1010 83 16093 1.5 170 08:55 07.08.2019
3889 Mist 22 1011 88 16093 2.16 198.981 08:37 07.08.2019
3890 Mist 23 1011 83 16093 1.5 260 08:19 07.08.2019
3891 Mist 23 1011 88 16093 2.16 198.981 07:39 07.08.2019
3892 Mist 23 1011 83 16093 2.6 250 07:20 07.08.2019
3893 Fog 23 1011 78 16093 2.16 198.981 06:29 07.08.2019
3894 Rain 23 1011 78 16093 2.42 194.933 05:50 07.08.2019
3895 Rain 23 1011 73 16093 2.42 194.933 04:53 07.08.2019
3896 Clear 24 1011 78 16093 2.1 150 03:21 07.08.2019
3897 Clear 24 1010 69 16093 2.2 182.97 02:47 07.08.2019
3898 Clouds 25 1010 61 16093 3.1 170 01:58 07.08.2019
3899 Clear 25 1010 69 16093 2.2 182.97 01:39 07.08.2019
3900 Clear 26 1010 61 16093 2.15 191.577 00:51 07.08.2019
3901 Clear 26 1011 65 16093 3.1 170 00:22 07.08.2019
3902 Clear 27 1010 61 16093 3.6 180 23:42 06.08.2019
3903 Clear 27 1011 61 16093 5.1 170 23:21 06.08.2019
3904 Thunderstorm 27 1011 69 16093 2.6 0 22:57 06.08.2019
3905 Thunderstorm 27 1011 69 16093 2.6 0 22:38 06.08.2019
3906 Thunderstorm 27 1011 69 16093 4.1 170 22:19 06.08.2019
3907 Rain 27 1011 74 16093 3.1 180 21:43 06.08.2019
3908 Rain 27 1011 74 16093 2.6 0 21:25 06.08.2019
3909 Rain 26 1012 74 16093 2.6 0 20:59 06.08.2019
3910 Rain 26 1012 74 16093 2.6 0 20:40 06.08.2019
3911 Rain 26 1012 74 16093 2.6 120 20:22 06.08.2019
3912 Rain 26 1012 74 16093 2.1 120 19:45 06.08.2019
3913 Rain 25 1013 74 16093 2.1 0 19:26 06.08.2019
3914 Rain 25 1012 69 16093 3.6 120 18:55 06.08.2019
3915 Rain 25 1013 74 12874 3.1 140 18:36 06.08.2019
3916 Rain 25 1013 88 3219 1.6 157.76 18:18 06.08.2019
3917 Mist 25 1013 78 16093 2.6 0 17:55 06.08.2019
3918 Mist 25 1013 78 16093 2.6 0 17:36 06.08.2019
3919 Rain 25 1013 78 16093 1.5 40 17:18 06.08.2019
3920 Haze 25 1013 78 11265 1.6 157.76 16:42 06.08.2019
3921 Haze 24 1013 83 16093 2.6 20 16:21 06.08.2019
3922 Mist 24 1013 78 16093 1.6 157.76 15:57 06.08.2019
3923 Mist 24 1013 78 16093 1.6 157.76 15:39 06.08.2019
3924 Mist 24 1013 78 16093 1.6 157.76 15:39 06.08.2019
3925 Mist 23 1013 88 12874 3.1 60 15:20 06.08.2019
3926 Mist 23 1013 83 16093 0.69 87.851 14:44 06.08.2019
3927 Mist 22 1013 88 16093 3.6 60 14:26 06.08.2019
3928 Mist 22 1012 83 16093 2.1 60 13:58 06.08.2019
3929 Mist 22 1013 88 16093 0.69 87.851 13:40 06.08.2019
3930 Mist 22 1013 94 16093 3.6 60 13:21 06.08.2019
3931 Mist 22 1013 83 12874 4.1 40 12:58 06.08.2019
3932 Mist 22 1013 83 12874 4.1 40 12:39 06.08.2019
3933 Clear 21 1013 94 16093 2.6 40 12:21 06.08.2019
3934 Clouds 21 1014 88 16093 2.1 340 11:43 06.08.2019
3935 Clouds 21 1013 88 16093 2.1 30 11:19 06.08.2019
3936 Clear 21 1013 83 16093 1.11 352.309 10:56 06.08.2019
3937 Clouds 21 1013 88 16093 1.11 352.309 10:37 06.08.2019
3938 Clouds 21 1013 88 16093 2.1 50 10:19 06.08.2019
3939 Clouds 21 1013 88 16093 1.5 30 09:40 06.08.2019
3940 Clouds 21 1013 88 16093 1.5 70 09:20 06.08.2019
3941 Mist 22 1013 88 16093 0.56 168.991 08:48 06.08.2019
3942 Clouds 22 1013 88 16093 0.55 36.012 08:26 06.08.2019
3943 Mist 22 1013 83 16093 2.1 10 07:56 06.08.2019
3944 Clouds 22 1014 88 16093 1.5 150 07:23 06.08.2019
3945 Mist 22 1014 88 16093 0.55 36.012 06:43 06.08.2019
3946 Clouds 22 1015 83 16093 2.1 160 06:19 06.08.2019
3947 Clear 23 1015 83 16093 0.44 125.538 04:36 06.08.2019
3948 Clear 25 1014 57 16093 2.6 140 01:59 06.08.2019
3949 Clear 25 1015 65 16093 2.1 120 01:24 06.08.2019
3950 Clear 26 1014 61 16093 3.6 160 00:39 06.08.2019
3951 Clear 27 1014 57 16093 3.6 160 23:52 05.08.2019
3952 Clear 27 1015 54 16093 2.1 130 23:19 05.08.2019
3953 Clear 28 1015 47 16093 3.6 150 22:42 05.08.2019
3954 Clear 28 1015 48 16093 4.1 150 22:23 05.08.2019
3955 Clear 27 1014 39 16093 2.1 70 21:58 05.08.2019
3956 Clear 28 1015 42 16093 2.14 257.112 21:39 05.08.2019
3957 Clear 28 1015 42 16093 2.14 257.112 21:39 05.08.2019
3958 Clear 27 1015 51 16093 3.6 260 21:19 05.08.2019
3959 Clear 27 1015 39 16093 3.1 170 20:56 05.08.2019
3960 Clear 27 1016 54 16093 3.1 240 20:37 05.08.2019
3961 Clear 27 1016 54 16093 3.1 240 20:19 05.08.2019
3962 Clear 27 1016 44 16093 0.64 176.491 19:43 05.08.2019
3963 Clear 27 1016 57 16093 3.6 240 19:24 05.08.2019
3964 Clear 27 1016 57 16093 3.6 240 18:58 05.08.2019
3965 Clear 26 1016 44 16093 0.64 176.491 18:40 05.08.2019
3966 Clear 26 1016 51 16093 3.1 0 18:19 05.08.2019
3967 Clear 26 1016 47 16093 2.15 48.043 17:46 05.08.2019
3968 Clear 25 1017 51 16093 2.6 0 17:27 05.08.2019
3969 Clear 25 1016 47 16093 2.15 48.043 16:47 05.08.2019
3970 Clouds 24 1017 57 16093 3.1 40 16:27 05.08.2019
3971 Clear 24 1017 50 16093 3.1 90 15:57 05.08.2019
3972 Clear 23 1017 50 16093 3.1 90 15:39 05.08.2019
3973 Clear 23 1017 50 16093 3.1 90 15:39 05.08.2019
3974 Clear 23 1017 60 16093 4.6 60 15:20 05.08.2019
3975 Clear 22 1016 56 16093 2.77 16.21 14:39 05.08.2019
3976 Clear 22 1016 56 16093 5.1 50 14:21 05.08.2019
3977 Clouds 21 1016 68 16093 2.77 16.21 13:45 05.08.2019
3978 Clouds 20 1016 56 16093 5.1 40 13:23 05.08.2019
3979 Clear 20 1015 77 16093 2.65 17.184 12:49 05.08.2019
3980 Clear 20 1015 64 16093 2.6 60 12:21 05.08.2019
3981 Clouds 20 1015 60 16093 2.6 30 11:55 05.08.2019
3982 Clear 21 1015 73 16093 1.78 358.871 11:37 05.08.2019
3983 Clear 21 1015 53 16093 4.1 50 11:18 05.08.2019
3984 Clear 21 1014 78 16093 1.78 358.871 10:43 05.08.2019
3985 Clear 21 1014 53 16093 5.1 40 10:25 05.08.2019
3986 Clear 22 1014 78 16093 1.78 358.871 09:54 05.08.2019
3987 Clear 22 1014 78 16093 1.78 358.871 09:36 05.08.2019
3988 Clear 22 1014 64 16093 4.6 40 09:18 05.08.2019
3989 Clouds 22 1014 83 16093 1.56 338.219 08:41 05.08.2019
3990 Clear 22 1014 78 16093 2.6 280 08:20 05.08.2019
3991 Clear 22 1014 83 16093 1.56 338.219 07:45 05.08.2019
3992 Clouds 22 1014 83 16093 1.56 338.219 07:27 05.08.2019
3993 Clouds 23 1014 88 16093 1.56 338.219 06:39 05.08.2019
3994 Clear 23 1013 69 16093 1.84 332.767 05:53 05.08.2019
3995 Clouds 23 1014 83 16093 1.84 332.767 05:20 05.08.2019
3996 Rain 24 1014 78 16093 1.84 332.767 04:32 05.08.2019
3997 Rain 24 1014 69 16093 5.1 20 03:42 05.08.2019
3998 Rain 26 1013 51 16093 3.01 330.796 02:37 05.08.2019
3999 Rain 27 1012 42 16093 2.72 324.2 01:36 05.08.2019
4000 Rain 27 1012 54 16093 3.1 220 00:54 05.08.2019
4001 Rain 28 1012 58 16093 3.1 200 00:36 05.08.2019
4002 Rain 29 1012 61 16093 4.1 60 00:18 05.08.2019
4003 Clear 30 1012 33 16093 3.45 327.24 23:41 04.08.2019
4004 Clear 30 1012 45 16093 1.5 270 23:20 04.08.2019
4005 Clouds 31 1011 45 16093 4.6 310 22:56 04.08.2019
4006 Clouds 31 1012 38 16093 3.45 327.24 22:37 04.08.2019
4007 Clear 31 1012 41 16093 3.45 327.24 22:19 04.08.2019
4008 Clouds 31 1012 35 16093 3.45 327.24 21:45 04.08.2019
4009 Clouds 31 1012 43 16093 2.6 0 21:23 04.08.2019
4010 Clouds 31 1012 40 16093 2.67 348.677 20:56 04.08.2019
4011 Clouds 31 1012 38 16093 2.67 348.677 20:37 04.08.2019
4012 Clear 30 1013 43 16093 1.5 0 20:18 04.08.2019
4013 Clouds 30 1013 40 16093 2.67 348.677 19:43 04.08.2019
4014 Clear 30 1013 43 16093 2.1 0 19:24 04.08.2019
4015 Clear 30 1013 37 16093 2.67 348.677 18:44 04.08.2019
4016 Clear 29 1014 45 16093 1.5 0 18:21 04.08.2019
4017 Clear 28 1013 51 16093 3.1 360 17:59 04.08.2019
4018 Clear 28 1014 45 16093 2.6 60 17:40 04.08.2019
4019 Clear 28 1014 51 16093 2.1 270 17:21 04.08.2019
4020 Clouds 27 1014 42 16093 3.6 30 16:44 04.08.2019
4021 Clear 27 1014 61 16093 2.1 270 16:26 04.08.2019
4022 Clouds 26 1014 54 16093 3.25 344.43 15:45 04.08.2019
4023 Rain 24 1014 69 16093 1.93 331.015 15:23 04.08.2019
4024 Clear 23 1014 73 16093 1.93 331.015 14:57 04.08.2019
4025 Clear 23 1014 73 16093 1.93 331.015 14:39 04.08.2019
4026 Clear 23 1014 83 16093 1.93 331.015 14:20 04.08.2019
4027 Mist 22 1013 83 16093 1.93 331.015 13:43 04.08.2019
4028 Mist 22 1013 83 16093 1.93 331.015 13:43 04.08.2019
4029 Mist 21 1013 88 16093 2.6 40 13:23 04.08.2019
4030 Mist 21 1013 88 16093 2.07 332.356 12:46 04.08.2019
4031 Mist 21 1013 88 16093 1.88 314.054 12:27 04.08.2019
4032 Clear 21 1013 88 16093 1.5 30 11:58 04.08.2019
4033 Clear 21 1013 88 16093 1.88 314.054 11:38 04.08.2019
4034 Mist 21 1013 88 16093 1.88 314.054 11:19 04.08.2019
4035 Clear 21 1013 88 16093 1.88 314.054 10:41 04.08.2019
4036 Clear 21 1013 94 16093 1.5 250 10:21 04.08.2019
4037 Mist 21 1013 88 16093 1.88 314.054 09:45 04.08.2019
4038 Mist 21 1013 94 16093 3.1 270 09:25 04.08.2019
4039 Mist 21 1013 94 16093 3.1 270 09:25 04.08.2019
4040 Rain 21 1014 94 16093 1.5 330 08:57 04.08.2019
4041 Rain 21 1014 94 16093 2.6 260 08:32 04.08.2019
4042 Rain 21 1015 83 16093 1.4 298.162 07:54 04.08.2019
4043 Rain 21 1015 94 16093 1.4 298.162 07:22 04.08.2019
4044 Rain 22 1015 94 4828 3.6 40 06:28 04.08.2019
4045 Rain 23 1015 94 4023 3.1 90 05:43 04.08.2019
4046 Clouds 25 1014 69 16093 1.12 274.67 03:34 04.08.2019
4047 Clouds 27 1013 65 16093 3.6 150 01:52 04.08.2019
4048 Clouds 27 1013 65 16093 3.6 150 01:28 04.08.2019
4049 Clouds 28 1013 62 16093 4.1 130 00:41 04.08.2019
4050 Clear 28 1014 62 16093 3.1 0 00:23 04.08.2019
4051 Haze 29 1013 55 8047 4.1 140 23:42 03.08.2019
4052 Haze 29 1014 58 16093 4.1 180 23:19 03.08.2019
4053 Clouds 29 1013 51 16093 6.2 180 22:57 03.08.2019
4054 Clear 29 1014 51 16093 4.1 140 22:38 03.08.2019
4055 Clear 30 1015 48 16093 3.6 190 22:18 03.08.2019
4056 Clear 30 1015 51 16093 3.6 200 21:39 03.08.2019
4057 Clear 29 1015 51 16093 3.6 200 21:20 03.08.2019
4058 Clouds 29 1016 58 16093 2.6 200 20:43 03.08.2019
4059 Clouds 29 1016 58 16093 2.6 200 20:24 03.08.2019
4060 Clouds 29 1016 54 16093 2.6 170 19:43 03.08.2019
4061 Clear 29 1017 58 16093 3.6 240 19:25 03.08.2019
4062 Clouds 29 1017 51 16093 1.61 243.881 18:57 03.08.2019
4063 Clouds 29 1017 51 16093 1.61 243.881 18:39 03.08.2019
4064 Clear 28 1017 54 16093 2.6 250 18:20 03.08.2019
4065 Clouds 28 1017 58 16093 1.67 219.933 17:42 03.08.2019
4066 Clear 28 1018 61 16093 1.5 0 17:18 03.08.2019
4067 Clouds 27 1018 61 16093 1.67 219.933 16:38 03.08.2019
4068 Clear 27 1018 74 16093 1.67 219.933 16:19 03.08.2019
4069 Clouds 26 1018 78 16093 1.67 219.933 15:46 03.08.2019
4070 Clear 25 1018 83 16093 1.5 230 15:25 03.08.2019
4071 Clear 25 1018 83 16093 1.5 230 15:25 03.08.2019
4072 Haze 24 1018 83 16093 1.36 195.141 14:46 03.08.2019
4073 Mist 23 1019 88 16093 1.5 270 14:23 03.08.2019
4074 Clouds 23 1018 83 16093 1.36 195.141 13:57 03.08.2019
4075 Clouds 22 1019 88 16093 1.36 195.141 13:36 03.08.2019
4076 Clouds 22 1019 88 16093 0.85 171.024 13:18 03.08.2019
4077 Clouds 21 1019 88 16093 0.85 171.024 12:41 03.08.2019
4078 Clouds 21 1018 88 16093 1.29 219.549 12:23 03.08.2019
4079 Clouds 21 1018 88 16093 1.29 219.549 11:52 03.08.2019
4080 Clouds 21 1018 88 16093 1.29 219.549 11:34 03.08.2019
4081 Clouds 21 1018 88 16093 1.29 219.549 10:47 03.08.2019
4082 Clear 21 1019 88 16093 1.5 270 10:24 03.08.2019
4083 Clear 21 1019 88 16093 1.29 219.549 09:45 03.08.2019
4084 Clear 21 1019 88 16093 2.1 260 09:24 03.08.2019
4085 Clear 21 1019 88 16093 2.1 260 08:57 03.08.2019
4086 Clear 22 1019 83 16093 2.1 260 08:25 03.08.2019
4087 Clear 22 1019 78 16093 1.27 198.933 07:38 03.08.2019
4088 Clear 23 1019 73 16093 1.27 198.933 06:47 03.08.2019
4089 Clear 23 1019 73 16093 2.6 200 05:59 03.08.2019
4090 Clear 25 1019 51 16093 0.39 283.115 02:59 03.08.2019
4091 Clear 25 1019 65 16093 2.1 160 02:23 03.08.2019
4092 Rain 27 1019 51 16093 3.6 180 00:58 03.08.2019
4093 Clear 28 1019 37 16093 5.1 170 00:32 03.08.2019
4094 Clear 28 1019 40 16093 3.1 170 23:42 02.08.2019
4095 Clear 28 1019 40 16093 3.1 170 23:20 02.08.2019
4096 Clear 28 1019 40 16093 3.1 170 23:20 02.08.2019
4097 Clear 29 1018 33 16093 3.1 190 22:59 02.08.2019
4098 Clouds 29 1019 37 16093 3.6 180 22:40 02.08.2019
4099 Clouds 29 1020 40 16093 3.1 210 22:21 02.08.2019
4100 Clouds 28 1019 42 16093 3.6 200 21:56 02.08.2019
4101 Clouds 29 1019 42 16093 3.6 200 21:37 02.08.2019
4102 Clouds 29 1020 40 16093 3.6 180 21:19 02.08.2019
4103 Rain 29 1020 42 16093 3.6 160 20:43 02.08.2019
4104 Rain 29 1019 48 16093 4.6 180 20:22 02.08.2019
4105 Clouds 29 1019 51 16093 5.7 150 19:53 02.08.2019
4106 Clear 29 1020 51 16093 3.1 170 19:32 02.08.2019
4107 Clear 28 1021 57 16093 3.6 160 18:50 02.08.2019
4108 Clear 28 1021 57 16093 3.6 160 18:32 02.08.2019
4109 Clear 27 1020 51 11265 0.86 169.564 17:57 02.08.2019
4110 Clear 27 1021 54 16093 0.86 169.564 17:39 02.08.2019
4111 Clear 27 1021 65 16093 2.1 0 17:20 02.08.2019
4112 Clear 26 1021 57 16093 0.86 169.564 16:39 02.08.2019
4113 Clouds 26 1021 65 16093 2.6 40 16:20 02.08.2019
4114 Clouds 26 1020 57 16093 1.5 30 15:57 02.08.2019
4115 Clouds 25 1021 65 16093 0.86 169.564 15:37 02.08.2019
4116 Clear 25 1021 65 16093 3.1 40 15:18 02.08.2019
4117 Clear 24 1020 69 16093 1.59 17.249 14:43 02.08.2019
4118 Clouds 23 1021 73 16093 2.6 40 14:18 02.08.2019
4119 Clear 22 1020 73 16093 1.59 17.249 13:46 02.08.2019
4120 Clouds 22 1020 73 16093 2.6 80 13:21 02.08.2019
4121 Clouds 21 1020 83 16093 1.88 27.85 12:44 02.08.2019
4122 Clouds 21 1020 78 16093 1.86 9.062 12:20 02.08.2019
4123 Clear 21 1019 78 16093 1.86 9.062 11:42 02.08.2019
4124 Clear 21 1020 73 16093 1.86 9.062 11:23 02.08.2019
4125 Clear 21 1019 78 16093 1.86 9.062 10:48 02.08.2019
4126 Clouds 22 1020 69 16093 1.5 240 10:24 02.08.2019
4127 Clouds 22 1019 73 16093 1.86 9.062 09:59 02.08.2019
4128 Clear 22 1020 78 16093 1.86 9.062 09:41 02.08.2019
4129 Clouds 22 1020 69 16093 1.5 260 09:23 02.08.2019
4130 Clear 22 1020 69 16093 2.26 34.807 08:42 02.08.2019
4131 Clouds 22 1020 69 16093 2.1 260 08:20 02.08.2019
4132 Clear 22 1020 64 16093 2.26 34.807 07:46 02.08.2019
4133 Clear 23 1020 61 16093 1.5 250 07:28 02.08.2019
4134 Clear 23 1020 60 16093 2.26 34.807 06:42 02.08.2019
4135 Clear 23 1019 53 16093 1.98 28.016 05:50 02.08.2019
4136 Rain 25 1018 47 16093 2.6 180 03:55 02.08.2019
4137 Rain 26 1019 44 16093 2.1 0 03:25 02.08.2019
4138 Clear 28 1018 39 16093 2.6 170 01:44 02.08.2019
4139 Clear 29 1017 37 16093 0.68 27.727 00:35 02.08.2019
4140 Clear 30 1018 35 16093 1.92 348.901 23:46 01.08.2019
4141 Clear 30 1018 45 16093 3.1 0 23:27 01.08.2019
4142 Clouds 30 1018 35 16093 1.92 348.901 22:56 01.08.2019
4143 Clouds 30 1018 35 16093 1.92 348.901 22:37 01.08.2019
4144 Clouds 30 1018 40 16093 1.5 0 22:19 01.08.2019
4145 Clouds 30 1019 33 16093 1.92 348.901 21:43 01.08.2019
4146 Clear 30 1019 35 16093 2.1 0 21:23 01.08.2019
4147 Clouds 30 1018 35 16093 4.1 350 20:55 01.08.2019
4148 Clouds 30 1019 31 16093 2.43 16.052 20:36 01.08.2019
4149 Clear 30 1019 33 16093 2.1 190 20:18 01.08.2019
4150 Clouds 30 1020 33 16093 2.43 16.052 19:40 01.08.2019
4151 Clear 30 1020 37 16093 2.43 16.052 19:19 01.08.2019
4152 Clouds 29 1020 30 16093 2.6 20 18:44 01.08.2019
4153 Clouds 29 1020 42 14484 2.8 27.225 18:24 01.08.2019
4154 Clear 28 1020 45 16093 2.1 40 17:51 01.08.2019
4155 Clouds 27 1020 48 16093 5.1 60 17:32 01.08.2019
4156 Clouds 27 1020 48 16093 5.1 60 16:59 01.08.2019
4157 Clear 26 1019 47 16093 3.1 40 16:40 01.08.2019
4158 Clouds 26 1019 54 16093 3.1 70 16:20 01.08.2019
4159 Clear 25 1019 54 16093 4.6 40 15:41 01.08.2019
4160 Clear 24 1019 65 16093 2.6 70 15:20 01.08.2019
4161 Clear 23 1019 78 16093 1.63 355.626 14:43 01.08.2019
4162 Clear 22 1019 83 16093 1.63 355.626 14:20 01.08.2019
4163 Rain 22 1019 83 16093 1.63 355.626 13:58 01.08.2019
4164 Rain 21 1019 88 16093 1.63 355.626 13:40 01.08.2019
4165 Rain 21 1018 88 16093 1.3 340.213 13:21 01.08.2019
4166 Fog 21 1018 94 16093 1.3 340.213 12:49 01.08.2019
4167 Clear 21 1019 83 16093 1.35 331.247 12:28 01.08.2019
4168 Mist 21 1017 83 12874 1.35 331.247 11:55 01.08.2019
4169 Mist 21 1018 94 16093 1.35 331.247 11:36 01.08.2019
4170 Mist 21 1018 94 8047 1.35 331.247 11:18 01.08.2019
4171 Mist 21 1017 94 16093 1.35 331.247 10:41 01.08.2019
4172 Mist 21 1017 88 16093 1.35 331.247 10:23 01.08.2019
4173 Mist 21 1017 88 16093 1.35 331.247 09:50 01.08.2019
4174 Mist 21 1018 94 16093 2.6 250 09:24 01.08.2019
4175 Mist 21 1018 94 16093 1.51 352.997 08:57 01.08.2019
4176 Mist 21 1018 94 11265 2.6 260 08:39 01.08.2019
4177 Mist 21 1018 94 11265 2.6 260 08:18 01.08.2019
4178 Mist 21 1018 94 11265 1.51 352.997 07:42 01.08.2019
4179 Mist 21 1018 88 16093 1.51 352.997 07:18 01.08.2019
4180 Mist 22 1017 94 16093 1.51 352.997 06:39 01.08.2019
4181 Mist 22 1017 88 16093 2.05 9.909 05:32 01.08.2019
4182 Rain 22 1017 88 16093 1.5 240 02:36 01.08.2019
4183 Rain 23 1017 88 16093 3.1 80 01:45 01.08.2019
4184 Rain 23 1017 88 16093 1.5 10 00:37 01.08.2019
4185 Rain 23 1017 88 16093 3.1 40 00:18 01.08.2019
4186 Rain 23 1016 83 11265 3.33 269.983 23:42 31.07.2019
4187 Rain 23 1016 83 11265 3.33 269.983 23:42 31.07.2019
4188 Rain 23 1018 88 16093 1.5 0 23:20 31.07.2019
4189 Rain 24 1018 94 3219 4.6 290 22:46 31.07.2019
4190 Rain 26 1017 73 16093 4.6 230 22:28 31.07.2019
4191 Thunderstorm 28 1015 61 12874 5.7 180 21:45 31.07.2019
4192 Rain 28 1015 42 16093 4.1 90 21:24 31.07.2019
4193 Rain 29 1015 52 16093 3.6 200 20:56 31.07.2019
4194 Rain 29 1015 54 16093 5.1 340 20:56 31.07.2019
4195 Thunderstorm 30 1015 55 16093 3.1 70 20:38 31.07.2019
4196 Thunderstorm 30 1015 55 16093 3.1 70 20:20 31.07.2019
4197 Clouds 31 1016 49 16093 2.14 292.688 19:41 31.07.2019
4198 Clear 31 1017 58 16093 1.5 0 19:22 31.07.2019
4199 Clouds 30 1017 52 16093 2.14 292.688 18:41 31.07.2019
4200 Clear 30 1017 66 16093 1.5 250 18:23 31.07.2019
4201 Clear 30 1017 48 16093 0.9 358.274 17:56 31.07.2019
4202 Clear 29 1017 58 16093 0.9 358.274 17:37 31.07.2019
4203 Clear 29 1017 62 14484 2.6 250 17:19 31.07.2019
4204 Clear 28 1017 74 16093 2.6 0 16:42 31.07.2019
4205 Clear 28 1017 74 16093 2.6 0 16:19 31.07.2019
4206 Clear 27 1017 65 16093 0.9 358.274 15:44 31.07.2019
4207 Clear 26 1017 74 16093 4.1 240 15:24 31.07.2019
4208 Clear 25 1017 69 16093 0.77 331.963 14:43 31.07.2019
4209 Clear 25 1017 88 16093 1.5 210 14:22 31.07.2019
4210 Clear 24 1017 88 16093 1.5 210 13:57 31.07.2019
4211 Clear 24 1016 78 16093 0.39 275.901 13:38 31.07.2019
4212 Clear 23 1017 83 16093 2.1 230 13:20 31.07.2019
4213 Clear 23 1016 78 16093 0.39 275.901 12:45 31.07.2019
4214 Clear 23 1016 83 16093 1.5 230 12:27 31.07.2019
4215 Clear 23 1016 73 16093 1.29 294.602 11:58 31.07.2019
4216 Clear 23 1016 73 16093 1.29 294.602 11:38 31.07.2019
4217 Clear 23 1016 73 16093 1.29 294.602 11:19 31.07.2019
4218 Clear 23 1016 73 16093 1.29 294.602 10:41 31.07.2019
4219 Clear 23 1016 73 16093 2.1 280 10:20 31.07.2019
4220 Clear 24 1016 69 16093 1.29 294.602 09:43 31.07.2019
4221 Clear 24 1016 69 16093 2.6 270 09:24 31.07.2019
4222 Clear 24 1015 69 16093 2.6 210 08:56 31.07.2019
4223 Clear 25 1016 69 16093 1.34 279.553 08:37 31.07.2019
4224 Clear 25 1017 69 16093 2.6 240 08:19 31.07.2019
4225 Clear 25 1016 57 16093 1.34 279.553 07:34 31.07.2019
4226 Clear 25 1016 57 16093 1.34 279.553 07:34 31.07.2019
4227 Clouds 26 1016 65 16093 2.1 270 06:31 31.07.2019
4228 Clear 27 1016 51 16093 2.1 270 04:50 31.07.2019
4229 Clear 30 1014 36 16093 3.6 210 01:32 31.07.2019
4230 Clear 32 1014 58 16093 5.1 170 23:58 30.07.2019
4231 Rain 33 1014 36 16093 3.1 190 23:39 30.07.2019
4232 Rain 33 1015 55 16093 5.1 160 23:19 30.07.2019
4233 Rain 33 1014 36 16093 3.9 216.758 22:45 30.07.2019
4234 Rain 33 1014 58 16093 4.1 120 22:25 30.07.2019
4235 Rain 33 1014 40 16093 4.6 180 21:54 30.07.2019
4236 Thunderstorm 33 1015 52 16093 5.1 180 21:36 30.07.2019
4237 Thunderstorm 33 1015 46 16093 4.1 120 21:18 30.07.2019
4238 Clouds 34 1015 36 16093 3.1 280 20:41 30.07.2019
4239 Clouds 34 1016 49 16093 5.7 240 20:23 30.07.2019
4240 Clouds 34 1016 41 16093 4.1 280 19:58 30.07.2019
4241 Clouds 34 1016 41 16093 4.1 280 19:38 30.07.2019
4242 Clear 33 1016 43 16093 3.6 290 18:58 30.07.2019
4243 Clear 33 1016 43 16093 3.6 290 18:38 30.07.2019
4244 Clear 33 1016 55 14484 2.1 260 18:18 30.07.2019
4245 Clear 32 1016 52 16093 1.5 250 17:41 30.07.2019
4246 Clear 32 1017 59 14484 2.82 230.426 17:19 30.07.2019
4247 Clear 32 1017 59 14484 2.82 230.426 17:19 30.07.2019
4248 Clear 31 1016 55 16093 2.82 230.426 16:51 30.07.2019
4249 Clear 30 1017 70 16093 1.5 0 16:21 30.07.2019
4250 Clear 29 1017 70 16093 1.5 0 15:58 30.07.2019
4251 Clear 29 1016 69 16093 3.1 290 15:38 30.07.2019
4252 Clear 28 1017 78 16093 1.5 230 15:18 30.07.2019
4253 Haze 27 1016 69 16093 1.04 254.417 14:42 30.07.2019
4254 Haze 26 1017 78 16093 2.1 220 14:21 30.07.2019
4255 Haze 25 1016 74 16093 1.04 254.417 13:47 30.07.2019
4256 Haze 25 1016 83 16093 1.5 230 13:29 30.07.2019
4257 Clear 24 1016 83 16093 1.5 230 12:59 30.07.2019
4258 Clear 24 1016 83 16093 1.5 230 12:59 30.07.2019
4259 Clear 24 1016 78 16093 1.11 258.801 12:40 30.07.2019
4260 Clear 24 1016 78 16093 2.1 270 12:22 30.07.2019
4261 Clear 24 1015 78 16093 1.58 242.351 11:42 30.07.2019
4262 Clear 24 1015 78 16093 1.5 260 11:20 30.07.2019
4263 Clear 24 1015 74 16093 1.61 237.693 10:49 30.07.2019
4264 Clear 24 1015 74 16093 1.61 237.693 10:29 30.07.2019
4265 Clear 24 1015 74 16093 2.1 270 09:55 30.07.2019
4266 Clear 25 1015 69 16093 1.61 237.693 09:37 30.07.2019
4267 Clear 25 1015 69 16093 1.5 270 09:19 30.07.2019
4268 Clear 25 1015 69 16093 1.89 252.484 08:32 30.07.2019
4269 Clear 26 1015 61 16093 1.89 252.484 07:50 30.07.2019
4270 Clear 26 1015 61 16093 1.89 252.484 07:31 30.07.2019
4271 Clear 26 1016 58 16093 1.89 252.484 06:50 30.07.2019
4272 Clear 26 1016 58 16093 1.89 252.484 06:31 30.07.2019
4273 Clear 27 1015 54 16093 2 237.089 05:34 30.07.2019
4274 Clear 28 1015 62 16093 3.1 280 03:28 30.07.2019
4275 Clear 31 1014 55 16093 2.1 250 01:22 30.07.2019
4276 Clouds 32 1014 52 16093 3.1 250 00:25 30.07.2019
4277 Clouds 32 1014 52 16093 3.1 250 23:57 29.07.2019
4278 Clear 33 1014 52 16093 1.5 0 23:38 29.07.2019
4279 Clear 33 1014 52 16093 1.5 0 23:19 29.07.2019
4280 Clouds 33 1013 41 16093 3.6 260 22:54 29.07.2019
4281 Clouds 33 1014 38 16093 2.1 290 22:36 29.07.2019
4282 Clouds 33 1015 49 16093 3.6 220 22:18 29.07.2019
4283 Clouds 33 1015 38 16093 6.2 290 21:41 29.07.2019
4284 Clouds 33 1015 49 14484 4.1 230 21:23 29.07.2019
4285 Clouds 33 1015 49 14484 4.1 230 20:57 29.07.2019
4286 Clouds 33 1015 41 16093 4.1 270 20:38 29.07.2019
4287 Clouds 33 1016 46 16093 4.1 240 20:19 29.07.2019
4288 Clouds 33 1016 41 16093 5.1 290 19:43 29.07.2019
4289 Clouds 33 1016 46 16093 3.1 210 19:22 29.07.2019
4290 Clouds 32 1015 46 16093 2.6 230 18:55 29.07.2019
4291 Clouds 32 1016 40 16093 3.6 270 18:37 29.07.2019
4292 Clear 32 1016 52 16093 2.1 210 18:18 29.07.2019
4293 Clear 31 1016 48 16093 2.6 290 17:46 29.07.2019
4294 Clear 31 1017 55 16093 2.1 0 17:27 29.07.2019
4295 Clear 30 1016 58 16093 2.1 310 16:46 29.07.2019
4296 Clear 29 1017 69 14484 1.5 210 16:27 29.07.2019
4297 Clear 28 1017 61 16093 2.1 280 15:54 29.07.2019
4298 Clear 27 1017 61 16093 2.1 280 15:36 29.07.2019
4299 Clear 26 1017 73 16093 2.6 280 14:58 29.07.2019
4300 Clear 25 1017 73 16093 2.6 280 14:39 29.07.2019
4301 Clear 25 1017 78 16093 2.1 250 14:21 29.07.2019
4302 Clear 24 1017 69 16093 1.5 270 13:45 29.07.2019
4303 Clear 23 1017 73 16093 2.1 240 13:23 29.07.2019
4304 Clear 22 1017 78 16093 1.09 272.636 12:45 29.07.2019
4305 Clear 22 1017 78 16093 2.1 260 12:26 29.07.2019
4306 Clear 22 1017 78 16093 2.1 260 12:26 29.07.2019
4307 Clear 22 1016 78 16093 1.5 190 11:59 29.07.2019
4308 Clear 22 1017 73 16093 1.22 264.546 11:39 29.07.2019
4309 Clear 22 1016 73 16093 1.22 264.546 11:18 29.07.2019
4310 Clear 22 1016 73 16093 1.22 264.546 10:42 29.07.2019
4311 Mist 22 1017 69 16093 1.22 264.546 10:21 29.07.2019
4312 Clear 22 1017 73 16093 1.22 264.546 09:43 29.07.2019
4313 Clear 23 1017 69 16093 1.5 250 09:21 29.07.2019
4314 Clear 23 1017 69 16093 1.5 250 09:21 29.07.2019
4315 Clear 23 1017 60 16093 3.07 240.107 08:43 29.07.2019
4316 Clear 23 1017 69 16093 2.1 270 08:24 29.07.2019
4317 Rain 23 1017 61 16093 2.6 270 07:46 29.07.2019
4318 Rain 24 1017 73 16093 2.1 270 07:26 29.07.2019
4319 Rain 25 1018 69 16093 5.7 290 05:57 29.07.2019
4320 Rain 26 1018 54 16093 6.2 330 05:32 29.07.2019
4321 Clear 29 1017 43 16093 1.5 280 02:49 29.07.2019
4322 Clear 30 1016 40 16093 3.6 290 01:48 29.07.2019
4323 Clouds 31 1016 48 16093 4.1 260 01:27 29.07.2019
4324 Clouds 31 1016 48 16093 4.1 260 00:57 29.07.2019
4325 Clear 32 1016 49 16093 4.6 270 00:24 29.07.2019
4326 Clouds 32 1016 40 16093 5.7 290 23:42 28.07.2019
4327 Clouds 32 1017 52 16093 4.6 250 23:24 28.07.2019
4328 Clouds 32 1017 38 16093 3.1 270 22:43 28.07.2019
4329 Clouds 32 1017 46 16093 4.1 250 22:25 28.07.2019
4330 Clouds 32 1018 38 16093 3.6 290 21:51 28.07.2019
4331 Clear 32 1018 43 16093 4.1 260 21:20 28.07.2019
4332 Clear 32 1018 43 16093 4.1 260 20:57 28.07.2019
4333 Clouds 32 1018 40 16093 4.1 300 20:39 28.07.2019
4334 Clear 32 1018 41 16093 5.1 260 20:21 28.07.2019
4335 Clear 32 1019 40 16093 4.6 290 19:40 28.07.2019
4336 Clear 32 1019 43 16093 4.1 260 19:20 28.07.2019
4337 Clear 31 1019 43 16093 3.1 290 18:46 28.07.2019
4338 Clear 31 1020 52 16093 2.1 210 18:27 28.07.2019
4339 Rain 30 1020 54 16093 3.1 270 17:56 28.07.2019
4340 Rain 30 1020 54 16093 3.1 270 17:38 28.07.2019
4341 Rain 29 1020 55 16093 3.6 260 17:19 28.07.2019
4342 Clear 28 1020 61 16093 3.76 246.166 16:42 28.07.2019
4343 Clear 28 1020 65 16093 2.1 230 16:24 28.07.2019
4344 Clear 27 1021 65 16093 3.1 280 15:48 28.07.2019
4345 Clear 26 1021 78 16093 2.6 240 15:27 28.07.2019
4346 Clear 25 1021 78 16093 2.6 240 14:56 28.07.2019
4347 Clear 24 1021 73 16093 2.56 246.784 14:36 28.07.2019
4348 Clouds 24 1021 88 16093 3.1 240 14:18 28.07.2019
4349 Clear 23 1021 78 16093 2.56 246.784 13:39 28.07.2019
4350 Clouds 22 1021 78 16093 2.1 0 13:20 28.07.2019
4351 Clear 22 1021 78 16093 2.63 245.675 12:45 28.07.2019
4352 Clear 21 1021 78 16093 3.1 250 12:27 28.07.2019
4353 Clear 21 1021 78 16093 2.1 242.546 11:51 28.07.2019
4354 Clouds 21 1021 78 16093 3.1 240 11:29 28.07.2019
4355 Clouds 22 1021 78 16093 3.1 240 10:59 28.07.2019
4356 Clear 22 1021 78 16093 1.5 270 10:38 28.07.2019
4357 Clouds 22 1021 78 16093 3.6 250 10:19 28.07.2019
4358 Clear 22 1021 73 16093 2.1 242.546 09:40 28.07.2019
4359 Clear 22 1022 78 16093 2.6 240 09:22 28.07.2019
4360 Clear 22 1022 69 16093 1.82 231.217 08:42 28.07.2019
4361 Clear 22 1022 73 16093 4.1 250 08:22 28.07.2019
4362 Clear 23 1022 69 16093 1.82 231.217 07:44 28.07.2019
4363 Clear 23 1022 73 16093 3.6 260 07:26 28.07.2019
4364 Clear 23 1022 64 16093 1.82 231.217 06:36 28.07.2019
4365 Clear 24 1022 69 16093 3.1 230 05:22 28.07.2019
4366 Clear 25 1021 54 16093 1.5 170 02:43 28.07.2019
4367 Clear 26 1022 61 16093 2.6 0 02:18 28.07.2019
4368 Clear 27 1022 57 16093 4.1 160 01:18 28.07.2019
4369 Clouds 28 1021 48 16093 3.6 180 00:43 28.07.2019
4370 Clear 28 1022 58 16093 4.6 150 23:56 27.07.2019
4371 Clear 29 1021 48 16093 4.6 160 23:31 27.07.2019
4372 Clouds 29 1021 51 16093 6.2 180 22:56 27.07.2019
4373 Clouds 29 1021 51 16093 6.2 180 22:56 27.07.2019
4374 Clouds 29 1022 45 16093 5.7 150 22:37 27.07.2019
4375 Clear 29 1023 58 16093 4.1 170 22:18 27.07.2019
4376 Thunderstorm 30 1022 51 16093 5.7 170 21:38 27.07.2019
4377 Thunderstorm 30 1023 61 16093 4.6 180 21:19 27.07.2019
4378 Clouds 30 1023 38 16093 2.6 210 20:49 27.07.2019
4379 Clear 30 1024 52 14484 3.1 180 20:23 27.07.2019
4380 Clouds 30 1024 48 16093 3.1 270 19:43 27.07.2019
4381 Clouds 30 1024 48 16093 3.1 270 19:43 27.07.2019
4382 Clear 30 1024 48 16093 3.1 210 19:25 27.07.2019
4383 Clear 30 1024 48 16093 3.1 210 19:25 27.07.2019
4384 Clear 30 1024 42 16093 3.6 290 18:50 27.07.2019
4385 Clear 30 1025 48 16093 3.1 0 18:32 27.07.2019
4386 Clear 29 1024 45 16093 1.83 227.906 17:52 27.07.2019
4387 Clear 29 1025 48 16093 1.5 270 17:33 27.07.2019
4388 Clouds 28 1025 51 16093 1.5 250 16:59 27.07.2019
4389 Clear 28 1025 51 16093 1.83 227.906 16:39 27.07.2019
4390 Clouds 27 1026 57 16093 1.83 227.906 16:20 27.07.2019
4391 Clear 27 1025 57 16093 1.83 227.906 15:46 27.07.2019
4392 Clear 26 1026 57 16093 1.5 0 15:20 27.07.2019
4393 Clear 24 1026 64 16093 0.82 234.577 14:49 27.07.2019
4394 Clear 24 1026 64 16093 0.82 234.577 14:31 27.07.2019
4395 Clear 22 1025 69 16093 0.82 234.577 13:52 27.07.2019
4396 Clear 21 1026 73 16093 0.34 273.406 13:25 27.07.2019
4397 Clear 20 1025 78 16093 0.34 273.406 12:57 27.07.2019
4398 Clear 20 1025 77 16093 0.34 273.406 12:37 27.07.2019
4399 Clear 19 1025 73 16093 1.06 275.694 12:19 27.07.2019
4400 Clear 20 1025 77 16093 1.06 275.694 11:41 27.07.2019
4401 Clear 20 1025 78 16093 1.5 220 11:23 27.07.2019
4402 Clear 20 1024 73 16093 1.06 275.694 10:42 27.07.2019
4403 Clear 20 1025 78 16093 1.5 210 10:23 27.07.2019
4404 Clear 20 1025 73 16093 1.5 260 09:43 27.07.2019
4405 Clear 20 1025 73 16093 1.5 260 09:23 27.07.2019
4406 Clear 21 1025 64 16093 1.07 202.761 08:52 27.07.2019
4407 Clear 21 1025 64 16093 1.07 202.761 08:33 27.07.2019
4408 Clear 21 1024 73 16093 1.07 202.761 07:57 27.07.2019
4409 Clear 22 1025 60 16093 1.07 202.761 07:38 27.07.2019
4410 Clear 22 1025 69 16093 2.6 290 07:18 27.07.2019
4411 Clear 22 1025 60 16093 1.07 202.761 06:49 27.07.2019
4412 Clear 22 1025 60 16093 1.07 202.761 06:49 27.07.2019
4413 Clear 22 1025 65 16093 1.5 280 06:20 27.07.2019
4414 Clear 23 1025 53 16093 0.56 160.594 05:34 27.07.2019
4415 Clear 24 1025 50 16093 0.56 160.594 04:41 27.07.2019
4416 Clear 25 1024 47 16093 0.56 160.594 03:40 27.07.2019
4417 Clear 26 1024 45 16093 1.5 190 02:43 27.07.2019
4418 Clouds 27 1023 44 16093 3.6 200 01:57 27.07.2019
4419 Clear 28 1024 39 16093 3.6 170 01:32 27.07.2019
4420 Rain 29 1023 35 16093 3.1 150 00:38 27.07.2019
4421 Rain 29 1024 45 16093 2.6 240 00:19 27.07.2019
4422 Rain 30 1024 35 16093 4.1 150 23:42 26.07.2019
4423 Rain 30 1024 48 16093 4.1 270 23:23 26.07.2019
4424 Clouds 30 1024 31 16093 2.6 160 22:43 26.07.2019
4425 Clear 30 1024 45 16093 3.6 220 22:25 26.07.2019
4426 Rain 30 1024 33 16093 1.5 190 21:52 26.07.2019
4427 Rain 30 1025 45 16093 4.1 230 21:20 26.07.2019
4428 Clear 30 1024 33 16093 1.01 47.723 20:52 26.07.2019
4429 Clear 30 1024 33 16093 1.01 47.723 20:33 26.07.2019
4430 Clouds 30 1025 35 16093 2.6 160 19:56 26.07.2019
4431 Clouds 30 1025 35 16093 2.6 160 19:38 26.07.2019
4432 Clouds 30 1025 43 16093 3.6 220 19:20 26.07.2019
4433 Rain 29 1025 39 16093 1.01 47.723 18:41 26.07.2019
4434 Rain 29 1025 40 16093 1.5 0 18:21 26.07.2019
4435 Clear 29 1025 35 16093 1.71 43.221 17:56 26.07.2019
4436 Clear 29 1025 35 16093 1.71 43.221 17:37 26.07.2019
4437 Clear 28 1025 42 16093 2.6 0 17:18 26.07.2019
4438 Clear 28 1025 48 16093 2.1 0 16:54 26.07.2019
4439 Clear 27 1025 42 16093 1.71 43.221 16:36 26.07.2019
4440 Clear 27 1025 48 16093 2.1 60 16:18 26.07.2019
4441 Clear 26 1025 50 16093 1.71 43.221 15:44 26.07.2019
4442 Clear 25 1025 69 16093 2.1 90 15:21 26.07.2019
4443 Clear 23 1025 64 16093 1.6 336.627 14:46 26.07.2019
4444 Clear 22 1025 73 16093 1.6 336.627 14:25 26.07.2019
4445 Clear 21 1024 64 16093 2.6 20 13:54 26.07.2019
4446 Clear 21 1024 73 16093 1.6 336.627 13:36 26.07.2019
4447 Clear 20 1024 69 16093 1.36 346.936 13:18 26.07.2019
4448 Clear 19 1024 69 16093 1.36 346.936 12:42 26.07.2019
4449 Clear 19 1024 73 16093 1.28 327.666 12:18 26.07.2019
4450 Clear 19 1023 100 16093 1.28 327.666 11:39 26.07.2019
4451 Clear 19 1024 73 16093 1.5 310 11:19 26.07.2019
4452 Clear 19 1023 73 16093 1.5 260 10:49 26.07.2019
4453 Clear 19 1023 73 16093 1.5 260 10:31 26.07.2019
4454 Clear 19 1023 73 16093 2.1 240 09:54 26.07.2019
4455 Clear 19 1023 73 16093 2.1 240 09:34 26.07.2019
4456 Clear 20 1022 68 16093 1.4 331.553 08:43 26.07.2019
4457 Clear 20 1022 69 16093 1.5 260 08:22 26.07.2019
4458 Clear 20 1022 64 16093 1.4 331.553 07:57 26.07.2019
4459 Clear 21 1022 68 16093 1.4 331.553 07:27 26.07.2019
4460 Clear 21 1022 60 16093 1.4 331.553 06:41 26.07.2019
4461 Clear 22 1022 69 16093 2.6 210 05:21 26.07.2019
4462 Clear 23 1022 61 16093 1.17 323.484 04:22 26.07.2019
4463 Rain 25 1021 34 16093 0.28 353.568 02:41 26.07.2019
4464 Clear 27 1020 32 16093 0.28 353.568 01:42 26.07.2019
4465 Clear 28 1020 28 16093 3.6 330 00:43 26.07.2019
4466 Clear 29 1020 28 16093 1.66 349.395 23:57 25.07.2019
4467 Clear 29 1020 33 14484 3.6 260 23:24 25.07.2019
4468 Clear 29 1019 33 16093 3.6 340 22:56 25.07.2019
4469 Clouds 29 1020 30 16093 2.1 330 22:37 25.07.2019
4470 Clear 29 1020 35 16093 2.6 220 22:18 25.07.2019
4471 Clouds 29 1020 32 16093 1.66 349.395 21:44 25.07.2019
4472 Clouds 29 1019 33 16093 5.7 320 21:21 25.07.2019
4473 Clouds 29 1020 37 16093 3.1 360 20:47 25.07.2019
4474 Clouds 28 1020 42 16093 1.88 353.083 20:22 25.07.2019
4475 Clouds 28 1020 39 16093 1.88 353.083 19:44 25.07.2019
4476 Clouds 28 1020 42 16093 3.1 220 19:26 25.07.2019
4477 Rain 28 1020 37 16093 1.88 353.083 18:57 25.07.2019
4478 Rain 28 1020 37 16093 1.88 353.083 18:38 25.07.2019
4479 Rain 28 1020 42 16093 2.6 0 18:20 25.07.2019
4480 Clear 27 1020 39 16093 3.6 330 17:43 25.07.2019
4481 Clear 27 1021 47 16093 1.5 0 17:24 25.07.2019
4482 Clear 26 1020 42 16093 2.01 339.951 16:44 25.07.2019
4483 Clear 26 1020 51 16093 3.6 70 16:26 25.07.2019
4484 Clear 25 1020 44 16093 2.01 339.951 15:56 25.07.2019
4485 Clear 24 1020 64 16093 2.6 80 15:21 25.07.2019
4486 Clear 23 1019 53 16093 1.5 0 14:59 25.07.2019
4487 Clouds 23 1019 57 16093 1.44 335.217 14:40 25.07.2019
4488 Clear 22 1019 64 16093 1.5 280 14:21 25.07.2019
4489 Clear 21 1019 73 16093 1.44 335.217 13:43 25.07.2019
4490 Clouds 20 1019 64 16093 1.56 344.362 13:25 25.07.2019
4491 Clouds 20 1018 77 16093 1.56 344.362 12:46 25.07.2019
4492 Clouds 20 1018 64 16093 1.38 324.25 12:27 25.07.2019
4493 Rain 20 1017 78 16093 1.38 324.25 11:43 25.07.2019
4494 Rain 20 1018 68 16093 1.38 324.25 11:23 25.07.2019
4495 Clouds 20 1017 83 16093 1.38 324.25 10:46 25.07.2019
4496 Clouds 20 1018 68 16093 1.38 324.25 10:26 25.07.2019
4497 Rain 20 1017 73 16093 1.38 324.25 09:57 25.07.2019
4498 Rain 20 1017 83 16093 1.5 320 09:39 25.07.2019
4499 Clear 20 1017 78 16093 2.6 250 08:55 25.07.2019
4500 Clear 20 1017 78 16093 2.6 250 08:37 25.07.2019
4501 Clear 20 1017 78 16093 2.1 230 07:51 25.07.2019
4502 Clear 21 1017 78 16093 2.1 230 07:27 25.07.2019
4503 Clouds 21 1017 73 16093 1.18 309.231 06:41 25.07.2019
4504 Clouds 22 1017 69 16093 1.58 347.928 05:37 25.07.2019
4505 Clear 22 1016 56 16093 1.58 347.928 04:56 25.07.2019
4506 Clear 22 1017 69 16093 1.5 160 04:19 25.07.2019
4507 Clear 27 1014 37 16093 1.67 32.75 01:31 25.07.2019
4508 Clouds 27 1014 35 16093 3.1 300 00:45 25.07.2019
4509 Clear 28 1015 42 16093 1.5 50 00:19 25.07.2019
4510 Clouds 28 1014 32 16093 2.67 21.861 23:44 24.07.2019
4511 Clouds 28 1014 42 16093 2.67 21.861 23:25 24.07.2019
4512 Clouds 28 1014 35 16093 2.67 21.861 22:47 24.07.2019
4513 Clouds 28 1014 45 16093 3.1 0 22:25 24.07.2019
4514 Clouds 28 1014 45 16093 3.1 0 21:59 24.07.2019
4515 Clouds 28 1014 35 16093 2.67 21.861 21:41 24.07.2019
4516 Clear 28 1015 48 16093 2.85 13.583 21:20 24.07.2019
4517 Clouds 28 1014 37 16093 2.87 17.558 20:48 24.07.2019
4518 Clouds 28 1014 37 16093 2.87 17.558 20:29 24.07.2019
4519 Clouds 27 1014 48 14484 2.1 0 19:59 24.07.2019
4520 Clouds 27 1014 48 14484 2.1 0 19:59 24.07.2019
4521 Clouds 27 1014 42 16093 2.87 17.558 19:41 24.07.2019
4522 Clouds 27 1014 51 16093 3.6 260 19:21 24.07.2019
4523 Clouds 27 1014 44 16093 3.6 10 18:45 24.07.2019
4524 Clouds 26 1014 54 16093 2.1 0 18:25 24.07.2019
4525 Clear 26 1014 51 16093 3.02 26.497 17:55 24.07.2019
4526 Clouds 26 1014 47 16093 3.02 26.497 17:37 24.07.2019
4527 Clouds 25 1014 47 16093 3.02 26.497 17:37 24.07.2019
4528 Clouds 25 1014 57 16093 2.1 0 17:18 24.07.2019
4529 Clouds 24 1014 61 16093 2.1 0 16:40 24.07.2019
4530 Clouds 24 1014 61 16093 2.6 280 16:21 24.07.2019
4531 Clear 23 1014 64 16093 3.02 26.497 15:39 24.07.2019
4532 Clouds 23 1014 78 16093 2.1 270 15:21 24.07.2019
4533 Rain 22 1014 73 16093 3.1 20 14:47 24.07.2019
4534 Clouds 21 1015 88 16093 2.12 357.699 14:23 24.07.2019
4535 Clear 20 1014 78 16093 2.6 360 13:58 24.07.2019
4536 Clouds 20 1014 83 16093 2.31 357.569 13:36 24.07.2019
4537 Clear 20 1014 88 16093 2.31 357.569 13:18 24.07.2019
4538 Clear 19 1013 88 16093 2.31 357.569 12:46 24.07.2019
4539 Clouds 19 1013 88 16093 2.1 20 12:23 24.07.2019
4540 Clouds 19 1014 94 16093 2.1 340 11:38 24.07.2019
4541 Clouds 19 1014 93 16093 1.5 20 11:19 24.07.2019
4542 Clouds 19 1012 94 16093 1.42 339.624 10:43 24.07.2019
4543 Clouds 20 1013 94 16093 1.42 339.624 10:24 24.07.2019
4544 Rain 20 1013 88 16093 1.42 339.624 09:45 24.07.2019
4545 Rain 20 1013 94 16093 1.42 356.934 09:24 24.07.2019
4546 Rain 20 1012 83 16093 2.1 360 08:56 24.07.2019
4547 Rain 20 1012 88 16093 2.6 60 08:30 24.07.2019
4548 Rain 20 1012 83 16093 3.6 20 07:51 24.07.2019
4549 Rain 20 1012 83 16093 3.6 20 07:24 24.07.2019
4550 Clouds 20 1013 83 16093 1.96 2.286 06:29 24.07.2019
4551 Rain 20 1013 83 16093 1.5 40 05:40 24.07.2019
4552 Rain 21 1013 94 16093 1.88 68.346 02:45 24.07.2019
4553 Drizzle 22 1013 78 16093 2.6 120 01:30 24.07.2019
4554 Rain 22 1013 78 16093 2.6 120 00:57 24.07.2019
4555 Rain 22 1012 64 16093 1.5 20 00:57 24.07.2019
4556 Rain 22 1012 78 16093 2.1 50 00:23 24.07.2019
4557 Rain 23 1012 64 16093 1.47 66.433 23:42 23.07.2019
4558 Rain 23 1012 64 16093 1.47 66.433 23:42 23.07.2019
4559 Rain 23 1012 78 16093 3.1 0 23:24 23.07.2019
4560 Clouds 23 1012 69 16093 1.47 66.433 22:40 23.07.2019
4561 Clouds 23 1012 73 16093 2.1 70 22:20 23.07.2019
4562 Clouds 23 1012 69 16093 1.47 66.433 21:59 23.07.2019
4563 Clouds 23 1012 69 16093 1.47 66.433 21:41 23.07.2019
4564 Clouds 23 1012 69 16093 2.7 51.261 21:23 23.07.2019
4565 Clouds 23 1012 69 16093 2.1 0 20:48 23.07.2019
4566 Clouds 23 1011 73 14484 2.6 0 20:26 23.07.2019
4567 Clouds 23 1012 73 16093 2.1 0 19:43 23.07.2019
4568 Clouds 22 1011 78 16093 5.1 50 19:23 23.07.2019
4569 Clouds 22 1011 69 16093 4.6 10 18:53 23.07.2019
4570 Clouds 22 1011 78 16093 2.1 0 18:25 23.07.2019
4571 Rain 21 1010 69 16093 3.1 360 17:58 23.07.2019
4572 Rain 21 1011 78 16093 3.59 7.596 17:40 23.07.2019
4573 Rain 21 1011 83 16093 3.1 0 17:20 23.07.2019
4574 Rain 21 1010 88 16093 7.2 330 16:41 23.07.2019
4575 Rain 20 1010 83 16093 1.5 0 16:22 23.07.2019
4576 Rain 20 1011 83 16093 1.5 0 15:47 23.07.2019
4577 Rain 20 1009 88 16093 1.5 0 15:27 23.07.2019
4578 Rain 19 1009 100 16093 2.6 0 14:41 23.07.2019
4579 Rain 19 1008 100 16093 3.6 40 14:22 23.07.2019
4580 Rain 19 1007 88 8047 4.1 10 13:59 23.07.2019
4581 Rain 19 1008 100 6437 3.1 0 13:40 23.07.2019
4582 Rain 19 1007 100 4828 6.7 360 13:22 23.07.2019
4583 Rain 19 1007 100 3219 6.2 360 12:49 23.07.2019
4584 Rain 20 1006 100 4023 6.7 20 12:27 23.07.2019
4585 Rain 20 1007 94 16093 2.1 0 11:59 23.07.2019
4586 Rain 20 1006 94 16093 3.1 30 11:40 23.07.2019
4587 Rain 21 1006 94 9656 6.7 360 11:20 23.07.2019
4588 Rain 21 1007 94 16093 2.1 30 10:42 23.07.2019
4589 Rain 21 1007 94 16093 1.5 60 10:22 23.07.2019
4590 Rain 22 1008 100 14484 1.5 0 09:42 23.07.2019
4591 Rain 22 1007 94 9656 1.5 0 09:20 23.07.2019
4592 Rain 22 1007 88 11265 2.45 52.119 08:44 23.07.2019
4593 Rain 22 1008 100 16093 3.1 230 08:20 23.07.2019
4594 Rain 23 1007 94 16093 4.1 230 07:56 23.07.2019
4595 Rain 23 1007 100 16093 3.6 210 07:37 23.07.2019
4596 Rain 23 1008 88 8047 2.45 52.119 06:50 23.07.2019
4597 Rain 23 1008 88 8047 2.45 52.119 06:31 23.07.2019
4598 Rain 23 1007 94 16093 3.1 340 03:55 23.07.2019
4599 Rain 23 1008 94 2012 2.94 37.201 01:37 23.07.2019
4600 Rain 24 1006 88 16093 2.94 37.201 00:37 23.07.2019
4601 Rain 24 1007 94 805 1.66 16.775 00:18 23.07.2019
4602 Rain 26 1005 74 16093 3.1 0 23:39 22.07.2019
4603 Rain 27 1006 70 16093 2.1 0 23:19 22.07.2019
4604 Rain 29 1007 94 6437 1.66 16.775 22:45 22.07.2019
4605 Rain 29 1007 78 11265 2.1 140 22:23 22.07.2019
4606 Rain 30 1006 70 4023 5.1 180 21:44 22.07.2019
4607 Clear 31 1007 62 16093 2.6 0 21:24 22.07.2019
4608 Clouds 31 1006 55 16093 6.2 170 20:59 22.07.2019
4609 Clear 31 1008 58 16093 5.1 160 20:41 22.07.2019
4610 Clear 31 1008 55 16093 3.6 130 20:21 22.07.2019
4611 Clouds 31 1008 58 16093 4.6 140 19:42 22.07.2019
4612 Clouds 31 1009 59 16093 3.1 0 19:22 22.07.2019
4613 Clouds 31 1009 58 16093 2.54 229.981 18:48 22.07.2019
4614 Clouds 31 1010 58 16093 3.1 0 18:28 22.07.2019
4615 Clear 30 1010 58 16093 2.46 91.467 17:59 22.07.2019
4616 Clear 30 1010 58 16093 2.46 91.467 17:38 22.07.2019
4617 Clear 30 1010 58 16093 2.46 91.467 17:38 22.07.2019
4618 Clear 29 1011 66 14484 3.6 160 17:20 22.07.2019
4619 Clear 28 1011 62 16093 2.6 160 16:41 22.07.2019
4620 Clear 28 1011 62 16093 2.6 160 16:41 22.07.2019
4621 Clear 28 1011 66 16093 2.6 0 16:21 22.07.2019
4622 Clear 27 1011 69 16093 2.46 91.467 15:46 22.07.2019
4623 Clouds 27 1012 69 16093 1.5 0 15:21 22.07.2019
4624 Clouds 26 1012 69 16093 1.5 0 14:59 22.07.2019
4625 Rain 26 1011 78 16093 1.47 19.15 14:41 22.07.2019
4626 Rain 26 1011 69 16093 3.6 30 14:19 22.07.2019
4627 Clouds 25 1011 83 16093 1.47 19.15 13:44 22.07.2019
4628 Clear 25 1011 83 16093 1.47 19.15 13:22 22.07.2019
4629 Mist 24 1011 88 16093 1.47 19.15 12:43 22.07.2019
4630 Mist 24 1011 69 16093 1.05 327.127 12:23 22.07.2019
4631 Clear 25 1011 69 16093 1.3 352.326 11:44 22.07.2019
4632 Clear 25 1011 69 16093 1.3 352.326 11:20 22.07.2019
4633 Clear 25 1011 83 16093 1.3 352.326 10:43 22.07.2019
4634 Clear 25 1011 74 16093 1.3 352.326 10:24 22.07.2019
4635 Rain 26 1011 74 16093 1.3 352.326 09:42 22.07.2019
4636 Rain 26 1011 74 16093 3.1 240 09:23 22.07.2019
4637 Rain 26 1010 69 16093 2.13 352.695 08:44 22.07.2019
4638 Rain 26 1011 83 16093 3.1 50 08:25 22.07.2019
4639 Rain 26 1012 83 16093 2.13 352.695 07:55 22.07.2019
4640 Rain 26 1012 83 16093 2.13 352.695 07:32 22.07.2019
4641 Rain 26 1011 74 16093 3.1 280 06:44 22.07.2019
4642 Clear 29 1011 55 16093 1.5 260 03:55 22.07.2019
4643 Thunderstorm 33 1008 55 16093 2.6 300 01:53 22.07.2019
4644 Thunderstorm 35 1008 47 16093 4.1 310 00:54 22.07.2019
4645 Clouds 36 1008 44 16093 4.6 270 00:25 22.07.2019
4646 Clouds 36 1007 44 16093 3.6 270 23:55 21.07.2019
4647 Clouds 36 1007 44 16093 3.6 270 23:55 21.07.2019
4648 Clouds 36 1008 47 16093 3.6 270 23:28 21.07.2019
4649 Rain 36 1008 50 16093 5.1 260 22:42 21.07.2019
4650 Rain 36 1008 50 16093 5.1 260 22:23 21.07.2019
4651 Clouds 36 1008 44 16093 5.1 300 21:57 21.07.2019
4652 Clouds 36 1008 44 16093 5.1 300 21:38 21.07.2019
4653 Clouds 36 1008 50 16093 4.1 250 21:20 21.07.2019
4654 Clouds 36 1009 47 16093 3.1 290 20:54 21.07.2019
4655 Clouds 36 1009 47 16093 3.1 290 20:36 21.07.2019
4656 Clouds 36 1009 50 16093 4.1 260 20:18 21.07.2019
4657 Clear 36 1009 53 16093 4.6 280 19:41 21.07.2019
4658 Clear 35 1009 56 16093 3.1 240 19:21 21.07.2019
4659 Clear 35 1009 56 16093 3.6 290 18:46 21.07.2019
4660 Clear 34 1009 53 16093 2.1 0 18:25 21.07.2019
4661 Clear 33 1010 55 16093 3.12 306.331 17:42 21.07.2019
4662 Clear 33 1010 59 16093 2.6 240 17:20 21.07.2019
4663 Clear 33 1009 52 16093 5.7 290 16:57 21.07.2019
4664 Clear 32 1010 66 16093 4.1 300 16:38 21.07.2019
4665 Clear 32 1010 62 16093 3.6 250 16:20 21.07.2019
4666 Clouds 31 1010 70 16093 4.1 300 15:37 21.07.2019
4667 Clouds 31 1011 70 16093 4.1 250 15:18 21.07.2019
4668 Clear 30 1010 70 16093 2.1 290 14:41 21.07.2019
4669 Clear 29 1010 74 16093 2.6 260 14:22 21.07.2019
4670 Clear 29 1010 78 16093 2.6 0 13:51 21.07.2019
4671 Clear 28 1010 78 16093 2.6 0 13:30 21.07.2019
4672 Clear 27 1009 78 16093 2.3 283.891 12:44 21.07.2019
4673 Clear 27 1008 78 16093 1.5 270 12:25 21.07.2019
4674 Clear 27 1008 83 16093 1.5 210 11:51 21.07.2019
4675 Clear 27 1008 83 16093 1.5 210 11:30 21.07.2019
4676 Clear 27 1007 74 16093 2.1 170 10:58 21.07.2019
4677 Clear 27 1008 74 16093 2.1 279.79 10:40 21.07.2019
4678 Clear 27 1008 83 16093 2.1 279.79 10:22 21.07.2019
4679 Clear 28 1009 74 16093 3.1 280 09:38 21.07.2019
4680 Clear 28 1009 83 16093 1.5 180 09:20 21.07.2019
4681 Clear 28 1009 74 16093 3.1 0 08:45 21.07.2019
4682 Clear 28 1009 74 16093 3.1 0 08:45 21.07.2019
4683 Clear 29 1009 74 16093 3.1 0 08:26 21.07.2019
4684 Clear 29 1009 66 16093 2.56 272.419 07:38 21.07.2019
4685 Clear 29 1009 62 16093 2.56 272.419 06:52 21.07.2019
4686 Clear 30 1009 62 16093 3.07 248.618 05:43 21.07.2019
4687 Clear 32 1009 55 16093 3.6 260 02:53 21.07.2019
4688 Clouds 34 1009 52 16093 5.7 270 01:19 21.07.2019
4689 Clear 35 1009 39 16093 4.1 270 00:41 21.07.2019
4690 Clear 35 1009 44 16093 4.6 260 00:18 21.07.2019
4691 Clear 35 1009 47 16093 4.1 260 23:41 20.07.2019
4692 Clear 36 1009 47 16093 4.1 260 23:21 20.07.2019
4693 Clear 36 1009 41 16093 4.6 290 22:45 20.07.2019
4694 Clouds 36 1009 47 16093 4.6 250 22:22 20.07.2019
4695 Clouds 36 1009 47 16093 4.6 250 21:56 20.07.2019
4696 Clear 36 1009 39 16093 4.6 300 21:37 20.07.2019
4697 Clear 36 1009 44 16093 3.6 230 21:18 20.07.2019
4698 Clouds 36 1010 50 16093 5.1 250 20:40 20.07.2019
4699 Clouds 36 1010 50 16093 5.1 250 20:19 20.07.2019
4700 Clear 35 1011 47 16093 4.6 280 19:45 20.07.2019
4701 Clouds 35 1011 56 16093 4.1 250 19:20 20.07.2019
4702 Clear 35 1011 56 16093 2.6 230 18:43 20.07.2019
4703 Clear 34 1011 56 16093 2.6 230 18:20 20.07.2019
4704 Clear 34 1010 52 16093 3.6 300 17:54 20.07.2019
4705 Clear 33 1012 56 16093 2.6 0 17:25 20.07.2019
4706 Clear 32 1011 52 16093 3.09 291.764 16:45 20.07.2019
4707 Clear 32 1011 66 12874 1.5 0 16:27 20.07.2019
4708 Clear 31 1011 66 12874 1.5 0 15:58 20.07.2019
4709 Clouds 31 1012 66 16093 3.09 291.764 15:39 20.07.2019
4710 Clear 30 1013 74 14484 1.5 0 15:20 20.07.2019
4711 Clear 29 1012 74 16093 1.5 300 14:48 20.07.2019
4712 Clear 29 1012 74 16093 1.5 300 14:28 20.07.2019
4713 Mist 28 1012 78 16093 2.83 305.397 13:54 20.07.2019
4714 Mist 28 1012 78 16093 2.83 305.397 13:36 20.07.2019
4715 Mist 28 1012 78 16093 2.83 305.397 13:36 20.07.2019
4716 Mist 27 1012 83 16093 1.5 180 13:18 20.07.2019
4717 Mist 26 1012 83 16093 3.64 315.212 12:38 20.07.2019
4718 Mist 26 1011 83 16093 1.5 240 12:18 20.07.2019
4719 Mist 26 1011 88 16093 1.81 281.676 11:41 20.07.2019
4720 Mist 26 1011 78 16093 1.81 281.676 11:20 20.07.2019
4721 Clear 26 1011 78 16093 1.81 281.676 10:37 20.07.2019
4722 Clear 26 1011 78 16093 1.81 281.676 10:37 20.07.2019
4723 Mist 27 1011 83 16093 2.6 250 10:19 20.07.2019
4724 Clear 27 1011 78 16093 1.81 281.676 09:46 20.07.2019
4725 Clear 27 1011 78 16093 2.1 250 09:24 20.07.2019
4726 Clear 28 1011 74 16093 2.63 272.073 08:49 20.07.2019
4727 Clear 28 1011 74 16093 2.6 260 08:22 20.07.2019
4728 Clear 28 1011 74 16093 2.63 272.073 07:34 20.07.2019
4729 Clear 29 1011 70 16093 2.1 280 06:46 20.07.2019
4730 Clear 29 1011 74 16093 2.6 250 05:24 20.07.2019
4731 Clear 30 1011 66 16093 3.26 250.843 04:31 20.07.2019
4732 Clear 32 1010 52 16093 3.15 254.718 01:30 20.07.2019
4733 Clear 32 1010 52 16093 3.15 254.718 01:30 20.07.2019
4734 Clouds 33 1010 52 16093 5.1 280 00:52 20.07.2019
4735 Clouds 33 1010 52 16093 5.1 280 00:33 20.07.2019
4736 Clouds 33 1010 59 16093 7.2 270 23:57 19.07.2019
4737 Clear 33 1010 49 16093 4.6 270 23:39 19.07.2019
4738 Clear 33 1011 59 16093 2.1 0 23:20 19.07.2019
4739 Clear 33 1011 52 16093 2.1 290 22:41 19.07.2019
4740 Clouds 33 1011 62 14484 2.6 240 22:20 19.07.2019
4741 Clouds 33 1011 62 14484 2.6 240 22:20 19.07.2019
4742 Rain 33 1011 52 16093 2.6 270 21:43 19.07.2019
4743 Rain 33 1012 62 16093 3.6 240 21:25 19.07.2019
4744 Clear 32 1012 59 16093 3.6 250 20:44 19.07.2019
4745 Clear 32 1012 62 16093 3.1 220 20:25 19.07.2019
4746 Clouds 32 1012 62 16093 4.1 280 19:40 19.07.2019
4747 Clear 31 1013 66 16093 2.6 230 19:19 19.07.2019
4748 Clouds 30 1013 66 16093 3.86 231.725 18:41 19.07.2019
4749 Clear 29 1013 70 16093 2.1 0 18:20 19.07.2019
4750 Clouds 28 1013 74 16093 2.73 265.259 17:47 19.07.2019
4751 Clouds 28 1014 74 14484 2.73 265.259 17:26 19.07.2019
4752 Clouds 27 1013 78 14484 2.1 240 16:48 19.07.2019
4753 Mist 26 1014 83 16093 3.1 240 16:26 19.07.2019
4754 Mist 25 1013 74 16093 2.1 0 15:50 19.07.2019
4755 Mist 24 1014 88 16093 2.6 230 15:30 19.07.2019
4756 Mist 24 1014 88 16093 1.5 240 14:57 19.07.2019
4757 Rain 23 1013 83 12874 2.1 50 14:38 19.07.2019
4758 Rain 23 1013 88 16093 2.6 210 14:20 19.07.2019
4759 Mist 22 1013 88 16093 1.35 270.635 13:44 19.07.2019
4760 Mist 22 1013 88 16093 1.35 270.635 13:44 19.07.2019
4761 Mist 22 1013 88 16093 1.58 263.439 13:44 19.07.2019
4762 Mist 22 1013 88 16093 1.35 270.635 13:44 19.07.2019
4763 Mist 22 1013 88 16093 1.35 270.635 13:44 19.07.2019
4764 Mist 22 1014 88 16093 2.6 250 13:25 19.07.2019
4765 Mist 22 1013 88 9656 2.1 170 12:55 19.07.2019
4766 Mist 22 1013 88 16093 0.96 301.209 12:31 19.07.2019
4767 Mist 22 1013 83 9656 0.96 301.209 11:58 19.07.2019
4768 Mist 22 1013 88 16093 0.96 301.209 11:40 19.07.2019
4769 Mist 22 1013 94 16093 1.5 50 11:18 19.07.2019
4770 Clouds 22 1012 83 16093 2.1 60 10:41 19.07.2019
4771 Clouds 22 1013 94 16093 2.1 60 10:21 19.07.2019
4772 Clouds 22 1013 88 16093 0.96 301.209 09:44 19.07.2019
4773 Clouds 22 1013 94 16093 3.6 40 09:22 19.07.2019
4774 Clouds 22 1013 94 16093 3.6 40 08:59 19.07.2019
4775 Clouds 22 1013 88 16093 1.29 13.011 08:40 19.07.2019
4776 Mist 22 1012 83 16093 4.6 50 07:53 19.07.2019
4777 Mist 22 1013 88 16093 2.6 60 07:28 19.07.2019
4778 Rain 22 1013 88 16093 2.6 50 05:55 19.07.2019
4779 Rain 23 1012 88 16093 6.2 50 02:23 19.07.2019
4780 Rain 24 1012 88 11265 5.1 20 01:18 19.07.2019
4781 Rain 25 1012 83 16093 7.2 30 00:35 19.07.2019
4782 Rain 26 1012 78 16093 5.1 40 23:44 18.07.2019
4783 Rain 26 1012 74 16093 6.2 40 23:24 18.07.2019
4784 Rain 26 1012 74 16093 6.2 40 22:59 18.07.2019
4785 Rain 26 1012 74 16093 4.6 40 22:40 18.07.2019
4786 Rain 26 1012 74 16093 3.1 50 22:19 18.07.2019
4787 Rain 26 1013 83 14484 3.6 40 21:44 18.07.2019
4788 Rain 26 1012 88 6437 3.1 40 21:26 18.07.2019
4789 Rain 26 1013 83 11265 3.1 60 20:51 18.07.2019
4790 Rain 26 1012 78 16093 4.1 50 20:29 18.07.2019
4791 Rain 26 1012 78 16093 3.1 40 19:57 18.07.2019
4792 Rain 25 1013 83 12874 3.1 40 19:38 18.07.2019
4793 Rain 25 1013 83 14484 3.1 50 19:18 18.07.2019
4794 Rain 25 1013 100 3219 2.6 100 18:41 18.07.2019
4795 Rain 25 1013 88 11265 2.6 30 18:20 18.07.2019
4796 Rain 25 1013 88 6437 2.1 0 17:43 18.07.2019
4797 Rain 25 1014 94 6437 3.6 70 17:24 18.07.2019
4798 Rain 24 1013 88 4023 3.6 80 16:57 18.07.2019
4799 Rain 24 1013 88 4023 3.6 80 16:39 18.07.2019
4800 Rain 24 1013 94 16093 1.5 50 16:18 18.07.2019
4801 Rain 24 1013 88 16093 2.87 44.604 15:44 18.07.2019
4802 Rain 24 1013 94 6437 1.5 30 15:25 18.07.2019
4803 Rain 24 1013 94 9656 2.6 10 14:50 18.07.2019
4804 Rain 24 1013 83 2414 1.5 190 14:32 18.07.2019
4805 Rain 24 1013 100 16093 1.5 70 13:50 18.07.2019
4806 Mist 23 1013 94 12874 1.17 33.949 13:24 18.07.2019
4807 Mist 23 1013 100 11265 1.17 33.949 12:53 18.07.2019
4808 Rain 23 1013 94 16093 1.5 180 12:22 18.07.2019
4809 Rain 23 1012 88 16093 0.52 344.009 11:58 18.07.2019
4810 Rain 23 1013 100 16093 1.5 240 11:39 18.07.2019
4811 Rain 23 1013 100 16093 1.5 240 11:21 18.07.2019
4812 Rain 23 1013 100 9656 2.6 0 10:49 18.07.2019
4813 Rain 23 1013 88 16093 0.52 344.009 09:50 18.07.2019
4814 Rain 23 1013 100 16093 3.1 240 09:27 18.07.2019
4815 Rain 23 1013 100 16093 3.1 240 09:27 18.07.2019
4816 Rain 23 1013 94 11265 1.67 147.426 08:53 18.07.2019
4817 Clouds 23 1012 100 16093 1.67 147.426 08:25 18.07.2019
4818 Rain 23 1011 94 16093 1.67 147.426 07:57 18.07.2019
4819 Rain 23 1012 94 16093 1.67 147.426 07:35 18.07.2019
4820 Rain 23 1012 94 8047 1.67 147.426 06:48 18.07.2019
4821 Rain 23 1013 100 6437 1.28 166.203 06:20 18.07.2019
4822 Rain 24 1013 94 14484 5.7 40 03:41 18.07.2019
4823 Rain 27 1013 78 2414 16.5 320 02:23 18.07.2019
4824 Thunderstorm 31 1011 55 16093 3.6 280 01:36 18.07.2019
4825 Clear 33 1011 55 16093 2.6 260 00:22 18.07.2019
4826 Clouds 33 1011 55 16093 5.7 250 23:22 17.07.2019
4827 Clear 33 1010 44 16093 6.2 240 22:59 17.07.2019
4828 Clouds 33 1011 44 16093 3.6 260 22:41 17.07.2019
4829 Clouds 33 1012 55 16093 4.6 230 22:22 17.07.2019
4830 Rain 33 1012 56 16093 4.1 230 21:58 17.07.2019
4831 Rain 34 1012 56 16093 4.1 230 21:38 17.07.2019
4832 Rain 34 1012 56 16093 4.1 230 21:19 17.07.2019
4833 Clouds 34 1011 52 16093 4.6 190 20:55 17.07.2019
4834 Clouds 34 1013 59 14484 3.1 210 20:37 17.07.2019
4835 Clouds 34 1013 59 14484 3.1 210 20:18 17.07.2019
4836 Clouds 34 1014 59 16093 3.1 260 19:41 17.07.2019
4837 Clouds 34 1014 59 16093 3.1 260 19:20 17.07.2019
4838 Clouds 33 1014 52 16093 3.86 226.219 18:45 17.07.2019
4839 Clear 33 1014 59 16093 2.6 240 18:21 17.07.2019
4840 Clear 33 1014 59 16093 4.1 290 17:57 17.07.2019
4841 Clear 33 1014 59 16093 4.1 290 17:39 17.07.2019
4842 Clouds 32 1015 70 16093 3.1 230 17:20 17.07.2019
4843 Clear 31 1015 66 16093 3.41 245.143 16:40 17.07.2019
4844 Clear 30 1015 66 16093 4.1 300 16:20 17.07.2019
4845 Clear 29 1015 66 16093 4.1 300 15:51 17.07.2019
4846 Clear 29 1015 70 16093 3.6 280 15:31 17.07.2019
4847 Clouds 28 1016 83 16093 4.1 270 14:57 17.07.2019
4848 Clear 27 1015 78 16093 3.1 290 14:38 17.07.2019
4849 Clear 27 1015 78 16093 3.1 290 14:20 17.07.2019
4850 Clear 26 1015 83 16093 2.15 230.611 13:49 17.07.2019
4851 Clear 26 1015 83 16093 3.06 248.275 13:31 17.07.2019
4852 Clouds 25 1015 78 16093 3.1 200 12:56 17.07.2019
4853 Clouds 25 1015 78 16093 3.06 248.275 12:38 17.07.2019
4854 Clouds 25 1015 78 16093 2.1 170 12:19 17.07.2019
4855 Clear 25 1015 65 16093 2.43 246.935 11:40 17.07.2019
4856 Clear 25 1015 65 16093 2.43 246.935 11:19 17.07.2019
4857 Clear 25 1015 65 16093 2.43 246.935 10:45 17.07.2019
4858 Clear 25 1015 65 16093 2.43 246.935 10:21 17.07.2019
4859 Clouds 25 1015 61 16093 2.43 246.935 09:45 17.07.2019
4860 Clouds 25 1015 61 16093 2.29 239.474 09:27 17.07.2019
4861 Clouds 26 1016 57 16093 2.6 250.32 08:45 17.07.2019
4862 Clouds 26 1016 57 16093 2.6 250.32 08:24 17.07.2019
4863 Clouds 26 1016 57 16093 2.6 250.32 07:59 17.07.2019
4864 Clear 26 1016 54 16093 2.6 250.32 07:40 17.07.2019
4865 Clear 26 1016 54 16093 2.6 250.32 07:21 17.07.2019
4866 Clouds 26 1016 69 16093 2.6 250.32 06:45 17.07.2019
4867 Clouds 27 1016 69 16093 2.6 245.337 06:24 17.07.2019
4868 Clear 27 1017 61 16093 2.6 245.337 05:38 17.07.2019
4869 Clear 27 1017 58 16093 2.6 245.337 04:58 17.07.2019
4870 Clear 28 1016 51 16093 2.6 245.337 03:55 17.07.2019
4871 Clear 29 1016 45 16093 2.53 243.799 02:43 17.07.2019
4872 Clear 30 1016 40 16093 3.1 280 01:42 17.07.2019
4873 Clear 31 1016 40 16093 3.1 280 01:22 17.07.2019
4874 Clear 31 1016 38 16093 3.02 253.851 00:42 17.07.2019
4875 Clear 32 1016 38 16093 4.08 243.73 00:22 17.07.2019
4876 Clear 32 1016 38 16093 3.6 280 23:46 16.07.2019
4877 Clear 33 1016 38 16093 3.6 280 23:25 16.07.2019
4878 Clouds 33 1016 52 16093 4.1 270 22:57 16.07.2019
4879 Clear 33 1016 34 16093 2.6 270 22:39 16.07.2019
4880 Clouds 33 1017 52 16093 3.1 280 22:19 16.07.2019
4881 Clear 33 1017 36 16093 4.1 290 21:43 16.07.2019
4882 Clouds 33 1017 49 16093 5.1 260 21:20 16.07.2019
4883 Clouds 33 1017 49 16093 5.1 260 20:56 16.07.2019
4884 Clear 32 1017 36 16093 1.5 290 20:38 16.07.2019
4885 Clear 32 1017 36 16093 1.5 290 20:19 16.07.2019
4886 Rain 32 1018 35 16093 1.5 250 19:44 16.07.2019
4887 Clouds 32 1018 38 16093 6.2 230 19:26 16.07.2019
4888 Clear 31 1018 38 16093 3.1 270 18:45 16.07.2019
4889 Clear 31 1018 38 16093 3.1 270 18:21 16.07.2019
4890 Clear 30 1018 35 16093 5.7 300 17:58 16.07.2019
4891 Clear 30 1018 37 16093 4.1 300 17:38 16.07.2019
4892 Clear 30 1018 37 16093 4.1 300 17:20 16.07.2019
4893 Clear 29 1019 54 16093 1.5 0 16:40 16.07.2019
4894 Clear 28 1019 45 16093 3 236.416 16:19 16.07.2019
4895 Clear 27 1019 51 16093 3 236.416 15:41 16.07.2019
4896 Clear 26 1019 51 16093 0.44 229.81 15:21 16.07.2019
4897 Clear 25 1019 54 16093 1.5 290 14:58 16.07.2019
4898 Clear 24 1019 57 16093 1.5 290 14:39 16.07.2019
4899 Clouds 23 1019 94 16093 0.44 229.81 14:20 16.07.2019
4900 Clear 23 1019 73 16093 0.44 229.81 13:45 16.07.2019
4901 Clear 22 1019 73 16093 0.73 229.924 13:24 16.07.2019
4902 Clouds 21 1018 64 16093 2.6 260 12:54 16.07.2019
4903 Clear 20 1018 64 16093 0.73 229.924 12:36 16.07.2019
4904 Clouds 20 1018 60 16093 2.1 10 12:18 16.07.2019
4905 Clear 20 1018 68 16093 0.62 338.062 11:42 16.07.2019
4906 Clear 20 1018 68 16093 0.62 338.062 11:22 16.07.2019
4907 Clear 20 1018 60 16093 0.62 338.062 10:47 16.07.2019
4908 Clear 20 1018 60 16093 0.62 338.062 10:22 16.07.2019
4909 Clear 21 1018 64 16093 0.62 338.062 09:59 16.07.2019
4910 Clear 21 1018 64 16093 0.62 338.062 09:40 16.07.2019
4911 Clear 21 1018 64 16093 0.55 3.641 09:19 16.07.2019
4912 Clear 21 1018 64 16093 0.47 332.4 08:43 16.07.2019
4913 Clear 21 1018 64 16093 0.47 332.4 08:22 16.07.2019
4914 Clear 22 1018 60 16093 0.47 332.4 07:48 16.07.2019
4915 Clear 22 1018 60 16093 0.47 332.4 07:30 16.07.2019
4916 Clear 23 1018 57 16093 0.47 332.4 06:53 16.07.2019
4917 Clear 23 1018 57 16093 0.47 332.4 06:31 16.07.2019
4918 Clear 24 1017 50 16093 1.53 352.044 05:42 16.07.2019
4919 Clear 24 1017 50 16093 1.53 352.044 05:24 16.07.2019
4920 Clear 25 1017 44 16093 2.6 270 04:23 16.07.2019
4921 Clear 26 1017 45 16093 1.5 270 03:28 16.07.2019
4922 Clear 27 1017 39 16093 2.1 280 02:36 16.07.2019
4923 Clear 28 1016 39 16093 3.6 290 01:49 16.07.2019
4924 Clouds 29 1016 40 16093 7.2 270 00:59 16.07.2019
4925 Clear 30 1016 37 16093 1.85 335.94 00:22 16.07.2019
4926 Clouds 30 1016 37 16093 4.6 280 23:55 15.07.2019
4927 Clear 30 1017 37 16093 3.6 290 23:37 15.07.2019
4928 Clear 30 1017 35 16093 4.1 300 22:56 15.07.2019
4929 -273 0 0 0 0 0 22:37 15.07.2019
4930 Clear 30 1017 35 16093 3.6 320 22:19 15.07.2019
4931 Clear 30 1017 35 16093 3.1 270 21:42 15.07.2019
4932 Clear 30 1017 37 14484 2.1 0 21:21 15.07.2019
4933 Clouds 30 1017 45 16093 3.1 340 20:58 15.07.2019
4934 Clear 29 1017 33 16093 3.6 290 20:40 15.07.2019
4935 Clear 29 1017 33 16093 3.6 290 20:22 15.07.2019
4936 Clear 29 1018 35 16093 3.6 320 19:55 15.07.2019
4937 Clear 29 1018 35 16093 3.6 320 19:37 15.07.2019
4938 Clear 29 1018 35 16093 3.6 320 19:18 15.07.2019
4939 Clear 28 1019 36 16093 2.1 270 18:42 15.07.2019
4940 Rain 28 1018 39 16093 4.1 260 18:19 15.07.2019
4941 Rain 27 1019 47 16093 2.12 278.08 17:55 15.07.2019
4942 Rain 27 1019 39 16093 3.1 330 17:37 15.07.2019
4943 Clear 27 1019 39 16093 2.12 278.08 17:19 15.07.2019
4944 Clear 26 1019 41 16093 2.12 278.08 16:39 15.07.2019
4945 Clear 26 1019 41 16093 2.12 278.08 16:21 15.07.2019
4946 Rain 25 1019 44 16093 1.5 30 15:59 15.07.2019
4947 Rain 25 1019 50 16093 2.6 340 15:38 15.07.2019
4948 Rain 24 1019 50 16093 2.6 340 15:20 15.07.2019
4949 Rain 23 1019 53 16093 1.12 320.931 14:45 15.07.2019
4950 Rain 22 1019 53 16093 1.12 320.931 14:27 15.07.2019
4951 Clouds 22 1019 77 16093 1.12 320.931 13:57 15.07.2019
4952 Clear 22 1019 60 16093 2.6 350 13:36 15.07.2019
4953 Clouds 20 1018 56 16093 3.1 340 13:18 15.07.2019
4954 Clear 20 1018 68 16093 1.25 341.131 12:42 15.07.2019
4955 Clear 19 1018 68 16093 1.1 314.669 12:22 15.07.2019
4956 Clear 19 1018 68 16093 1.1 314.669 11:44 15.07.2019
4957 Clear 19 1018 68 16093 1.1 314.669 11:26 15.07.2019
4958 Clear 20 1017 64 16093 1.1 314.669 10:49 15.07.2019
4959 Clear 20 1017 64 16093 1.1 314.669 10:30 15.07.2019
4960 Clouds 20 1017 60 16093 3.6 350 09:58 15.07.2019
4961 Clear 21 1017 56 16093 1.1 314.669 09:39 15.07.2019
4962 Clear 21 1017 53 16093 2.17 340.77 09:18 15.07.2019
4963 Clear 22 1017 50 16093 2.38 336.561 08:42 15.07.2019
4964 Clear 22 1017 50 16093 2.38 336.561 08:23 15.07.2019
4965 Clear 23 1017 50 16093 2.38 336.561 07:41 15.07.2019
4966 Clear 23 1017 50 16093 2.38 336.561 07:20 15.07.2019
4967 Clear 24 1016 50 16093 2.38 336.561 06:39 15.07.2019
4968 Clear 24 1016 50 16093 2.38 336.561 06:39 15.07.2019
4969 Clear 25 1016 44 16093 3.55 334.193 05:51 15.07.2019
4970 Clear 25 1016 44 16093 3.55 334.193 05:32 15.07.2019
4971 Clear 26 1015 42 16093 3.6 340 04:43 15.07.2019
4972 Clear 27 1015 39 16093 3.1 340 03:58 15.07.2019
4973 Clear 27 1015 39 16093 3.1 340 03:58 15.07.2019
4974 Clouds 28 1015 61 16093 2.1 340 02:49 15.07.2019
4975 Clear 29 1014 33 16093 5.1 310 01:54 15.07.2019
4976 Clear 30 1014 35 16093 2.1 0 01:32 15.07.2019
4977 Clear 31 1014 33 16093 5.1 300 00:53 15.07.2019
4978 Clear 31 1014 31 16093 4.6 330 00:26 15.07.2019
4979 Clear 31 1014 27 16093 6.2 330 23:58 14.07.2019
4980 Clear 32 1014 27 16093 6.7 320 23:39 14.07.2019
4981 Clear 32 1014 27 16093 6.7 320 23:19 14.07.2019
4982 Clear 32 1013 31 16093 7.2 320 22:57 14.07.2019
4983 Clouds 32 1013 36 16093 2.6 0 22:38 14.07.2019
4984 Clouds 32 1013 36 16093 2.6 0 22:19 14.07.2019
4985 Clear 32 1013 29 16093 7.2 300 21:42 14.07.2019
4986 Clouds 32 1014 45 16093 5.7 300 21:19 14.07.2019
4987 Clouds 32 1013 41 16093 2.6 0 20:57 14.07.2019
4988 Clouds 32 1013 41 16093 2.6 0 20:38 14.07.2019
4989 Clouds 32 1013 40 16093 7.7 310 20:19 14.07.2019
4990 Clouds 31 1013 38 16093 3.1 0 19:45 14.07.2019
4991 Clouds 31 1013 38 16093 3.1 0 19:45 14.07.2019
4992 Clouds 31 1013 38 16093 3.1 0 19:27 14.07.2019
4993 Clouds 31 1013 40 16093 3.6 310 18:58 14.07.2019
4994 Clouds 31 1014 46 16093 3.1 250 18:39 14.07.2019
4995 Clouds 31 1014 46 16093 3.1 250 18:21 14.07.2019
4996 Clear 30 1014 48 16093 4.6 300 17:54 14.07.2019
4997 Clouds 30 1014 62 16093 4.1 280 17:22 14.07.2019
4998 Clouds 30 1014 62 16093 4.1 280 17:22 14.07.2019
4999 Clouds 29 1014 62 16093 4.1 280 16:52 14.07.2019
5000 Clear 29 1014 54 16093 3.1 250 16:25 14.07.2019
5001 Clear 28 1014 54 16093 4.1 310 15:57 14.07.2019
5002 Clear 28 1014 54 16093 4.1 280 15:35 14.07.2019
5003 Clouds 27 1014 65 16093 3.6 280 14:58 14.07.2019
5004 Clear 26 1014 61 16093 3.1 290 14:37 14.07.2019
5005 Clear 25 1013 65 16093 2.1 180 14:19 14.07.2019
5006 Clear 24 1014 69 16093 3.22 305.184 13:45 14.07.2019
5007 Clear 23 1014 69 16093 3.9 306.356 13:22 14.07.2019
5008 Clouds 23 1013 73 16093 2.6 210 12:55 14.07.2019
5009 Clear 22 1014 73 16093 3.9 306.356 12:36 14.07.2019
5010 Clear 22 1014 64 16093 1.85 291.928 12:18 14.07.2019
5011 Clear 22 1013 69 16093 1.85 291.928 11:43 14.07.2019
5012 Clear 22 1013 69 16093 1.85 291.928 11:20 14.07.2019
5013 Clear 22 1013 64 16093 1.85 291.928 10:42 14.07.2019
5014 Clear 22 1012 64 16093 1.5 180 10:20 14.07.2019
5015 Clear 23 1013 64 16093 1.85 291.928 09:44 14.07.2019
5016 Clear 23 1013 64 16093 2.1 269.482 09:25 14.07.2019
5017 Clear 23 1013 61 16093 2.07 262.926 08:45 14.07.2019
5018 Clear 23 1013 61 16093 2.07 262.926 08:22 14.07.2019
5019 Clear 24 1013 61 16093 2.07 262.926 07:41 14.07.2019
5020 Clear 24 1013 61 16093 2.07 262.926 07:19 14.07.2019
5021 Clear 25 1014 61 16093 3.6 270 05:45 14.07.2019
5022 Clear 25 1014 61 16093 3.6 270 05:45 14.07.2019
5023 Clear 26 1014 65 16093 2.6 250 03:51 14.07.2019
5024 Clear 26 1013 51 16093 1.76 248.615 03:33 14.07.2019
5025 Clear 27 1013 61 16093 2.6 250 02:52 14.07.2019
5026 Clear 28 1013 61 16093 1.5 250 02:22 14.07.2019
5027 Clear 28 1012 45 16093 4.6 290 01:34 14.07.2019
5028 Clear 29 1012 43 16093 4.1 300 00:59 14.07.2019
5029 Clear 29 1013 55 16093 2.1 220 00:40 14.07.2019
5030 Clear 30 1013 55 16093 2.1 220 00:20 14.07.2019
5031 Clear 30 1013 43 16093 2.1 280 23:56 13.07.2019
5032 Clear 30 1013 43 16093 3.6 290 23:37 13.07.2019
5033 Clouds 30 1013 55 16093 4.6 290 23:19 13.07.2019
5034 Clear 30 1013 48 16093 4.6 250 22:40 13.07.2019
5035 Clear 30 1013 48 16093 4.6 250 22:21 13.07.2019
5036 Clear 30 1013 45 16093 4.1 290 21:45 13.07.2019
5037 Clear 30 1014 45 16093 4.6 280 21:20 13.07.2019
5038 Clouds 29 1014 45 16093 5.7 290 20:47 13.07.2019
5039 Clouds 29 1014 45 16093 5.7 290 20:28 13.07.2019
5040 Clouds 29 1014 48 16093 4.1 280 19:48 13.07.2019
5041 Clouds 29 1014 48 16093 4.1 280 19:29 13.07.2019
5042 Clouds 28 1015 48 16093 3.6 320 18:46 13.07.2019
5043 Clouds 28 1015 48 16093 3.6 320 18:23 13.07.2019
5044 Clear 27 1015 48 16093 3.1 320 17:42 13.07.2019
5045 Clouds 27 1014 54 16093 3.1 320 17:22 13.07.2019
5046 Clouds 27 1015 65 16093 2.1 340 16:58 13.07.2019
5047 Clear 26 1014 50 16093 2.89 316.798 16:39 13.07.2019
5048 Clear 26 1014 50 16093 2.89 316.798 16:21 13.07.2019
5049 Smoke 25 1015 57 16093 3.1 330 15:45 13.07.2019
5050 Smoke 25 1015 57 16093 3.1 330 15:22 13.07.2019
5051 Clear 23 1014 69 16093 3.27 319.112 14:46 13.07.2019
5052 Clear 23 1014 69 16093 3.27 319.112 14:25 13.07.2019
5053 Clear 22 1014 83 16093 2.6 330 13:56 13.07.2019
5054 Clear 22 1014 77 16093 1.5 300 13:37 13.07.2019
5055 Clear 21 1014 77 16093 1.5 300 13:18 13.07.2019
5056 Clear 20 1013 82 16093 2.54 308.748 12:40 13.07.2019
5057 Clear 20 1013 82 16093 2.54 308.748 12:40 13.07.2019
5058 Clear 20 1013 82 16093 2.67 307.174 12:22 13.07.2019
5059 Clear 20 1013 82 16093 2.67 307.174 12:22 13.07.2019
5060 Clear 20 1013 82 16093 2.67 307.174 11:52 13.07.2019
5061 Clear 20 1012 73 16093 1.5 360 11:20 13.07.2019
5062 Clear 20 1012 77 16093 2.67 307.174 10:45 13.07.2019
5063 Clear 20 1012 77 16093 2.67 307.174 10:24 13.07.2019
5064 Clear 21 1012 77 16093 2.67 307.174 09:59 13.07.2019
5065 Clear 21 1012 77 16093 2.67 307.174 09:40 13.07.2019
5066 Clear 21 1012 77 16093 2.18 325.152 09:18 13.07.2019
5067 Clear 21 1012 73 16093 2.25 316.656 08:41 13.07.2019
5068 Clear 22 1012 73 16093 2.25 316.656 08:22 13.07.2019
5069 Clear 22 1012 69 16093 2.25 316.656 07:30 13.07.2019
5070 Clear 23 1012 64 16093 2.25 316.656 06:49 13.07.2019
5071 Clear 23 1012 64 16093 3.11 315.352 06:22 13.07.2019
5072 Clear 24 1012 57 16093 3.11 315.352 05:33 13.07.2019
5073 Haze 25 1011 54 16093 2.6 350 04:24 13.07.2019
5074 Clear 25 1011 51 16093 3.11 315.352 03:59 13.07.2019
5075 Clear 26 1010 51 16093 4.1 340 03:39 13.07.2019
5076 Clouds 27 1009 45 16093 6.2 320 02:20 13.07.2019
5077 Clear 28 1008 39 16093 4.6 330 01:43 13.07.2019
5078 Clouds 28 1008 39 16093 7.7 320 01:19 13.07.2019
5079 Clouds 29 1008 39 16093 7.7 320 00:57 13.07.2019
5080 Clear 29 1008 37 16093 5.7 350 00:20 13.07.2019
5081 Rain 30 1007 38 16093 7.2 320 23:49 12.07.2019
5082 Rain 30 1007 46 16093 4.6 30 23:29 12.07.2019
5083 Clouds 30 1008 54 16093 4.6 330 22:56 12.07.2019
5084 Clouds 30 1007 40 16093 7.2 310 22:38 12.07.2019
5085 Clouds 31 1007 55 16093 5.1 310 22:18 12.07.2019
5086 Clouds 31 1007 43 16093 5.1 300 21:41 12.07.2019
5087 Clouds 30 1007 43 16093 5.1 300 21:19 12.07.2019
5088 Clear 30 1007 43 16093 7.2 310 20:43 12.07.2019
5089 Clear 30 1007 43 16093 7.2 310 20:22 12.07.2019
5090 Clouds 30 1007 51 16093 3.1 290 19:42 12.07.2019
5091 Clouds 29 1007 51 16093 3.1 290 19:24 12.07.2019
5092 Clouds 29 1007 69 16093 4.1 300 18:49 12.07.2019
5093 Clouds 29 1007 58 16093 4.1 320 18:22 12.07.2019
5094 Clouds 28 1007 61 16093 5.1 330 17:55 12.07.2019
5095 Clouds 28 1007 69 16093 2.1 280 17:37 12.07.2019
5096 Clouds 28 1007 69 16093 2.1 280 17:19 12.07.2019
5097 Clouds 27 1008 74 16093 3.6 290 16:36 12.07.2019
5098 Clouds 26 1008 83 16093 2.6 310 16:18 12.07.2019
5099 Clouds 25 1007 88 16093 3.1 230 15:38 12.07.2019
5100 Clouds 25 1007 88 16093 3.1 230 15:19 12.07.2019
5101 Clouds 24 1007 88 16093 3.61 307.797 14:44 12.07.2019
5102 Clouds 23 1007 94 16093 3.1 240 14:21 12.07.2019
5103 Clouds 23 1007 94 16093 2.6 260 13:47 12.07.2019
5104 Clouds 22 1007 94 16093 2.6 260 13:24 12.07.2019
5105 Mist 22 1007 94 16093 3.6 309.22 12:44 12.07.2019
5106 Mist 21 1007 94 16093 1.6 309.106 12:24 12.07.2019
5107 Mist 22 1006 94 16093 3.1 240 11:58 12.07.2019
5108 Clouds 22 1006 94 16093 1.6 309.106 11:39 12.07.2019
5109 Clouds 22 1006 94 16093 1.6 309.106 11:19 12.07.2019
5110 Mist 22 1006 94 16093 1.6 309.106 10:41 12.07.2019
5111 Mist 22 1006 94 16093 2.6 260 10:23 12.07.2019
5112 Mist 22 1006 94 16093 2.6 260 09:53 12.07.2019
5113 Mist 22 1006 100 16093 3.6 240 09:29 12.07.2019
5114 Mist 22 1007 94 16093 1.37 300.533 08:52 12.07.2019
5115 Mist 22 1007 88 16093 1.37 300.533 08:25 12.07.2019
5116 Mist 22 1007 94 16093 2.1 260 07:54 12.07.2019
5117 Clouds 22 1007 88 16093 1.5 340 07:32 12.07.2019
5118 Rain 22 1008 94 14484 1.37 300.533 06:51 12.07.2019
5119 Rain 22 1007 94 16093 1.86 188.313 06:26 12.07.2019
5120 Rain 23 1009 94 12874 1.86 188.313 05:24 12.07.2019
5121 Rain 23 1009 100 12874 3.1 0 03:20 12.07.2019
5122 Rain 24 1011 94 4023 2.6 150 01:39 12.07.2019
5123 Rain 24 1011 94 16093 2.6 0 00:54 12.07.2019
5124 Rain 24 1010 88 14484 2.1 170 00:20 12.07.2019
5125 Rain 24 1010 83 16093 5.7 160 23:44 11.07.2019
5126 Rain 24 1010 83 16093 5.7 160 23:26 11.07.2019
5127 Rain 24 1011 83 16093 5.7 150 22:52 11.07.2019
5128 Rain 24 1012 94 9656 2.6 0 22:27 11.07.2019
5129 Rain 25 1013 100 2012 2.23 187.205 21:59 11.07.2019
5130 Rain 25 1012 94 3219 3.6 90 21:40 11.07.2019
5131 Rain 26 1012 94 3219 2.1 170 21:18 11.07.2019
5132 Rain 27 1012 61 16093 5.1 170 20:42 11.07.2019
5133 Rain 27 1012 61 16093 5.1 170 20:24 11.07.2019
5134 Clouds 29 1012 62 16093 5.1 150 19:58 11.07.2019
5135 Clouds 29 1013 55 16093 3.6 150 19:39 11.07.2019
5136 Clouds 29 1014 58 16093 2.6 0 19:21 11.07.2019
5137 Clear 29 1014 62 16093 3.6 160 18:43 11.07.2019
5138 Clear 29 1014 62 16093 3.6 160 18:43 11.07.2019
5139 Clear 29 1014 62 16093 3.6 160 18:24 11.07.2019
5140 Clear 29 1014 42 16093 4.6 180 17:53 11.07.2019
5141 Clear 29 1014 42 16093 4.6 180 17:31 11.07.2019
5142 Clear 29 1014 45 16093 2.6 200 16:58 11.07.2019
5143 Clear 29 1014 45 16093 3.1 170 16:40 11.07.2019
5144 Clear 28 1014 45 16093 3.1 170 16:19 11.07.2019
5145 Clear 27 1015 45 16093 2.1 210 15:43 11.07.2019
5146 Clear 26 1015 45 16093 2.1 210 15:24 11.07.2019
5147 Clouds 26 1015 65 16093 2.6 220 14:58 11.07.2019
5148 Clear 25 1015 50 16093 2.5 202.303 14:38 11.07.2019
5149 Clear 24 1015 60 16093 2.5 202.303 14:19 11.07.2019
5150 Clear 24 1015 64 16093 2.5 202.303 13:42 11.07.2019
5151 Clear 23 1015 64 16093 2.44 198.561 13:23 11.07.2019
5152 Clear 22 1015 73 16093 2.44 198.561 12:39 11.07.2019
5153 Clear 22 1015 73 16093 2.08 218.75 12:19 11.07.2019
5154 Clear 22 1015 73 16093 2.08 218.75 11:50 11.07.2019
5155 Clear 22 1015 69 16093 2.08 218.75 11:30 11.07.2019
5156 Clear 23 1015 69 16093 2.08 218.75 10:54 11.07.2019
5157 Clouds 23 1015 69 16093 2.08 218.75 10:20 11.07.2019
5158 Clouds 23 1015 69 16093 2.08 218.75 10:20 11.07.2019
5159 Clouds 23 1015 69 16093 2.08 218.75 09:57 11.07.2019
5160 Clouds 24 1015 69 16093 2.08 218.75 09:39 11.07.2019
5161 Clouds 24 1015 61 16093 2.1 231.566 09:20 11.07.2019
5162 Clouds 24 1015 61 16093 1.5 260 08:42 11.07.2019
5163 Clouds 24 1015 61 16093 1.5 260 08:20 11.07.2019
5164 Clouds 25 1015 57 16093 1.5 270 07:45 11.07.2019
5165 Clouds 25 1015 65 16093 5.7 210 07:25 11.07.2019
5166 Clouds 25 1015 61 16093 1.64 247.063 06:21 11.07.2019
5167 Clear 26 1015 61 16093 2.1 220 05:43 11.07.2019
5168 Clear 26 1015 61 16093 2.1 220 05:24 11.07.2019
5169 Clear 26 1015 51 16093 1.64 247.063 03:58 11.07.2019
5170 Clear 28 1015 48 16093 1.58 258.982 02:34 11.07.2019
5171 Clouds 30 1015 38 16093 1.5 270 00:48 11.07.2019
5172 Clouds 31 1015 40 16093 1.5 190 23:53 10.07.2019
5173 Clouds 31 1015 40 16093 1.5 190 23:31 10.07.2019
5174 Rain 31 1015 43 16093 6.7 210 22:58 10.07.2019
5175 Rain 31 1016 38 16093 1.5 260 22:37 10.07.2019
5176 Clouds 31 1016 52 16093 4.6 250 22:18 10.07.2019
5177 Clouds 31 1016 40 16093 2.6 260 21:43 10.07.2019
5178 Clouds 31 1016 40 16093 2.6 260 21:25 10.07.2019
5179 Clouds 31 1017 52 16093 3.6 290 20:54 10.07.2019
5180 Clouds 31 1017 35 16093 2.6 280 20:36 10.07.2019
5181 Clouds 31 1017 43 16093 5.7 300 20:18 10.07.2019
5182 Clouds 31 1017 40 16093 2.6 0 19:42 10.07.2019
5183 Clouds 31 1017 45 16093 3.1 300 19:21 10.07.2019
5184 Clear 31 1017 43 16093 2.6 280 18:48 10.07.2019
5185 Clouds 30 1017 43 16093 4.1 290 18:25 10.07.2019
5186 Clouds 30 1017 48 16093 3.6 280 17:52 10.07.2019
5187 Clouds 29 1017 48 16093 4.6 290 17:31 10.07.2019
5188 Clouds 29 1018 54 16093 1.5 300 16:59 10.07.2019
5189 Clear 28 1018 58 16093 2.44 257.476 16:22 10.07.2019
5190 Clear 28 1018 61 16093 2.44 257.476 15:58 10.07.2019
5191 Rain 27 1018 61 16093 2.44 257.476 15:39 10.07.2019
5192 Rain 26 1018 61 16093 1.21 299.211 15:18 10.07.2019
5193 Clear 24 1018 73 16093 1.21 299.211 14:39 10.07.2019
5194 Clear 24 1018 73 16093 1.21 299.211 14:20 10.07.2019
5195 Clear 23 1018 78 16093 1.19 303.49 13:44 10.07.2019
5196 Clear 22 1018 78 16093 2.6 270 13:19 10.07.2019
5197 Clear 22 1018 78 16093 2.6 270 13:19 10.07.2019
5198 Clear 22 1018 78 16093 1.19 303.49 13:19 10.07.2019
5199 Clear 21 1018 100 12874 1.19 303.49 12:55 10.07.2019
5200 Clear 21 1018 83 16093 1.19 303.49 12:36 10.07.2019
5201 Clear 20 1018 73 16093 1.56 304.524 12:18 10.07.2019
5202 Clear 20 1017 83 16093 1.56 304.524 11:40 10.07.2019
5203 Clear 20 1017 83 16093 1.56 304.524 11:20 10.07.2019
5204 Clear 21 1017 78 16093 1.56 304.524 10:40 10.07.2019
5205 Mist 21 1017 78 16093 1.56 304.524 10:19 10.07.2019
5206 Clear 21 1017 78 16093 1.56 304.524 09:44 10.07.2019
5207 Clear 21 1017 78 16093 1.63 296.722 09:21 10.07.2019
5208 Clouds 22 1017 73 16093 1.11 325.135 08:50 10.07.2019
5209 Clouds 22 1017 69 16093 1.11 325.135 08:29 10.07.2019
5210 Clear 22 1017 65 16093 1.11 325.135 07:54 10.07.2019
5211 Clear 23 1017 65 16093 1.11 325.135 07:31 10.07.2019
5212 Clear 23 1017 65 16093 1.11 325.135 06:42 10.07.2019
5213 Clear 23 1017 57 16093 1.34 275.245 05:44 10.07.2019
5214 Clear 25 1017 51 16093 1.34 275.245 04:36 10.07.2019
5215 Clear 26 1017 48 16093 1.34 275.245 03:38 10.07.2019
5216 Clear 30 1016 40 16093 4.6 300 00:45 10.07.2019
5217 Rain 30 1016 29 16093 5.1 260 23:59 09.07.2019
5218 Rain 31 1016 33 16093 1.28 352.592 23:41 09.07.2019
5219 Rain 31 1016 33 16093 1.28 352.592 23:21 09.07.2019
5220 Clear 31 1016 33 16093 1.28 352.592 22:40 09.07.2019
5221 Clear 31 1016 33 16093 1.28 352.592 22:22 09.07.2019
5222 Clear 31 1017 33 16093 2.6 310 21:56 09.07.2019
5223 Clear 31 1017 33 16093 1.28 352.592 21:37 09.07.2019
5224 Clear 31 1017 33 16093 2.02 340.666 21:19 09.07.2019
5225 Clear 30 1017 33 16093 2.02 340.666 20:43 09.07.2019
5226 Clear 30 1017 33 16093 2.02 340.666 20:24 09.07.2019
5227 Clouds 30 1017 35 16093 2.02 340.666 19:40 09.07.2019
5228 Clear 30 1018 42 16093 2.6 0 19:21 09.07.2019
5229 Clouds 30 1018 37 16093 4.1 10 18:45 09.07.2019
5230 Clouds 30 1018 37 16093 4.1 10 18:45 09.07.2019
5231 Clouds 29 1018 37 16093 4.1 10 18:23 09.07.2019
5232 Clear 29 1019 51 16093 2.1 0 17:56 09.07.2019
5233 Clear 28 1018 39 16093 2.97 338.766 17:37 09.07.2019
5234 Clear 28 1017 54 16093 2.97 338.766 17:18 09.07.2019
5235 Clear 26 1018 73 16093 1.5 70 16:47 09.07.2019
5236 Clear 27 1017 54 16093 2.97 338.766 16:24 09.07.2019
5237 Clear 26 1018 69 16093 2.97 338.766 15:49 09.07.2019
5238 Clear 25 1018 69 16093 2.97 338.766 15:31 09.07.2019
5239 Haze 23 1018 73 16093 2.03 319.202 14:55 09.07.2019
5240 Haze 23 1018 78 16093 2.03 319.202 14:37 09.07.2019
5241 Mist 22 1018 100 11265 2.03 319.202 14:18 09.07.2019
5242 Mist 22 1018 100 11265 2.03 319.202 14:18 09.07.2019
5243 Mist 21 1017 88 16093 2.03 319.202 13:43 09.07.2019
5244 Mist 20 1017 88 16093 1.86 316.594 13:22 09.07.2019
5245 Fog 20 1017 88 16093 1.86 316.594 12:40 09.07.2019
5246 Fog 20 1017 88 16093 1.86 316.594 12:40 09.07.2019
5247 Fog 20 1017 88 16093 1.86 316.594 12:40 09.07.2019
5248 Fog 19 1017 88 16093 1.45 306.275 12:22 09.07.2019
5249 Mist 19 1017 88 16093 1.45 306.275 11:58 09.07.2019
5250 Mist 19 1017 88 16093 1.45 306.275 11:39 09.07.2019
5251 Mist 19 1017 88 16093 1.45 306.275 11:20 09.07.2019
5252 Mist 19 1017 82 16093 1.45 306.275 10:50 09.07.2019
5253 Mist 19 1017 82 16093 1.45 306.275 10:31 09.07.2019
5254 Clouds 19 1016 82 16093 1.45 306.275 09:42 09.07.2019
5255 Clear 19 1016 77 16093 1.8 264.001 09:22 09.07.2019
5256 Clouds 19 1016 82 16093 1.8 264.001 09:22 09.07.2019
5257 Clear 19 1016 77 16093 1.8 264.001 08:55 09.07.2019
5258 Clear 20 1016 82 16093 1.8 264.001 08:35 09.07.2019
5259 Haze 24 1020 83 3219 1.5 160 03:58 05.07.2019
5260 Clear 24 1020 88 16093 2.29 138.864 03:38 05.07.2019
5261 Clear 24 1020 88 16093 2.29 138.864 03:38 05.07.2019
5262 Clear 25 1019 69 16093 3.6 210 03:19 05.07.2019
5263 Clear 25 1019 74 16093 2.6 150 02:45 05.07.2019
5264 Clear 27 1019 65 16093 3.07 134.934 01:42 05.07.2019
5265 Clouds 28 1019 65 16093 5.1 150 01:23 05.07.2019
5266 Clear 28 1018 61 16093 3.6 150 00:46 05.07.2019
5267 Clear 30 1018 51 16093 5.1 140 23:56 04.07.2019
5268 Clouds 31 1018 33 16093 5.1 170 23:21 04.07.2019
5269 Clouds 31 1018 33 16093 5.1 170 22:58 04.07.2019
5270 Clear 31 1018 35 16093 5.1 140 22:40 04.07.2019
5271 Clear 31 1018 35 16093 5.1 140 22:19 04.07.2019
5272 Clear 32 1018 31 16093 4.6 170 21:40 04.07.2019
5273 Clouds 32 1018 38 16093 4.1 200 21:22 04.07.2019
5274 Clouds 32 1018 38 16093 4.1 200 20:58 04.07.2019
5275 Clear 32 1018 35 16093 5.1 170 20:37 04.07.2019
5276 Clouds 32 1018 38 16093 4.1 120 20:18 04.07.2019
5277 Clear 32 1019 35 16093 4.1 140 19:41 04.07.2019
5278 Clear 32 1019 33 16093 1.5 0 19:21 04.07.2019
5279 Clear 32 1019 37 16093 3.6 130 18:46 04.07.2019
5280 Clear 31 1019 37 16093 3.6 130 18:27 04.07.2019
5281 Rain 31 1018 45 16093 2.6 160 17:55 04.07.2019
5282 Rain 30 1018 45 16093 2.6 160 17:37 04.07.2019
5283 Rain 30 1019 65 12874 1.5 270 17:18 04.07.2019
5284 Haze 28 1018 65 16093 2.39 120.26 15:43 04.07.2019
5285 Haze 27 1018 65 16093 1.46 47.439 15:24 04.07.2019
5286 Haze 26 1018 83 24140 1.46 47.439 14:59 04.07.2019
5287 Haze 25 1018 74 16093 1.46 47.439 14:38 04.07.2019
5288 Haze 25 1018 74 16093 1.46 47.439 14:19 04.07.2019
5289 Mist 24 1018 100 24140 1.46 47.439 13:56 04.07.2019
5290 Mist 24 1017 83 11265 1.46 47.439 13:38 04.07.2019
5291 Haze 23 1017 83 11265 1.37 45.857 13:19 04.07.2019
5292 Haze 22 1017 83 11265 1.37 45.857 12:38 04.07.2019
5293 Haze 21 1017 83 11265 1.5 17.999 12:19 04.07.2019
5294 Haze 21 1016 88 16093 1.5 17.999 11:45 04.07.2019
5295 Haze 21 1016 88 16093 1.5 17.999 11:20 04.07.2019
5296 Mist 22 1016 83 16093 1.5 17.999 10:56 04.07.2019
5297 Mist 22 1016 83 16093 1.5 17.999 10:38 04.07.2019
5298 Mist 22 1016 83 16093 1.5 17.999 10:18 04.07.2019
5299 Haze 22 1015 83 16093 1.5 17.999 09:38 04.07.2019
5300 Haze 22 1015 83 16093 1.01 359.943 09:19 04.07.2019
5301 Clear 22 1015 78 16093 0.77 34.122 08:52 04.07.2019
5302 Clear 23 1015 78 16093 0.77 34.122 08:18 04.07.2019
5303 Mist 23 1015 78 16093 0.77 34.122 07:40 04.07.2019
5304 Clear 23 1015 78 16093 0.77 34.122 07:19 04.07.2019
5305 Clear 24 1015 74 16093 0.77 34.122 06:32 04.07.2019
5306 Clear 24 1014 69 16093 1.15 29.282 05:43 04.07.2019
5307 Clear 25 1014 69 11265 1.15 29.282 04:28 04.07.2019
5308 Clouds 28 1012 58 16093 0.95 26.403 02:23 04.07.2019
5309 Rain 29 1011 51 16093 2.1 160 01:27 04.07.2019
5310 Rain 29 1011 51 16093 2.6 160 00:51 04.07.2019
5311 Rain 30 1011 51 16093 1.05 73.703 23:53 03.07.2019
5312 Rain 30 1011 45 16093 1.5 60 23:21 03.07.2019
5313 Rain 30 1011 58 16093 2.1 110 22:57 03.07.2019
5314 Rain 30 1011 45 16093 3.1 280 22:38 03.07.2019
5315 Rain 30 1011 45 16093 3.1 280 22:20 03.07.2019
5316 Rain 30 1012 66 16093 1.5 140 21:55 03.07.2019
5317 Rain 30 1012 48 16093 1.69 76.835 21:36 03.07.2019
5318 Clouds 30 1012 62 16093 2.1 40 20:57 03.07.2019
5319 Clouds 29 1012 51 16093 1.19 322.995 20:37 03.07.2019
5320 Clouds 29 1012 51 16093 1.19 322.995 20:19 03.07.2019
5321 Clouds 29 1012 54 16093 2.6 320 19:44 03.07.2019
5322 Clouds 29 1012 54 16093 2.6 320 19:25 03.07.2019
5323 Clouds 28 1012 51 16093 1.19 322.995 18:45 03.07.2019
5324 Clouds 28 1012 51 16093 1.76 342.502 18:23 03.07.2019
5325 Clouds 28 1012 54 16093 1.76 342.502 17:51 03.07.2019
5326 Clouds 28 1012 58 16093 1.76 342.502 17:20 03.07.2019
5327 Clouds 28 1012 69 16093 1.76 342.502 16:58 03.07.2019
5328 Clear 27 1011 61 16093 1.76 342.502 16:39 03.07.2019
5329 Clear 27 1011 65 16093 1.76 342.502 16:18 03.07.2019
5330 Clear 27 1011 65 16093 1.76 342.502 15:46 03.07.2019
5331 Clear 26 1011 65 16093 1.57 316.545 15:27 03.07.2019
5332 Clouds 26 1011 65 16093 1.57 316.545 14:49 03.07.2019
5333 Clouds 25 1011 65 16093 1.57 316.545 14:22 03.07.2019
5334 Clouds 25 1011 83 16093 1.57 316.545 13:50 03.07.2019
5335 Clear 24 1010 69 16093 1.61 330.542 13:31 03.07.2019
5336 Clouds 23 1010 78 16093 1.61 330.542 12:54 03.07.2019
5337 Clear 23 1010 78 16093 1.53 326.954 12:20 03.07.2019
5338 Clouds 23 1009 69 16093 3.1 330 11:58 03.07.2019
5339 Clear 23 1009 73 16093 1.53 326.954 11:39 03.07.2019
5340 Clear 23 1009 73 16093 1.53 326.954 11:20 03.07.2019
5341 Clear 23 1009 78 16093 1.53 326.954 10:41 03.07.2019
5342 Clear 23 1009 78 16093 1.53 326.954 10:22 03.07.2019
5343 Drizzle 23 1009 73 16093 1.53 326.954 09:42 03.07.2019
5344 Rain 24 1009 78 16093 1.5 300 09:21 03.07.2019
5345 Rain 24 1009 78 16093 1.5 300 08:53 03.07.2019
5346 Rain 24 1009 73 16093 1.59 312.495 08:32 03.07.2019
5347 Rain 24 1009 73 16093 1.59 312.495 08:32 03.07.2019
5348 Rain 24 1009 73 16093 1.28 302.885 07:53 03.07.2019
5349 Rain 24 1009 73 16093 1.28 302.885 07:35 03.07.2019
5350 Clouds 24 1009 69 16093 1.28 302.885 06:48 03.07.2019
5351 Rain 25 1009 65 16093 1.35 303.608 05:53 03.07.2019
5352 Rain 25 1009 65 16093 1.35 303.608 05:21 03.07.2019
5353 Rain 26 1008 65 16093 3.1 290 03:36 03.07.2019
5354 Clear 27 1007 48 16093 2.31 283.477 02:43 03.07.2019
5355 Clouds 28 1007 51 16093 2.8 280.081 01:23 03.07.2019
5356 Clouds 29 1007 51 16093 2.8 280.081 00:58 03.07.2019
5357 Clouds 29 1007 46 16093 5.1 310 00:36 03.07.2019
5358 Rain 30 1008 54 16093 2.1 140 23:54 02.07.2019
5359 Rain 30 1008 48 16093 2.6 300 23:36 02.07.2019
5360 Rain 30 1009 54 16093 2.1 260 23:18 02.07.2019
5361 Clouds 30 1008 45 16093 3.69 277.31 22:41 02.07.2019
5362 Clouds 30 1009 51 16093 3.69 277.31 22:22 02.07.2019
5363 Clouds 30 1008 51 16093 3.69 277.31 21:57 02.07.2019
5364 Clouds 29 1009 45 16093 3.1 290 21:38 02.07.2019
5365 Clouds 29 1010 51 16093 1.5 0 21:19 02.07.2019
5366 Clouds 29 1009 45 16093 4.6 300 20:42 02.07.2019
5367 Clouds 29 1010 48 16093 2.1 0 20:24 02.07.2019
5368 Clouds 29 1009 42 16093 5.7 320 19:59 02.07.2019
5369 Clouds 29 1009 42 16093 3.1 290 19:40 02.07.2019
5370 Clouds 29 1009 40 16093 3.1 250 19:21 02.07.2019
5371 Clouds 29 1010 42 16093 4.6 290 18:45 02.07.2019
5372 Clouds 29 1011 51 16093 1.5 0 18:18 02.07.2019
5373 Clear 29 1010 45 16093 3.1 290 17:41 02.07.2019
5374 Clear 29 1010 45 16093 3.1 290 17:22 02.07.2019
5375 Clear 28 1011 45 16093 4.6 290 16:49 02.07.2019
5376 Clear 28 1011 45 16093 4.6 290 16:31 02.07.2019
5377 Clear 26 1011 50 16093 4.1 280 15:46 02.07.2019
5378 Clear 25 1011 50 16093 4.1 280 15:25 02.07.2019
5379 Clear 24 1012 60 16093 2.24 279.626 14:56 02.07.2019
5380 Clear 24 1012 57 16093 4.1 290 14:38 02.07.2019
5381 Clear 22 1012 60 16093 3.1 280 13:58 02.07.2019
5382 Clear 22 1012 60 16093 2.6 280 13:36 02.07.2019
5383 Clear 21 1012 64 16093 2.1 0 13:18 02.07.2019
5384 Clear 20 1012 64 16093 2.06 278.634 12:43 02.07.2019
5385 Clear 20 1012 64 16093 1.34 261.761 12:22 02.07.2019
5386 Clear 20 1012 68 16093 1.34 261.761 11:43 02.07.2019
5387 Clear 20 1012 68 16093 1.34 261.761 11:43 02.07.2019
5388 Clear 20 1012 68 16093 1.34 261.761 11:23 02.07.2019
5389 Clear 20 1013 64 16093 3.1 240 10:54 02.07.2019
5390 Clouds 20 1012 73 16093 2.1 190 10:26 02.07.2019
5391 Clouds 21 1012 64 16093 1.34 261.761 09:49 02.07.2019
5392 Clouds 21 1012 60 16093 3.1 250 09:22 02.07.2019
5393 Clear 21 1012 60 16093 1.63 290.375 08:56 02.07.2019
5394 Clear 21 1012 64 16093 1.72 288.34 08:36 02.07.2019
5395 Clear 21 1013 56 16093 1.5 250 07:58 02.07.2019
5396 Clear 22 1013 56 16093 1.72 288.34 07:21 02.07.2019
5397 Clear 22 1013 56 16093 1.72 288.34 07:21 02.07.2019
5398 Clouds 22 1012 47 16093 3.6 290 06:55 02.07.2019
5399 Clear 23 1013 53 16093 3.6 280 06:36 02.07.2019
5400 Clear 23 1013 47 16093 3.6 280 05:26 02.07.2019
5401 Clear 27 1012 37 16093 3.1 290 02:37 02.07.2019
5402 Rain 29 1012 35 16093 4.1 300 00:26 02.07.2019
5403 Rain 30 1012 33 16093 4.1 300 23:30 01.07.2019
5404 Clouds 30 1013 35 16093 3.6 320 22:54 01.07.2019
5405 -273 0 0 0 0 0 22:36 01.07.2019
5406 Rain 30 1013 35 16093 1.5 300 22:18 01.07.2019
5407 Rain 29 1013 35 16093 2.6 300 21:43 01.07.2019
5408 Rain 29 1012 33 16093 3.6 330 21:24 01.07.2019
5409 Rain 29 1013 35 16093 4.1 310 20:46 01.07.2019
5410 Rain 29 1013 35 16093 4.1 310 20:20 01.07.2019
5411 Rain 29 1014 37 16093 4.1 300 19:54 01.07.2019
5412 Rain 28 1014 37 16093 4.1 300 19:36 01.07.2019
5413 Rain 28 1014 42 16093 3.6 270 19:18 01.07.2019
5414 Rain 28 1014 42 16093 2.1 0 18:42 01.07.2019
5415 Clouds 27 1014 42 16093 3.6 360 18:21 01.07.2019
5416 Clear 26 1014 44 16093 3.1 260 17:45 01.07.2019
5417 Clear 26 1014 44 16093 3.1 260 17:25 01.07.2019
5418 Clear 25 1014 47 16093 3.6 360 16:57 01.07.2019
5419 Clear 25 1014 47 16093 2.07 327.222 16:39 01.07.2019
5420 Clear 24 1014 53 16093 2.6 240 16:20 01.07.2019
5421 Rain 23 1014 53 16093 2.07 327.222 15:43 01.07.2019
5422 Rain 23 1014 60 16093 2.1 0 15:23 01.07.2019
5423 Clear 21 1014 56 16093 1.63 333.812 14:44 01.07.2019
5424 Clear 21 1014 68 16093 3.1 220 14:20 01.07.2019
5425 Clear 20 1014 64 16093 1.63 333.812 13:47 01.07.2019
5426 Clear 19 1013 72 16093 2.1 0 13:24 01.07.2019
5427 Clear 18 1013 68 16093 1.88 328.722 12:57 01.07.2019
5428 Clear 18 1013 68 16093 1.88 328.722 12:38 01.07.2019
5429 Clear 18 1013 72 16093 2.1 0 12:19 01.07.2019
5430 Clear 18 1013 68 16093 2.29 325.33 11:44 01.07.2019
5431 Clear 18 1013 64 16093 2.1 0 11:22 01.07.2019
5432 Clear 18 1013 63 16093 2.29 325.33 10:48 01.07.2019
5433 Clear 18 1013 68 16093 2.29 325.33 10:25 01.07.2019
5434 Clear 18 1013 63 16093 2.29 325.33 09:59 01.07.2019
5435 Clear 19 1013 63 16093 2.29 325.33 09:40 01.07.2019
5436 Clear 19 1013 60 16093 2.1 270 09:21 01.07.2019
5437 Clear 19 1013 60 16093 3.31 330.483 08:39 01.07.2019
5438 Clear 19 1013 60 16093 2.1 250 08:21 01.07.2019
5439 Clear 20 1012 60 16093 2.1 0 07:28 01.07.2019
5440 Clear 21 1012 56 16093 1.5 0 06:30 01.07.2019
5441 Clear 25 1010 44 16093 3.71 335.024 02:27 01.07.2019
5442 Clear 26 1008 34 16093 6.7 360 00:51 01.07.2019
5443 Clouds 26 1009 41 16093 5.89 338.665 00:30 01.07.2019
5444 Clouds 26 1007 39 16093 9.3 320 23:58 30.06.2019
5445 Clear 27 1008 45 16093 2.1 0 23:23 30.06.2019
5446 Rain 26 1007 37 16093 4.1 20 22:53 30.06.2019
5447 Rain 26 1008 51 16093 2.6 0 22:22 30.06.2019
5448 Rain 26 1007 54 16093 5.1 340 21:57 30.06.2019
5449 Rain 26 1007 30 16093 9.3 330 21:38 30.06.2019
5450 Rain 28 1007 35 16093 1.5 0 21:18 30.06.2019
5451 Clouds 29 1007 33 16093 7.7 320 20:41 30.06.2019
5452 Clouds 29 1007 39 16093 2.6 0 20:22 30.06.2019
5453 Clouds 29 1007 37 16093 8.7 340 19:48 30.06.2019
5454 Clouds 29 1008 42 16093 2.1 0 19:25 30.06.2019
5455 Clouds 28 1007 42 16093 7.7 310 18:47 30.06.2019
5456 Clear 28 1007 40 16093 2.6 0 18:22 30.06.2019
5457 Clouds 28 1008 48 16093 5.7 310 17:41 30.06.2019
5458 Clear 28 1007 45 16093 2.6 0 17:19 30.06.2019
5459 Clear 27 1008 47 16093 5.1 320 16:52 30.06.2019
5460 Clear 27 1008 47 16093 5.1 320 16:33 30.06.2019
5461 Clear 26 1007 54 16093 3.6 290 15:58 30.06.2019
5462 Clear 25 1009 64 16093 1.5 0 15:36 30.06.2019
5463 Clear 25 1009 64 16093 1.5 0 15:18 30.06.2019
5464 Clear 24 1009 69 16093 5.7 320 14:43 30.06.2019
5465 Clear 24 1009 73 16093 2.1 260 14:24 30.06.2019
5466 Clear 23 1009 78 16093 4.6 310 13:43 30.06.2019
5467 Clear 22 1009 83 16093 2.1 270 13:20 30.06.2019
5468 Clear 22 1009 88 16093 5.18 316.212 12:48 30.06.2019
5469 Clear 21 1009 83 16093 3.6 250 12:25 30.06.2019
5470 Clouds 21 1009 88 16093 3.52 301.745 11:55 30.06.2019
5471 Clouds 21 1009 88 16093 3.52 301.745 11:36 30.06.2019
5472 Clear 21 1009 88 16093 3.6 190 11:18 30.06.2019
5473 Clear 21 1009 88 16093 3.6 190 11:18 30.06.2019
5474 Clouds 22 1009 83 16093 3.52 301.745 10:40 30.06.2019
5475 Clouds 22 1009 88 16093 2.1 240 10:19 30.06.2019
5476 Clouds 22 1009 83 16093 3.6 290 09:44 30.06.2019
5477 Clouds 22 1009 83 16093 3.6 290 09:44 30.06.2019
5478 Clouds 22 1009 88 16093 2.1 240 09:23 30.06.2019
5479 Clear 22 1009 78 16093 1.5 310 08:59 30.06.2019
5480 Clouds 22 1010 88 16093 3.49 307.294 08:38 30.06.2019
5481 Clear 22 1011 88 16093 3.1 260 08:18 30.06.2019
5482 Clear 22 1011 83 16093 4.1 270 07:37 30.06.2019
5483 Clear 22 1011 88 16093 3.6 260 07:18 30.06.2019
5484 Clear 22 1011 83 16093 4.1 270 06:18 30.06.2019
5485 Clear 23 1013 78 16093 3.6 250 03:25 30.06.2019
5486 Rain 25 1012 78 16093 3.1 270 01:31 30.06.2019
5487 Rain 26 1010 61 16093 2.6 0 00:38 30.06.2019
5488 Rain 25 1010 61 16093 2.6 0 00:38 30.06.2019
5489 Rain 26 1010 61 16093 2.6 0 00:38 30.06.2019
5490 Rain 26 1012 73 16093 3.6 260 00:18 30.06.2019
5491 Rain 28 1012 61 16093 3.1 170 23:36 29.06.2019
5492 Rain 30 1013 69 2816 3.6 310 23:18 29.06.2019
5493 Rain 32 1012 43 16093 3.1 280 22:42 29.06.2019
5494 Rain 32 1012 43 16093 5.1 260 22:21 29.06.2019
5495 Clouds 32 1013 41 16093 3.6 290 21:52 29.06.2019
5496 Clouds 33 1013 44 16093 3.1 250 21:23 29.06.2019
5497 Clear 33 1014 43 16093 3.1 300 20:45 29.06.2019
5498 Clear 33 1015 38 16093 1.5 0 20:27 29.06.2019
5499 Clear 33 1014 38 16093 4.1 290 19:55 29.06.2019
5500 Clear 32 1015 41 16093 2.1 210 19:36 29.06.2019
5501 Clear 32 1015 41 16093 2.1 210 19:18 29.06.2019
5502 Clear 32 1016 43 16093 2.6 320 18:44 29.06.2019
5503 Clear 31 1016 49 14484 2.6 0 18:22 29.06.2019
5504 Clear 30 1016 52 16093 2.1 350 17:37 29.06.2019
5505 Clear 30 1017 62 16093 2.1 240 17:19 29.06.2019
5506 Rain 29 1017 61 16093 2.6 280 16:42 29.06.2019
5507 Clear 28 1016 58 16093 2.1 300 15:59 29.06.2019
5508 Clear 27 1017 65 16093 2.23 278.91 15:32 29.06.2019
5509 Clear 25 1017 73 16093 1.44 258.674 14:46 29.06.2019
5510 Clear 25 1017 83 16093 1.5 250 14:27 29.06.2019
5511 Clear 25 1017 83 16093 1.5 250 14:27 29.06.2019
5512 Clear 24 1017 83 16093 1.44 258.674 13:55 29.06.2019
5513 Clear 23 1017 83 16093 1.61 266.838 13:36 29.06.2019
5514 Clear 23 1018 83 16093 2.1 230 13:18 29.06.2019
5515 Clear 22 1017 83 16093 1.61 266.838 12:39 29.06.2019
5516 Clear 22 1018 83 16093 1.5 260 12:21 29.06.2019
5517 Clear 22 1017 78 16093 1.55 239.717 11:43 29.06.2019
5518 Clear 22 1018 78 16093 1.5 260 11:25 29.06.2019
5519 Clear 22 1018 78 16093 1.55 239.717 10:49 29.06.2019
5520 Clear 22 1018 73 16093 2.1 240 10:21 29.06.2019
5521 Clear 22 1017 73 16093 1.5 180 09:57 29.06.2019
5522 Clear 22 1017 73 16093 1.5 180 09:57 29.06.2019
5523 Clear 23 1017 73 16093 1.89 227.12 08:55 29.06.2019
5524 Clear 23 1019 69 16093 1.5 270 08:31 29.06.2019
5525 Clear 23 1019 69 16093 1.65 240.402 07:45 29.06.2019
5526 Clear 24 1019 61 16093 1.65 240.402 06:55 29.06.2019
5527 Clear 24 1019 61 16093 1.65 240.402 06:36 29.06.2019
5528 Clear 24 1019 57 16093 2.6 260 06:18 29.06.2019
5529 Rain 28 1019 35 16093 3.6 190 01:54 29.06.2019
5530 Clear 30 1019 35 16093 3.6 180 00:51 29.06.2019
5531 Clear 31 1020 43 16093 3.1 250 23:54 28.06.2019
5532 Clear 32 1020 43 16093 3.1 250 23:22 28.06.2019
5533 Rain 32 1020 33 16093 3.1 180 22:47 28.06.2019
5534 Rain 32 1020 43 16093 3.6 230 22:22 28.06.2019
5535 Clouds 32 1020 35 16093 4.1 190 21:46 28.06.2019
5536 Clouds 32 1021 40 16093 6.2 290 21:20 28.06.2019
5537 Clouds 32 1021 33 16093 1.55 237.08 20:43 28.06.2019
5538 Clear 32 1021 38 16093 2.6 0 20:20 28.06.2019
5539 Clouds 32 1021 31 16093 1.55 237.08 19:42 28.06.2019
5540 Clear 32 1022 40 16093 2.6 260 19:24 28.06.2019
5541 Clear 31 1022 43 16093 2.1 260 18:42 28.06.2019
5542 Clear 31 1022 43 16093 2.1 260 18:22 28.06.2019
5543 Clear 31 1022 35 16093 0.9 104.486 17:54 28.06.2019
5544 Clouds 30 1022 35 16093 1.5 0 17:29 28.06.2019
5545 Clouds 30 1022 35 16093 0.9 104.486 16:48 28.06.2019
5546 Clear 29 1023 51 16093 2.6 260 16:23 28.06.2019
5547 Clear 28 1022 37 16093 0.9 104.486 15:48 28.06.2019
5548 Clear 27 1022 57 16093 2.1 270 15:19 28.06.2019
5549 Clear 25 1022 47 16093 1.2 14.683 14:42 28.06.2019
5550 Clear 25 1022 64 16093 1.2 14.683 14:22 28.06.2019
5551 Clear 24 1022 57 16093 1.2 14.683 13:50 28.06.2019
5552 Clear 23 1021 73 16093 1.3 11.95 13:30 28.06.2019
5553 Clear 22 1021 69 16093 1.5 330 12:54 28.06.2019
5554 Clear 21 1021 64 16093 1.3 11.95 12:36 28.06.2019
5555 Clear 20 1021 64 16093 1.05 355.009 11:47 28.06.2019
5556 Mist 20 1021 73 16093 1.05 355.009 11:19 28.06.2019
5557 Clear 20 1021 68 16093 1.05 355.009 10:44 28.06.2019
5558 Clear 20 1021 68 16093 1.05 355.009 10:44 28.06.2019
5559 Clear 20 1021 64 16093 1.05 355.009 10:21 28.06.2019
5560 Clear 21 1021 64 16093 1.05 355.009 09:47 28.06.2019
5561 Clear 21 1021 53 16093 3.6 50 09:29 28.06.2019
5562 Clear 22 1021 57 16093 1.53 346.807 08:45 28.06.2019
5563 Clear 22 1021 47 16093 3.1 50 08:25 28.06.2019
5564 Clear 22 1021 57 16093 1.53 346.807 07:46 28.06.2019
5565 Clear 23 1021 53 16093 1.53 346.807 06:57 28.06.2019
5566 Clear 24 1020 47 16093 1.52 342.09 05:55 28.06.2019
5567 Clear 30 1019 40 16093 2.1 110 01:22 28.06.2019
5568 Rain 31 1019 31 16093 2.6 10 00:33 28.06.2019
5569 Rain 31 1019 31 16093 2.62 345.498 23:49 27.06.2019
5570 Rain 32 1019 33 16093 4.1 270 23:25 27.06.2019
5571 Clear 32 1019 29 16093 1.5 340 22:56 27.06.2019
5572 Clear 32 1020 33 16093 1.5 0 22:37 27.06.2019
5573 Clear 32 1020 33 16093 1.5 0 22:18 27.06.2019
5574 Clouds 32 1019 45 16093 6.7 200 21:48 27.06.2019
5575 Clouds 32 1019 45 16093 6.7 200 21:29 27.06.2019
5576 Clouds 32 1019 26 16093 5.1 290 20:55 27.06.2019
5577 Clouds 32 1019 26 16093 5.1 290 20:37 27.06.2019
5578 Clouds 32 1019 26 16093 5.1 290 20:19 27.06.2019
5579 Clear 32 1020 31 16093 5.1 330 19:44 27.06.2019
5580 Clouds 31 1020 38 16093 1.5 0 19:24 27.06.2019
5581 Clouds 31 1020 33 16093 4.1 290 18:42 27.06.2019
5582 Clear 31 1020 38 16093 1.5 0 18:19 27.06.2019
5583 Clear 30 1021 48 16093 3.1 0 17:43 27.06.2019
5584 Clear 30 1021 48 16093 3.1 0 17:22 27.06.2019
5585 Clear 29 1021 42 16093 2.47 328.088 16:40 27.06.2019
5586 Clear 29 1021 54 16093 2.6 0 16:19 27.06.2019
5587 Clear 28 1020 45 16093 2.1 340 15:55 27.06.2019
5588 Clear 28 1021 48 16093 2.1 330 15:36 27.06.2019
5589 Clear 26 1021 54 16093 1.79 312.967 14:58 27.06.2019
5590 Clear 25 1021 54 16093 1.79 312.967 14:39 27.06.2019
5591 Clear 25 1021 69 16093 1.79 312.967 14:19 27.06.2019
5592 Clear 24 1020 64 16093 2.23 314.818 13:43 27.06.2019
5593 Clear 23 1020 73 16093 2.1 190 13:25 27.06.2019
5594 Clear 22 1020 78 16093 2.23 314.818 12:49 27.06.2019
5595 Clear 22 1020 78 16093 2.23 314.818 12:49 27.06.2019
5596 Mist 21 1020 73 16093 2.15 323.562 12:28 27.06.2019
5597 Clear 21 1019 78 16093 2.15 323.562 11:47 27.06.2019
5598 Clear 21 1019 73 16093 2.15 323.562 11:24 27.06.2019
5599 Clear 21 1019 73 16093 2.15 323.562 10:58 27.06.2019
5600 Clear 21 1019 73 16093 2.15 323.562 10:40 27.06.2019
5601 Clear 22 1019 69 16093 1.5 130 10:19 27.06.2019
5602 Clouds 22 1018 69 16093 2.15 323.562 09:41 27.06.2019
5603 Clouds 22 1018 69 16093 2.68 317.314 09:20 27.06.2019
5604 Clouds 22 1018 100 16093 2.63 318.212 08:50 27.06.2019
5605 Clear 23 1018 65 16093 2.63 318.212 08:28 27.06.2019
5606 Clear 23 1018 69 16093 2.63 318.212 07:46 27.06.2019
5607 Clear 23 1018 73 16093 1.5 250 06:58 27.06.2019
5608 Clear 24 1018 57 16093 2.1 310 06:32 27.06.2019
5609 Clear 26 1017 42 16093 2.8 296.72 03:52 27.06.2019
5610 Clear 27 1016 40 16093 4.49 249.616 02:43 27.06.2019
5611 Clear 29 1016 35 16093 3.1 280 01:39 27.06.2019
5612 Clear 31 1016 35 16093 4.6 290 00:52 27.06.2019
5613 Clear 31 1016 43 16093 2.1 0 00:27 27.06.2019
5614 Clear 31 1016 35 16093 3.6 270 23:51 26.06.2019
5615 Clear 31 1016 40 14484 2.6 240 23:23 26.06.2019
5616 Clear 31 1016 40 14484 2.6 240 22:59 26.06.2019
5617 Clear 31 1016 33 16093 4.6 280 22:40 26.06.2019
5618 Clear 31 1016 33 16093 4.6 280 22:40 26.06.2019
5619 Clear 31 1016 40 16093 2.6 210 22:20 26.06.2019
5620 Clear 31 1016 33 16093 3.53 256.176 21:43 26.06.2019
5621 Clear 31 1016 38 14484 2.1 250 21:21 26.06.2019
5622 Clear 31 1015 33 16093 3.6 320 20:58 26.06.2019
5623 Clear 31 1016 35 16093 2.1 270 20:39 26.06.2019
5624 Clear 31 1016 35 16093 2.1 270 20:39 26.06.2019
5625 Clear 31 1016 43 16093 2.6 210 20:21 26.06.2019
5626 Rain 30 1016 37 16093 3.6 300 19:44 26.06.2019
5627 Rain 30 1017 38 16093 3.1 0 19:25 26.06.2019
5628 Clear 29 1017 39 16093 2.1 320 18:48 26.06.2019
5629 Clear 29 1017 40 16093 3.1 260 18:23 26.06.2019
5630 Clear 29 1017 42 16093 2.6 350 17:59 26.06.2019
5631 Clear 28 1017 42 16093 2.6 350 17:38 26.06.2019
5632 Clear 28 1017 51 16093 2.6 230 17:19 26.06.2019
5633 Clear 28 1017 47 16093 2.43 306.752 16:46 26.06.2019
5634 Clear 27 1017 54 16093 2.6 0 16:24 26.06.2019
5635 Clear 26 1017 54 16093 2.6 340 15:42 26.06.2019
5636 Clear 25 1017 69 16093 1.54 317.156 15:23 26.06.2019
5637 Clear 24 1017 57 16093 2.6 320 14:38 26.06.2019
5638 Clouds 23 1017 73 16093 2.1 280 14:20 26.06.2019
5639 Clouds 22 1017 68 16093 1.54 317.156 13:44 26.06.2019
5640 Clouds 22 1016 78 16093 3.6 50 13:21 26.06.2019
5641 Mist 21 1016 68 16093 1.91 324.605 12:43 26.06.2019
5642 Mist 21 1016 83 16093 2.3 331.362 12:25 26.06.2019
5643 Mist 21 1015 64 16093 2.3 331.362 11:51 26.06.2019
5644 Mist 21 1015 83 16093 2.3 331.362 11:23 26.06.2019
5645 Mist 21 1015 60 16093 2.3 331.362 10:48 26.06.2019
5646 Mist 22 1015 73 16093 2.1 0 10:29 26.06.2019
5647 Mist 22 1014 83 16093 2.3 331.362 09:51 26.06.2019
5648 Mist 22 1014 83 16093 3.54 332.08 09:26 26.06.2019
5649 Fog 22 1013 60 16093 4.6 340 08:52 26.06.2019
5650 Fog 22 1013 83 16093 1.5 200 08:21 26.06.2019
5651 Clear 22 1013 64 16093 2.99 332.347 07:55 26.06.2019
5652 Clear 22 1013 88 16093 2.99 332.347 07:35 26.06.2019
5653 Clear 23 1013 69 16093 2.99 332.347 06:32 26.06.2019
5654 Clouds 28 1010 58 16093 2.8 313.453 01:36 26.06.2019
5655 Clouds 29 1010 62 16093 2.65 229.523 00:32 26.06.2019
5656 Clouds 30 1009 55 16093 1.5 280 23:49 25.06.2019
5657 Clouds 30 1009 55 16093 1.5 280 23:31 25.06.2019
5658 Clouds 29 1009 58 16093 1.5 0 22:59 25.06.2019
5659 Clouds 29 1009 58 16093 3.6 300 22:41 25.06.2019
5660 Clouds 29 1010 62 16093 1.5 0 22:22 25.06.2019
5661 Clouds 28 1009 65 16093 3.6 320 21:46 25.06.2019
5662 Clouds 28 1010 65 16093 2.1 260 21:25 25.06.2019
5663 Rain 27 1010 65 16093 3.1 290 20:48 25.06.2019
5664 Rain 27 1010 65 16093 3.1 290 20:48 25.06.2019
5665 Rain 26 1010 78 16093 2.1 260 20:24 25.06.2019
5666 Rain 26 1010 78 16093 2.1 260 20:24 25.06.2019
5667 Clouds 26 1009 74 16093 2.6 270 19:56 25.06.2019
5668 Clouds 26 1011 78 12874 1.63 269.649 19:56 25.06.2019
5669 Mist 26 1009 78 11265 1.63 269.649 19:37 25.06.2019
5670 Mist 25 1010 83 16093 2.1 230 19:19 25.06.2019
5671 Mist 24 1010 78 16093 1.5 300 18:42 25.06.2019
5672 Mist 24 1010 88 16093 1.5 210 18:23 25.06.2019
5673 -273 0 0 0 0 0 17:44 25.06.2019
5674 Mist 23 1010 94 14484 0.4 170.797 17:24 25.06.2019
5675 Mist 23 1010 94 14484 0.4 170.797 17:24 25.06.2019
5676 Mist 23 1010 94 14484 0.4 170.797 17:23 25.06.2019
5677 Rain 22 1011 100 3219 0.4 170.797 16:44 25.06.2019
5678 Rain 22 1010 100 11265 0.4 170.797 16:25 25.06.2019
5679 Mist 22 1009 88 8047 1.5 150 15:54 25.06.2019
5680 Rain 22 1010 100 11265 4.1 130 15:36 25.06.2019
5681 Rain 22 1010 94 16093 2.1 0 15:18 25.06.2019
5682 Rain 22 1011 100 4023 1.5 0 14:42 25.06.2019
5683 Rain 22 1010 94 16093 4.1 40 14:23 25.06.2019
5684 Rain 22 1011 94 4023 1.56 143.835 13:42 25.06.2019
5685 Rain 22 1011 94 1609 1.5 310 13:21 25.06.2019
5686 Rain 22 1010 100 4828 1.5 0 12:42 25.06.2019
5687 Rain 22 1009 94 3219 3.6 60 12:24 25.06.2019
5688 Rain 22 1011 88 16093 2.6 0 11:45 25.06.2019
5689 Thunderstorm 22 1010 83 16093 3.1 140 11:23 25.06.2019
5690 Thunderstorm 22 1010 83 16093 3.1 140 11:23 25.06.2019
5691 Thunderstorm 22 1010 83 16093 2.6 60 10:56 25.06.2019
5692 Thunderstorm 22 1010 83 16093 2.6 60 10:36 25.06.2019
5693 Clouds 22 1010 83 16093 1.5 100 10:18 25.06.2019
5694 Clouds 22 1010 78 16093 1.6 174.9 09:39 25.06.2019
5695 Clouds 22 1010 83 16093 1.49 147.237 09:21 25.06.2019
5696 Clouds 22 1010 83 16093 1.49 147.237 09:21 25.06.2019
5697 Clouds 22 1010 73 16093 1.49 147.237 08:52 25.06.2019
5698 Clear 22 1010 73 16093 1.25 134.676 08:31 25.06.2019
5699 Clouds 22 1010 69 16093 1.25 134.676 07:44 25.06.2019
5700 Clear 22 1011 69 16093 2.1 260 07:25 25.06.2019
5701 Clear 23 1010 64 16093 1.25 134.676 06:44 25.06.2019
5702 Clouds 23 1009 65 16093 2.1 160 05:56 25.06.2019
5703 Clear 25 1010 54 16093 2.6 170 02:43 25.06.2019
5704 Clear 27 1009 42 16093 3.1 190 00:56 25.06.2019
5705 Clear 27 1011 51 16093 3.6 170 00:20 25.06.2019
5706 Clear 28 1011 32 16093 2.05 246.768 23:51 24.06.2019
5707 Clear 28 1011 42 16093 2.6 200 23:32 24.06.2019
5708 Clear 28 1011 32 16093 2.05 246.768 22:48 24.06.2019
5709 Clear 29 1011 51 16093 3.6 220 22:22 24.06.2019
5710 Rain 29 1010 35 16093 3.6 270 21:58 24.06.2019
5711 Rain 28 1011 30 16093 4.1 290 21:37 24.06.2019
5712 Rain 28 1012 45 16093 3.6 230 21:18 24.06.2019
5713 Clear 29 1011 32 16093 3.1 270 20:43 24.06.2019
5714 Clear 29 1012 39 16093 3.1 220 20:23 24.06.2019
5715 Clear 29 1011 33 16093 1.5 0 19:58 24.06.2019
5716 Clear 29 1012 32 16093 3.1 300 19:39 24.06.2019
5717 Clear 29 1012 37 16093 2.1 240 19:21 24.06.2019
5718 Clouds 29 1012 34 16093 2.93 228.219 18:42 24.06.2019
5719 Clear 29 1012 42 16093 2.1 230 18:23 24.06.2019
5720 Clear 28 1012 37 16093 1.65 249.122 17:37 24.06.2019
5721 Clear 28 1012 37 16093 1.65 249.122 17:37 24.06.2019
5722 Clear 28 1013 37 16093 1.5 250 17:18 24.06.2019
5723 Clear 27 1012 36 16093 1.65 249.122 16:45 24.06.2019
5724 Clear 26 1013 44 16093 2.1 0 16:20 24.06.2019
5725 Clear 26 1013 44 16093 2.1 0 16:20 24.06.2019
5726 Clear 26 1012 47 16093 1.65 249.122 15:44 24.06.2019
5727 Clear 24 1013 68 16093 2.1 230 15:25 24.06.2019
5728 Clear 22 1013 53 16093 1.29 291.191 14:39 24.06.2019
5729 Clear 22 1013 68 16093 2.1 250 14:21 24.06.2019
5730 Clear 21 1013 64 16093 1.29 291.191 13:44 24.06.2019
5731 Clear 19 1013 72 16093 3.1 260 13:23 24.06.2019
5732 Clear 18 1012 72 16093 1.48 278.048 12:42 24.06.2019
5733 Clear 17 1012 72 16093 2.1 230 12:20 24.06.2019
5734 Clear 17 1012 68 16093 1.4 297.499 11:45 24.06.2019
5735 Clear 17 1012 68 16093 2.1 250 11:27 24.06.2019
5736 Clear 17 1012 63 16093 1.4 297.499 10:53 24.06.2019
5737 Clear 17 1012 63 16093 1.4 297.499 10:53 24.06.2019
5738 Clear 17 1012 63 16093 1.4 297.499 10:34 24.06.2019
5739 Clear 18 1011 68 16093 1.4 297.499 09:57 24.06.2019
5740 Clear 18 1011 68 16093 1.4 297.499 09:57 24.06.2019
5741 Clear 18 1012 63 16093 1.4 297.499 09:39 24.06.2019
5742 Clear 19 1012 60 16093 1.5 240 09:18 24.06.2019
5743 Clear 19 1012 60 16093 1.66 314.412 08:41 24.06.2019
5744 Clear 20 1012 53 16093 1.66 314.412 08:18 24.06.2019
5745 Clear 20 1012 53 16093 1.66 314.412 07:41 24.06.2019
5746 Clear 21 1012 56 16093 2.1 0 07:22 24.06.2019
5747 Clear 22 1012 50 16093 2.6 0 06:24 24.06.2019
5748 Clear 23 1012 47 16093 3.6 280 05:41 24.06.2019
5749 Clear 23 1012 41 16093 3.1 280 04:43 24.06.2019
5750 Clear 24 1012 44 16093 4.1 270 03:48 24.06.2019
5751 Clear 26 1012 34 16093 2.6 280 02:48 24.06.2019
5752 Clear 27 1011 39 16093 4.1 260 01:55 24.06.2019
5753 Clear 28 1012 32 16093 4.1 300 01:33 24.06.2019
5754 Clear 28 1013 30 16093 4.6 300 00:55 24.06.2019
5755 Clear 29 1013 35 16093 4.1 260 00:21 24.06.2019
5756 Clear 29 1012 32 16093 4.6 310 23:56 23.06.2019
5757 Clear 29 1013 28 16093 6.7 290 23:37 23.06.2019
5758 Clear 29 1013 33 16093 5.1 270 23:18 23.06.2019
5759 Clear 29 1013 28 16093 3.6 260 22:41 23.06.2019
5760 Clear 29 1013 32 16093 3.34 292.059 22:20 23.06.2019
5761 Clear 29 1013 32 16093 2.6 310 21:42 23.06.2019
5762 Clear 29 1013 35 16093 1.5 0 21:22 23.06.2019
5763 Clear 28 1014 32 16093 1.5 350 20:51 23.06.2019
5764 Clear 28 1014 32 16093 1.5 350 20:32 23.06.2019
5765 Clear 28 1013 37 16093 5.1 350 19:56 23.06.2019
5766 Clear 28 1014 30 16093 5.1 350 19:38 23.06.2019
5767 Clear 28 1015 37 16093 2.6 0 19:19 23.06.2019
5768 Clear 27 1015 34 16093 2.1 330 18:44 23.06.2019
5769 Clear 27 1015 37 16093 3.1 0 18:20 23.06.2019
5770 Clear 26 1016 36 16093 3.6 360 17:42 23.06.2019
5771 Clear 26 1016 42 16093 2.1 190 17:22 23.06.2019
5772 Clear 25 1017 38 16093 3.6 330 16:45 23.06.2019
5773 Clear 24 1017 41 16093 4.34 332.137 16:25 23.06.2019
5774 Clear 24 1017 44 16093 4.1 320 15:55 23.06.2019
5775 Clear 23 1018 43 16093 6.2 340 15:37 23.06.2019
5776 Clear 22 1017 53 16093 2.6 180 15:18 23.06.2019
5777 Clear 21 1017 49 16093 5.7 330 14:38 23.06.2019
5778 Clear 20 1017 56 16093 3.1 250 14:20 23.06.2019
5779 Clear 19 1017 55 16093 4.1 340 13:43 23.06.2019
5780 Clear 19 1017 56 16093 4.68 321.818 13:21 23.06.2019
5781 Clear 18 1017 59 16093 2.1 320 12:59 23.06.2019
5782 Clear 18 1017 67 16093 4.68 321.818 12:40 23.06.2019
5783 Clear 17 1017 59 16093 2.1 280 12:19 23.06.2019
5784 Clear 17 1017 59 16093 2.1 280 12:19 23.06.2019
5785 Clear 16 1017 67 16093 2.1 290 11:46 23.06.2019
5786 Clear 16 1017 63 16093 3.1 260 11:27 23.06.2019
5787 Clear 16 1016 63 16093 3.62 306.528 10:49 23.06.2019
5788 Clear 16 1016 59 16093 2.1 290 10:21 23.06.2019
5789 Clear 16 1016 67 16093 3.62 306.528 09:58 23.06.2019
5790 Clear 17 1016 56 16093 2.1 280 09:24 23.06.2019
5791 Clear 18 1016 55 16093 2.62 315.263 08:54 23.06.2019
5792 Clear 18 1016 55 16093 2.62 315.263 08:54 23.06.2019
5793 Clear 18 1016 55 16093 2.62 315.263 08:36 23.06.2019
5794 Clear 18 1016 55 16093 3.13 313.576 08:18 23.06.2019
5795 Clear 18 1016 59 16093 3.1 300 07:44 23.06.2019
5796 Clear 18 1016 55 16093 3.13 313.576 07:18 23.06.2019
5797 Clear 19 1016 49 16093 3.13 313.576 06:52 23.06.2019
5798 Clear 20 1016 43 16093 2.1 320 05:44 23.06.2019
5799 Clear 23 1014 31 16093 5.1 330 02:51 23.06.2019
5800 Clear 25 1013 29 16093 6.7 340 01:39 23.06.2019
5801 Clouds 25 1013 36 16093 1.5 0 01:20 23.06.2019
5802 Clouds 26 1013 29 16093 3.1 0 00:31 23.06.2019
5803 Clear 26 1013 28 16093 6.2 350 23:47 22.06.2019
5804 Clouds 27 1012 34 16093 1.5 0 23:26 22.06.2019
5805 Clouds 27 1012 32 16093 6.2 320 22:47 22.06.2019
5806 Clouds 27 1012 37 16093 2.1 0 22:27 22.06.2019
5807 Clouds 27 1012 32 16093 7.7 310 21:56 22.06.2019
5808 Clouds 27 1013 32 16093 6.7 330 21:36 22.06.2019
5809 Clouds 27 1012 37 16093 1.5 0 21:18 22.06.2019
5810 Clouds 27 1012 37 16093 1.5 0 21:18 22.06.2019
5811 Clear 26 1013 32 16093 6.7 340 20:43 22.06.2019
5812 Clouds 26 1012 39 16093 2.6 0 20:24 22.06.2019
5813 Clear 26 1013 34 16093 7.2 340 19:41 22.06.2019
5814 Clouds 26 1012 39 16093 4.1 270 19:20 22.06.2019
5815 Clear 26 1013 34 16093 5.7 360 18:43 22.06.2019
5816 Clouds 25 1012 42 16093 2.6 0 18:23 22.06.2019
5817 Clear 25 1013 36 16093 6.7 350 17:46 22.06.2019
5818 Clear 24 1012 39 16093 2.6 0 17:26 22.06.2019
5819 Clear 24 1013 41 16093 3.6 330 16:46 22.06.2019
5820 Clear 23 1012 47 14484 1.5 0 16:24 22.06.2019
5821 Clear 22 1013 49 16093 5.48 333.655 15:46 22.06.2019
5822 Clear 21 1012 56 16093 4.28 315.246 15:27 22.06.2019
5823 Clear 20 1013 56 16093 5.1 340 14:52 22.06.2019
5824 Clear 20 1013 56 16093 5.1 340 14:33 22.06.2019
5825 Clear 19 1013 63 16093 1.5 0 13:58 22.06.2019
5826 Clear 18 1013 68 16093 6.2 310 13:40 22.06.2019
5827 Clear 18 1013 68 16093 1.5 0 13:19 22.06.2019
5828 Clear 17 1012 72 16093 5.1 310 12:47 22.06.2019
5829 Clear 17 1012 72 16093 5.1 310 12:29 22.06.2019
5830 Clear 16 1012 72 16093 4.6 310 11:53 22.06.2019
5831 Clear 16 1012 72 16093 4.6 310 11:29 22.06.2019
5832 Clear 17 1011 72 16093 2.6 320 10:47 22.06.2019
5833 Clear 17 1011 68 16093 3.46 311.393 10:19 22.06.2019
5834 Clear 17 1011 67 16093 5.1 320 09:42 22.06.2019
5835 Clear 17 1011 59 16093 3.6 320 08:58 22.06.2019
5836 Clear 18 1011 59 16093 4.6 310 08:40 22.06.2019
5837 Clear 18 1011 55 16093 3.6 300 07:56 22.06.2019
5838 Clear 18 1012 55 16093 5.7 310 07:30 22.06.2019
5839 Clear 19 1011 52 16093 4.6 310 06:46 22.06.2019
5840 Clear 21 1009 46 16093 4.1 320 04:38 22.06.2019
5841 Clear 23 1007 44 16093 3.74 325.368 02:31 22.06.2019
5842 Clouds 25 1006 41 16093 5.7 350 00:59 22.06.2019
5843 Clear 25 1006 36 16093 6.7 330 00:35 22.06.2019
5844 Clouds 25 1005 36 16093 10.8 320 23:59 21.06.2019
5845 Clouds 25 1006 36 16093 7.7 340 23:37 21.06.2019
5846 Clouds 25 1006 44 16093 6.39 329.951 23:19 21.06.2019
5847 Clouds 25 1005 41 16093 7.2 330 22:41 21.06.2019
5848 Clouds 25 1005 47 16093 2.1 0 22:22 21.06.2019
5849 Rain 24 1005 57 16093 8.7 340 21:40 21.06.2019
5850 Rain 23 1005 56 16093 4.1 340 21:22 21.06.2019
5851 Rain 22 1004 53 16093 5.1 330 20:53 21.06.2019
5852 Rain 22 1004 73 16093 4.1 350 20:27 21.06.2019
5853 Rain 21 1004 77 16093 4.6 340 19:55 21.06.2019
5854 Rain 20 1004 82 16093 3.1 0 19:23 21.06.2019
5855 Rain 20 1003 88 11265 4.1 340 18:46 21.06.2019
5856 Rain 19 1002 88 16093 6.7 360 18:28 21.06.2019
5857 Rain 19 1002 88 9656 6.7 350 17:45 21.06.2019
5858 Rain 19 1002 93 16093 2.1 0 17:27 21.06.2019
5859 Rain 19 1001 88 16093 4.36 326.824 16:38 21.06.2019
5860 Rain 19 1001 88 16093 4.1 330 16:19 21.06.2019
5861 Rain 19 999 88 11265 2.6 10 15:39 21.06.2019
5862 Rain 19 1000 93 4828 2.1 0 15:20 21.06.2019
5863 Rain 19 999 94 14484 6.7 360 14:47 21.06.2019
5864 Rain 20 999 93 4023 3.1 0 14:28 21.06.2019
5865 Rain 20 998 83 16093 2.1 0 13:46 21.06.2019
5866 Rain 20 998 88 9656 2.6 30 13:27 21.06.2019
5867 Rain 20 998 94 4828 1.5 10 12:54 21.06.2019
5868 Rain 20 999 94 4828 1.87 286.961 12:24 21.06.2019
5869 Rain 20 997 94 8047 1.5 240 11:59 21.06.2019
5870 Rain 21 997 88 12874 3.1 300 11:40 21.06.2019
5871 Rain 21 998 94 14484 1.5 290 11:22 21.06.2019
5872 Rain 21 997 88 16093 1.87 286.961 10:48 21.06.2019
5873 Rain 21 998 88 14484 1.5 290 10:21 21.06.2019
5874 Rain 21 997 88 16093 1.87 286.961 09:56 21.06.2019
5875 Rain 21 997 88 16093 1.87 286.961 09:38 21.06.2019
5876 Rain 21 998 88 16093 1.5 0 09:18 21.06.2019
5877 Clouds 21 998 83 16093 3.85 312.798 08:42 21.06.2019
5878 Clouds 22 999 88 16093 3.75 313.518 08:22 21.06.2019
5879 Clouds 22 998 83 16093 3.75 313.518 07:46 21.06.2019
5880 Clouds 22 999 94 16093 1.5 280 07:27 21.06.2019
5881 Clouds 22 998 83 16093 3.75 313.518 06:53 21.06.2019
5882 Clear 22 999 94 16093 1.5 270 06:20 21.06.2019
5883 Mist 22 999 94 6437 2.1 250 05:25 21.06.2019
5884 Rain 22 999 94 8047 2.6 240 04:22 21.06.2019
5885 Rain 23 998 94 4023 2.1 250 03:33 21.06.2019
5886 Rain 23 998 94 6437 1.5 100 02:47 21.06.2019
5887 Rain 23 998 83 16093 2.62 263.691 01:48 21.06.2019
5888 Rain 24 999 94 4828 2.75 253.45 00:55 21.06.2019
5889 Rain 24 999 94 1609 2.81 231.452 00:22 21.06.2019
5890 Rain 24 999 94 1609 2.81 231.452 00:22 21.06.2019
5891 Rain 24 1000 94 3219 1.5 0 23:47 20.06.2019
5892 Rain 24 999 94 4023 1.5 50 23:22 20.06.2019
5893 Rain 24 998 83 6437 1.5 100 22:57 20.06.2019
5894 Rain 24 998 83 6437 1.5 100 22:57 20.06.2019
5895 Rain 24 999 88 9656 1.5 100 22:38 20.06.2019
5896 Rain 24 1000 94 4828 1.5 0 22:20 20.06.2019
5897 Rain 24 1000 88 2816 2.1 0 21:48 20.06.2019
5898 Rain 24 1000 88 4023 1.8 210.029 21:19 20.06.2019
5899 Mist 24 1000 88 16093 5.1 160 20:50 20.06.2019
5900 Mist 24 1001 88 8047 2.11 198.065 20:27 20.06.2019
5901 Haze 24 1000 78 8047 2.1 190 19:59 20.06.2019
5902 Haze 24 1002 83 8047 2.11 198.065 19:39 20.06.2019
5903 Haze 23 1002 88 8047 3.6 140 19:18 20.06.2019
5904 Mist 22 1002 94 6437 2.11 198.065 18:43 20.06.2019
5905 Mist 21 1003 94 4023 1.65 149.28 18:23 20.06.2019
5906 Mist 21 1002 88 3219 1.5 150 17:56 20.06.2019
5907 Mist 21 1003 94 3219 1.5 60 17:38 20.06.2019
5908 Mist 21 1003 88 3219 1.5 90 16:58 20.06.2019
5909 Mist 21 1003 88 1609 1.5 70 16:39 20.06.2019
5910 Mist 20 1004 94 2816 1.65 149.28 16:19 20.06.2019
5911 Mist 20 1004 94 2816 1.65 149.28 16:19 20.06.2019
5912 Mist 20 1003 100 1609 1.65 149.28 15:42 20.06.2019
5913 Mist 20 1003 94 1609 2.1 90 15:23 20.06.2019
5914 Mist 20 1004 100 2012 1.5 90 15:23 20.06.2019
5915 Mist 20 1003 100 805 2.6 100 14:52 20.06.2019
5916 Rain 19 1004 100 1609 2.6 70 14:24 20.06.2019
5917 Rain 19 1004 93 3219 1.5 70 13:59 20.06.2019
5918 Rain 19 1004 100 4828 1.42 104.867 13:37 20.06.2019
5919 Rain 19 1006 100 1207 1.28 115.746 13:18 20.06.2019
5920 Rain 19 1004 100 4828 1.28 115.746 12:41 20.06.2019
5921 Rain 19 1006 100 1609 1.51 95.336 12:19 20.06.2019
5922 Rain 19 1005 100 2414 1.51 95.336 11:40 20.06.2019
5923 Rain 19 1006 100 2414 2.1 60 11:22 20.06.2019
5924 Rain 19 1005 100 1207 1.5 80 10:43 20.06.2019
5925 Rain 19 1005 100 1207 2.1 80 10:23 20.06.2019
5926 Rain 19 1006 100 2816 2.1 60 09:55 20.06.2019
5927 Rain 19 1006 93 2816 1.5 60 09:36 20.06.2019
5928 Rain 19 1006 93 2816 1.5 60 09:36 20.06.2019
5929 Rain 19 1006 93 2816 1.5 60 09:18 20.06.2019
5930 Rain 19 1007 93 2816 1.32 103.994 08:43 20.06.2019
5931 Rain 19 1007 93 4023 1.5 0 08:22 20.06.2019
5932 Rain 19 1007 93 2414 1.32 103.994 07:44 20.06.2019
5933 Rain 19 1008 100 3219 1.32 103.994 07:25 20.06.2019
5934 Mist 19 1008 100 2816 2.1 0 06:19 20.06.2019
5935 Mist 19 1008 94 4828 1.96 123.032 03:41 20.06.2019
5936 Rain 19 1009 94 4828 1.5 0 02:26 20.06.2019
5937 Rain 20 1008 94 8047 2.79 127.252 00:33 20.06.2019
5938 Mist 20 1009 88 1207 2.6 90 23:48 19.06.2019
5939 Rain 20 1010 88 4023 2.6 80 23:29 19.06.2019
5940 Rain 21 1010 88 805 1.5 70 22:49 19.06.2019
5941 Rain 21 1010 88 6437 3.1 50 22:25 19.06.2019
5942 Rain 21 1010 88 11265 3.43 146.138 21:58 19.06.2019
5943 Rain 21 1009 78 16093 3.1 120 21:58 19.06.2019
5944 Rain 21 1010 88 11265 3.43 146.138 21:39 19.06.2019
5945 Rain 21 1011 83 16093 2.6 60 21:21 19.06.2019
5946 Haze 21 1010 88 16093 3.29 138.86 20:42 19.06.2019
5947 Haze 21 1011 83 16093 3.1 140 20:21 19.06.2019
5948 Rain 21 1011 78 16093 3.1 130 19:46 19.06.2019
5949 Rain 21 1011 78 16093 3.1 130 19:28 19.06.2019
5950 Rain 21 1011 88 16093 3.29 138.86 18:57 19.06.2019
5951 Rain 21 1012 94 12874 2.6 170 18:26 19.06.2019
5952 Mist 20 1012 94 16093 2.47 143.835 17:53 19.06.2019
5953 Mist 20 1012 94 16093 2.1 0 17:27 19.06.2019
5954 Rain 20 1013 94 2816 1.5 0 16:56 19.06.2019
5955 Rain 20 1012 94 16093 2.47 143.835 16:38 19.06.2019
5956 Rain 20 1012 94 16093 2.6 140 16:19 19.06.2019
5957 Rain 20 1013 94 4828 2.47 143.835 15:46 19.06.2019
5958 Rain 20 1012 94 14484 1.5 90 15:25 19.06.2019
5959 Mist 19 1012 94 4023 1.05 103.322 14:48 19.06.2019
5960 Mist 19 1012 88 16093 2.6 40 14:29 19.06.2019
5961 Mist 19 1012 88 16093 2.6 40 13:59 19.06.2019
5962 Rain 19 1012 94 4023 1.05 103.322 13:38 19.06.2019
5963 Rain 19 1012 93 14484 3.1 60 13:20 19.06.2019
5964 Rain 19 1013 93 4828 2.1 0 12:42 19.06.2019
5965 Rain 19 1012 93 8047 1.5 60 12:20 19.06.2019
5966 Mist 19 1012 94 4023 1.12 348.177 11:44 19.06.2019
5967 Mist 19 1012 100 9656 1.5 30 11:24 19.06.2019
5968 Mist 19 1012 100 2414 1.12 348.177 10:51 19.06.2019
5969 Mist 19 1012 100 2414 1.12 348.177 10:32 19.06.2019
5970 Mist 19 1011 88 4828 1.12 348.177 09:59 19.06.2019
5971 Mist 19 1012 93 1609 1.12 348.177 09:39 19.06.2019
5972 Mist 19 1012 93 1609 0.52 322.451 09:19 19.06.2019
5973 Mist 19 1012 93 14484 2.6 60 08:48 19.06.2019
5974 Rain 19 1012 93 12874 2.1 60 08:28 19.06.2019
5975 Mist 19 1012 93 12874 3.1 60 07:47 19.06.2019
5976 Mist 19 1012 100 12874 3.6 60 07:23 19.06.2019
5977 Mist 19 1013 100 3219 1.5 60 06:49 19.06.2019
5978 Mist 19 1013 100 3219 1.5 60 06:24 19.06.2019
5979 Rain 19 1013 100 16093 4.1 40 05:49 19.06.2019
5980 Rain 20 1012 100 11265 3.6 60 04:19 19.06.2019
5981 Rain 20 1012 100 4023 1.5 0 03:27 19.06.2019
5982 Rain 20 1012 100 4023 1.5 0 01:49 19.06.2019
5983 Rain 20 1011 100 9656 1.5 30 01:18 19.06.2019
5984 Rain 20 1011 100 3219 2.1 40 00:43 19.06.2019
5985 Rain 21 1011 100 4023 3.6 60 00:20 19.06.2019
5986 Rain 21 1012 94 2414 1.5 110 23:52 18.06.2019
5987 Rain 21 1011 94 14484 4.1 30 23:27 18.06.2019
5988 Rain 21 1012 94 4023 1.5 0 22:46 18.06.2019
5989 Rain 21 1012 100 16093 3.6 130 22:24 18.06.2019
5990 Rain 21 1013 94 4023 1.35 51.446 21:57 18.06.2019
5991 Rain 21 1013 94 805 1.5 0 21:39 18.06.2019
5992 Rain 21 1013 94 805 1.5 0 21:20 18.06.2019
5993 Rain 21 1012 100 2816 3.1 150 20:43 18.06.2019
5994 Rain 21 1013 94 3219 1.66 104.379 20:25 18.06.2019
5995 Rain 22 1013 94 2012 1.5 20 19:42 18.06.2019
5996 Rain 22 1014 94 1609 1.66 104.379 19:24 18.06.2019
5997 Rain 22 1013 94 4828 2.1 260 18:59 18.06.2019
5998 Rain 22 1014 94 4828 2.1 270 18:39 18.06.2019
5999 Rain 22 1014 88 12874 2.6 270 18:20 18.06.2019
6000 Rain 22 1013 78 11265 3.6 170 17:39 18.06.2019
6001 Rain 22 1014 94 16093 1.5 270 17:20 18.06.2019
6002 Rain 22 1015 94 4023 0.4 58.57 16:46 18.06.2019
6003 Rain 22 1015 94 4023 0.4 58.57 16:27 18.06.2019
6004 Rain 21 1014 94 16093 1.5 150 15:55 18.06.2019
6005 Rain 21 1014 88 16093 0.4 58.57 15:36 18.06.2019
6006 Rain 21 1014 88 16093 0.4 58.57 15:36 18.06.2019
6007 Rain 21 1015 100 6437 0.36 26.779 15:18 18.06.2019
6008 Rain 21 1015 94 8047 2.1 190 14:42 18.06.2019
6009 Rain 21 1015 94 4023 1.5 160 14:22 18.06.2019
6010 Rain 20 1015 94 2414 2.6 150 13:53 18.06.2019
6011 Rain 20 1015 94 1609 1.06 25.723 13:32 18.06.2019
6012 Rain 20 1014 94 3219 1.06 25.723 12:59 18.06.2019
6013 Rain 20 1014 88 3219 2.1 180 12:41 18.06.2019
6014 Rain 20 1015 88 4828 0.35 306.123 12:23 18.06.2019
6015 Mist 20 1014 88 9656 0.35 306.123 11:42 18.06.2019
6016 Mist 20 1014 88 6437 1.5 190 11:21 18.06.2019
6017 Mist 20 1015 88 9656 0.35 306.123 10:57 18.06.2019
6018 Mist 20 1015 88 11265 1.5 210 10:37 18.06.2019
6019 Mist 20 1014 88 16093 0.35 306.123 10:18 18.06.2019
6020 Clouds 20 1015 88 12874 2.1 250 09:47 18.06.2019
6021 Clouds 20 1015 83 14484 0.75 275.574 09:22 18.06.2019
6022 Mist 20 1016 83 14484 0.75 275.574 08:43 18.06.2019
6023 Mist 20 1015 83 16093 0.79 245.586 08:21 18.06.2019
6024 Clouds 20 1016 100 16093 2.1 190 07:41 18.06.2019
6025 Clouds 20 1016 83 16093 0.79 245.586 07:20 18.06.2019
6026 Clouds 20 1016 88 16093 0.79 245.586 06:43 18.06.2019
6027 Clouds 21 1016 83 16093 1.17 187.737 05:20 18.06.2019
6028 Clear 22 1015 73 16093 0.72 222.812 02:53 18.06.2019
6029 Clear 23 1015 69 16093 0.72 222.812 01:55 18.06.2019
6030 Clouds 24 1015 73 16093 1.5 250 01:25 18.06.2019
6031 Clouds 24 1016 73 16093 1.39 227.629 00:55 18.06.2019
6032 Clouds 24 1015 78 16093 1.5 240 00:27 18.06.2019
6033 Rain 24 1015 69 16093 1.1 270.208 23:41 17.06.2019
6034 Rain 24 1016 73 16093 2.1 210 23:20 17.06.2019
6035 Rain 24 1016 64 16093 2.1 40 22:58 17.06.2019
6036 Rain 24 1016 64 16093 2.1 40 22:38 17.06.2019
6037 Rain 24 1016 78 16093 1.5 260 22:20 17.06.2019
6038 Rain 23 1016 73 16093 2.6 320 21:42 17.06.2019
6039 Rain 23 1016 73 16093 2.6 320 21:42 17.06.2019
6040 Rain 23 1016 78 16093 1.5 0 21:22 17.06.2019
6041 Rain 24 1016 69 16093 0.31 36.578 20:39 17.06.2019
6042 Rain 24 1016 73 16093 1.5 0 20:20 17.06.2019
6043 Rain 24 1017 73 16093 1.16 238.994 19:56 17.06.2019
6044 Rain 24 1016 69 16093 1.5 0 19:38 17.06.2019
6045 Rain 23 1016 69 16093 1.5 0 19:19 17.06.2019
6046 Rain 23 1016 69 16093 1.16 238.994 18:39 17.06.2019
6047 Smoke 23 1016 73 12874 2.1 260 18:18 17.06.2019
6048 Smoke 23 1016 73 12874 2.1 260 18:18 17.06.2019
6049 Rain 23 1015 78 16093 1.21 37.759 17:48 17.06.2019
6050 Rain 23 1015 78 16093 1.21 37.759 17:29 17.06.2019
6051 Clouds 23 1015 73 16093 1.5 30 16:59 17.06.2019
6052 Clouds 23 1015 73 16093 1.21 37.759 16:39 17.06.2019
6053 Clouds 22 1015 73 16093 1.21 37.759 16:21 17.06.2019
6054 Clouds 22 1015 73 16093 1.5 310 15:44 17.06.2019
6055 Clouds 22 1015 73 16093 1.5 310 15:20 17.06.2019
6056 Clouds 21 1016 88 16093 2.28 22.714 14:56 17.06.2019
6057 Clouds 21 1015 83 16093 1.5 0 14:37 17.06.2019
6058 Clouds 21 1014 78 16093 3.6 10 14:18 17.06.2019
6059 Clear 21 1013 83 16093 2.1 50 13:40 17.06.2019
6060 Clear 21 1013 83 16093 2.1 50 13:20 17.06.2019
6061 Clouds 20 1014 88 16093 1.97 19.161 12:42 17.06.2019
6062 Clouds 20 1014 88 16093 2.07 323.374 12:21 17.06.2019
6063 Mist 20 1013 88 16093 2.07 323.374 11:43 17.06.2019
6064 Drizzle 20 1012 88 16093 2.6 10 11:25 17.06.2019
6065 Rain 21 1013 78 16093 2.07 323.374 10:48 17.06.2019
6066 -273 0 0 0 0 0 10:48 17.06.2019
6067 Rain 21 1013 78 16093 2.07 323.374 10:29 17.06.2019
6068 Clouds 21 1012 83 16093 2.6 360 09:57 17.06.2019
6069 Clouds 21 1011 88 16093 2.07 323.374 09:39 17.06.2019
6070 Rain 21 1011 88 16093 1.5 250 09:20 17.06.2019
6071 Mist 21 1011 88 16093 1.81 319.073 08:39 17.06.2019
6072 Clouds 21 1011 88 16093 1.81 319.073 08:21 17.06.2019
6073 Clouds 21 1011 94 16093 1.81 319.073 07:40 17.06.2019
6074 Clouds 22 1011 94 16093 1.81 319.073 07:20 17.06.2019
6075 Clouds 22 1011 88 16093 2.1 310 06:30 17.06.2019
6076 Clouds 22 1011 88 16093 1.67 288.565 05:42 17.06.2019
6077 Clouds 22 1011 88 16093 2.1 270 04:33 17.06.2019
6078 Clouds 22 1011 88 16093 1.67 288.565 03:33 17.06.2019
6079 Rain 23 1010 88 16093 5.1 230 02:58 17.06.2019
6080 Rain 23 1010 88 16093 2.6 270 02:39 17.06.2019
6081 Rain 24 1010 88 16093 1.5 260 01:41 17.06.2019
6082 Rain 24 1010 61 16093 1.5 0 00:59 17.06.2019
6083 Rain 25 1009 57 8047 5.1 300 00:41 17.06.2019
6084 Clouds 26 1009 61 16093 4.1 250 00:21 17.06.2019
6085 Clouds 27 1008 54 16093 6.2 230 23:40 16.06.2019
6086 Clouds 27 1009 51 16093 4.1 280 23:21 16.06.2019
6087 Clouds 27 1008 54 16093 5.7 230 22:55 16.06.2019
6088 Clouds 27 1009 51 16093 4.6 280 22:36 16.06.2019
6089 Clouds 27 1009 61 16093 4.6 250 22:18 16.06.2019
6090 Clouds 26 1010 58 16093 1.5 260 21:41 16.06.2019
6091 Rain 26 1009 54 16093 6.2 210 21:22 16.06.2019
6092 Rain 26 1009 54 16093 6.2 210 20:58 16.06.2019
6093 Rain 25 1010 54 16093 3.1 260 20:37 16.06.2019
6094 Rain 25 1011 65 16093 2.6 240 20:18 16.06.2019
6095 Rain 25 1011 57 16093 2.6 280 19:41 16.06.2019
6096 Rain 25 1011 57 16093 2.6 280 19:22 16.06.2019
6097 Clear 26 1011 51 16093 3.1 200 18:58 16.06.2019
6098 Clear 26 1011 51 16093 3.1 200 18:40 16.06.2019
6099 Rain 26 1012 61 16093 3.92 206.219 18:20 16.06.2019
6100 Rain 25 1012 57 16093 2.6 200 17:48 16.06.2019
6101 Clouds 24 1012 61 16093 3.6 220 17:23 16.06.2019
6102 Clouds 24 1012 61 16093 3.6 220 16:57 16.06.2019
6103 Clear 24 1012 57 16093 2.1 230 16:39 16.06.2019
6104 Clear 23 1012 57 16093 2.1 230 16:21 16.06.2019
6105 Rain 22 1013 64 16093 2.6 210 15:44 16.06.2019
6106 Rain 21 1013 64 16093 2.6 210 15:24 16.06.2019
6107 Rain 21 1013 68 16093 2.1 210 14:45 16.06.2019
6108 Rain 20 1013 68 16093 2.1 210 14:24 16.06.2019
6109 Rain 20 1013 68 16093 1.5 200 13:56 16.06.2019
6110 Rain 20 1013 68 16093 3.35 214.069 13:38 16.06.2019
6111 Rain 19 1013 68 16093 3.32 209.428 13:20 16.06.2019
6112 Rain 19 1013 68 16093 3.32 209.428 12:42 16.06.2019
6113 Rain 19 1014 93 16093 1.5 210 12:20 16.06.2019
6114 Rain 19 1013 68 16093 2.45 212.471 11:48 16.06.2019
6115 Rain 19 1013 68 16093 2.45 212.471 11:21 16.06.2019
6116 Rain 19 1013 73 16093 3.1 190 10:59 16.06.2019
6117 Rain 19 1013 64 16093 2.45 212.471 10:41 16.06.2019
6118 Rain 19 1013 64 16093 2.45 212.471 10:18 16.06.2019
6119 Rain 20 1014 64 16093 2.45 212.471 09:41 16.06.2019
6120 Rain 20 1014 64 16093 2.6 200 09:23 16.06.2019
6121 Rain 20 1014 56 16093 2.6 270 08:45 16.06.2019
6122 Rain 21 1014 56 16093 5.7 230 08:19 16.06.2019
6123 Rain 21 1014 53 16093 2.1 260 07:44 16.06.2019
6124 Rain 21 1014 53 16093 2.1 260 07:26 16.06.2019
6125 Rain 22 1014 49 16093 1.5 230 06:50 16.06.2019
6126 Clear 22 1015 46 16093 1.5 220 05:53 16.06.2019
6127 Clouds 23 1015 49 16093 5.7 200 05:19 16.06.2019
6128 Clouds 23 1015 44 16093 2.1 230 04:00 16.06.2019
6129 Clouds 24 1015 41 16093 2.6 210 03:38 16.06.2019
6130 Clouds 24 1015 39 16093 8.2 220 03:18 16.06.2019
6131 Clear 25 1015 32 16093 3.1 260 01:48 16.06.2019
6132 Clear 25 1015 32 16093 3.1 260 01:28 16.06.2019
6133 Clouds 26 1015 32 16093 2.6 220 00:43 16.06.2019
6134 Clouds 26 1015 41 16093 7.2 260 00:23 16.06.2019
6135 Smoke 27 1015 41 16093 4.1 240 23:56 15.06.2019
6136 Smoke 27 1015 30 16093 4.1 270 23:38 15.06.2019
6137 Rain 27 1015 30 16093 8.2 230 23:19 15.06.2019
6138 Rain 27 1016 30 16093 4.1 250 22:43 15.06.2019
6139 Rain 27 1016 30 16093 4.1 250 22:25 15.06.2019
6140 Smoke 28 1016 32 16093 4.6 220 21:44 15.06.2019
6141 Smoke 28 1016 32 16093 4.6 220 21:21 15.06.2019
6142 Clear 27 1017 28 16093 3.1 250 20:45 15.06.2019
6143 Clear 27 1017 28 16093 3.1 250 20:23 15.06.2019
6144 Rain 27 1017 32 16093 4.1 260 19:50 15.06.2019
6145 Rain 27 1018 32 16093 3.1 260 19:28 15.06.2019
6146 Clear 26 1019 36 16093 3.6 250 18:45 15.06.2019
6147 Clear 26 1019 36 16093 3.6 250 18:26 15.06.2019
6148 Clouds 26 1019 34 16093 7.2 220 17:58 15.06.2019
6149 Clear 25 1019 38 16093 2.1 260 17:40 15.06.2019
6150 Clear 25 1019 38 16093 2.1 260 17:21 15.06.2019
6151 Clear 24 1020 41 16093 4.1 190 16:43 15.06.2019
6152 Clouds 23 1020 44 16093 4.6 180 16:18 15.06.2019
6153 Clear 22 1020 46 16093 4.69 209.99 15:41 15.06.2019
6154 Clouds 20 1020 43 16093 1.5 250 15:21 15.06.2019
6155 Clear 21 1020 46 16093 2.87 224.845 15:21 15.06.2019
6156 Clear 19 1021 52 16093 2.87 224.845 14:38 15.06.2019
6157 Clouds 17 1021 55 16093 2.1 220 14:18 15.06.2019
6158 Clear 17 1021 63 16093 2.87 224.845 13:44 15.06.2019
6159 Clear 16 1021 63 16093 2.87 224.845 13:21 15.06.2019
6160 Clouds 15 1021 100 16093 2.87 224.845 12:59 15.06.2019
6161 Clear 15 1021 71 16093 2.87 224.845 12:40 15.06.2019
6162 Clear 13 1020 63 16093 1.5 280 12:21 15.06.2019
6163 Clear 13 1020 62 16093 1.7 258.763 11:45 15.06.2019
6164 Clear 13 1020 62 16093 1.7 258.763 11:27 15.06.2019
6165 Clear 14 1020 55 16093 1.87 243.792 10:43 15.06.2019
6166 Clouds 14 1020 67 16093 2.6 210 10:25 15.06.2019
6167 Clear 15 1020 51 16093 1.87 243.792 09:48 15.06.2019
6168 Clear 15 1020 51 16093 2.05 265.406 09:26 15.06.2019
6169 Clear 16 1020 51 16093 3.6 280 08:54 15.06.2019
6170 Clear 16 1020 51 16093 3.6 280 08:34 15.06.2019
6171 Clouds 16 1019 55 16093 3.6 230 07:58 15.06.2019
6172 Clear 16 1020 48 16093 2.6 0 07:25 15.06.2019
6173 Clear 17 1019 48 16093 3.1 280 06:48 15.06.2019
6174 Clouds 17 1018 52 16093 4.1 250 06:22 15.06.2019
6175 Clear 17 1018 43 16093 2.6 260 05:37 15.06.2019
6176 Clear 18 1018 45 16093 2.6 270 04:51 15.06.2019
6177 Rain 20 1017 59 16093 1.5 310 03:51 15.06.2019
6178 Rain 20 1016 37 16093 2.6 280 03:21 15.06.2019
6179 Clear 22 1016 33 16093 3.6 300 02:31 15.06.2019
6180 Clear 23 1015 31 16093 6.2 310 01:53 15.06.2019
6181 Clear 23 1015 31 16093 6.2 310 01:20 15.06.2019
6182 Clouds 23 1014 31 16093 6.2 300 00:40 15.06.2019
6183 Clouds 23 1014 31 16093 6.2 300 00:20 15.06.2019
6184 Clear 23 1014 31 16093 5.7 290 23:42 14.06.2019
6185 Rain 23 1013 33 16093 9.3 270 23:19 14.06.2019
6186 Rain 23 1014 35 16093 5.1 280 22:41 14.06.2019
6187 Rain 22 1013 35 16093 8.7 260 22:21 14.06.2019
6188 Rain 22 1014 43 14484 4.6 310 21:48 14.06.2019
6189 Rain 21 1014 43 14484 4.6 310 21:28 14.06.2019
6190 Clouds 21 1013 40 16093 10.3 250 20:55 14.06.2019
6191 Clouds 21 1014 43 16093 7.7 300 20:36 14.06.2019
6192 Clouds 20 1013 43 16093 7.2 270 20:18 14.06.2019
6193 Clouds 20 1013 49 16093 6.2 290 19:39 14.06.2019
6194 Rain 20 1013 55 16093 5.86 288.46 19:21 14.06.2019
6195 Rain 20 1013 55 16093 6.7 280 18:54 14.06.2019
6196 Rain 20 1013 55 16093 6.7 280 18:36 14.06.2019
6197 Clouds 19 1013 59 16093 5.1 270 18:18 14.06.2019
6198 Clouds 19 1012 56 16093 7.2 310 17:44 14.06.2019
6199 Clouds 19 1012 56 16093 7.2 310 17:23 14.06.2019
6200 Rain 19 1012 56 16093 6.7 280 16:49 14.06.2019
6201 Rain 18 1012 55 16093 6.7 280 16:24 14.06.2019
6202 Rain 18 1012 55 16093 6.7 280 16:24 14.06.2019
6203 Clouds 18 1011 59 16093 8.2 250 16:24 14.06.2019
6204 Rain 18 1011 59 16093 8.2 250 15:59 14.06.2019
6205 Rain 18 1012 59 16093 5.7 270 15:39 14.06.2019
6206 Rain 17 1011 63 16093 7.7 240 15:20 14.06.2019
6207 Clear 16 1011 67 16093 4.6 280 14:47 14.06.2019
6208 Clear 16 1011 67 16093 4.6 280 14:28 14.06.2019
6209 Rain 15 1011 77 16093 4.72 257.605 13:47 14.06.2019
6210 Rain 15 1011 77 16093 4.72 257.605 13:28 14.06.2019
6211 Rain 14 1011 87 16093 3.1 0 12:59 14.06.2019
6212 Rain 14 1011 87 16093 3.1 0 12:59 14.06.2019
6213 Rain 14 1011 87 16093 3.1 0 12:59 14.06.2019
6214 Rain 14 1011 82 16093 8.2 250 12:39 14.06.2019
6215 Rain 14 1011 82 16093 8.2 250 12:39 14.06.2019
6216 Clear 15 1011 93 16093 4.1 240 12:21 14.06.2019
6217 Clouds 15 1010 93 16093 5.1 250 11:42 14.06.2019
6218 Mist 15 1010 93 16093 5.1 250 11:23 14.06.2019
6219 Mist 15 1009 93 16093 3.85 245.632 10:49 14.06.2019
6220 Mist 15 1009 93 16093 3.6 220 10:22 14.06.2019
6221 Mist 15 1009 100 16093 3.6 230 09:56 14.06.2019
6222 Rain 15 1009 93 16093 3.81 224.14 09:37 14.06.2019
6223 Rain 15 1009 93 16093 4.29 239.229 09:19 14.06.2019
6224 Rain 16 1009 93 16093 2.6 190 08:41 14.06.2019
6225 Rain 16 1009 93 16093 2.6 190 08:18 14.06.2019
6226 Rain 16 1009 93 16093 4.29 239.229 07:45 14.06.2019
6227 Rain 16 1009 93 6437 1.5 0 07:19 14.06.2019
6228 Rain 16 1010 87 8047 1.5 0 06:27 14.06.2019
6229 Rain 16 1010 87 8047 1.5 0 06:27 14.06.2019
6230 Rain 16 1010 87 8047 1.5 0 05:54 14.06.2019
6231 Rain 16 1008 93 14484 2.6 150 04:56 14.06.2019
6232 Rain 16 1009 93 12874 3.6 140 04:32 14.06.2019
6233 Rain 17 1009 82 16093 3.6 120 03:49 14.06.2019
6234 Rain 17 1008 72 16093 4.6 50 03:24 14.06.2019
6235 Clouds 18 1008 72 16093 1.41 74.133 02:45 14.06.2019
6236 Clouds 18 1007 68 16093 2.6 110 01:56 14.06.2019
6237 Clouds 18 1007 72 16093 1.41 74.133 00:49 14.06.2019
6238 Clouds 18 1007 68 16093 1.5 130 00:22 14.06.2019
6239 Clouds 18 1007 68 16093 2.1 70 23:56 13.06.2019
6240 Clouds 18 1007 68 16093 2.1 70 23:27 13.06.2019
6241 Clouds 18 1007 72 16093 2.1 110 22:59 13.06.2019
6242 Clouds 18 1007 63 16093 1.82 68.228 22:39 13.06.2019
6243 Clouds 18 1007 63 16093 1.82 68.228 22:20 13.06.2019
6244 Clouds 18 1007 63 16093 1.5 120 21:39 13.06.2019
6245 Clouds 18 1007 63 16093 1.5 120 21:20 13.06.2019
6246 Clouds 18 1008 72 16093 5.7 70 21:20 13.06.2019
6247 Clouds 18 1007 63 16093 1.5 120 21:20 13.06.2019
6248 Clouds 18 1007 63 16093 5.7 90 20:55 13.06.2019
6249 Clouds 18 1007 63 16093 5.7 90 20:36 13.06.2019
6250 Rain 18 1008 77 16093 3.6 70 20:18 13.06.2019
6251 Rain 18 1008 77 16093 3.6 70 20:18 13.06.2019
6252 Rain 17 1008 63 16093 7.7 90 19:41 13.06.2019
6253 Rain 17 1009 93 11265 4.1 60 19:22 13.06.2019
6254 Rain 17 1008 87 11265 9.8 40 18:57 13.06.2019
6255 Rain 16 1009 87 6437 8.7 40 18:39 13.06.2019
6256 Rain 16 1009 87 6437 8.7 40 18:21 13.06.2019
6257 Rain 15 1008 87 16093 4.1 80 17:42 13.06.2019
6258 Rain 15 1008 87 16093 4.1 80 17:20 13.06.2019
6259 Rain 14 1011 93 3219 8.7 40 16:50 13.06.2019
6260 Rain 14 1011 93 3219 8.7 40 16:22 13.06.2019
6261 Rain 14 1011 93 6437 6.7 30 15:57 13.06.2019
6262 Rain 14 1011 93 6437 6.7 30 15:57 13.06.2019
6263 Rain 14 1014 93 4828 4.1 30 15:38 13.06.2019
6264 Rain 14 1013 87 6437 4.1 40 15:19 13.06.2019
6265 Rain 15 1014 82 2414 5.1 290 14:46 13.06.2019
6266 Rain 16 1014 82 2414 5.1 290 14:27 13.06.2019
6267 Rain 16 1013 72 16093 3.6 120 13:46 13.06.2019
6268 Rain 17 1013 72 16093 3.6 120 13:21 13.06.2019
6269 Clouds 17 1014 72 16093 2.6 0 12:58 13.06.2019
6270 Rain 17 1013 68 16093 3.6 100 12:38 13.06.2019
6271 Rain 17 1013 68 16093 3.6 100 12:19 13.06.2019
6272 Clouds 17 1014 68 16093 4.6 100 11:43 13.06.2019
6273 Clouds 17 1014 68 16093 4.6 100 11:24 13.06.2019
6274 Drizzle 17 1014 68 16093 4.1 120 10:47 13.06.2019
6275 Drizzle 17 1014 68 16093 4.1 120 10:28 13.06.2019
6276 Clouds 17 1016 68 16093 3.6 120 09:50 13.06.2019
6277 Clouds 17 1016 68 16093 3.6 120 09:28 13.06.2019
6278 Clouds 17 1016 68 16093 4.6 100 08:55 13.06.2019
6279 Clear 17 1017 68 16093 2.6 140 08:37 13.06.2019
6280 Clouds 17 1017 68 16093 3.6 110 08:19 13.06.2019
6281 Clear 17 1018 72 16093 2.63 119.856 07:37 13.06.2019
6282 Clear 17 1019 68 16093 1.5 0 07:18 13.06.2019
6283 Clear 17 1019 72 16093 2.63 119.856 06:38 13.06.2019
6284 Clear 17 1020 68 16093 2.1 0 06:20 13.06.2019
6285 Clear 17 1020 72 16093 3.1 150 05:39 13.06.2019
6286 Clouds 17 1020 72 16093 4.1 140 05:18 13.06.2019
6287 Clear 18 1021 63 16093 3.6 170 03:45 13.06.2019
6288 Clouds 19 1020 52 16093 4.6 140 01:55 13.06.2019
6289 Rain 21 1021 43 16093 5.7 160 00:32 13.06.2019
6290 Rain 22 1021 38 16093 5.7 160 23:38 12.06.2019
6291 Rain 22 1021 43 16093 5.7 160 23:19 12.06.2019
6292 Rain 23 1021 38 16093 6.2 160 22:41 12.06.2019
6293 Clouds 23 1021 43 16093 5.1 130 22:21 12.06.2019
6294 Clear 23 1022 38 16093 4.6 150 21:46 12.06.2019
6295 Clear 23 1022 38 16093 4.6 150 21:28 12.06.2019
6296 Clear 24 1022 35 16093 5.7 160 20:49 12.06.2019
6297 Clear 23 1022 35 16093 5.7 160 20:30 12.06.2019
6298 Clouds 24 1022 40 16093 4.6 170 19:57 12.06.2019
6299 Clouds 24 1022 40 16093 4.6 170 19:57 12.06.2019
6300 Clear 23 1022 35 16093 4.1 140 19:38 12.06.2019
6301 Clear 23 1022 35 16093 4.1 140 19:20 12.06.2019
6302 Clear 23 1022 35 16093 4.1 150 18:47 12.06.2019
6303 Clear 23 1022 35 16093 4.1 150 18:27 12.06.2019
6304 Clear 23 1022 35 16093 3.6 170 17:47 12.06.2019
6305 Clear 22 1022 35 16093 3.6 170 17:23 12.06.2019
6306 Clouds 22 1022 33 16093 1.5 50 16:57 12.06.2019
6307 Clear 22 1023 43 16093 3.1 60 16:37 12.06.2019
6308 Clear 22 1023 43 16093 3.1 60 16:19 12.06.2019
6309 Clear 21 1023 37 16093 2.1 117.873 15:46 12.06.2019
6310 Clear 20 1023 37 16093 1.32 10.537 15:25 12.06.2019
6311 Clear 18 1022 42 16093 1.32 10.537 14:36 12.06.2019
6312 Clouds 17 1022 52 16093 4.1 10 14:18 12.06.2019
6313 Clear 17 1022 55 16093 1.32 10.537 13:41 12.06.2019
6314 Clouds 15 1022 55 16093 2.6 360 13:19 12.06.2019
6315 Clouds 14 1022 55 16093 2.6 360 12:56 12.06.2019
6316 Clear 14 1022 67 16093 1.28 10.526 12:37 12.06.2019
6317 Clouds 13 1022 62 16093 2.6 20 12:18 12.06.2019
6318 Clear 13 1021 62 16093 1.38 342.974 11:43 12.06.2019
6319 Clear 13 1021 62 16093 1.38 342.974 11:25 12.06.2019
6320 Clear 13 1021 62 16093 1.38 342.974 10:46 12.06.2019
6321 -273 0 0 0 0 0 10:23 12.06.2019
6322 Clear 14 1020 58 16093 1.38 342.974 09:43 12.06.2019
6323 Clear 15 1020 58 16093 2.63 330.611 09:23 12.06.2019
6324 Clear 15 1020 58 16093 2.63 330.611 09:23 12.06.2019
6325 Clear 15 1020 51 16093 2.63 330.611 08:47 12.06.2019
6326 Clear 16 1020 51 16093 2.63 330.611 08:20 12.06.2019
6327 Clear 16 1019 48 16093 3.1 340 07:39 12.06.2019
6328 Clear 17 1020 48 16093 2.1 310 06:53 12.06.2019
6329 Clear 18 1019 39 16093 2.1 330 05:27 12.06.2019
6330 Clear 20 1019 37 16093 3.1 330 04:29 12.06.2019
6331 Clear 23 1016 29 16093 6.7 330 01:32 12.06.2019
6332 Clear 24 1016 31 16093 6.7 350 00:40 12.06.2019
6333 Clear 25 1015 31 16093 6.2 360 23:48 11.06.2019
6334 Clear 25 1015 36 16093 5.96 334.032 23:29 11.06.2019
6335 Clear 25 1015 29 16093 6.7 340 22:44 11.06.2019
6336 Clear 25 1015 38 16093 1.5 0 22:20 11.06.2019
6337 Clear 25 1014 33 16093 10.3 320 21:57 11.06.2019
6338 Clear 25 1014 33 16093 10.3 320 21:38 11.06.2019
6339 Clear 25 1014 33 16093 10.3 320 21:20 11.06.2019
6340 Clear 24 1014 36 16093 6.7 330 20:48 11.06.2019
6341 Clear 24 1014 38 16093 7.2 320 20:26 11.06.2019
6342 Rain 24 1014 46 16093 5.1 340 19:56 11.06.2019
6343 Rain 23 1014 46 16093 5.1 340 19:37 11.06.2019
6344 Rain 23 1014 46 16093 5.1 340 19:37 11.06.2019
6345 -273 0 0 0 0 0 19:37 11.06.2019
6346 Rain 23 1014 46 16093 5.1 340 19:36 11.06.2019
6347 Clear 22 1014 46 16093 6.7 350 18:58 11.06.2019
6348 Clear 22 1014 49 16093 7.7 340 18:23 11.06.2019
6349 Clear 21 1013 60 16093 2.1 0 17:57 11.06.2019
6350 Clear 21 1013 60 16093 2.1 0 17:39 11.06.2019
6351 Clear 20 1014 59 16093 5.1 310 17:19 11.06.2019
6352 Clear 19 1013 63 16093 6.7 330 16:42 11.06.2019
6353 Clear 19 1013 63 16093 6.7 330 16:23 11.06.2019
6354 Rain 18 1013 68 16093 6.7 340 15:43 11.06.2019
6355 Rain 18 1013 72 16093 8.2 310 15:25 11.06.2019
6356 Rain 18 1013 77 16093 4.6 330 14:54 11.06.2019
6357 Rain 17 1012 82 16093 6.7 310 14:23 11.06.2019
6358 Rain 18 1012 82 16093 6.7 310 13:58 11.06.2019
6359 Rain 18 1011 88 16093 7.7 350 13:37 11.06.2019
6360 Rain 19 1011 100 16093 5.1 290 13:19 11.06.2019
6361 Rain 20 1010 94 16093 5.95 326.729 12:41 11.06.2019
6362 Rain 20 1010 94 16093 2.85 286.857 12:21 11.06.2019
6363 Rain 20 1010 100 2816 2.1 0 11:49 11.06.2019
6364 Rain 20 1010 100 2816 2.1 0 11:30 11.06.2019
6365 Rain 20 1009 94 4023 2.85 286.857 10:50 11.06.2019
6366 Rain 20 1009 94 4023 2.85 286.857 10:27 11.06.2019
6367 Rain 20 1009 100 6437 2.85 286.857 09:51 11.06.2019
6368 Rain 20 1010 94 3219 1.59 162.376 09:26 11.06.2019
6369 Rain 20 1009 100 805 1.59 162.376 08:56 11.06.2019
6370 Rain 20 1011 94 2816 1.59 162.376 08:38 11.06.2019
6371 Rain 20 1009 94 805 2.1 100 08:19 11.06.2019
6372 Rain 20 1010 100 4828 1.59 162.376 07:32 11.06.2019
6373 Rain 20 1012 94 2012 2.7 169.178 06:52 11.06.2019
6374 Rain 20 1012 100 6437 3.74 149.687 05:21 11.06.2019
6375 Rain 20 1012 100 2414 3.74 149.687 04:36 11.06.2019
6376 Rain 20 1013 100 2816 2.1 120 01:58 11.06.2019
6377 Rain 20 1014 100 4023 2.6 50 00:50 11.06.2019
6378 Rain 20 1014 100 4023 2.6 50 00:26 11.06.2019
6379 Rain 20 1014 88 2414 4.1 110 23:45 10.06.2019
6380 Rain 20 1014 88 2414 4.1 110 23:21 10.06.2019
6381 Rain 19 1015 94 2816 3.1 0 22:45 10.06.2019
6382 Rain 19 1015 100 2414 2.1 90 22:26 10.06.2019
6383 Rain 19 1015 93 3219 2.6 90 21:56 10.06.2019
6384 Rain 19 1016 100 1207 2.6 60 21:38 10.06.2019
6385 Rain 19 1016 93 3219 6.2 40 21:19 10.06.2019
6386 Rain 19 1018 93 1207 3.1 50 20:42 10.06.2019
6387 Rain 19 1017 93 805 5.7 40 20:21 10.06.2019
6388 Rain 18 1017 93 6437 6.7 40 19:44 10.06.2019
6389 Rain 18 1017 93 6437 6.7 40 19:22 10.06.2019
6390 Rain 18 1018 93 2816 4.6 30 18:57 10.06.2019
6391 Rain 18 1018 93 2414 6.2 40 18:39 10.06.2019
6392 Rain 18 1020 93 2012 3.6 70 18:20 10.06.2019
6393 Rain 18 1020 88 8047 3.6 60 17:44 10.06.2019
6394 Rain 18 1020 88 8047 3.6 60 17:44 10.06.2019
6395 Rain 18 1019 88 9656 6.2 40 17:24 10.06.2019
6396 Rain 17 1019 88 11265 3.1 90 16:49 10.06.2019
6397 Rain 17 1019 88 11265 3.1 90 16:30 10.06.2019
6398 Rain 17 1020 93 14484 3.1 30 15:59 10.06.2019
6399 Rain 17 1020 93 4023 4.1 40 15:40 10.06.2019
6400 Rain 16 1020 88 8047 4.6 40 15:22 10.06.2019
6401 Rain 16 1021 82 14484 6.7 30 14:45 10.06.2019
6402 Rain 16 1021 82 14484 6.7 30 14:25 10.06.2019
6403 Clouds 16 1021 82 16093 5.1 90 13:47 10.06.2019
6404 Clouds 16 1021 82 16093 5.1 90 13:28 10.06.2019
6405 Clouds 16 1022 87 16093 3.6 60 12:55 10.06.2019
6406 Clouds 15 1021 82 16093 5.7 60 12:32 10.06.2019
6407 Clouds 15 1022 82 16093 2.6 0 11:59 10.06.2019
6408 Clouds 15 1022 77 16093 6.2 30 11:39 10.06.2019
6409 Clouds 15 1022 72 16093 3.6 40 11:19 10.06.2019
6410 Clouds 15 1022 63 16093 4.1 100 10:41 10.06.2019
6411 Clouds 15 1022 63 16093 4.1 100 10:19 10.06.2019
6412 Clouds 15 1022 63 16093 2.56 62.723 09:52 10.06.2019
6413 Clouds 14 1022 63 16093 3.6 100 09:29 10.06.2019
6414 Clear 14 1023 59 16093 5.1 80 08:50 10.06.2019
6415 Clear 14 1023 59 16093 2.6 100 08:27 10.06.2019
6416 Clear 15 1023 59 16093 3.1 100 07:46 10.06.2019
6417 Clear 15 1024 63 16093 2.6 100 06:26 10.06.2019
6418 Rain 17 1025 52 16093 3.6 140 03:46 10.06.2019
6419 Clouds 20 1025 30 16093 4.1 130 01:56 10.06.2019
6420 Clear 21 1025 45 16093 3.1 170 01:23 10.06.2019
6421 Clear 22 1025 33 16093 6.2 130 00:48 10.06.2019
6422 Clear 23 1025 40 16093 4.1 150 23:58 09.06.2019
6423 Clear 23 1026 43 16093 4.6 150 23:38 09.06.2019
6424 Clear 23 1026 43 16093 4.6 150 23:18 09.06.2019
6425 Rain 24 1026 43 16093 5.1 150 22:41 09.06.2019
6426 Clouds 24 1026 33 16093 4.6 120 22:21 09.06.2019
6427 Clear 24 1026 43 16093 5.7 160 21:40 09.06.2019
6428 Clouds 24 1026 31 16093 6.7 130 21:22 09.06.2019
6429 Clear 24 1026 40 16093 5.7 150 20:42 09.06.2019
6430 Clear 24 1026 40 16093 5.7 150 20:22 09.06.2019
6431 Clear 24 1027 38 16093 6.2 130 19:46 09.06.2019
6432 Clear 24 1027 38 16093 6.2 130 19:46 09.06.2019
6433 Clear 24 1027 38 16093 6.2 130 19:19 09.06.2019
6434 Clear 24 1027 38 16093 4.6 60 18:57 09.06.2019
6435 Clear 24 1027 40 16093 5.7 140 18:39 09.06.2019
6436 Clear 24 1027 41 16093 3.1 0 18:21 09.06.2019
6437 Clear 23 1026 38 16093 4.6 140 17:46 09.06.2019
6438 Clear 23 1026 38 16093 4.6 140 17:26 09.06.2019
6439 Clouds 23 1026 40 16093 4.1 90 16:54 09.06.2019
6440 Clear 23 1026 35 16093 5.1 150 16:36 09.06.2019
6441 Clear 22 1026 35 16093 5.1 150 16:18 09.06.2019
6442 -273 0 0 0 0 0 15:42 09.06.2019
6443 Clouds 20 1026 49 16093 4.6 70 15:20 09.06.2019
6444 Clear 19 1026 49 16093 3.6 80 14:43 09.06.2019
6445 Clouds 18 1026 59 16093 4.6 20 14:21 09.06.2019
6446 Clear 17 1026 59 16093 2.53 63.364 13:50 09.06.2019
6447 Clear 17 1026 59 16093 2.53 63.364 13:26 09.06.2019
6448 Clear 15 1025 59 16093 3.01 67.204 12:42 09.06.2019
6449 Clear 14 1025 59 16093 2.19 51.303 12:23 09.06.2019
6450 Clear 14 1024 55 16093 2.19 51.303 11:40 09.06.2019
6451 Clouds 14 1024 71 16093 4.6 20 11:21 09.06.2019
6452 Clear 14 1024 59 16093 2.21 55.728 10:46 09.06.2019
6453 Clear 14 1024 59 16093 2.21 55.728 10:23 09.06.2019
6454 Clear 14 1024 59 16093 2.21 55.728 10:23 09.06.2019
6455 Clear 14 1024 55 16093 2.21 55.728 09:41 09.06.2019
6456 Clear 14 1024 55 16093 2.21 55.728 09:41 09.06.2019
6457 Clouds 14 1024 59 16093 1.5 60 09:22 09.06.2019
6458 Clear 15 1024 55 16093 1.75 82.956 08:47 09.06.2019
6459 Clear 15 1024 55 16093 1.75 82.956 08:28 09.06.2019
6460 Clear 16 1024 59 16093 1.75 82.956 07:27 09.06.2019
6461 Clear 16 1024 59 16093 1.75 82.956 06:30 09.06.2019
6462 Clouds 18 1024 59 16093 1.5 80 04:59 09.06.2019
6463 Clear 22 1023 40 16093 3.6 160 01:39 09.06.2019
6464 Clear 23 1023 40 16093 3.6 160 01:21 09.06.2019
6465 Clear 24 1023 38 16093 1.5 0 00:59 09.06.2019
6466 Clear 25 1022 33 16093 5.7 160 23:56 08.06.2019
6467 Clear 25 1022 38 16093 6.2 150 23:38 08.06.2019
6468 Clear 25 1022 38 16093 6.2 150 23:19 08.06.2019
6469 Rain 26 1022 36 16093 5.7 140 22:42 08.06.2019
6470 Clouds 26 1021 39 16093 5.1 140 22:23 08.06.2019
6471 Clear 26 1022 38 16093 5.7 150 21:52 08.06.2019
6472 Clear 26 1022 36 16093 5.7 150 21:29 08.06.2019
6473 Clouds 26 1021 36 16093 3.6 140 20:59 08.06.2019
6474 Clear 26 1021 38 16093 6.2 160 20:40 08.06.2019
6475 Clouds 26 1021 32 16093 4.6 50 20:20 08.06.2019
6476 Clear 26 1021 41 16093 5.1 150 19:41 08.06.2019
6477 Clear 26 1022 31 16093 5.1 60 19:20 08.06.2019
6478 Clouds 26 1021 36 24140 5.1 100 18:58 08.06.2019
6479 Clear 26 1021 34 16093 3.6 130 18:38 08.06.2019
6480 Clear 25 1021 34 16093 3.6 130 18:18 08.06.2019
6481 Rain 25 1021 31 16093 4.6 100 17:41 08.06.2019
6482 Rain 25 1021 31 16093 4.6 100 17:18 08.06.2019
6483 Clear 25 1020 33 16093 6.2 90 16:44 08.06.2019
6484 Clear 25 1020 33 16093 6.2 90 16:44 08.06.2019
6485 Clear 24 1020 33 16093 6.2 90 16:20 08.06.2019
6486 Clear 23 1020 36 16093 5.7 90 15:39 08.06.2019
6487 Clouds 22 1020 49 16093 5.1 30 14:58 08.06.2019
6488 Clear 21 1019 49 16093 3.1 70 14:39 08.06.2019
6489 Clear 20 1019 49 16093 3.1 70 14:21 08.06.2019
6490 Mist 19 1019 60 16093 3.1 50 13:37 08.06.2019
6491 Mist 18 1019 100 3219 3.57 36.333 12:47 08.06.2019
6492 Mist 16 1019 100 3219 1.85 3.781 12:24 08.06.2019
6493 Mist 16 1018 93 11265 1.85 3.781 11:44 08.06.2019
6494 Mist 16 1018 93 11265 1.85 3.781 11:23 08.06.2019
6495 Fog 16 1017 93 8047 1.85 3.781 10:45 08.06.2019
6496 Fog 16 1017 93 8047 1.85 3.781 10:23 08.06.2019
6497 Fog 16 1017 93 8047 1.85 3.781 09:50 08.06.2019
6498 Fog 16 1016 93 805 0.94 341.894 09:24 08.06.2019
6499 Fog 17 1017 88 8047 0.94 341.894 08:35 08.06.2019
6500 Fog 17 1016 93 11265 0.94 341.894 07:59 08.06.2019
6501 Fog 17 1016 88 11265 1.42 17.786 06:51 08.06.2019
6502 Mist 18 1016 88 11265 0.38 333.299 05:49 08.06.2019
6503 Clear 20 1015 82 16093 0.38 333.299 03:32 08.06.2019
6504 Fog 22 1014 68 16093 2.1 110 01:59 08.06.2019
6505 Rain 24 1014 68 16093 0.98 3.449 00:29 08.06.2019
6506 Rain 25 1013 57 16093 0.98 3.449 23:47 07.06.2019
6507 Rain 25 1013 57 16093 0.98 3.449 23:20 07.06.2019
6508 Rain 25 1013 57 16093 0.98 3.449 23:20 07.06.2019
6509 Clear 26 1013 50 16093 3.1 180 22:47 07.06.2019
6510 Clear 26 1013 50 16093 3.6 170 22:25 07.06.2019
6511 Fog 26 1013 47 16093 3.1 160 21:54 07.06.2019
6512 Fog 26 1013 47 16093 3.1 160 21:54 07.06.2019
6513 Fog 26 1013 47 16093 3.1 160 21:31 07.06.2019
6514 Fog 26 1013 47 16093 3.1 160 21:31 07.06.2019
6515 Clouds 26 1013 42 16093 4.1 80 20:57 07.06.2019
6516 Clear 26 1014 44 16093 1.67 26.534 20:37 07.06.2019
6517 Clouds 26 1014 41 16093 3.6 120 19:51 07.06.2019
6518 Clouds 26 1014 41 16093 3.6 120 19:24 07.06.2019
6519 Clear 25 1015 57 16093 2.6 100 18:59 07.06.2019
6520 Clear 25 1014 41 16093 2.1 360 18:37 07.06.2019
6521 Clear 24 1014 41 16093 2.1 360 18:18 07.06.2019
6522 Clear 24 1014 44 16093 2.46 31.812 17:39 07.06.2019
6523 Clear 24 1014 44 16093 2.46 31.812 17:19 07.06.2019
6524 Rain 23 1013 47 16093 2.6 50 16:40 07.06.2019
6525 Rain 23 1013 47 16093 2.6 50 16:40 07.06.2019
6526 Clouds 23 1014 64 16093 3.6 60 15:54 07.06.2019
6527 Clear 22 1013 53 16093 2.39 7.852 15:23 07.06.2019
6528 Clear 21 1013 60 16093 2.6 20 14:49 07.06.2019
6529 Clear 21 1013 60 16093 3.1 30 14:27 07.06.2019
6530 Clear 20 1013 72 16093 2.39 7.852 13:52 07.06.2019
6531 Clear 19 1013 72 16093 2.39 7.852 13:27 07.06.2019
6532 Clear 18 1012 77 16093 2.18 359.027 12:51 07.06.2019
6533 Clear 18 1012 77 16093 1.46 340.178 12:25 07.06.2019
6534 Clouds 18 1012 82 16093 2.6 10 11:55 07.06.2019
6535 Clear 18 1012 77 16093 1.46 340.178 11:32 07.06.2019
6536 Clouds 18 1011 77 16093 2.6 30 10:58 07.06.2019
6537 Clear 18 1011 72 16093 1.46 340.178 10:39 07.06.2019
6538 Clouds 18 1011 77 16093 2.6 360 10:19 07.06.2019
6539 Clear 18 1011 72 16093 1.46 340.178 09:44 07.06.2019
6540 Clouds 19 1011 72 16093 2.6 20 09:21 07.06.2019
6541 Clear 19 1011 68 16093 2.6 20 08:43 07.06.2019
6542 Clear 19 1011 68 16093 2.6 20 08:25 07.06.2019
6543 Clear 19 1011 64 16093 1.66 342.864 07:48 07.06.2019
6544 Clear 20 1011 64 16093 1.66 342.864 07:22 07.06.2019
6545 Clear 20 1011 60 16093 1.66 342.864 06:47 07.06.2019
6546 Clear 20 1011 60 16093 1.66 342.864 06:47 07.06.2019
6547 Clear 21 1012 60 16093 1.84 340.472 06:22 07.06.2019
6548 Clear 21 1011 56 16093 1.84 340.472 05:43 07.06.2019
6549 Clouds 25 1009 44 16093 3.6 350 02:32 07.06.2019
6550 Clear 26 1009 42 16093 4.1 360 01:36 07.06.2019
6551 Clouds 27 1008 39 16093 3.6 310 00:45 07.06.2019
6552 Clouds 28 1008 39 16093 3.1 10 23:46 06.06.2019
6553 Clouds 28 1008 39 16093 3.1 10 23:24 06.06.2019
6554 Clouds 28 1007 45 16093 5.1 330 22:56 06.06.2019
6555 Clouds 28 1008 42 16093 3.6 310 22:36 06.06.2019
6556 Clouds 28 1007 45 16093 5.7 320 22:18 06.06.2019
6557 Clouds 28 1007 42 16093 4.6 340 21:43 06.06.2019
6558 Clouds 28 1007 45 16093 3.6 340 21:22 06.06.2019
6559 Clouds 28 1007 45 16093 3.6 340 20:55 06.06.2019
6560 Clouds 28 1007 45 16093 3.6 330 20:33 06.06.2019
6561 Clouds 27 1008 54 16093 4.1 40 19:58 06.06.2019
6562 Clouds 27 1007 48 16093 3.1 250 19:36 06.06.2019
6563 Clouds 27 1008 51 16093 2.6 0 19:18 06.06.2019
6564 Drizzle 27 1007 54 16093 4.6 330 18:43 06.06.2019
6565 Drizzle 27 1007 54 16093 4.6 330 18:23 06.06.2019
6566 Clouds 27 1007 57 16093 3.1 320 17:48 06.06.2019
6567 Clouds 27 1007 57 16093 3.1 320 17:24 06.06.2019
6568 Clouds 26 1007 61 16093 3.1 330 16:56 06.06.2019
6569 Clouds 26 1006 57 16093 2.1 340 16:38 06.06.2019
6570 Clouds 26 1006 57 16093 2.1 340 16:20 06.06.2019
6571 Mist 25 1006 65 16093 4.1 270 15:40 06.06.2019
6572 Mist 24 1005 73 16093 5.1 250 15:21 06.06.2019
6573 Mist 23 1006 83 16093 3 298.716 14:43 06.06.2019
6574 Mist 23 1006 83 16093 3 298.716 14:20 06.06.2019
6575 Mist 22 1006 88 16093 3 298.716 13:50 06.06.2019
6576 Mist 22 1006 88 16093 3 298.716 13:30 06.06.2019
6577 Mist 21 1006 94 6437 3.1 0 12:48 06.06.2019
6578 Mist 21 1006 94 6437 3.1 0 12:29 06.06.2019
6579 Mist 21 1006 94 8047 3.6 240 11:58 06.06.2019
6580 Mist 21 1006 94 8047 3.6 240 11:58 06.06.2019
6581 Mist 21 1005 94 11265 1.9 263.002 11:40 06.06.2019
6582 Mist 21 1005 94 11265 1.9 263.002 11:40 06.06.2019
6583 Mist 21 1005 94 11265 1.9 263.002 11:21 06.06.2019
6584 Mist 21 1005 94 16093 2.6 270 10:45 06.06.2019
6585 Mist 21 1005 94 16093 2.6 270 10:25 06.06.2019
6586 Rain 21 1005 88 11265 1.9 263.002 09:44 06.06.2019
6587 Rain 21 1005 88 11265 2.28 239.118 09:24 06.06.2019
6588 Rain 21 1005 94 16093 3.6 200 08:51 06.06.2019
6589 Rain 21 1006 88 8047 2.6 250 08:26 06.06.2019
6590 Rain 21 1007 88 16093 5.1 260 07:54 06.06.2019
6591 Rain 22 1007 88 16093 5.7 240 07:26 06.06.2019
6592 Clouds 22 1007 83 16093 3.1 260 06:48 06.06.2019
6593 Rain 22 1007 83 16093 5.1 200 05:41 06.06.2019
6594 Rain 23 1008 78 16093 2.6 230 04:38 06.06.2019
6595 Rain 25 1007 65 16093 3.1 200 02:23 06.06.2019
6596 Clouds 24 1006 61 16093 5.7 180 01:55 06.06.2019
6597 Clouds 25 1008 57 14484 3.36 217.109 01:18 06.06.2019
6598 Clear 26 1007 51 16093 2.6 230 00:31 06.06.2019
6599 Clouds 27 1008 45 16093 5.1 260 23:42 05.06.2019
6600 Clouds 27 1008 57 16093 4.52 234.029 23:23 05.06.2019
6601 Clouds 27 1008 54 24140 5.7 210 22:55 05.06.2019
6602 Clouds 28 1008 45 16093 4.52 234.029 22:36 05.06.2019
6603 Clouds 27 1010 57 16093 2.1 0 22:18 05.06.2019
6604 Clear 28 1009 39 16093 1.5 260 21:42 05.06.2019
6605 Clear 28 1011 51 16093 2.1 0 21:23 05.06.2019
6606 Clear 28 1010 42 16093 3.6 280 20:44 05.06.2019
6607 Clear 28 1010 42 16093 3.6 280 20:25 05.06.2019
6608 Clear 27 1011 47 16093 2.1 270 19:44 05.06.2019
6609 Clear 26 1012 47 16093 5.05 227.899 19:20 05.06.2019
6610 Clear 25 1012 50 16093 3.6 290 18:48 05.06.2019
6611 Clear 25 1012 50 16093 3.6 290 18:30 05.06.2019
6612 Clear 23 1013 73 16093 3.1 230 17:51 05.06.2019
6613 Clear 23 1013 73 16093 3.1 230 17:25 05.06.2019
6614 Clear 21 1013 64 16093 3.1 280 16:44 05.06.2019
6615 Clear 21 1013 64 16093 3.1 280 16:22 05.06.2019
6616 Clouds 20 1013 64 16093 3.6 220 15:55 05.06.2019
6617 Clouds 20 1014 68 16093 3.82 228.526 15:36 05.06.2019
6618 Rain 19 1014 72 16093 3.1 210 15:18 05.06.2019
6619 Rain 19 1014 68 16093 3.32 234.535 14:39 05.06.2019
6620 Rain 18 1014 68 16093 3.32 234.535 14:20 05.06.2019
6621 Rain 18 1015 68 16093 3.32 234.535 13:46 05.06.2019
6622 Rain 18 1015 68 16093 3.32 234.535 13:24 05.06.2019
6623 Rain 17 1014 68 16093 4.01 240.321 12:51 05.06.2019
6624 Rain 18 1015 68 16093 3.95 235.615 12:28 05.06.2019
6625 Rain 18 1014 68 16093 5.7 220 11:59 05.06.2019
6626 Rain 18 1014 63 16093 3.95